DL1281 / N142DU 7700 Squawk Report (19th of August, 2022)

Time Lat Lon Altitude Heading Speed Vertical Rate
2022-08-20 05:03:43 GMT 29.993420 -90.252998 0 272 0 0
2022-08-20 05:03:41 GMT 29.993410 -90.252991 0 272 0 0
2022-08-20 05:03:38 GMT 29.993420 -90.252991 0 272 0 0
2022-08-20 05:03:36 GMT 29.993401 -90.252991 0 272 1 0
2022-08-20 05:03:35 GMT 29.993410 -90.252991 0 272 1 0
2022-08-20 05:03:34 GMT 29.993410 -90.252998 0 272 1 0
2022-08-20 05:03:32 GMT 29.993420 -90.252998 0 272 1 0
2022-08-20 05:03:30 GMT 29.993429 -90.252998 0 272 1 0
2022-08-20 05:03:28 GMT 29.993429 -90.253014 0 272 1 0
2022-08-20 05:03:27 GMT 29.993500 -90.253036 0 272 1 0
2022-08-20 05:03:23 GMT 29.993740 -90.253151 0 272 1 0
2022-08-20 05:03:20 GMT 29.993750 -90.253151 0 272 0 0
2022-08-20 05:03:19 GMT 29.993759 -90.253151 0 272 0 0
2022-08-20 05:03:16 GMT 29.993759 -90.253159 0 272 0 0
2022-08-20 05:03:15 GMT 29.993759 -90.253166 0 272 1 0
2022-08-20 05:03:13 GMT 29.993759 -90.253166 0 272 1 0
2022-08-20 05:03:12 GMT 29.993771 -90.253159 0 272 1 0
2022-08-20 05:03:11 GMT 29.993771 -90.253143 0 272 0 0
2022-08-20 05:03:10 GMT 29.993790 -90.253143 0 272 1 0
2022-08-20 05:03:07 GMT 29.993790 -90.253128 0 272 2 0
2022-08-20 05:03:05 GMT 29.993790 -90.253143 0 270 3 0
2022-08-20 05:03:04 GMT 29.993780 -90.253159 0 266 4 0
2022-08-20 05:03:03 GMT 29.993629 -90.253189 0 266 5 0
2022-08-20 05:03:01 GMT 29.993641 -90.253166 0 266 5 0
2022-08-20 05:03:00 GMT 29.993660 -90.253151 0 266 5 0
2022-08-20 05:02:58 GMT 29.993690 -90.253120 0 266 5 0
2022-08-20 05:02:57 GMT 29.993771 -90.253113 0 266 3 0
2022-08-20 05:02:56 GMT 29.993771 -90.253090 0 266 3 0
2022-08-20 05:02:54 GMT 29.993759 -90.253082 0 264 4 0
2022-08-20 05:02:53 GMT 29.993740 -90.253052 0 262 4 0
2022-08-20 05:02:52 GMT 29.993740 -90.253029 0 262 4 0
2022-08-20 05:02:50 GMT 29.993740 -90.253014 0 259 5 0
2022-08-20 05:02:49 GMT 29.993750 -90.252998 0 257 6 0
2022-08-20 05:02:48 GMT 29.993740 -90.252968 0 255 6 0
2022-08-20 05:02:47 GMT 29.993750 -90.252922 0 253 7 0
2022-08-20 05:02:45 GMT 29.993750 -90.252869 0 252 6 0
2022-08-20 05:02:44 GMT 29.993759 -90.252823 0 250 6 0
2022-08-20 05:02:43 GMT 29.993771 -90.252762 0 248 6 0
2022-08-20 05:02:41 GMT 29.993771 -90.252708 0 254 6 0
2022-08-20 05:02:40 GMT 29.993780 -90.252693 0 266 6 0
2022-08-20 05:02:38 GMT 29.993820 -90.252632 0 287 4 0
2022-08-20 05:02:37 GMT 29.993830 -90.252617 0 296 4 0
2022-08-20 05:02:36 GMT 29.993860 -90.252632 0 323 6 0
2022-08-20 05:02:34 GMT 29.993891 -90.252571 0 330 6 0
2022-08-20 05:02:33 GMT 29.993879 -90.252541 0 339 6 0
2022-08-20 05:02:32 GMT 29.993900 -90.252434 0 339 5 0
2022-08-20 05:02:31 GMT 29.993860 -90.252419 0 336 5 0
2022-08-20 05:02:29 GMT 29.993839 -90.252449 0 335 6 0
2022-08-20 05:02:28 GMT 29.993811 -90.252434 0 337 7 0
2022-08-20 05:02:26 GMT 29.993771 -90.252327 0 356 7 0
2022-08-20 05:02:25 GMT 29.993740 -90.252319 0 359 7 0
2022-08-20 05:02:24 GMT 29.993710 -90.252296 0 1 7 0
2022-08-20 05:02:23 GMT 29.993650 -90.252319 0 357 8 0
2022-08-20 05:02:21 GMT 29.993610 -90.252319 0 357 8 0
2022-08-20 05:02:20 GMT 29.993601 -90.252342 0 356 9 0
2022-08-20 05:02:19 GMT 29.993580 -90.252350 0 356 9 0
2022-08-20 05:02:18 GMT 29.993481 -90.252342 0 358 8 0
2022-08-20 05:02:16 GMT 29.993450 -90.252327 0 359 8 0
2022-08-20 05:02:15 GMT 29.993410 -90.252327 0 0 8 0
2022-08-20 05:02:13 GMT 29.993330 -90.252327 0 2 9 0
2022-08-20 05:02:12 GMT 29.993290 -90.252312 0 4 8 0
2022-08-20 05:02:11 GMT 29.993259 -90.252289 0 8 10 0
2022-08-20 05:02:09 GMT 29.993191 -90.252274 0 12 10 0
2022-08-20 05:02:08 GMT 29.993151 -90.252274 0 12 11 0
2022-08-20 05:02:07 GMT 29.993099 -90.252281 0 13 11 0
2022-08-20 05:02:06 GMT 29.993050 -90.252289 0 16 10 0
2022-08-20 05:02:04 GMT 29.992950 -90.252289 0 25 10 0
2022-08-20 05:02:03 GMT 29.992901 -90.252281 0 30 11 0
2022-08-20 05:02:02 GMT 29.992861 -90.252296 0 30 11 0
2022-08-20 05:02:01 GMT 29.992769 -90.252380 0 31 11 0
2022-08-20 05:01:59 GMT 29.992729 -90.252403 0 32 11 0
2022-08-20 05:01:58 GMT 29.992680 -90.252411 0 35 11 0
2022-08-20 05:01:57 GMT 29.992640 -90.252457 0 31 11 0
2022-08-20 05:01:55 GMT 29.992550 -90.252518 0 31 10 0
2022-08-20 05:01:54 GMT 29.992519 -90.252548 0 23 11 0
2022-08-20 05:01:53 GMT 29.992479 -90.252602 0 18 9 0
2022-08-20 05:01:52 GMT 29.992430 -90.252632 0 15 14 0
2022-08-20 05:01:50 GMT 29.992359 -90.252663 0 3 12 0
2022-08-20 05:01:49 GMT 29.992310 -90.252701 0 350 11 0
2022-08-20 05:01:47 GMT 29.992189 -90.252693 0 337 9 0
2022-08-20 05:01:46 GMT 29.992140 -90.252693 0 330 9 0
2022-08-20 05:01:45 GMT 29.992100 -90.252670 0 328 9 0
2022-08-20 05:01:44 GMT 29.992020 -90.252640 0 321 9 0
2022-08-20 05:01:42 GMT 29.991989 -90.252609 0 319 10 0
2022-08-20 05:01:41 GMT 29.991949 -90.252571 0 299 8 0
2022-08-20 05:01:39 GMT 29.991859 -90.252533 0 264 10 0
2022-08-20 05:01:38 GMT 29.991880 -90.252434 0 279 11 0
2022-08-20 05:01:36 GMT 29.991911 -90.252357 0 292 11 0
2022-08-20 05:01:35 GMT 29.991911 -90.252289 0 289 10 0
2022-08-20 05:01:34 GMT 29.991850 -90.252197 0 272 13 0
2022-08-20 05:01:32 GMT 29.991850 -90.252129 0 273 12 0
2022-08-20 05:01:31 GMT 29.991850 -90.252068 0 274 13 0
2022-08-20 05:01:30 GMT 29.991850 -90.252007 0 274 13 0
2022-08-20 05:01:28 GMT 29.991831 -90.251862 0 272 13 0
2022-08-20 05:01:27 GMT 29.991831 -90.251778 0 273 12 0
2022-08-20 05:01:26 GMT 29.991831 -90.251709 0 273 12 0
2022-08-20 05:01:25 GMT 29.991831 -90.251579 0 274 11 0
2022-08-20 05:01:23 GMT 29.991819 -90.251534 0 274 12 0
2022-08-20 05:01:21 GMT 29.991810 -90.251411 0 274 12 0
2022-08-20 05:01:20 GMT 29.991800 -90.251343 0 273 12 0
2022-08-20 05:01:19 GMT 29.991800 -90.251289 0 274 13 0
2022-08-20 05:01:18 GMT 29.991800 -90.251137 0 279 13 0
2022-08-20 05:01:16 GMT 29.991800 -90.251068 0 281 12 0
2022-08-20 05:01:15 GMT 29.991800 -90.250992 0 285 11 0
2022-08-20 05:01:13 GMT 29.991760 -90.250893 0 290 13 0
2022-08-20 05:01:12 GMT 29.991760 -90.250801 0 311 11 0
2022-08-20 05:01:10 GMT 29.991739 -90.250671 0 353 8 0
2022-08-20 05:01:09 GMT 29.991720 -90.250679 0 359 11 0
2022-08-20 05:01:08 GMT 29.991690 -90.250633 0 9 12 0
2022-08-20 05:01:06 GMT 29.991570 -90.250641 0 11 13 0
2022-08-20 05:01:05 GMT 29.991510 -90.250664 0 11 12 0
2022-08-20 05:01:04 GMT 29.991449 -90.250671 0 12 12 0
2022-08-20 05:01:02 GMT 29.991341 -90.250687 0 18 12 0
2022-08-20 05:01:01 GMT 29.991280 -90.250710 0 15 10 0
2022-08-20 05:01:00 GMT 29.991261 -90.250732 0 6 14 0
2022-08-20 05:00:58 GMT 29.991119 -90.250763 0 1 12 0
2022-08-20 05:00:57 GMT 29.991079 -90.250717 0 19 16 0
2022-08-20 05:00:56 GMT 29.991020 -90.250740 0 20 16 0
2022-08-20 05:00:54 GMT 29.990879 -90.250801 0 21 17 0
2022-08-20 05:00:53 GMT 29.990801 -90.250832 0 22 16 0
2022-08-20 05:00:52 GMT 29.990730 -90.250877 0 17 16 0
2022-08-20 05:00:51 GMT 29.990660 -90.250931 0 10 16 0
2022-08-20 05:00:49 GMT 29.990530 -90.250954 0 13 16 0
2022-08-20 05:00:48 GMT 29.990450 -90.250961 0 15 16 0
2022-08-20 05:00:47 GMT 29.990311 -90.250999 0 17 17 0
2022-08-20 05:00:45 GMT 29.990240 -90.251022 0 18 17 0
2022-08-20 05:00:44 GMT 29.990160 -90.251038 0 19 17 0
2022-08-20 05:00:43 GMT 29.990009 -90.251106 0 16 16 0
2022-08-20 05:00:41 GMT 29.989941 -90.251137 0 14 16 0
2022-08-20 05:00:40 GMT 29.989870 -90.251152 0 17 17 0
2022-08-20 05:00:38 GMT 29.989740 -90.251213 0 4 21 0
2022-08-20 05:00:37 GMT 29.989630 -90.251198 0 19 19 0
2022-08-20 05:00:36 GMT 29.989519 -90.251213 0 29 14 0
2022-08-20 05:00:34 GMT 29.989401 -90.251312 0 20 16 0
2022-08-20 05:00:33 GMT 29.989330 -90.251381 0 352 14 0
2022-08-20 05:00:32 GMT 29.989260 -90.251381 0 350 12 0
2022-08-20 05:00:30 GMT 29.989140 -90.251320 0 23 12 0
2022-08-20 05:00:29 GMT 29.989090 -90.251320 0 24 13 0
2022-08-20 05:00:28 GMT 29.989050 -90.251343 0 26 16 0
2022-08-20 05:00:27 GMT 29.988911 -90.251450 0 15 12 0
2022-08-20 05:00:25 GMT 29.988850 -90.251457 0 17 11 0
2022-08-20 05:00:23 GMT 29.988750 -90.251503 0 15 12 0
2022-08-20 05:00:22 GMT 29.988710 -90.251518 0 15 12 0
2022-08-20 05:00:21 GMT 29.988649 -90.251541 0 13 13 0
2022-08-20 05:00:19 GMT 29.988541 -90.251572 0 10 14 0
2022-08-20 05:00:18 GMT 29.988480 -90.251587 0 0 11 0
2022-08-20 05:00:17 GMT 29.988440 -90.251610 0 353 13 0
2022-08-20 05:00:15 GMT 29.988310 -90.251633 0 325 14 0
2022-08-20 05:00:14 GMT 29.988251 -90.251572 0 322 11 0
2022-08-20 05:00:13 GMT 29.988199 -90.251541 0 308 10 0
2022-08-20 05:00:11 GMT 29.988110 -90.251480 0 291 9 0
2022-08-20 05:00:10 GMT 29.988091 -90.251442 0 288 10 0
2022-08-20 05:00:09 GMT 29.988079 -90.251411 0 286 12 0
2022-08-20 05:00:07 GMT 29.988050 -90.251297 0 286 12 0
2022-08-20 05:00:06 GMT 29.988041 -90.251259 0 284 14 0
2022-08-20 05:00:05 GMT 29.988020 -90.251190 0 284 15 0
2022-08-20 05:00:04 GMT 29.987980 -90.250999 0 274 9 0
2022-08-20 05:00:02 GMT 29.987989 -90.250999 0 283 15 0
2022-08-20 05:00:01 GMT 29.987949 -90.250923 0 270 14 0
2022-08-20 04:59:59 GMT 29.987909 -90.250771 0 241 15 0
2022-08-20 04:59:58 GMT 29.987940 -90.250687 0 237 15 0
2022-08-20 04:59:57 GMT 29.987980 -90.250610 0 237 14 0
2022-08-20 04:59:56 GMT 29.988060 -90.250488 0 239 14 0
2022-08-20 04:59:54 GMT 29.988100 -90.250351 0 213 16 0
2022-08-20 04:59:53 GMT 29.988150 -90.250298 0 205 16 0
2022-08-20 04:59:51 GMT 29.988199 -90.250237 0 193 18 0
2022-08-20 04:59:50 GMT 29.988251 -90.250229 0 193 23 0
2022-08-20 04:59:49 GMT 29.988449 -90.250183 0 194 25 0
2022-08-20 04:59:47 GMT 29.988550 -90.250130 0 192 26 0
2022-08-20 04:59:46 GMT 29.988661 -90.250099 0 189 26 0
2022-08-20 04:59:44 GMT 29.988911 -90.250069 0 201 32 0
2022-08-20 04:59:43 GMT 29.989019 -90.250008 0 198 37 0
2022-08-20 04:59:42 GMT 29.989170 -90.249947 0 196 40 0
2022-08-20 04:59:41 GMT 29.989519 -90.249832 0 195 42 0
2022-08-20 04:59:39 GMT 29.989679 -90.249771 0 194 46 0
2022-08-20 04:59:38 GMT 29.990089 -90.249702 0 200 54 0
2022-08-20 04:59:36 GMT 29.990311 -90.249573 0 195 55 0
2022-08-20 04:59:35 GMT 29.990540 -90.249481 0 193 57 0
2022-08-20 04:59:34 GMT 29.990761 -90.249413 0 192 64 0
2022-08-20 04:59:32 GMT 29.991289 -90.249298 0 196 77 0
2022-08-20 04:59:31 GMT 29.991600 -90.249207 0 197 82 0
2022-08-20 04:59:30 GMT 29.991920 -90.249046 0 195 86 0
2022-08-20 04:59:29 GMT 29.992279 -90.248909 0 193 88 0
2022-08-20 04:59:27 GMT 29.993031 -90.248756 -125 197 103 0
2022-08-20 04:59:26 GMT 29.993460 -90.248581 -125 196 105 0
2022-08-20 04:59:25 GMT 29.993900 -90.248428 -125 197 112 0
2022-08-20 04:59:23 GMT 29.994841 -90.248009 -125 193 122 -576
2022-08-20 04:59:22 GMT 29.995380 -90.247833 -125 192 123 -576
2022-08-20 04:59:21 GMT 29.995930 -90.247681 -125 192 123 -576
2022-08-20 04:59:20 GMT 29.996450 -90.247528 -125 191 131 -576
2022-08-20 04:59:18 GMT 29.997650 -90.247330 -125 196 134 -576
2022-08-20 04:59:17 GMT 29.998270 -90.247124 -125 197 131 -576
2022-08-20 04:59:16 GMT 29.998831 -90.246941 -100 197 135 -576
2022-08-20 04:59:14 GMT 30.000010 -90.246490 -100 195 137 -576
2022-08-20 04:59:13 GMT 30.000610 -90.246277 -100 195 138 -576
2022-08-20 04:59:12 GMT 30.001230 -90.246063 -75 195 137 -576
2022-08-20 04:59:11 GMT 30.002451 -90.245667 -50 194 137 -576
2022-08-20 04:59:09 GMT 30.003059 -90.245468 -50 194 138 -576
2022-08-20 04:59:08 GMT 30.003679 -90.245277 -25 194 137 -576
2022-08-20 04:59:06 GMT 30.004940 -90.244911 0 195 134 -576
2022-08-20 04:59:05 GMT 30.005550 -90.244751 0 195 134 -576
2022-08-20 04:59:04 GMT 30.006161 -90.244553 25 195 134 -576
2022-08-20 04:59:02 GMT 30.007360 -90.244148 50 195 133 -576
2022-08-20 04:59:01 GMT 30.007950 -90.243942 50 194 133 -576
2022-08-20 04:59:00 GMT 30.009150 -90.243561 75 194 133 -576
2022-08-20 04:58:58 GMT 30.009760 -90.243370 75 194 132 -576
2022-08-20 04:58:57 GMT 30.010349 -90.243240 100 195 133 -576
2022-08-20 04:58:56 GMT 30.010929 -90.243042 100 194 134 -576
2022-08-20 04:58:54 GMT 30.012159 -90.242699 125 195 132 -576
2022-08-20 04:58:53 GMT 30.012760 -90.242523 125 195 132 -576
2022-08-20 04:58:52 GMT 30.013359 -90.242332 150 195 131 -576
2022-08-20 04:58:50 GMT 30.014540 -90.241966 175 195 131 -576
2022-08-20 04:58:49 GMT 30.015100 -90.241783 175 195 132 -576
2022-08-20 04:58:48 GMT 30.015690 -90.241600 200 195 132 -576
2022-08-20 04:58:47 GMT 30.016870 -90.241226 225 195 132 -576
2022-08-20 04:58:45 GMT 30.017460 -90.241051 225 196 133 -576
2022-08-20 04:58:44 GMT 30.018061 -90.240868 250 196 132 -576
2022-08-20 04:58:42 GMT 30.019239 -90.240471 250 196 132 -576
2022-08-20 04:58:41 GMT 30.019831 -90.240280 275 196 132 -576
2022-08-20 04:58:40 GMT 30.020411 -90.240059 300 196 132 -576
2022-08-20 04:58:38 GMT 30.021610 -90.239662 300 196 131 -576
2022-08-20 04:58:37 GMT 30.022190 -90.239471 325 196 132 -576
2022-08-20 04:58:36 GMT 30.022770 -90.239273 350 196 132 -576
2022-08-20 04:58:34 GMT 30.023930 -90.238838 350 195 132 -576
2022-08-20 04:58:33 GMT 30.024509 -90.238663 375 195 133 -576
2022-08-20 04:58:32 GMT 30.025089 -90.238472 375 194 133 -576
2022-08-20 04:58:30 GMT 30.026279 -90.238113 400 195 133 -576
2022-08-20 04:58:29 GMT 30.026911 -90.237907 400 195 131 -576
2022-08-20 04:58:28 GMT 30.027510 -90.237717 425 195 130 -576
2022-08-20 04:58:26 GMT 30.028641 -90.237373 500 195 132 -576
2022-08-20 04:58:25 GMT 30.029230 -90.237183 450 195 132 -576
2022-08-20 04:58:24 GMT 30.029831 -90.237000 450 195 132 -576
2022-08-20 04:58:22 GMT 30.031031 -90.236671 475 196 132 -576
2022-08-20 04:58:21 GMT 30.031610 -90.236443 500 195 131 -576
2022-08-20 04:58:20 GMT 30.032810 -90.236099 525 196 130 -576
2022-08-20 04:58:18 GMT 30.033381 -90.235924 525 196 131 -576
2022-08-20 04:58:17 GMT 30.033970 -90.235718 550 197 130 -576
2022-08-20 04:58:15 GMT 30.035120 -90.235298 550 195 130 -576
2022-08-20 04:58:14 GMT 30.035690 -90.235100 575 195 131 -576
2022-08-20 04:58:13 GMT 30.036280 -90.234894 575 194 131 -576
2022-08-20 04:58:11 GMT 30.037479 -90.234543 600 195 129 -576
2022-08-20 04:58:10 GMT 30.038059 -90.234367 625 195 129 -576
2022-08-20 04:58:09 GMT 30.039230 -90.234001 625 195 129 -576
2022-08-20 04:58:07 GMT 30.039801 -90.233810 650 195 129 -576
2022-08-20 04:58:05 GMT 30.040939 -90.233437 675 195 130 -576
2022-08-20 04:58:04 GMT 30.041519 -90.233253 675 195 130 -576
2022-08-20 04:58:03 GMT 30.042110 -90.233047 700 194 129 -576
2022-08-20 04:58:01 GMT 30.043280 -90.232727 725 195 129 -576
2022-08-20 04:58:00 GMT 30.043850 -90.232536 725 195 129 -576
2022-08-20 04:57:59 GMT 30.045000 -90.232178 750 195 129 -576
2022-08-20 04:57:57 GMT 30.045589 -90.231987 750 195 129 -576
2022-08-20 04:57:56 GMT 30.046160 -90.231796 775 195 129 -576
2022-08-20 04:57:55 GMT 30.046749 -90.231613 775 195 129 -576
2022-08-20 04:57:54 GMT 30.047899 -90.231247 800 195 129 -576
2022-08-20 04:57:52 GMT 30.048491 -90.231056 800 195 128 -576
2022-08-20 04:57:51 GMT 30.049061 -90.230888 825 195 128 -576
2022-08-20 04:57:50 GMT 30.049650 -90.230713 825 195 128 -576
2022-08-20 04:57:48 GMT 30.050779 -90.230362 850 195 129 -576
2022-08-20 04:57:47 GMT 30.051340 -90.230179 850 195 129 -576
2022-08-20 04:57:45 GMT 30.052490 -90.229813 875 195 129 -576
2022-08-20 04:57:44 GMT 30.053070 -90.229607 900 195 129 -576
2022-08-20 04:57:43 GMT 30.053640 -90.229439 900 195 129 -576
2022-08-20 04:57:42 GMT 30.054220 -90.229248 925 195 129 -576
2022-08-20 04:57:41 GMT 30.054790 -90.229057 925 195 129 -576
2022-08-20 04:57:39 GMT 30.055941 -90.228691 950 195 130 -576
2022-08-20 04:57:38 GMT 30.056499 -90.228500 975 195 130 -576
2022-08-20 04:57:37 GMT 30.057091 -90.228310 975 195 130 -576
2022-08-20 04:57:36 GMT 30.058250 -90.227943 1,000 195 130 -832
2022-08-20 04:57:34 GMT 30.058840 -90.227760 1,000 195 130 -832
2022-08-20 04:57:33 GMT 30.059420 -90.227570 1,025 195 129 -832
2022-08-20 04:57:32 GMT 30.059980 -90.227402 1,025 195 130 -832
2022-08-20 04:57:30 GMT 30.061140 -90.227043 1,050 195 130 -832
2022-08-20 04:57:29 GMT 30.061720 -90.226860 1,075 195 131 -832
2022-08-20 04:57:28 GMT 30.062309 -90.226669 1,075 195 130 -832
2022-08-20 04:57:27 GMT 30.062889 -90.226471 1,100 195 130 -832
2022-08-20 04:57:25 GMT 30.064051 -90.226097 1,125 195 131 -832
2022-08-20 04:57:24 GMT 30.064619 -90.225922 1,125 195 131 -832
2022-08-20 04:57:22 GMT 30.065781 -90.225540 1,150 195 132 -832
2022-08-20 04:57:21 GMT 30.066380 -90.225342 1,200 195 131 -832
2022-08-20 04:57:20 GMT 30.067539 -90.224983 1,175 195 132 -832
2022-08-20 04:57:18 GMT 30.068130 -90.224800 1,200 195 132 -832
2022-08-20 04:57:17 GMT 30.068720 -90.224609 1,200 195 132 -832
2022-08-20 04:57:16 GMT 30.069901 -90.224228 1,225 195 132 -832
2022-08-20 04:57:14 GMT 30.070480 -90.224060 1,225 195 133 -832
2022-08-20 04:57:13 GMT 30.071671 -90.223671 1,250 195 133 -832
2022-08-20 04:57:11 GMT 30.072260 -90.223480 1,275 195 133 -832
2022-08-20 04:57:10 GMT 30.072849 -90.223312 1,275 195 133 -832
2022-08-20 04:57:09 GMT 30.073429 -90.223129 1,275 195 134 -832
2022-08-20 04:57:08 GMT 30.074619 -90.222748 1,300 195 134 -832
2022-08-20 04:57:06 GMT 30.075230 -90.222557 1,325 195 134 -832
2022-08-20 04:57:05 GMT 30.075809 -90.222366 1,325 195 135 -832
2022-08-20 04:57:03 GMT 30.077000 -90.222000 1,350 195 136 -832
2022-08-20 04:57:02 GMT 30.077579 -90.221817 1,350 195 137 -832
2022-08-20 04:57:01 GMT 30.078180 -90.221619 1,375 195 137 -832
2022-08-20 04:56:59 GMT 30.079399 -90.221222 1,400 195 138 -832
2022-08-20 04:56:58 GMT 30.080000 -90.221024 1,400 195 138 -832
2022-08-20 04:56:57 GMT 30.080629 -90.220840 1,425 195 138 -832
2022-08-20 04:56:56 GMT 30.081850 -90.220467 1,450 195 139 -832
2022-08-20 04:56:54 GMT 30.082470 -90.220261 1,450 195 139 -832
2022-08-20 04:56:53 GMT 30.083071 -90.220039 1,475 195 141 -832
2022-08-20 04:56:51 GMT 30.084339 -90.219673 1,500 195 140 -832
2022-08-20 04:56:50 GMT 30.084940 -90.219490 1,500 196 143 -832
2022-08-20 04:56:49 GMT 30.085569 -90.219292 1,525 196 144 -832
2022-08-20 04:56:47 GMT 30.086800 -90.218979 1,550 201 158 -832
2022-08-20 04:56:46 GMT 30.087481 -90.218788 1,550 204 162 -832
2022-08-20 04:56:26 GMT 30.100279 -90.215279 1,900 198 164
2022-08-20 04:53:40 GMT 30.218124 -90.164368 4,100 248 171 -896
2022-08-20 04:53:31 GMT 30.220871 -90.156013 4,250 250 174 -960
2022-08-20 04:53:03 GMT 30.228556 -90.131889 4,550 251 178 -768
2022-08-20 04:53:01 GMT 30.229395 -90.129196 4,625 252 178 -768
2022-08-20 04:52:37 GMT 30.234009 -90.108032 4,850 262 178 -832
2022-08-20 04:52:28 GMT 30.234653 -90.098160 5,075 271 181 -1472
2022-08-20 04:52:17 GMT 30.232498 -90.088432 5,300 293 184 -1152
2022-08-20 04:52:09 GMT 30.229069 -90.081406 5,325 303 187 -256
2022-08-20 04:51:59 GMT 30.223892 -90.072220 5,450 304 188 -1024
2022-08-20 04:51:48 GMT 30.219246 -90.063995 5,600 304 189 -960
2022-08-20 04:51:37 GMT 30.213985 -90.054657 5,750 304 189 -960
2022-08-20 04:51:27 GMT 30.208923 -90.045670 5,925 304 190 -960
2022-08-20 04:51:16 GMT 30.204069 -90.037025 6,075 303 191 -960
2022-08-20 04:51:06 GMT 30.199461 -90.028343 6,225 300 189 -960
2022-08-20 04:50:57 GMT 30.195829 -90.019005 6,375 282 185 -1088
2022-08-20 04:50:44 GMT 30.194340 -90.007469 6,600 278 185 -1216
2022-08-20 04:50:35 GMT 30.193314 -89.998711 6,750 278 186 -1216
2022-08-20 04:50:22 GMT 30.191803 -89.985458 7,025 278 187 -1216
2022-08-20 04:50:14 GMT 30.190943 -89.977806 7,150 278 187 -1216
2022-08-20 04:50:05 GMT 30.189825 -89.967812 7,375 278 190 -1536
2022-08-20 04:49:54 GMT 30.188553 -89.956703 7,625 278 195 -1408
2022-08-20 04:49:43 GMT 30.187271 -89.945557 7,850 278 202 -1280
2022-08-20 04:49:33 GMT 30.185852 -89.933220 8,075 278 210 -1344
2022-08-20 04:49:23 GMT 30.184704 -89.923042 8,350 278 239 -1088
2022-08-20 04:49:10 GMT 30.182888 -89.907166 8,450 278 239 -1088
2022-08-20 04:49:03 GMT 30.181824 -89.898056 8,575 278 238 -1088
2022-08-20 04:48:51 GMT 30.180267 -89.883942 8,750 278 245 -1152
2022-08-20 04:48:41 GMT 30.178802 -89.870964 8,900 278 255 -640
2022-08-20 04:48:31 GMT 30.177200 -89.856911 9,000 278 265 -832
2022-08-20 04:48:21 GMT 30.175440 -89.841354 9,175 278 272 -1472
2022-08-20 04:48:11 GMT 30.173811 -89.827133 9,400 278 277 -1472
2022-08-20 04:48:00 GMT 30.171947 -89.811089 9,675 278 283 -1600
2022-08-20 04:47:53 GMT 30.170645 -89.799667 9,850 278 286 -1664
2022-08-20 04:47:49 GMT 30.170151 -89.795296 9,925 278 287 -1536
2022-08-20 04:47:40 GMT 30.168320 -89.779411 10,175 278 290 -1600
2022-08-20 04:47:28 GMT 30.166626 -89.762985 10,450 277 293 -1664
2022-08-20 04:47:19 GMT 30.165573 -89.747910 10,700 272 296 -1664
2022-08-20 04:47:09 GMT 30.166409 -89.731987 10,950 262 298 -1600
2022-08-20 04:46:58 GMT 30.170013 -89.715378 11,200 251 302 -1792
2022-08-20 04:46:48 GMT 30.175552 -89.699707 11,525 247 305 -1856
2022-08-20 04:46:38 GMT 30.181549 -89.683823 11,825 247 307 -1664
2022-08-20 04:46:27 GMT 30.187225 -89.668686 12,050 247 310 -1728
2022-08-20 04:46:17 GMT 30.192944 -89.653488 12,325 247 317 -1856
2022-08-20 04:46:07 GMT 30.199507 -89.635857 12,650 247 331 -1856
2022-08-20 04:45:56 GMT 30.205353 -89.620270 12,925 247 331 -1856
2022-08-20 04:45:45 GMT 30.211937 -89.602623 13,250 247 340 -1920
2022-08-20 04:45:39 GMT 30.215660 -89.592575 13,425 247 344 -1920
2022-08-20 04:45:36 GMT 30.218454 -89.585045 13,575 247 350 -1920
2022-08-20 04:45:31 GMT 30.221806 -89.576096 13,725 247 353 -2048
2022-08-20 04:45:24 GMT 30.225204 -89.567032 13,875 247 357 -2112
2022-08-20 04:45:19 GMT 30.228603 -89.557800 14,050 247 362 -2048
2022-08-20 04:45:14 GMT 30.231995 -89.548698 14,300 247 365 -2112
2022-08-20 04:45:05 GMT 30.239044 -89.529846 14,550 247 372 -2304
2022-08-20 04:44:54 GMT 30.245911 -89.511482 14,900 247 376 -2240
2022-08-20 04:44:42 GMT 30.254532 -89.488258 15,325 247 380 -2112
2022-08-20 04:44:34 GMT 30.260399 -89.472549 15,600 247 383 -2176
2022-08-20 04:44:27 GMT 30.264954 -89.460327 15,825 247 383 -2112
2022-08-20 04:44:23 GMT 30.267883 -89.452354 15,975 247 386 -2176
2022-08-20 04:44:17 GMT 30.271477 -89.442719 16,125 247 387 -2240
2022-08-20 04:44:13 GMT 30.274876 -89.433601 16,300 247 387 -2240
2022-08-20 04:44:07 GMT 30.278601 -89.423660 16,475 247 388 -2240
2022-08-20 04:44:02 GMT 30.286194 -89.403183 17,925 247 389 -2240
2022-08-20 04:43:57 GMT 30.286194 -89.403183 16,850 247 390 -2240
2022-08-20 04:43:52 GMT 30.289820 -89.393448 17,025 247 391 -2240
2022-08-20 04:43:41 GMT 30.297268 -89.373337 17,375 247 394 -2176
2022-08-20 04:43:36 GMT 30.301039 -89.363235 17,550 247 397 -2240
2022-08-20 04:43:30 GMT 30.304916 -89.352882 17,750 247 400 -2240
2022-08-20 04:43:25 GMT 30.309231 -89.341202 17,950 247 402 -2432
2022-08-20 04:43:21 GMT 30.312424 -89.332687 18,125 247 404 -2560
2022-08-20 04:43:16 GMT 30.315399 -89.324715 18,275 247 405 -2688
2022-08-20 04:43:10 GMT 30.320078 -89.312149 18,550 247 406 -2816
2022-08-20 04:43:06 GMT 30.322952 -89.304359 18,725 247 406 -2432
2022-08-20 04:43:00 GMT 30.327665 -89.291710 18,950 247 407 -2304
2022-08-20 04:42:55 GMT 30.331421 -89.281471 19,125 247 408 -2368
2022-08-20 04:42:50 GMT 30.335449 -89.270592 19,325 247 409 -2368
2022-08-20 04:42:45 GMT 30.338373 -89.262764 19,475 247 409 -2304
2022-08-20 04:42:39 GMT 30.343231 -89.249641 19,725 247 412 -2368
2022-08-20 04:42:35 GMT 30.345867 -89.242546 19,825 247 412 -2368
2022-08-20 04:42:28 GMT 30.351334 -89.227730 20,100 247 414 -2368
2022-08-20 04:42:25 GMT 30.353760 -89.221207 20,225 247 414 -2368
2022-08-20 04:42:15 GMT 30.361555 -89.200142 20,600 247 416 -2432
2022-08-20 04:42:05 GMT 30.369610 -89.178391 20,975 247 419 -2368
2022-08-20 04:41:54 GMT 30.377245 -89.157677 21,350 247 422 -2368
2022-08-20 04:41:44 GMT 30.385111 -89.136421 21,725 247 425 -2432
2022-08-20 04:41:37 GMT 30.391069 -89.120544 22,050 247 425 -2496
2022-08-20 04:41:34 GMT 30.393539 -89.114037 22,150 247 426 -2496
2022-08-20 04:41:26 GMT 30.399916 -89.098076 22,425 244 427 -2496
2022-08-20 04:41:23 GMT 30.402243 -89.092751 22,525 243 428 -2496
2022-08-20 04:41:15 GMT 30.409737 -89.077591 22,825 238 430 -2432
2022-08-20 04:41:12 GMT 30.412577 -89.072586 22,925 237 431 -2496
2022-08-20 04:41:03 GMT 30.425034 -89.053558 23,325 230 435 -2432
2022-08-20 04:40:55 GMT 30.435654 -89.039505 23,600 229 436 -2432
2022-08-20 04:40:51 GMT 30.439728 -89.034279 23,725 229 437 -2432
2022-08-20 04:40:44 GMT 30.449661 -89.021355 24,000 229 437 -2560
2022-08-20 04:40:41 GMT 30.453032 -89.016998 24,100 229 437 -2560
2022-08-20 04:40:32 GMT 30.467194 -88.998573 24,500 229 439 -2560
2022-08-20 04:40:24 GMT 30.477768 -88.984894 24,825 229 441 -2560
2022-08-20 04:40:21 GMT 30.481064 -88.980644 24,925 229 442 -2560
2022-08-20 04:40:13 GMT 30.491297 -88.967285 25,250 229 447 -2560
2022-08-20 04:40:10 GMT 30.495300 -88.962059 25,325 229 448 -2496
2022-08-20 04:40:06 GMT 30.501938 -88.953445 25,500 229 454 -2560
2022-08-20 04:40:01 GMT 30.509491 -88.943695 25,725 229 453 -2624
2022-08-20 04:39:53 GMT 30.520252 -88.929657 26,050 229 456 -2560
2022-08-20 04:39:50 GMT 30.523773 -88.925117 26,150 229 456 -2624
2022-08-20 04:39:42 GMT 30.535034 -88.910469 26,475 229 458 -2624
2022-08-20 04:39:39 GMT 30.538422 -88.906052 26,575 229 459 -2624
2022-08-20 04:39:32 GMT 30.550184 -88.890709 26,900 229 462 -2624
2022-08-20 04:39:29 GMT 30.552887 -88.887199 26,975 229 462 -2624
2022-08-20 04:39:24 GMT 30.561871 -88.875496 27,225 229 463 -2624
2022-08-20 04:39:21 GMT 30.564756 -88.871758 27,300 229 465 -2624
2022-08-20 04:39:18 GMT 30.568480 -88.866928 27,425 229 465 -2688
2022-08-20 04:39:12 GMT 30.577930 -88.854622 27,700 229 466 -2688
2022-08-20 04:39:08 GMT 30.583424 -88.847481 27,850 229 468 -2752
2022-08-20 04:39:01 GMT 30.594543 -88.833023 28,175 229 471 -2688
2022-08-20 04:38:58 GMT 30.598022 -88.828445 28,275 229 472 -2688
2022-08-20 04:38:51 GMT 30.608702 -88.814629 28,600 229 476 -2688
2022-08-20 04:38:48 GMT 30.612799 -88.809250 28,700 229 477 -2688
2022-08-20 04:38:40 GMT 30.625414 -88.792770 29,050 229 478 -2624
2022-08-20 04:38:37 GMT 30.628393 -88.788925 29,150 229 478 -2624
2022-08-20 04:38:30 GMT 30.639359 -88.774597 29,500 229 476 -2688
2022-08-20 04:38:27 GMT 30.643478 -88.769264 29,600 229 475 -2624
2022-08-20 04:38:17 GMT 30.658356 -88.749870 30,000 229 473 -2624
2022-08-20 04:38:07 GMT 30.673691 -88.729790 30,450 229 470 -2688
2022-08-20 04:37:59 GMT 30.684952 -88.715141 30,800 229 468 -2624
2022-08-20 04:37:56 GMT 30.688540 -88.710426 30,875 229 467 -2560
2022-08-20 04:37:46 GMT 30.702988 -88.691551 31,300 229 463 -2560
2022-08-20 04:37:38 GMT 30.714066 -88.677063 31,600 229 460 -2560
2022-08-20 04:37:35 GMT 30.718752 -88.670929 31,725 229 459 -2560
2022-08-20 04:37:27 GMT 30.730957 -88.654930 32,100 229 456 -2624
2022-08-20 04:37:24 GMT 30.733927 -88.651100 32,175 229 456 -2624
2022-08-20 04:37:17 GMT 30.743423 -88.638626 32,525 229 454 -2496
2022-08-20 04:37:14 GMT 30.747055 -88.633904 32,550 229 454 -2496
2022-08-20 04:37:05 GMT 30.761627 -88.614807 32,975 229 452 -2624
2022-08-20 04:36:57 GMT 30.772007 -88.601166 33,325 229 452 -2624
2022-08-20 04:36:54 GMT 30.775772 -88.596230 33,400 229 452 -2624
2022-08-20 04:36:44 GMT 30.792025 -88.574905 33,850 229 454 -2304
2022-08-20 04:36:34 GMT 30.804268 -88.558815 34,200 229 455 -2560
2022-08-20 04:36:31 GMT 30.806396 -88.556107 34,250 229 456 -2560
2022-08-20 04:36:25 GMT 30.817162 -88.541946 34,575 229 457 -2624
2022-08-20 04:36:22 GMT 30.822098 -88.535530 34,700 229 457 -2496
2022-08-20 04:36:13 GMT 30.832993 -88.521156 35,025 229 457 -2560
2022-08-20 04:36:10 GMT 30.835970 -88.517288 35,125 229 456 -2560
2022-08-20 04:36:02 GMT 30.847422 -88.502235 35,450 229 454 -2496
2022-08-20 04:35:59 GMT 30.851610 -88.496742 35,575 229 454 -2496
2022-08-20 04:35:55 GMT 30.858673 -88.487389 35,775 229 453 -2496
2022-08-20 04:35:50 GMT 30.865763 -88.478119 35,975 229 452 -2496
2022-08-20 04:35:42 GMT 30.880381 -88.458893 36,325 229 449 -2496
2022-08-20 04:35:38 GMT 30.880381 -88.458893 36,400 229 447 -2496
2022-08-20 04:35:33 GMT 30.888575 -88.448074 36,625 229 446 -2432
2022-08-20 04:35:29 GMT 30.894745 -88.439995 36,800 229 444 -2496
2022-08-20 04:35:24 GMT 30.904680 -88.426926 37,050 229 443 -2496
2022-08-20 04:35:21 GMT 30.904680 -88.426926 37,100 229 443 -2496
2022-08-20 04:35:17 GMT 30.909288 -88.420883 37,225 229 442 -2432
2022-08-20 04:35:11 GMT 30.919144 -88.407845 37,500 229 442 -2176
2022-08-20 04:35:06 GMT 30.924187 -88.401268 37,625 229 441 -1984
2022-08-20 04:35:00 GMT 30.933197 -88.389320 37,800 229 440 -1472
2022-08-20 04:34:57 GMT 30.938709 -88.382042 37,900 229 439 -1088
2022-08-20 04:34:52 GMT 30.945181 -88.373528 37,975 229 438 -512
2022-08-20 04:34:49 GMT 30.946930 -88.371277 37,975 229 438 -320
2022-08-20 04:34:45 GMT 30.952955 -88.363312 37,975 229 437 0
2022-08-20 04:34:40 GMT 30.959793 -88.354256 38,000 229 438 -64
2022-08-20 04:34:36 GMT 30.966751 -88.345100 38,000 229 438 -64
2022-08-20 04:34:29 GMT 30.974417 -88.335022 38,000 229 438 -64
2022-08-20 04:34:25 GMT 30.980713 -88.326683 38,000 229 438 -64
2022-08-20 04:34:19 GMT 30.988102 -88.316948 38,000 229 438 -64
2022-08-20 04:34:13 GMT 30.995224 -88.307564 38,000 229 438 0
2022-08-20 04:34:09 GMT 31.001907 -88.298683 38,000 229 439 0
2022-08-20 04:34:04 GMT 31.009842 -88.288223 37,975 229 439 0
2022-08-20 04:33:58 GMT 31.016266 -88.279709 38,000 229 439 0
2022-08-20 04:33:50 GMT 31.028091 -88.264107 38,000 229 439 0
2022-08-20 04:33:47 GMT 31.030231 -88.261246 37,975 229 439 -64
2022-08-20 04:33:41 GMT 31.039637 -88.248833 38,000 229 436 64
2022-08-20 04:33:38 GMT 31.043793 -88.243370 38,000 229 437 0
2022-08-20 04:33:29 GMT 31.055416 -88.227959 38,000 229 437 64
2022-08-20 04:33:26 GMT 31.058582 -88.223732 38,000 229 436 64
2022-08-20 04:33:17 GMT 31.070709 -88.207664 37,975 229 436 0
2022-08-20 04:33:07 GMT 31.085535 -88.188133 37,975 229 435 -64
2022-08-20 04:32:59 GMT 31.095245 -88.175247 38,000 229 435 -64
2022-08-20 04:32:55 GMT 31.099874 -88.169075 38,000 229 435 -64
2022-08-20 04:32:48 GMT 31.110813 -88.154572 37,975 229 436 0
2022-08-20 04:32:45 GMT 31.113188 -88.151382 38,000 229 436 0
2022-08-20 04:32:39 GMT 31.121473 -88.140457 38,000 229 437 0
2022-08-20 04:32:35 GMT 31.126549 -88.133698 37,975 229 437 64
2022-08-20 04:32:29 GMT 31.134430 -88.123222 37,975 229 438 0
2022-08-20 04:32:25 GMT 31.141388 -88.114014 38,000 229 438 -64
2022-08-20 04:32:21 GMT 31.145142 -88.109009 37,975 229 438 -64
2022-08-20 04:32:15 GMT 31.153976 -88.097267 37,975 229 440 -64
2022-08-20 04:32:11 GMT 31.158829 -88.090858 38,000 229 440 -64
2022-08-20 04:32:06 GMT 31.165977 -88.081406 38,000 229 440 -64
2022-08-20 04:32:03 GMT 31.169189 -88.077118 38,000 229 441 -64
2022-08-20 04:32:00 GMT 31.173241 -88.071732 38,000 229 441 -64
2022-08-20 04:31:55 GMT 31.180069 -88.062637 38,000 229 441 -64
2022-08-20 04:31:52 GMT 31.184921 -88.056175 38,000 229 441 0
2022-08-20 04:31:49 GMT 31.187765 -88.052399 38,000 229 441 0
2022-08-20 04:31:46 GMT 31.192474 -88.046158 38,000 229 442 64
2022-08-20 04:31:42 GMT 31.199636 -88.036636 38,000 229 442 64
2022-08-20 04:31:38 GMT 31.202616 -88.032677 38,000 229 442 64
2022-08-20 04:31:35 GMT 31.207735 -88.025925 37,975 229 442 64
2022-08-20 04:31:31 GMT 31.214439 -88.016914 37,975 229 442 0
2022-08-20 04:31:26 GMT 31.220909 -88.008347 38,000 229 442 0
2022-08-20 04:31:22 GMT 31.224401 -88.003677 38,000 229 441 0
2022-08-20 04:31:19 GMT 31.228592 -87.998116 37,975 229 440 -64
2022-08-20 04:31:14 GMT 31.236506 -87.987526 38,000 229 440 -64
2022-08-20 04:31:11 GMT 31.240555 -87.982140 38,000 229 440 0
2022-08-20 04:31:08 GMT 31.243378 -87.978409 37,975 229 440 0
2022-08-20 04:31:04 GMT 31.250061 -87.969467 37,975 229 440 0
2022-08-20 04:30:58 GMT 31.257843 -87.959076 38,000 229 440 0
2022-08-20 04:30:53 GMT 31.263367 -87.951767 38,000 229 440 0
2022-08-20 04:30:48 GMT 31.271805 -87.940491 38,000 229 440 -64
2022-08-20 04:30:44 GMT 31.277330 -87.933144 38,000 229 439 -64
2022-08-20 04:30:37 GMT 31.285618 -87.922043 38,000 229 440 0
2022-08-20 04:30:33 GMT 31.290298 -87.915833 38,000 229 439 0
2022-08-20 04:30:26 GMT 31.300461 -87.902206 37,975 229 439 0
2022-08-20 04:30:20 GMT 31.308661 -87.891342 38,000 229 439 -64
2022-08-20 04:30:11 GMT 31.321884 -87.873657 37,975 229 439 -64
2022-08-20 04:30:05 GMT 31.327240 -87.866501 37,975 229 439 0
2022-08-20 04:29:59 GMT 31.336452 -87.854149 37,975 229 439 64
2022-08-20 04:29:55 GMT 31.340607 -87.848618 37,975 229 440 0
2022-08-20 04:29:51 GMT 31.346512 -87.840759 37,975 229 440 0
2022-08-20 04:29:48 GMT 31.350266 -87.835747 37,975 229 440 0
2022-08-20 04:29:45 GMT 31.355213 -87.829102 37,975 229 440 0
2022-08-20 04:29:42 GMT 31.360199 -87.822502 37,975 229 440 -64
2022-08-20 04:29:35 GMT 31.368387 -87.811577 38,000 229 440 0
2022-08-20 04:29:31 GMT 31.373611 -87.804565 38,000 229 440 0
2022-08-20 04:29:24 GMT 31.382721 -87.792397 37,975 229 440 0
2022-08-20 04:29:17 GMT 31.393852 -87.777519 38,000 229 440 0
2022-08-20 04:29:11 GMT 31.400555 -87.768509 38,000 229 440 -64
2022-08-20 04:28:42 GMT 31.439301 -87.716568 38,000 230 442 64
2022-08-20 04:28:36 GMT 31.450058 -87.702133 38,000 229 441 -64
2022-08-20 04:28:27 GMT 31.459442 -87.689529 38,000 230 442 -64
2022-08-20 04:28:20 GMT 31.470474 -87.674774 37,975 230 442 0
2022-08-20 04:27:48 GMT 31.513491 -87.616898 38,000 229 441 -64
2022-08-20 04:27:43 GMT 31.519272 -87.609184 38,000 229 441 0
2022-08-20 04:27:37 GMT 31.528381 -87.596901 38,000 230 440 0
2022-08-20 04:27:19 GMT 31.550858 -87.566635 38,000 230 440 0
2022-08-20 04:27:05 GMT 31.570908 -87.539658 38,000 230 440 0
2022-08-20 04:26:58 GMT 31.578756 -87.529007 37,975 230 440 -64
2022-08-20 04:26:47 GMT 31.593700 -87.508850 38,000 230 439 -64
2022-08-20 04:25:52 GMT 31.666555 -87.410522 38,000 230 435 -64
2022-08-20 04:25:45 GMT 31.675186 -87.398880 38,000 230 437 0
2022-08-20 04:25:35 GMT 31.722231 -87.335213 38,000 230 435 -64
2022-08-20 04:25:10 GMT 31.722231 -87.335213 38,000 230 437 0
2022-08-20 04:24:57 GMT 31.755516 -87.290115 38,000 230 435 -64
2022-08-20 04:24:46 GMT 31.755516 -87.290115 38,000 230 436 -64
2022-08-20 04:24:42 GMT 31.759598 -87.284546 38,000 230 436 -64
2022-08-20 04:24:32 GMT 31.772232 -87.267372 37,975 230 435 0
2022-08-20 04:24:24 GMT 31.784239 -87.251122 38,000 230 435 0
2022-08-20 04:23:39 GMT 31.845177 -87.168274 37,975 230 434 0
2022-08-20 04:23:36 GMT 31.851608 -87.159485 38,000 230 433 -64
2022-08-20 04:23:18 GMT 31.869848 -87.134644 38,000 230 433 0
2022-08-20 04:22:45 GMT 31.913376 -87.075394 38,000 230 433 0
2022-08-20 04:22:41 GMT 31.919891 -87.066483 38,000 230 433 -64
2022-08-20 04:22:30 GMT 31.933485 -87.047928 37,975 230 432 0
2022-08-20 04:22:04 GMT 31.965607 -87.004097 38,000 230 432 0
2022-08-20 04:21:12 GMT 32.034576 -86.909653 38,000 230 431 0
2022-08-20 04:21:08 GMT 32.039520 -86.902901 38,000 230 431 -64
2022-08-20 04:20:58 GMT 32.053848 -86.883286 38,000 230 431 64
2022-08-20 04:20:47 GMT 32.066669 -86.865646 38,000 230 430 -64
2022-08-20 04:20:37 GMT 32.080307 -86.846977 37,975 230 429 -64
2022-08-20 04:20:26 GMT 32.094372 -86.827644 38,000 230 429 0
2022-08-20 04:20:15 GMT 32.107544 -86.809593 38,000 230 427 0
2022-08-20 04:20:05 GMT 32.120544 -86.791718 37,975 230 427 0
2022-08-20 04:19:55 GMT 32.133518 -86.773834 38,000 230 427 -64
2022-08-20 04:19:46 GMT 32.146225 -86.756340 38,000 230 427 -64
2022-08-20 04:19:35 GMT 32.159729 -86.737785 37,975 230 427 0
2022-08-20 04:19:28 GMT 32.168995 -86.725067 37,975 230 427 0
2022-08-20 04:19:24 GMT 32.173187 -86.719261 38,000 230 426 64
2022-08-20 04:19:15 GMT 32.186279 -86.701248 38,000 230 426 0
2022-08-20 04:19:04 GMT 32.199253 -86.683365 38,000 230 426 -64
2022-08-20 04:18:54 GMT 32.212566 -86.665031 38,000 230 426 -64
2022-08-20 04:18:44 GMT 32.226391 -86.645920 38,000 230 427 -64
2022-08-20 04:18:33 GMT 32.239609 -86.627693 37,975 230 427 64
2022-08-20 04:18:25 GMT 32.249714 -86.613747 38,000 230 425 0
2022-08-20 04:18:21 GMT 32.253662 -86.608246 38,000 230 425 0
2022-08-20 04:18:14 GMT 32.262634 -86.595886 37,975 230 425 0
2022-08-20 04:18:10 GMT 32.268768 -86.587425 38,000 230 425 0
2022-08-20 04:18:02 GMT 32.279091 -86.573158 38,000 230 424 -64
2022-08-20 04:17:52 GMT 32.291199 -86.556389 38,000 230 424 0
2022-08-20 04:17:42 GMT 32.304657 -86.537766 38,000 230 423 64
2022-08-20 04:17:35 GMT 32.314316 -86.524422 38,000 230 422 0
2022-08-20 04:17:32 GMT 32.317726 -86.519630 37,975 230 422 -64
2022-08-20 04:17:21 GMT 32.331181 -86.501022 37,975 230 423 0
2022-08-20 04:17:10 GMT 32.344528 -86.482506 38,000 230 424 -64
2022-08-20 04:17:01 GMT 32.357254 -86.464874 38,000 230 424 0
2022-08-20 04:16:50 GMT 32.370483 -86.446526 38,000 230 424 0
2022-08-20 04:16:39 GMT 32.383713 -86.428177 37,975 230 424 64
2022-08-20 04:16:29 GMT 32.396210 -86.410820 37,975 230 424 -64
2022-08-20 04:16:19 GMT 32.409622 -86.392227 38,000 230 426 -64
2022-08-20 04:16:09 GMT 32.422485 -86.374344 38,000 230 426 -64
2022-08-20 04:15:58 GMT 32.435925 -86.355675 37,975 230 426 0
2022-08-20 04:15:53 GMT 32.443047 -86.345757 38,000 230 425 -64
2022-08-20 04:15:49 GMT 32.448914 -86.337570 38,000 230 425 -64
2022-08-20 04:15:38 GMT 32.462177 -86.319130 38,000 230 425 0
2022-08-20 04:15:27 GMT 32.476318 -86.299423 38,000 230 424 -64
2022-08-20 04:15:16 GMT 32.489178 -86.281517 38,000 230 424 -64
2022-08-20 04:15:06 GMT 32.501888 -86.263863 37,975 230 424 0
2022-08-20 04:14:56 GMT 32.515457 -86.244926 38,000 230 423 -64
2022-08-20 04:14:45 GMT 32.528366 -86.226913 38,000 230 422 0
2022-08-20 04:14:35 GMT 32.541924 -86.208038 38,000 230 422 0
2022-08-20 04:14:25 GMT 32.554688 -86.190216 37,975 230 421 -64
2022-08-20 04:14:14 GMT 32.568283 -86.171211 38,000 230 421 0
2022-08-20 04:14:05 GMT 32.580826 -86.153633 38,000 230 420 0
2022-08-20 04:13:55 GMT 32.593414 -86.136055 38,000 230 420 -64
2022-08-20 04:13:43 GMT 32.607193 -86.116776 38,000 230 420 -64
2022-08-20 04:13:34 GMT 32.618958 -86.100296 38,000 230 418 0
2022-08-20 04:13:23 GMT 32.632736 -86.081009 38,000 230 418 0
2022-08-20 04:13:19 GMT 32.636490 -86.075737 38,000 230 418 0
2022-08-20 04:13:12 GMT 32.645084 -86.063644 37,975 230 418 0
2022-08-20 04:13:06 GMT 32.653835 -86.051422 37,975 230 418 0
2022-08-20 04:13:03 GMT 32.658817 -86.044418 37,975 230 417 -64
2022-08-20 04:12:52 GMT 32.671291 -86.026932 37,975 230 417 -64
2022-08-20 04:12:41 GMT 32.684052 -86.008942 38,000 230 415 0
2022-08-20 04:12:31 GMT 32.698105 -85.989319 38,000 230 415 0
2022-08-20 04:12:25 GMT 32.704994 -85.979561 38,000 230 414 0
2022-08-20 04:12:20 GMT 32.710098 -85.972466 38,000 230 414 0
2022-08-20 04:12:14 GMT 32.717743 -85.961700 37,975 230 414 -64
2022-08-20 04:12:10 GMT 32.723190 -85.954063 37,975 230 414 0
2022-08-20 04:12:01 GMT 32.734928 -85.937584 37,975 230 413 -64
2022-08-20 04:11:49 GMT 32.748474 -85.918465 37,975 230 413 0
2022-08-20 04:11:44 GMT 32.754620 -85.909836 38,000 230 413 -64
2022-08-20 04:11:40 GMT 32.760910 -85.901001 38,000 230 413 0
2022-08-20 04:11:34 GMT 32.766586 -85.893036 37,975 230 413 0
2022-08-20 04:11:31 GMT 32.773956 -85.882599 38,000 231 412 0
2022-08-20 04:11:21 GMT 32.785034 -85.866997 38,000 231 412 -64
2022-08-20 04:11:18 GMT 32.786369 -85.865105 37,975 231 412 -64
2022-08-20 04:11:09 GMT 32.799500 -85.846565 38,000 230 413 0
2022-08-20 04:11:06 GMT 32.801743 -85.843430 38,000 230 413 64
2022-08-20 04:10:59 GMT 32.811310 -85.829918 37,975 230 413 0
2022-08-20 04:10:49 GMT 32.823624 -85.812508 38,000 230 413 -64
2022-08-20 04:10:44 GMT 32.828453 -85.805748 38,000 230 413 -64
2022-08-20 04:10:38 GMT 32.836212 -85.794762 37,975 230 413 0
2022-08-20 04:10:27 GMT 32.849167 -85.776543 37,975 230 413 -64
2022-08-20 04:10:18 GMT 32.861618 -85.758949 38,000 231 414 -64
2022-08-20 04:10:14 GMT 32.865051 -85.754059 38,000 230 413 -64
2022-08-20 04:10:08 GMT 32.875050 -85.739937 37,975 230 413 0
2022-08-20 04:10:04 GMT 32.877472 -85.736465 37,975 230 413 -64
2022-08-20 04:10:01 GMT 32.882404 -85.729515 38,000 231 414 0
2022-08-20 04:09:55 GMT 32.888596 -85.720825 38,000 231 414 64
2022-08-20 04:09:51 GMT 32.894348 -85.712585 38,000 231 414 -64
2022-08-20 04:09:47 GMT 32.899796 -85.704948 37,975 231 414 -64
2022-08-20 04:09:43 GMT 32.903122 -85.700256 38,000 231 414 64
2022-08-20 04:09:39 GMT 32.908054 -85.693245 37,975 231 414 -64
2022-08-20 04:09:36 GMT 32.913574 -85.685394 37,975 231 414 -64
2022-08-20 04:09:30 GMT 32.920212 -85.676003 38,000 231 413 0
2022-08-20 04:09:27 GMT 32.924149 -85.670395 38,000 230 413 0
2022-08-20 04:09:24 GMT 32.926491 -85.667130 37,975 230 413 0
2022-08-20 04:09:20 GMT 32.931793 -85.659630 37,975 231 413 0
2022-08-20 04:09:16 GMT 32.938782 -85.649696 38,000 231 413 0
2022-08-20 04:09:12 GMT 32.941360 -85.646065 37,975 231 413 -64
2022-08-20 04:09:07 GMT 32.949234 -85.634911 38,000 231 413 0
2022-08-20 04:09:03 GMT 32.954132 -85.627937 38,000 231 413 0
2022-08-20 04:08:59 GMT 32.957680 -85.622902 37,975 231 413 0
2022-08-20 04:08:56 GMT 32.961872 -85.616959 37,975 231 413 0
2022-08-20 04:08:53 GMT 32.964935 -85.612663 37,975 231 413 0
2022-08-20 04:08:50 GMT 32.970566 -85.604645 38,000 231 412 64
2022-08-20 04:08:43 GMT 32.978256 -85.593697 37,975 231 411 0
2022-08-20 04:08:39 GMT 32.982559 -85.587616 37,975 231 411 0
2022-08-20 04:08:36 GMT 32.987289 -85.580864 38,000 231 411 -64
2022-08-20 04:08:32 GMT 32.990967 -85.575645 38,000 231 411 0
2022-08-20 04:08:29 GMT 32.996365 -85.568024 37,975 231 411 -64
2022-08-20 04:08:22 GMT 33.005035 -85.555756 37,975 231 410 -64
2022-08-20 04:08:17 GMT 33.009262 -85.549698 38,000 231 410 0
2022-08-20 04:08:12 GMT 33.016205 -85.539825 37,975 231 410 -64
2022-08-20 04:08:07 GMT 33.021103 -85.532906 37,975 231 410 -64
2022-08-20 04:08:04 GMT 33.024765 -85.527687 38,000 231 410 0
2022-08-20 04:08:01 GMT 33.028656 -85.522141 38,000 231 409 64
2022-08-20 04:07:56 GMT 33.034817 -85.513321 38,000 231 408 64
2022-08-20 04:07:52 GMT 33.040916 -85.504684 37,975 231 408 64
2022-08-20 04:07:47 GMT 33.046268 -85.497063 37,975 231 408 -64
2022-08-20 04:07:43 GMT 33.050262 -85.491379 37,975 231 408 -64
2022-08-20 04:07:40 GMT 33.055721 -85.483612 38,000 231 408 -64
2022-08-20 04:07:36 GMT 33.059818 -85.477722 38,000 231 408 0
2022-08-20 04:07:31 GMT 33.065403 -85.469818 38,000 231 408 -64
2022-08-20 04:07:26 GMT 33.071823 -85.460670 38,000 231 408 -64
2022-08-20 04:07:21 GMT 33.077866 -85.452042 38,000 231 407 0
2022-08-20 04:07:16 GMT 33.083790 -85.443588 38,000 231 407 0
2022-08-20 04:07:13 GMT 33.087296 -85.438583 37,975 231 407 0
2022-08-20 04:07:10 GMT 33.090355 -85.434280 38,000 231 407 0
2022-08-20 04:07:06 GMT 33.095535 -85.426888 38,000 231 407 0
2022-08-20 04:07:02 GMT 33.099884 -85.420677 38,000 231 407 0
2022-08-20 04:06:59 GMT 33.103500 -85.415512 38,000 231 407 0
2022-08-20 04:06:53 GMT 33.112560 -85.402611 37,975 231 406 64
2022-08-20 04:06:50 GMT 33.116192 -85.397453 38,000 231 406 0
2022-08-20 04:06:45 GMT 33.124104 -85.386078 38,000 231 406 0
2022-08-20 04:06:43 GMT 33.124104 -85.386078 37,975 231 406 0
2022-08-20 04:06:40 GMT 33.128201 -85.380249 38,000 231 406 -64
2022-08-20 04:06:36 GMT 33.131699 -85.375252 37,975 231 406 -64
2022-08-20 04:06:34 GMT 33.135086 -85.370468 38,000 231 406 -64
2022-08-20 04:06:29 GMT 33.140625 -85.362564 38,000 231 406 0
2022-08-20 04:06:26 GMT 33.143738 -85.358109 38,000 231 405 0
2022-08-20 04:06:22 GMT 33.149734 -85.349541 38,000 231 405 0
2022-08-20 04:06:18 GMT 33.154999 -85.341965 38,000 231 405 0
2022-08-20 04:06:15 GMT 33.156830 -85.339386 38,000 231 405 0
2022-08-20 04:06:12 GMT 33.161728 -85.332352 38,000 231 405 0
2022-08-20 04:06:09 GMT 33.165443 -85.327057 38,000 231 404 -64
2022-08-20 04:06:06 GMT 33.167953 -85.323448 38,000 231 404 0
2022-08-20 04:06:04 GMT 33.170334 -85.320045 38,000 231 404 -64
2022-08-20 04:06:01 GMT 33.173950 -85.314880 38,000 231 404 0
2022-08-20 04:05:58 GMT 33.177292 -85.310043 38,000 231 404 -64
2022-08-20 04:05:55 GMT 33.180714 -85.305084 38,000 231 404 0
2022-08-20 04:05:51 GMT 33.187042 -85.295982 37,975 231 403 0
2022-08-20 04:05:48 GMT 33.190022 -85.291740 37,975 231 403 0
2022-08-20 04:05:45 GMT 33.194412 -85.285385 38,000 231 402 0
2022-08-20 04:05:42 GMT 33.196678 -85.282104 38,000 231 403 0
2022-08-20 04:05:38 GMT 33.200684 -85.276268 38,000 231 402 0
2022-08-20 04:05:35 GMT 33.205353 -85.269615 38,000 231 402 0
2022-08-20 04:05:32 GMT 33.209335 -85.263794 38,000 231 402 -64
2022-08-20 04:05:28 GMT 33.213486 -85.257774 38,000 231 402 0
2022-08-20 04:05:25 GMT 33.216839 -85.253006 37,975 231 402 0
2022-08-20 04:05:20 GMT 33.222427 -85.244949 38,000 230 402 0
2022-08-20 04:05:17 GMT 33.227310 -85.237984 38,000 230 402 0
2022-08-20 04:05:14 GMT 33.229111 -85.235504 38,000 230 402 0
2022-08-20 04:05:11 GMT 33.234341 -85.228233 38,000 229 402 -64
2022-08-20 04:05:08 GMT 33.237553 -85.223915 38,000 228 403 -64
2022-08-20 04:05:05 GMT 33.241554 -85.218651 37,975 228 402 -64
2022-08-20 04:05:01 GMT 33.245094 -85.214050 38,000 228 403 -64
2022-08-20 04:04:58 GMT 33.249844 -85.207832 38,000 228 403 -64
2022-08-20 04:04:55 GMT 33.254128 -85.202225 38,000 228 403 -64
2022-08-20 04:04:51 GMT 33.258545 -85.196503 38,000 228 403 0
2022-08-20 04:04:48 GMT 33.262299 -85.191559 37,975 228 404 64
2022-08-20 04:04:45 GMT 33.265949 -85.186813 37,975 228 403 0
2022-08-20 04:04:40 GMT 33.273537 -85.176949 37,975 228 404 0
2022-08-20 04:04:37 GMT 33.276051 -85.173637 37,975 228 404 0
2022-08-20 04:04:34 GMT 33.280846 -85.167358 38,000 228 404 0
2022-08-20 04:04:28 GMT 33.288300 -85.157669 37,975 228 404 0
2022-08-20 04:04:25 GMT 33.292053 -85.152725 38,000 228 404 -64
2022-08-20 04:04:23 GMT 33.294067 -85.150085 38,000 228 404 -64
2022-08-20 04:04:17 GMT 33.302902 -85.138550 38,000 228 404 -64
2022-08-20 04:04:14 GMT 33.304916 -85.135910 38,000 228 404 -64
2022-08-20 04:04:12 GMT 33.307663 -85.132286 38,000 228 404 -64
2022-08-20 04:04:09 GMT 33.312698 -85.125694 38,000 228 404 0
2022-08-20 04:04:05 GMT 33.316879 -85.120277 38,000 228 403 -64
2022-08-20 04:04:03 GMT 33.320137 -85.116020 38,000 228 404 -64
2022-08-20 04:03:58 GMT 33.326420 -85.107780 38,000 228 403 0
2022-08-20 04:03:54 GMT 33.330597 -85.102348 37,975 228 403 0
2022-08-20 04:03:52 GMT 33.332474 -85.099876 38,000 228 403 0
2022-08-20 04:03:49 GMT 33.336010 -85.095276 38,000 228 404 -64
2022-08-20 04:03:46 GMT 33.341171 -85.088509 38,000 228 404 -64
2022-08-20 04:03:43 GMT 33.344421 -85.084221 38,000 228 404 -64
2022-08-20 04:03:40 GMT 33.348953 -85.078293 38,000 228 404 -64
2022-08-20 04:03:37 GMT 33.352863 -85.073189 38,000 228 404 0
2022-08-20 04:03:34 GMT 33.355099 -85.070221 38,000 228 404 0
2022-08-20 04:03:32 GMT 33.358749 -85.065437 38,000 228 404 0
2022-08-20 04:03:27 GMT 33.365200 -85.057053 37,975 228 404 64
2022-08-20 04:03:24 GMT 33.367947 -85.053406 38,000 228 404 0
2022-08-20 04:03:20 GMT 33.372849 -85.046982 37,975 228 404 64
2022-08-20 04:03:17 GMT 33.377884 -85.040329 38,000 228 404 64
2022-08-20 04:03:14 GMT 33.385590 -85.030258 37,975 228 404 0
2022-08-20 04:03:11 GMT 33.385590 -85.030258 37,975 228 404 0
2022-08-20 04:03:08 GMT 33.388000 -85.027145 37,975 228 404 -64
2022-08-20 04:03:05 GMT 33.391407 -85.022690 37,975 228 404 0
2022-08-20 04:03:02 GMT 33.396332 -85.016220 37,975 228 404 -64
2022-08-20 04:02:59 GMT 33.399078 -85.012535 38,000 228 404 -64
2022-08-20 04:02:56 GMT 33.404259 -85.005760 38,000 228 404 -64
2022-08-20 04:02:53 GMT 33.407913 -85.000946 38,000 228 404 -64
2022-08-20 04:02:50 GMT 33.410431 -84.997650 38,000 228 404 -64
2022-08-20 04:02:47 GMT 33.414230 -84.992706 38,000 228 405 -64
2022-08-20 04:02:43 GMT 33.420776 -84.984085 38,000 228 405 -64
2022-08-20 04:02:40 GMT 33.424301 -84.979416 38,000 228 404 -64
2022-08-20 04:02:37 GMT 33.426697 -84.976280 38,000 228 404 0
2022-08-20 04:02:32 GMT 33.433411 -84.967491 38,000 228 404 -64
2022-08-20 04:02:28 GMT 33.437820 -84.961700 37,975 228 404 0
2022-08-20 04:02:25 GMT 33.443985 -84.953598 38,000 228 404 0
2022-08-20 04:02:22 GMT 33.447643 -84.948814 38,000 228 404 -64
2022-08-20 04:02:18 GMT 33.452671 -84.942200 37,975 228 404 0
2022-08-20 04:02:14 GMT 33.457699 -84.935585 37,975 228 404 0
2022-08-20 04:02:09 GMT 33.463982 -84.927345 38,000 228 404 0
2022-08-20 04:02:06 GMT 33.466370 -84.924149 37,975 228 404 0
2022-08-20 04:02:03 GMT 33.470123 -84.919205 37,975 228 403 0
2022-08-20 04:02:00 GMT 33.473145 -84.915253 37,975 228 403 0
2022-08-20 04:01:56 GMT 33.479187 -84.907288 38,000 228 403 -64
2022-08-20 04:01:53 GMT 33.483948 -84.901024 37,975 228 403 0
2022-08-20 04:01:48 GMT 33.488983 -84.894432 38,000 228 403 0
2022-08-20 04:01:45 GMT 33.492844 -84.889343 37,975 228 402 -64
2022-08-20 04:01:42 GMT 33.495483 -84.885864 38,000 228 402 -64
2022-08-20 04:01:40 GMT 33.499237 -84.880920 38,000 228 402 -64
2022-08-20 04:01:36 GMT 33.505188 -84.873009 38,000 228 400 -64
2022-08-20 04:01:33 GMT 33.508667 -84.868393 38,000 228 400 -64
2022-08-20 04:01:30 GMT 33.512535 -84.863335 38,000 228 400 -64
2022-08-20 04:01:26 GMT 33.517365 -84.856918 38,000 229 397 0
2022-08-20 04:01:23 GMT 33.520683 -84.852516 38,000 229 397 0
2022-08-20 04:01:20 GMT 33.523270 -84.849060 38,000 229 397 0
2022-08-20 04:01:16 GMT 33.528168 -84.842575 38,000 229 395 0
2022-08-20 04:01:13 GMT 33.532562 -84.836700 38,000 229 395 0
2022-08-20 04:01:10 GMT 33.535721 -84.832413 37,975 229 394 64
2022-08-20 04:01:05 GMT 33.541306 -84.824883 38,000 230 392 64
2022-08-20 04:01:02 GMT 33.547127 -84.816856 38,000 230 393 128
2022-08-20 04:00:59 GMT 33.548401 -84.815018 38,000 231 392 128
2022-08-20 04:00:55 GMT 33.554993 -84.805206 37,975 233 391 256
2022-08-20 04:00:52 GMT 33.557144 -84.801788 37,975 234 390 320
2022-08-20 04:00:49 GMT 33.560162 -84.796661 37,950 236 390 384
2022-08-20 04:00:44 GMT 33.564972 -84.787773 37,925 239 389 448
2022-08-20 04:00:40 GMT 33.568867 -84.779716 37,875 242 388 448
2022-08-20 04:00:36 GMT 33.575821 -84.763000 37,825 245 389 512
2022-08-20 04:00:32 GMT 33.577515 -84.758232 37,800 247 388 512
2022-08-20 04:00:28 GMT 33.577515 -84.758232 37,800 249 388 512
2022-08-20 04:00:25 GMT 33.580078 -84.750664 37,750 250 388 512
2022-08-20 04:00:21 GMT 33.582321 -84.743431 37,725 250 388 512
2022-08-20 04:00:18 GMT 33.583900 -84.738350 37,725 250 388 512
2022-08-20 04:00:15 GMT 33.586788 -84.729134 37,675 250 388 512
2022-08-20 04:00:11 GMT 33.589233 -84.721237 37,625 250 388 512
2022-08-20 04:00:08 GMT 33.590469 -84.717201 37,600 250 388 512
2022-08-20 04:00:05 GMT 33.592934 -84.709335 37,575 250 388 512
2022-08-20 04:00:02 GMT 33.594189 -84.705338 37,550 250 388 512
2022-08-20 03:59:59 GMT 33.596375 -84.698311 37,525 250 388 512
2022-08-20 03:59:55 GMT 33.598984 -84.690002 37,500 250 388 448
2022-08-20 03:59:52 GMT 33.600845 -84.683990 37,475 250 389 448
2022-08-20 03:59:48 GMT 33.603268 -84.676323 37,400 250 389 448
2022-08-20 03:59:45 GMT 33.604843 -84.671295 37,425 250 389 448
2022-08-20 03:59:42 GMT 33.607224 -84.663612 37,400 250 389 448
2022-08-20 03:59:38 GMT 33.610065 -84.654526 37,375 250 389 448
2022-08-20 03:59:34 GMT 33.612297 -84.647255 37,350 250 389 512
2022-08-20 03:59:31 GMT 33.613861 -84.642143 37,325 250 390 512
2022-08-20 03:59:28 GMT 33.615791 -84.635925 37,300 250 390 512
2022-08-20 03:59:24 GMT 33.618896 -84.626007 37,250 250 390 512
2022-08-20 03:59:21 GMT 33.620132 -84.621910 37,250 250 390 512
2022-08-20 03:59:19 GMT 33.621468 -84.617676 37,200 250 391 512
2022-08-20 03:59:16 GMT 33.623192 -84.612007 36,800 250 391 512
2022-08-20 03:59:13 GMT 33.624893 -84.606499 37,175 250 390 512
2022-08-20 03:59:10 GMT 33.626862 -84.599998 37,175 250 390 512
2022-08-20 03:59:07 GMT 33.629333 -84.591866 37,125 250 391 512
2022-08-20 03:59:03 GMT 33.631439 -84.584976 37,100 250 391 512
2022-08-20 03:59:00 GMT 33.632736 -84.580650 37,075 250 391 512
2022-08-20 03:58:57 GMT 33.634781 -84.573929 37,025 251 392 512
2022-08-20 03:58:54 GMT 33.636658 -84.567818 37,025 251 392 512
2022-08-20 03:58:51 GMT 33.641857 -84.550438 37,000 251 392 512
2022-08-20 03:58:47 GMT 33.641857 -84.550438 36,950 251 392 512
2022-08-20 03:58:44 GMT 33.643723 -84.544312 36,925 251 392 512
2022-08-20 03:58:41 GMT 33.644836 -84.540649 36,925 251 392 512
2022-08-20 03:58:38 GMT 33.647095 -84.533012 36,875 251 393 512
2022-08-20 03:58:35 GMT 33.648560 -84.528137 36,875 251 393 512
2022-08-20 03:58:31 GMT 33.651352 -84.518661 36,825 251 393 512
2022-08-20 03:58:27 GMT 33.653496 -84.511475 36,800 251 393 512
2022-08-20 03:58:24 GMT 33.655312 -84.505295 36,750 251 393 512
2022-08-20 03:58:21 GMT 33.658386 -84.495049 36,725 251 393 576
2022-08-20 03:58:19 GMT 33.658386 -84.495049 36,725 251 394 512
2022-08-20 03:58:16 GMT 33.660645 -84.487442 36,700 251 394 512
2022-08-20 03:58:13 GMT 33.661968 -84.483147 36,675 251 394 512
2022-08-20 03:58:10 GMT 33.666092 -84.469337 36,650 251 394 512
2022-08-20 03:58:07 GMT 33.666092 -84.469337 36,625 251 394 512
2022-08-20 03:58:03 GMT 33.668335 -84.461937 36,600 251 394 448
2022-08-20 03:58:00 GMT 33.671371 -84.451843 36,575 251 395 448
2022-08-20 03:57:58 GMT 33.671371 -84.451843 36,550 251 395 512
2022-08-20 03:57:54 GMT 33.674355 -84.442001 36,525 251 395 512
2022-08-20 03:57:50 GMT 33.677490 -84.431503 36,450 251 395 576
2022-08-20 03:57:48 GMT 33.677490 -84.431503 36,450 251 395 576
2022-08-20 03:57:45 GMT 33.679008 -84.426331 36,450 251 395 576
2022-08-20 03:57:42 GMT 33.680923 -84.419952 36,425 251 395 576
2022-08-20 03:57:38 GMT 33.684036 -84.409637 36,375 251 395 576
2022-08-20 03:57:35 GMT 33.685272 -84.405495 36,350 251 395 576
2022-08-20 03:57:32 GMT 33.687653 -84.397697 36,350 251 395 512
2022-08-20 03:57:29 GMT 33.690170 -84.389465 36,300 251 395 512
2022-08-20 03:57:25 GMT 33.691772 -84.384079 36,275 251 394 512
2022-08-20 03:57:22 GMT 33.693951 -84.376884 36,250 251 394 512
2022-08-20 03:57:18 GMT 33.698376 -84.362526 36,225 251 394 512
2022-08-20 03:57:15 GMT 33.698376 -84.362526 36,175 251 395 512
2022-08-20 03:57:12 GMT 33.700790 -84.354485 36,150 251 395 512
2022-08-20 03:57:08 GMT 33.702747 -84.348106 36,125 251 395 512
2022-08-20 03:57:04 GMT 33.704819 -84.341309 36,100 251 395 512
2022-08-20 03:57:00 GMT 33.707016 -84.333855 36,075 251 396 448
2022-08-20 03:56:57 GMT 33.709080 -84.327049 36,050 251 396 384
2022-08-20 03:56:54 GMT 33.711174 -84.320007 36,025 251 396 384
2022-08-20 03:56:51 GMT 33.713642 -84.311768 36,025 251 396 320
2022-08-20 03:56:48 GMT 33.714935 -84.307404 36,000 251 396 192
2022-08-20 03:56:45 GMT 33.716309 -84.302856 36,000 251 396 192
2022-08-20 03:56:42 GMT 33.718716 -84.294777 36,000 251 397 -64
2022-08-20 03:56:39 GMT 33.720932 -84.287560 35,975 251 397 -64
2022-08-20 03:56:35 GMT 33.722488 -84.282356 35,975 251 397 0
2022-08-20 03:56:32 GMT 33.725693 -84.271805 36,000 251 397 -64
2022-08-20 03:56:29 GMT 33.726212 -84.269943 36,000 251 397 -64
2022-08-20 03:56:26 GMT 33.728867 -84.261246 35,975 250 398 -64
2022-08-20 03:56:23 GMT 33.730591 -84.255661 36,000 250 398 -64
2022-08-20 03:56:20 GMT 33.732651 -84.248993 36,000 250 398 -64
2022-08-20 03:56:17 GMT 33.733932 -84.244904 35,975 250 398 -64
2022-08-20 03:56:15 GMT 33.735580 -84.239517 36,000 250 398 -64
2022-08-20 03:56:12 GMT 33.739388 -84.227318 36,000 250 398 0
2022-08-20 03:56:09 GMT 33.739388 -84.227318 36,000 250 398 64
2022-08-20 03:56:06 GMT 33.743668 -84.213638 35,975 250 398 0
2022-08-20 03:56:03 GMT 33.745998 -84.206261 36,000 250 396 64
2022-08-20 03:56:00 GMT 33.745998 -84.206261 36,000 250 396 0
2022-08-20 03:55:57 GMT 33.746933 -84.203140 36,000 250 396 64
2022-08-20 03:55:54 GMT 33.748837 -84.197159 36,000 250 395 64
2022-08-20 03:55:51 GMT 33.751602 -84.188347 36,000 250 393 64
2022-08-20 03:55:48 GMT 33.753353 -84.182854 36,000 250 393 64
2022-08-20 03:55:44 GMT 33.755539 -84.175926 36,000 250 392 64
2022-08-20 03:55:40 GMT 33.758148 -84.167603 35,975 250 391 0
2022-08-20 03:55:37 GMT 33.759777 -84.162537 36,000 250 390 0
2022-08-20 03:55:33 GMT 33.762569 -84.153610 36,000 250 389 -64
2022-08-20 03:55:29 GMT 33.766068 -84.142548 36,000 250 388 -64
2022-08-20 03:55:26 GMT 33.766666 -84.140739 35,975 250 387 -64
2022-08-20 03:55:23 GMT 33.768574 -84.134727 36,000 250 387 0
2022-08-20 03:55:19 GMT 33.771599 -84.125114 35,975 250 387 64
2022-08-20 03:55:16 GMT 33.773415 -84.119514 35,975 250 387 64
2022-08-20 03:55:12 GMT 33.776001 -84.111275 35,975 250 388 -64
2022-08-20 03:55:09 GMT 33.778244 -84.104042 35,975 250 387 -64
2022-08-20 03:55:06 GMT 33.779755 -84.099167 36,000 250 388 -64
2022-08-20 03:55:03 GMT 33.781677 -84.093109 35,975 250 388 -64
2022-08-20 03:54:59 GMT 33.784836 -84.083023 36,000 250 388 -64
2022-08-20 03:54:56 GMT 33.785980 -84.079376 36,000 250 388 -64
2022-08-20 03:54:53 GMT 33.788452 -84.071503 36,000 250 389 -64
2022-08-20 03:54:50 GMT 33.790501 -84.065041 36,000 250 388 -64
2022-08-20 03:54:46 GMT 33.792343 -84.059196 36,000 250 388 0
2022-08-20 03:54:44 GMT 33.793667 -84.055023 36,000 250 387 0
2022-08-20 03:54:41 GMT 33.795685 -84.048775 36,000 250 386 64
2022-08-20 03:54:38 GMT 33.797764 -84.042152 36,000 250 386 64
2022-08-20 03:54:35 GMT 33.799713 -84.035934 35,975 250 383 64
2022-08-20 03:54:32 GMT 33.801865 -84.029152 36,000 250 383 64
2022-08-20 03:54:29 GMT 33.803879 -84.022820 35,975 250 383 64
2022-08-20 03:54:26 GMT 33.805210 -84.018631 36,000 250 383 64
2022-08-20 03:54:23 GMT 33.808842 -84.007072 36,000 250 382 -64
2022-08-20 03:54:20 GMT 33.808842 -84.007072 35,975 250 382 -128
2022-08-20 03:54:16 GMT 33.812027 -83.996979 36,000 250 381 -64
2022-08-20 03:54:13 GMT 33.813171 -83.993225 36,000 250 381 -64
2022-08-20 03:54:10 GMT 33.815918 -83.984528 36,000 250 380 -64
2022-08-20 03:54:06 GMT 33.817841 -83.978371 35,975 250 379 0
2022-08-20 03:54:01 GMT 33.821045 -83.968170 35,975 250 377 64
2022-08-20 03:53:58 GMT 33.823151 -83.961502 35,975 250 377 0
2022-08-20 03:53:54 GMT 33.824856 -83.956261 36,000 250 376 -64
2022-08-20 03:53:50 GMT 33.827835 -83.946877 36,000 250 376 -64
2022-08-20 03:53:47 GMT 33.829464 -83.941788 36,000 250 376 -64
2022-08-20 03:53:44 GMT 33.830956 -83.937096 36,000 250 376 -64
2022-08-20 03:53:41 GMT 33.833954 -83.927528 35,975 250 376 0
2022-08-20 03:53:38 GMT 33.834538 -83.925758 35,975 250 376 0
2022-08-20 03:53:34 GMT 33.837379 -83.916779 35,975 250 375 0
2022-08-20 03:53:31 GMT 33.839615 -83.909798 36,000 250 376 0
2022-08-20 03:53:28 GMT 33.840775 -83.906059 36,000 250 376 0
2022-08-20 03:53:25 GMT 33.842827 -83.899612 36,000 250 376 -64
2022-08-20 03:53:22 GMT 33.845341 -83.891830 36,000 250 376 -64
2022-08-20 03:53:18 GMT 33.847366 -83.885384 36,000 250 376 -64
2022-08-20 03:53:14 GMT 33.850479 -83.875626 36,000 250 376 -64
2022-08-20 03:53:11 GMT 33.851902 -83.871178 36,000 250 376 -64
2022-08-20 03:53:07 GMT 33.853958 -83.864693 36,000 250 376 -64
2022-08-20 03:53:04 GMT 33.856606 -83.856300 35,975 250 377 0
2022-08-20 03:53:01 GMT 33.858536 -83.850235 35,975 250 377 0
2022-08-20 03:52:58 GMT 33.860374 -83.844566 36,000 250 377 -64
2022-08-20 03:52:55 GMT 33.861355 -83.841415 36,000 249 379 -64
2022-08-20 03:52:51 GMT 33.864166 -83.832581 36,000 249 379 -64
2022-08-20 03:52:48 GMT 33.866661 -83.824944 36,000 250 380 -64
2022-08-20 03:52:44 GMT 33.868607 -83.818848 36,000 250 380 -64
2022-08-20 03:52:41 GMT 33.870152 -83.813896 36,000 250 381 -64
2022-08-20 03:52:38 GMT 33.872154 -83.807549 36,000 250 382 -64
2022-08-20 03:52:35 GMT 33.874668 -83.799644 36,000 250 382 -64
2022-08-20 03:52:32 GMT 33.878716 -83.786942 36,000 250 382 -64
2022-08-20 03:52:28 GMT 33.878716 -83.786942 36,000 250 385 -64
2022-08-20 03:52:25 GMT 33.881195 -83.779213 36,000 250 383 0
2022-08-20 03:52:22 GMT 33.882767 -83.774239 36,000 250 383 0
2022-08-20 03:52:19 GMT 33.884720 -83.768059 35,975 249 384 0
2022-08-20 03:52:16 GMT 33.886642 -83.762062 35,975 249 384 -64
2022-08-20 03:52:13 GMT 33.887787 -83.758476 36,000 250 385 -64
2022-08-20 03:52:10 GMT 33.890404 -83.750267 36,000 250 386 -64
2022-08-20 03:52:07 GMT 33.891705 -83.746262 35,975 250 386 0
2022-08-20 03:52:04 GMT 33.894127 -83.738647 35,975 250 387 0
2022-08-20 03:52:01 GMT 33.896118 -83.732414 35,975 250 388 64
2022-08-20 03:51:58 GMT 33.898361 -83.725372 36,000 250 388 -64
2022-08-20 03:51:55 GMT 33.899899 -83.720573 35,975 250 388 0
2022-08-20 03:51:52 GMT 33.901108 -83.716721 36,000 250 389 -64
2022-08-20 03:51:49 GMT 33.903252 -83.710037 36,000 249 389 0
2022-08-20 03:51:46 GMT 33.905502 -83.702988 36,000 249 390 -64
2022-08-20 03:51:43 GMT 33.907810 -83.695908 36,000 249 390 -128
2022-08-20 03:51:40 GMT 33.909439 -83.690819 36,000 249 391 -64
2022-08-20 03:51:37 GMT 33.911907 -83.683319 36,000 249 391 -64
2022-08-20 03:51:34 GMT 33.913559 -83.678268 36,000 249 391 -64
2022-08-20 03:51:30 GMT 33.915985 -83.670975 36,000 249 391 64
2022-08-20 03:51:27 GMT 33.917637 -83.665924 36,000 249 391 -64
2022-08-20 03:51:24 GMT 33.919968 -83.658875 36,000 249 391 64
2022-08-20 03:51:22 GMT 33.921871 -83.652992 36,000 249 391 64
2022-08-20 03:51:19 GMT 33.923813 -83.647156 35,975 249 391 64
2022-08-20 03:51:16 GMT 33.925735 -83.641258 35,975 249 391 64
2022-08-20 03:51:13 GMT 33.927086 -83.637199 35,975 249 391 64
2022-08-20 03:51:10 GMT 33.930576 -83.626724 36,000 249 391 -64
2022-08-20 03:51:07 GMT 33.931229 -83.624725 36,000 249 391 -128
2022-08-20 03:51:03 GMT 33.934582 -83.614594 36,000 249 391 -128
2022-08-20 03:50:59 GMT 33.937180 -83.606743 36,000 249 390 -128
2022-08-20 03:50:56 GMT 33.938583 -83.602470 36,000 249 390 -128
2022-08-20 03:50:53 GMT 33.940723 -83.596001 36,000 249 390 -128
2022-08-20 03:50:50 GMT 33.943844 -83.586731 36,000 249 390 -64
2022-08-20 03:50:47 GMT 33.945007 -83.583122 36,000 249 391 64
2022-08-20 03:50:44 GMT 33.947388 -83.576027 36,000 249 391 192
2022-08-20 03:50:40 GMT 33.950222 -83.567329 35,975 249 392 448
2022-08-20 03:50:36 GMT 33.952225 -83.561211 35,950 249 392 640
2022-08-20 03:50:33 GMT 33.954803 -83.553322 35,900 249 392 960
2022-08-20 03:50:29 GMT 33.956772 -83.547211 35,800 249 393 896
2022-08-20 03:50:26 GMT 33.958786 -83.541107 35,800 249 393 960
2022-08-20 03:50:22 GMT 33.961624 -83.532310 35,725 249 393 832
2022-08-20 03:50:19 GMT 33.963135 -83.527649 35,625 249 393 960
2022-08-20 03:50:16 GMT 33.965836 -83.519524 35,675 249 393 896
2022-08-20 03:50:12 GMT 33.968189 -83.512405 35,625 249 393 960
2022-08-20 03:50:09 GMT 33.969540 -83.508339 35,550 243 393 960
2022-08-20 03:50:06 GMT 33.972893 -83.498672 35,525 247 393 704
2022-08-20 03:50:03 GMT 33.977051 -83.487686 35,475 245 393 832
2022-08-20 03:50:00 GMT 33.977051 -83.487686 35,450 245 393 832
2022-08-20 03:49:56 GMT 33.979843 -83.481071 35,350 242 393 1024
2022-08-20 03:49:52 GMT 33.983833 -83.472466 35,300 239 393 1152
2022-08-20 03:49:49 GMT 33.989548 -83.461510 35,100 235 395 1280
2022-08-20 03:49:46 GMT 33.989548 -83.461510 35,175 236 394 1152
2022-08-20 03:49:43 GMT 33.992661 -83.456131 35,150 236 395 1216
2022-08-20 03:49:41 GMT 33.995178 -83.451813 35,100 235 395 1216
2022-08-20 03:49:36 GMT 34.001038 -83.441666 34,975 236 396 1344
2022-08-20 03:49:33 GMT 34.006119 -83.433037 34,675 236 397 1152
2022-08-20 03:49:30 GMT 34.006119 -83.433037 34,900 236 397 1152
2022-08-20 03:49:26 GMT 34.011066 -83.424515 34,800 236 397 960
2022-08-20 03:49:23 GMT 34.014046 -83.419418 34,775 236 400 1408
2022-08-20 03:49:21 GMT 34.016792 -83.414726 34,750 236 397 960
2022-08-20 03:49:17 GMT 34.018982 -83.410896 34,675 236 397 1152
2022-08-20 03:49:14 GMT 34.022369 -83.405067 34,600 236 398 1280
2022-08-20 03:49:11 GMT 34.025452 -83.399796 34,500 235 399 1344
2022-08-20 03:49:08 GMT 34.030197 -83.391670 34,500 235 399 1344
2022-08-20 03:49:04 GMT 34.032852 -83.387093 34,375 235 400 1344
2022-08-20 03:49:01 GMT 34.036018 -83.381599 34,375 236 400 1344
2022-08-20 03:48:58 GMT 34.040905 -83.373238 34,300 236 401 1344
2022-08-20 03:48:55 GMT 34.043930 -83.368095 34,075 236 402 1408
2022-08-20 03:48:52 GMT 34.047867 -83.361290 33,975 236 403 1024
2022-08-20 03:48:49 GMT 34.049561 -83.358376 34,075 236 402 1408
2022-08-20 03:48:46 GMT 34.053940 -83.350868 34,025 236 403 768
2022-08-20 03:48:42 GMT 34.057384 -83.344978 33,975 236 403 1024
2022-08-20 03:48:39 GMT 34.061016 -83.338676 33,900 236 403 768
2022-08-20 03:48:35 GMT 34.064880 -83.332047 33,850 236 403 832
2022-08-20 03:48:32 GMT 34.067860 -83.326897 33,825 236 403 768
2022-08-20 03:48:28 GMT 34.071911 -83.319916 33,750 236 402 640
2022-08-20 03:48:25 GMT 34.076111 -83.312744 33,750 236 402 640
2022-08-20 03:48:22 GMT 34.079269 -83.307251 33,700 236 401 640
2022-08-20 03:48:18 GMT 34.083408 -83.300117 33,675 236 400 704
2022-08-20 03:48:14 GMT 34.087688 -83.292786 33,625 236 400 896
2022-08-20 03:48:11 GMT 34.089787 -83.289124 33,600 236 400 768
2022-08-20 03:48:09 GMT 34.093048 -83.283485 33,550 236 400 640
2022-08-20 03:48:05 GMT 34.096954 -83.276711 33,525 236 398 256
2022-08-20 03:48:02 GMT 34.100464 -83.270706 33,500 236 398 192
2022-08-20 03:47:59 GMT 34.102570 -83.267059 33,500 236 394 320
2022-08-20 03:47:56 GMT 34.106781 -83.259834 33,500 236 396 256
2022-08-20 03:47:53 GMT 34.111897 -83.251022 33,425 236 394 320
2022-08-20 03:47:47 GMT 34.116165 -83.243629 33,450 236 392 512
2022-08-20 03:47:43 GMT 34.120148 -83.236794 33,400 236 392 768
2022-08-20 03:47:40 GMT 34.122326 -83.233047 33,375 236 392 832
2022-08-20 03:47:38 GMT 34.124268 -83.229675 33,300 236 391 960
2022-08-20 03:47:34 GMT 34.128563 -83.222298 33,250 236 391 1024
2022-08-20 03:47:31 GMT 34.131958 -83.216393 33,225 236 391 960
2022-08-20 03:47:28 GMT 34.134888 -83.211403 33,150 236 391 960
2022-08-20 03:47:25 GMT 34.139236 -83.203888 33,125 236 391 896
2022-08-20 03:47:21 GMT 34.142349 -83.198509 33,075 236 391 896
2022-08-20 03:47:17 GMT 34.147522 -83.189545 33,000 236 391 832
2022-08-20 03:47:14 GMT 34.149883 -83.185448 32,975 236 391 832
2022-08-20 03:47:10 GMT 34.153423 -83.179382 32,900 236 390 896
2022-08-20 03:47:06 GMT 34.158401 -83.170792 32,850 236 390 832
2022-08-20 03:47:03 GMT 34.160450 -83.167252 32,850 236 390 896
2022-08-20 03:47:00 GMT 34.164047 -83.161011 32,775 236 390 896
2022-08-20 03:46:57 GMT 34.167061 -83.155807 32,700 236 390 1152
2022-08-20 03:46:52 GMT 34.173252 -83.145103 32,650 236 389 1408
2022-08-20 03:46:49 GMT 34.174805 -83.142456 32,600 236 390 1920
2022-08-20 03:46:47 GMT 34.177460 -83.137802 32,550 236 390 1664
2022-08-20 03:46:43 GMT 34.181168 -83.131355 32,425 236 390 1920
2022-08-20 03:46:40 GMT 34.185745 -83.123512 32,300 236 392 2176
2022-08-20 03:46:36 GMT 34.188335 -83.119011 32,200 236 393 2240
2022-08-20 03:46:33 GMT 34.191971 -83.112694 32,075 236 395 2304
2022-08-20 03:46:29 GMT 34.195644 -83.106361 31,950 236 397 2240
2022-08-20 03:46:27 GMT 34.197739 -83.102699 31,925 236 397 2176
2022-08-20 03:46:23 GMT 34.206711 -83.087135 31,675 236 400 2176
2022-08-20 03:46:20 GMT 34.206711 -83.087135 31,575 236 401 2240
2022-08-20 03:46:17 GMT 34.208725 -83.083649 31,525 236 403 2304
2022-08-20 03:46:13 GMT 34.213531 -83.075363 31,275 236 405 2112
2022-08-20 03:46:10 GMT 34.219852 -83.064362 31,150 236 407 2112
2022-08-20 03:46:07 GMT 34.219852 -83.064362 31,150 236 407 2112
2022-08-20 03:46:00 GMT 34.227440 -83.051262 30,875 236 410 1920
2022-08-20 03:45:57 GMT 34.232758 -83.042068 30,725 236 411 1664
2022-08-20 03:45:54 GMT 34.232758 -83.042068 30,700 236 413 1728
2022-08-20 03:45:50 GMT 34.238388 -83.032204 30,600 236 413 1792
2022-08-20 03:45:47 GMT 34.240475 -83.028603 30,600 236 413 1792
2022-08-20 03:45:44 GMT 34.244522 -83.021606 30,475 236 413 1856
2022-08-20 03:45:41 GMT 34.248871 -83.014038 30,350 236 415 1920
2022-08-20 03:45:38 GMT 34.252068 -83.008514 30,075 236 421 1216
2022-08-20 03:45:30 GMT 34.263332 -82.988953 30,025 236 418 1920
2022-08-20 03:45:27 GMT 34.263332 -82.988953 29,975 236 419 1856
2022-08-20 03:45:23 GMT 34.268967 -82.979179 29,775 236 421 1344
2022-08-20 03:45:18 GMT 34.273945 -82.970467 29,675 236 421 960
2022-08-20 03:45:15 GMT 34.276520 -82.966003 29,675 236 421 896
2022-08-20 03:45:10 GMT 34.281418 -82.957481 29,600 236 421 768
2022-08-20 03:45:07 GMT 34.286423 -82.948837 29,550 236 420 704
2022-08-20 03:45:03 GMT 34.289494 -82.943398 29,550 236 420 704
2022-08-20 03:44:58 GMT 34.295685 -82.932648 29,475 236 419 576
2022-08-20 03:44:55 GMT 34.298340 -82.928009 29,400 236 408 384
2022-08-20 03:44:50 GMT 34.305084 -82.916283 29,400 236 417 448
2022-08-20 03:44:46 GMT 34.309372 -82.908836 29,375 236 416 448
2022-08-20 03:44:41 GMT 34.316818 -82.895851 29,350 236 414 512
2022-08-20 03:44:35 GMT 34.320778 -82.889046 29,300 236 413 384
2022-08-20 03:44:28 GMT 34.327606 -82.877106 29,275 236 411 384
2022-08-20 03:44:24 GMT 34.331856 -82.869759 29,250 236 410 384
2022-08-20 03:44:20 GMT 34.337444 -82.859978 29,225 236 408 384
2022-08-20 03:44:15 GMT 34.342941 -82.850426 29,175 236 407 768
2022-08-20 03:44:07 GMT 34.351826 -82.834908 29,025 236 406 1280
2022-08-20 03:44:03 GMT 34.356033 -82.827606 28,850 236 406 1536
2022-08-20 03:43:59 GMT 34.359192 -82.822006 28,875 236 406 1536
2022-08-20 03:43:54 GMT 34.364445 -82.812820 28,725 236 407 1408
2022-08-20 03:43:51 GMT 34.367569 -82.807373 28,150 236 407 1408
2022-08-20 03:43:48 GMT 34.370869 -82.801552 28,625 236 408 1472
2022-08-20 03:43:45 GMT 34.375076 -82.794258 28,525 236 408 1536
2022-08-20 03:43:42 GMT 34.381855 -82.782387 28,075 236 409 1152
2022-08-20 03:43:39 GMT 34.381855 -82.782387 28,400 236 409 1280
2022-08-20 03:43:33 GMT 34.388092 -82.771454 28,250 236 409 1024
2022-08-20 03:43:30 GMT 34.390778 -82.766739 28,250 236 409 1024
2022-08-20 03:43:26 GMT 34.395950 -82.757713 28,175 236 409 1152
2022-08-20 03:43:23 GMT 34.397541 -82.754860 28,100 236 409 1216
2022-08-20 03:43:20 GMT 34.401405 -82.748108 28,075 236 409 1152
2022-08-20 03:43:17 GMT 34.404739 -82.742241 28,000 236 409 896
2022-08-20 03:43:13 GMT 34.410141 -82.732826 27,925 236 409 896
2022-08-20 03:43:10 GMT 34.415604 -82.723213 27,900 236 409 960
2022-08-20 03:43:07 GMT 34.415604 -82.723213 27,875 236 409 896
2022-08-20 03:43:03 GMT 34.419800 -82.715897 27,825 236 409 832
2022-08-20 03:43:00 GMT 34.422260 -82.711540 27,775 236 408 832
2022-08-20 03:42:57 GMT 34.426125 -82.704788 27,750 236 407 704
2022-08-20 03:42:51 GMT 34.433201 -82.692429 27,650 236 406 640
2022-08-20 03:42:46 GMT 34.437973 -82.684006 27,625 236 405 640
2022-08-20 03:42:43 GMT 34.442139 -82.676697 27,575 236 404 640
2022-08-20 03:42:40 GMT 34.444233 -82.672974 27,525 236 404 896
2022-08-20 03:42:37 GMT 34.448471 -82.665543 27,500 236 403 896
2022-08-20 03:42:32 GMT 34.452938 -82.657700 27,400 236 402 1216
2022-08-20 03:42:29 GMT 34.456711 -82.651009 27,350 236 402 1472
2022-08-20 03:42:26 GMT 34.458851 -82.647285 27,325 236 403 1472
2022-08-20 03:42:22 GMT 34.462967 -82.640060 27,075 236 404 1600
2022-08-20 03:42:19 GMT 34.466484 -82.633896 27,100 236 404 1536
2022-08-20 03:42:16 GMT 34.469650 -82.628288 27,075 236 404 1472
2022-08-20 03:42:13 GMT 34.473236 -82.621941 27,000 236 405 1472
2022-08-20 03:42:09 GMT 34.477703 -82.614098 26,900 236 406 1344
2022-08-20 03:42:05 GMT 34.480682 -82.608833 26,850 236 406 1216
2022-08-20 03:41:59 GMT 34.491257 -82.590279 26,750 236 406 896
2022-08-20 03:41:56 GMT 34.491257 -82.590279 26,700 236 406 832
2022-08-20 03:41:53 GMT 34.495163 -82.583366 26,625 236 406 1024
2022-08-20 03:41:48 GMT 34.499863 -82.575127 26,575 236 405 768
2022-08-20 03:41:44 GMT 34.503448 -82.568726 26,525 236 404 704
2022-08-20 03:41:37 GMT 34.511127 -82.555275 26,450 236 404 512
2022-08-20 03:41:34 GMT 34.513962 -82.550262 26,450 236 403 512
2022-08-20 03:41:31 GMT 34.517040 -82.544861 26,400 236 402 512
2022-08-20 03:41:27 GMT 34.522385 -82.535408 26,375 236 401 384
2022-08-20 03:41:24 GMT 34.525131 -82.530586 26,350 236 400 384
2022-08-20 03:41:20 GMT 34.528244 -82.525040 26,350 236 399 384
2022-08-20 03:41:17 GMT 34.531403 -82.519485 26,325 236 398 384
2022-08-20 03:41:14 GMT 34.535568 -82.512146 26,225 236 395 896
2022-08-20 03:41:11 GMT 34.538593 -82.506805 26,275 236 396 704
2022-08-20 03:41:08 GMT 34.542088 -82.500626 26,250 236 396 832
2022-08-20 03:41:03 GMT 34.551815 -82.483406 25,775 236 397 1472
2022-08-20 03:40:58 GMT 34.554935 -82.477966 26,025 236 394 1280
2022-08-20 03:40:55 GMT 34.554935 -82.477966 26,025 236 395 1344
2022-08-20 03:40:51 GMT 34.560013 -82.468987 25,900 236 396 1536
2022-08-20 03:40:48 GMT 34.568203 -82.454514 25,825 236 397 512
2022-08-20 03:40:43 GMT 34.568203 -82.454514 25,725 236 397 1408
2022-08-20 03:40:40 GMT 34.570717 -82.450104 25,675 236 397 1216
2022-08-20 03:40:37 GMT 34.575623 -82.441460 25,600 236 398 1024
2022-08-20 03:40:32 GMT 34.579147 -82.435181 25,525 236 393 1088
2022-08-20 03:40:28 GMT 34.582634 -82.429108 25,025 236 393 1088
2022-08-20 03:40:22 GMT 34.589767 -82.416405 25,450 236 396 512
2022-08-20 03:40:18 GMT 34.598183 -82.401634 25,350 236 394 704
2022-08-20 03:40:14 GMT 34.598183 -82.401634 25,400 236 394 640
2022-08-20 03:40:11 GMT 34.600937 -82.396675 25,350 236 393 768
2022-08-20 03:40:08 GMT 34.603909 -82.391396 25,325 236 393 832
2022-08-20 03:40:04 GMT 34.607819 -82.384476 25,250 236 393 960
2022-08-20 03:40:01 GMT 34.611420 -82.378120 25,225 236 392 1024
2022-08-20 03:39:57 GMT 34.614944 -82.371956 25,150 236 392 1216
2022-08-20 03:39:53 GMT 34.619549 -82.363754 25,075 236 392 1152
2022-08-20 03:39:50 GMT 34.622623 -82.358322 24,950 236 393 1280
2022-08-20 03:39:47 GMT 34.625320 -82.353577 24,925 236 393 1280
2022-08-20 03:39:43 GMT 34.629318 -82.346451 24,900 236 393 1152
2022-08-20 03:39:39 GMT 34.633514 -82.338982 24,850 236 394 1088
2022-08-20 03:39:36 GMT 34.636505 -82.333733 24,750 236 393 768
2022-08-20 03:39:32 GMT 34.641632 -82.324593 24,725 236 393 704
2022-08-20 03:39:29 GMT 34.644516 -82.319489 24,700 236 393 768
2022-08-20 03:39:26 GMT 34.646759 -82.315514 24,675 236 392 704
2022-08-20 03:39:22 GMT 34.650879 -82.308228 24,625 236 392 704
2022-08-20 03:39:18 GMT 34.655777 -82.299484 24,575 236 392 640
2022-08-20 03:39:15 GMT 34.657837 -82.295891 24,575 236 390 640
2022-08-20 03:39:09 GMT 34.664845 -82.283363 24,475 236 390 704
2022-08-20 03:39:04 GMT 34.670338 -82.273636 24,425 236 389 704
2022-08-20 03:39:00 GMT 34.674316 -82.266579 24,375 236 389 832
2022-08-20 03:38:55 GMT 34.678253 -82.259560 24,300 236 388 1088
2022-08-20 03:38:52 GMT 34.682114 -82.252693 24,250 236 388 1344
2022-08-20 03:38:49 GMT 34.684956 -82.247658 24,075 236 389 1664
2022-08-20 03:38:44 GMT 34.689423 -82.239700 23,875 236 389 1664
2022-08-20 03:38:39 GMT 34.695236 -82.229416 23,900 236 390 2112
2022-08-20 03:38:35 GMT 34.699310 -82.222130 23,775 236 392 2240
2022-08-20 03:38:31 GMT 34.703018 -82.215569 23,650 236 394 2048
2022-08-20 03:38:27 GMT 34.708279 -82.206230 23,525 236 395 1344
2022-08-20 03:38:24 GMT 34.710094 -82.202972 23,475 236 395 1152
2022-08-20 03:38:21 GMT 34.713730 -82.196510 23,425 236 395 1088
2022-08-20 03:38:18 GMT 34.716385 -82.191750 23,375 236 395 1088
2022-08-20 03:38:14 GMT 34.721638 -82.182426 23,300 236 394 768
2022-08-20 03:38:10 GMT 34.724525 -82.177277 23,275 236 393 640
2022-08-20 03:38:06 GMT 34.729294 -82.168709 23,225 236 391 896
2022-08-20 03:38:03 GMT 34.731354 -82.165070 23,175 236 391 1024
2022-08-20 03:37:57 GMT 34.738163 -82.152901 23,050 236 390 1152
2022-08-20 03:37:53 GMT 34.741333 -82.147240 23,050 236 390 1216
2022-08-20 03:37:49 GMT 34.745407 -82.140015 22,900 236 390 1280
2022-08-20 03:37:45 GMT 34.750595 -82.130753 22,850 236 390 1088
2022-08-20 03:37:42 GMT 34.752548 -82.127289 22,825 236 390 1088
2022-08-20 03:37:38 GMT 34.756622 -82.120056 22,750 236 390 1152
2022-08-20 03:37:35 GMT 34.759644 -82.114616 22,700 236 390 1088
2022-08-20 03:37:32 GMT 34.762604 -82.109360 22,600 236 389 960
2022-08-20 03:37:29 GMT 34.766739 -82.101952 22,600 236 389 832
2022-08-20 03:37:25 GMT 34.769394 -82.097244 22,550 236 388 704
2022-08-20 03:37:22 GMT 34.772938 -82.090935 22,525 236 388 576
2022-08-20 03:37:16 GMT 34.779648 -82.078911 22,450 236 385 640
2022-08-20 03:37:12 GMT 34.783367 -82.072273 22,400 236 383 1024
2022-08-20 03:37:05 GMT 34.790268 -82.060020 22,300 236 383 1280
2022-08-20 03:37:01 GMT 34.793427 -82.054306 22,225 236 383 1344
2022-08-20 03:36:58 GMT 34.797890 -82.046303 22,125 236 382 1344
2022-08-20 03:36:55 GMT 34.800869 -82.040977 22,075 236 381 1344
2022-08-20 03:36:51 GMT 34.805145 -82.033340 21,975 236 381 1472
2022-08-20 03:36:47 GMT 34.808121 -82.028015 21,900 236 381 1536
2022-08-20 03:36:43 GMT 34.813206 -82.019005 21,775 236 381 1472
2022-08-20 03:36:40 GMT 34.818329 -82.009735 21,700 236 381 1600
2022-08-20 03:36:37 GMT 34.818329 -82.009735 21,650 236 381 1536
2022-08-20 03:36:33 GMT 34.821911 -82.003387 21,550 236 381 1536
2022-08-20 03:36:30 GMT 34.824287 -81.999092 21,500 236 381 1536
2022-08-20 03:36:27 GMT 34.829132 -81.990402 21,375 236 381 1472
2022-08-20 03:36:22 GMT 34.833225 -81.983131 21,250 236 381 1536
2022-08-20 03:36:19 GMT 34.836868 -81.976562 21,200 236 381 1664
2022-08-20 03:36:16 GMT 34.838951 -81.972832 21,150 236 381 1600
2022-08-20 03:36:12 GMT 34.843929 -81.963959 21,000 236 381 1792
2022-08-20 03:36:09 GMT 34.845978 -81.960251 20,950 236 381 1792
2022-08-20 03:36:06 GMT 34.848866 -81.955093 20,875 236 381 1792
2022-08-20 03:35:59 GMT 34.866695 -81.923042 20,400 236 382 1664
2022-08-20 03:35:48 GMT 34.866695 -81.923042 19,900 236 382 1856
2022-08-20 03:35:43 GMT 34.871155 -81.915016 20,275 236 382 1856
2022-08-20 03:35:39 GMT 34.875549 -81.907166 20,150 236 382 1664
2022-08-20 03:35:35 GMT 34.880428 -81.898438 20,050 236 382 1344
2022-08-20 03:35:28 GMT 34.887451 -81.885811 19,900 237 381 1280
2022-08-20 03:35:21 GMT 34.893276 -81.875320 19,775 237 379 1344
2022-08-20 03:35:17 GMT 34.897606 -81.867485 19,675 237 379 1152
2022-08-20 03:35:07 GMT 34.907707 -81.849113 19,475 237 376 1024
2022-08-20 03:35:03 GMT 34.911484 -81.842201 19,425 237 376 1088
2022-08-20 03:34:56 GMT 34.917389 -81.831276 19,275 238 373 1152
2022-08-20 03:34:52 GMT 34.921646 -81.823143 19,200 238 373 1152
2022-08-20 03:34:46 GMT 34.926701 -81.812897 19,125 241 370 1408
2022-08-20 03:34:36 GMT 34.935150 -81.792648 18,850 247 369 1920
2022-08-20 03:34:25 GMT 34.941788 -81.773087 18,500 249 369 2176
2022-08-20 03:34:14 GMT 34.953232 -81.737724 18,150 249 370 1792
2022-08-20 03:34:07 GMT 34.953232 -81.737724 17,975 249 370 1344
2022-08-20 03:34:04 GMT 34.954742 -81.733070 17,900 249 369 1216
2022-08-20 03:33:54 GMT 34.961571 -81.712074 17,725 249 366 1280
2022-08-20 03:33:46 GMT 34.966129 -81.697945 17,550 249 363 1344
2022-08-20 03:33:43 GMT 34.967854 -81.692619 17,525 249 362 1344
2022-08-20 03:33:32 GMT 34.974277 -81.672935 17,250 249 359 1664
2022-08-20 03:33:23 GMT 34.987289 -81.633858 16,950 248 358 1664
2022-08-20 03:33:12 GMT 34.987289 -81.633858 16,700 248 356 2048
2022-08-20 03:33:02 GMT 34.993736 -81.614685 16,325 249 358 2240
2022-08-20 03:32:53 GMT 34.998550 -81.599884 16,050 250 358 2176
2022-08-20 03:32:50 GMT 35.000206 -81.594429 15,950 251 358 2240
2022-08-20 03:32:41 GMT 35.005600 -81.574272 15,600 254 357 2048
2022-08-20 03:32:33 GMT 35.008713 -81.561546 15,400 254 357 1920
2022-08-20 03:32:30 GMT 35.010315 -81.554932 15,300 254 357 1792
2022-08-20 03:32:24 GMT 35.013428 -81.542206 15,125 254 356 1664
2022-08-20 03:32:19 GMT 35.015335 -81.534348 15,025 254 354 1600
2022-08-20 03:32:13 GMT 35.018410 -81.521706 14,800 254 352 1728
2022-08-20 03:32:10 GMT 35.020065 -81.515076 14,750 254 352 1728
2022-08-20 03:32:02 GMT 35.023251 -81.501961 14,550 254 351 1792
2022-08-20 03:31:59 GMT 35.024834 -81.495499 14,450 254 350 1856
2022-08-20 03:31:53 GMT 35.027893 -81.482849 14,250 254 349 1920
2022-08-20 03:31:49 GMT 35.029675 -81.475525 14,125 254 348 1984
2022-08-20 03:31:42 GMT 35.032654 -81.463287 13,925 254 347 1984
2022-08-20 03:31:38 GMT 35.034485 -81.455772 13,800 254 347 1920
2022-08-20 03:31:32 GMT 35.037186 -81.444565 13,625 254 345 1984
2022-08-20 03:31:28 GMT 35.039219 -81.436157 13,475 254 344 1920
2022-08-20 03:31:22 GMT 35.041901 -81.425224 13,300 254 343 2048
2022-08-20 03:31:17 GMT 35.043919 -81.416878 13,150 254 342 2176
2022-08-20 03:31:14 GMT 35.045654 -81.409645 13,000 254 342 2304
2022-08-20 03:31:11 GMT 35.046661 -81.405609 12,925 254 342 2368
2022-08-20 03:31:06 GMT 35.048668 -81.397308 12,750 254 341 2240
2022-08-20 03:31:01 GMT 35.051102 -81.387169 12,575 254 339 1984
2022-08-20 03:30:57 GMT 35.053322 -81.378136 12,425 254 338 1856
2022-08-20 03:30:50 GMT 35.055679 -81.368500 12,275 254 336 1728
2022-08-20 03:30:46 GMT 35.057785 -81.359756 12,150 254 334 1408
2022-08-20 03:30:40 GMT 35.060303 -81.349335 12,025 254 330 1792
2022-08-20 03:30:36 GMT 35.062447 -81.340652 11,850 254 328 2368
2022-08-20 03:30:24 GMT 35.069103 -81.313072 11,275 254 325 1920
2022-08-20 03:30:19 GMT 35.069321 -81.312172 11,275 254 325 1920
2022-08-20 03:30:16 GMT 35.070694 -81.306564 11,175 254 324 1792
2022-08-20 03:30:10 GMT 35.073441 -81.295074 11,000 254 319 1664
2022-08-20 03:30:06 GMT 35.075134 -81.288177 10,900 254 317 1536
2022-08-20 03:29:58 GMT 35.077927 -81.276573 10,750 254 312 1344
2022-08-20 03:29:55 GMT 35.079300 -81.270805 10,675 254 309 1408
2022-08-20 03:29:49 GMT 35.082001 -81.259537 10,525 254 304 1408
2022-08-20 03:29:44 GMT 35.083603 -81.252975 10,425 254 300 1472
2022-08-20 03:29:39 GMT 35.085861 -81.243500 10,275 254 294 1472
2022-08-20 03:29:35 GMT 35.087540 -81.236610 10,200 254 292 1472
2022-08-20 03:29:28 GMT 35.089821 -81.227074 10,000 254 288 2560
2022-08-20 03:29:24 GMT 35.091431 -81.220352 9,800 254 287 2688
2022-08-20 03:29:17 GMT 35.093765 -81.210716 9,300 254 286 2624
2022-08-20 03:29:14 GMT 35.095184 -81.204826 9,375 254 286 2624
2022-08-20 03:29:08 GMT 35.097565 -81.194908 9,100 254 285 2752
2022-08-20 03:29:04 GMT 35.099121 -81.188400 8,925 254 285 2880
2022-08-20 03:28:56 GMT 35.101643 -81.178040 8,625 254 285 2752
2022-08-20 03:28:51 GMT 35.103645 -81.169685 8,400 254 284 2624
2022-08-20 03:28:46 GMT 35.105438 -81.162170 8,175 254 284 2688
2022-08-20 03:28:43 GMT 35.107182 -81.155693 6,700 254 276 3456
2022-08-20 03:28:42 GMT 35.107529 -81.154190 6,700 254 276 3456
2022-08-20 03:28:41 GMT 35.108238 -81.151199 6,700 254 276 3456
2022-08-20 03:28:39 GMT 35.108589 -81.149696 6,700 254 276 3456
2022-08-20 03:28:38 GMT 35.108952 -81.148201 6,700 254 276 3456
2022-08-20 03:28:37 GMT 35.109299 -81.146713 6,700 254 276 3456
2022-08-20 03:28:36 GMT 35.110008 -81.143707 6,700 254 276 3456
2022-08-20 03:28:34 GMT 35.110359 -81.142220 6,700 254 276 3456
2022-08-20 03:28:33 GMT 35.110710 -81.140717 6,700 254 276 3456
2022-08-20 03:28:32 GMT 35.111069 -81.139221 6,700 254 276 3456
2022-08-20 03:28:31 GMT 35.111771 -81.136230 6,700 254 276 3456
2022-08-20 03:28:29 GMT 35.112129 -81.134727 6,700 254 276 3456
2022-08-20 03:28:28 GMT 35.112480 -81.133232 6,700 254 276 3456
2022-08-20 03:28:26 GMT 35.113178 -81.130241 6,700 254 276 3456
2022-08-20 03:28:25 GMT 35.113541 -81.128738 6,700 254 276 3456
2022-08-20 03:28:24 GMT 35.113892 -81.127243 6,700 254 276 3456
2022-08-20 03:28:23 GMT 35.114601 -81.124252 6,700 254 276 3456
2022-08-20 03:28:21 GMT 35.114948 -81.122749 6,700 254 276 3456
2022-08-20 03:28:20 GMT 35.115299 -81.121246 6,700 254 276 3456
2022-08-20 03:28:19 GMT 35.116009 -81.118248 6,700 254 276 3456
2022-08-20 03:28:17 GMT 35.116360 -81.116760 6,700 254 276 3456
2022-08-20 03:28:16 GMT 35.116718 -81.115257 6,700 254 276 3456
2022-08-20 03:28:15 GMT 35.117420 -81.112259 6,700 254 276 3456
2022-08-20 03:28:13 GMT 35.117771 -81.110771 6,700 254 276 3456
2022-08-20 03:28:12 GMT 35.118141 -81.109138 6,500 254 275 3456
2022-08-20 03:28:11 GMT 35.118839 -81.106171 6,500 254 275 3456
2022-08-20 03:28:09 GMT 35.119190 -81.104683 6,500 254 275 3456
2022-08-20 03:28:08 GMT 35.119541 -81.103188 6,500 254 275 3456
2022-08-20 03:28:07 GMT 35.120220 -81.100319 6,300 253 276 3456
2022-08-20 03:28:05 GMT 35.120571 -81.098824 6,300 253 276 3456
2022-08-20 03:28:04 GMT 35.120930 -81.097328 6,300 253 276 3456
2022-08-20 03:28:02 GMT 35.121490 -81.094398 6,000 253 279 3456
2022-08-20 03:28:01 GMT 35.121849 -81.092903 6,000 253 279 3456
2022-08-20 03:28:00 GMT 35.122219 -81.091393 6,000 253 279 3456
2022-08-20 03:27:59 GMT 35.122581 -81.089882 6,000 253 279 3456
2022-08-20 03:27:57 GMT 35.123329 -81.086967 5,800 253 280 3456
2022-08-20 03:27:56 GMT 35.123692 -81.085449 5,800 253 280 3456
2022-08-20 03:27:55 GMT 35.124062 -81.083939 5,800 253 280 3456
2022-08-20 03:27:52 GMT 35.125179 -81.079460 5,300 253 281 3456
2022-08-20 03:27:51 GMT 35.125542 -81.077942 5,300 253 281 2432
2022-08-20 03:27:50 GMT 35.126228 -81.074791 5,300 253 280 2432
2022-08-20 03:27:48 GMT 35.126591 -81.073280 5,300 253 280 2432
2022-08-20 03:27:47 GMT 35.126961 -81.071770 5,300 253 280 2432
2022-08-20 03:27:46 GMT 35.127689 -81.068741 5,300 253 280 2432
2022-08-20 03:27:44 GMT 35.127998 -81.067032 5,000 253 277 2432
2022-08-20 03:27:43 GMT 35.128368 -81.065529 5,000 253 277 2432
2022-08-20 03:27:41 GMT 35.129101 -81.062531 5,000 253 277 2432
2022-08-20 03:27:40 GMT 35.129471 -81.061028 5,000 253 277 2432
2022-08-20 03:27:39 GMT 35.129971 -81.059853 4,600 254 282 2432
2022-08-20 03:27:37 GMT 35.130692 -81.056793 4,600 254 282 2432
2022-08-20 03:27:36 GMT 35.131050 -81.055260 4,600 254 282 2432
2022-08-20 03:27:35 GMT 35.131641 -81.052200 4,600 253 281 2432
2022-08-20 03:27:33 GMT 35.132011 -81.050682 4,600 253 281 2432
2022-08-20 03:27:32 GMT 35.132381 -81.049156 4,600 253 281 2432
2022-08-20 03:27:31 GMT 35.132759 -81.047638 4,600 253 281 2432
2022-08-20 03:27:29 GMT 35.133652 -81.044739 4,300 254 279 2432
2022-08-20 03:27:28 GMT 35.133999 -81.043221 4,300 254 279 2432
2022-08-20 03:27:27 GMT 35.134338 -81.041710 4,300 254 279 2432
2022-08-20 03:27:26 GMT 35.134869 -81.038467 4,300 253 271 2432
2022-08-20 03:27:24 GMT 35.135239 -81.037003 4,300 253 271 2432
2022-08-20 03:27:23 GMT 35.135601 -81.035538 4,300 253 271 2432
2022-08-20 03:27:22 GMT 35.135971 -81.034081 4,300 253 271 2432
2022-08-20 03:27:20 GMT 35.136761 -81.030434 4,200 253 248 2432
2022-08-20 03:27:19 GMT 35.137100 -81.029091 4,200 253 248 2432
2022-08-20 03:27:18 GMT 35.137428 -81.027748 4,200 253 248 2432
2022-08-20 03:27:16 GMT 35.138180 -81.024567 3,900 253 241 2432
2022-08-20 03:27:15 GMT 35.138500 -81.023270 3,900 253 241 2432
2022-08-20 03:27:13 GMT 35.139149 -81.020668 3,900 253 241 2432
2022-08-20 03:27:12 GMT 35.139729 -81.019119 3,900 254 234 2432
2022-08-20 03:27:11 GMT 35.140030 -81.017838 3,900 254 234 2432
2022-08-20 03:27:10 GMT 35.140610 -81.015297 3,900 254 234 2432
2022-08-20 03:27:08 GMT 35.140911 -81.014023 3,900 254 234 2432
2022-08-20 03:27:07 GMT 35.141251 -81.012932 3,800 253 240 2432
2022-08-20 03:27:06 GMT 35.141548 -81.011627 3,800 253 240 2432
2022-08-20 03:27:04 GMT 35.142151 -81.009018 3,800 253 240 2432
2022-08-20 03:27:03 GMT 35.142448 -81.007713 3,800 253 240 2432
2022-08-20 03:27:02 GMT 35.142590 -81.006508 3,600 252 246 2432
2022-08-20 03:27:01 GMT 35.142929 -81.005180 3,600 252 246 2432
2022-08-20 03:26:59 GMT 35.143661 -81.002487 3,600 252 242 2432
2022-08-20 03:26:58 GMT 35.144001 -81.001167 3,600 252 241 2432
2022-08-20 03:26:57 GMT 35.144321 -80.999878 3,600 252 241 2432
2022-08-20 03:26:56 GMT 35.144989 -80.997307 3,600 251 242 2432
2022-08-20 03:26:54 GMT 35.145351 -80.996010 3,600 252 241 2432
2022-08-20 03:26:53 GMT 35.146049 -80.993469 3,475 251 241 2432
2022-08-20 03:26:51 GMT 35.146420 -80.992188 3,475 251 239 32
2022-08-20 03:26:50 GMT 35.146801 -80.990837 3,475 250 234 32
2022-08-20 03:26:48 GMT 35.147530 -80.988380 3,400 250 233 32
2022-08-20 03:26:47 GMT 35.147900 -80.987152 3,300 249 232 32
2022-08-20 03:26:46 GMT 35.148232 -80.985939 3,300 248 233 32
2022-08-20 03:26:45 GMT 35.149021 -80.983437 3,200 246 226 32
2022-08-20 03:26:43 GMT 35.149422 -80.982231 3,200 244 225 32
2022-08-20 03:26:42 GMT 35.149830 -80.981087 3,200 244 225 32
2022-08-20 03:26:41 GMT 35.150749 -80.978851 3,100 243 225 32
2022-08-20 03:26:39 GMT 35.151180 -80.977692 3,075 242 223 32
2022-08-20 03:26:38 GMT 35.151680 -80.976578 3,075 242 222 32
2022-08-20 03:26:37 GMT 35.152180 -80.975449 3,075 241 219 32
2022-08-20 03:26:36 GMT 35.153179 -80.973289 3,000 240 217 32
2022-08-20 03:26:34 GMT 35.153671 -80.972221 3,000 240 215 32
2022-08-20 03:26:33 GMT 35.154171 -80.971184 2,900 239 215 32
2022-08-20 03:26:32 GMT 35.154678 -80.970154 2,900 239 215 32
2022-08-20 03:26:31 GMT 35.155708 -80.968117 2,825 237 215 32
2022-08-20 03:26:29 GMT 35.156239 -80.967102 2,825 236 213 32
2022-08-20 03:26:28 GMT 35.156750 -80.966103 2,825 234 213 32
2022-08-20 03:26:27 GMT 35.157890 -80.964142 2,800 231 209 32
2022-08-20 03:26:25 GMT 35.158482 -80.963249 2,750 230 210 32
2022-08-20 03:26:24 GMT 35.159088 -80.962357 2,750 228 210 32
2022-08-20 03:26:22 GMT 35.160381 -80.960587 2,525 225 204 32
2022-08-20 03:26:21 GMT 35.160992 -80.959747 2,525 223 204 32
2022-08-20 03:26:20 GMT 35.161659 -80.958908 2,525 221 201 32
2022-08-20 03:26:19 GMT 35.163029 -80.957413 2,525 218 199 32
2022-08-20 03:26:17 GMT 35.163738 -80.956680 2,525 216 197 32
2022-08-20 03:26:16 GMT 35.164410 -80.956032 2,525 213 198 -224
2022-08-20 03:26:14 GMT 35.165890 -80.954803 2,500 210 198 1600
2022-08-20 03:26:13 GMT 35.166660 -80.954231 2,500 208 196 1600
2022-08-20 03:26:12 GMT 35.167542 -80.953682 2,500 207 188 1600
2022-08-20 03:26:11 GMT 35.168270 -80.953163 2,425 205 189 1600
2022-08-20 03:26:09 GMT 35.169842 -80.952248 2,425 200 184 1600
2022-08-20 03:26:08 GMT 35.170681 -80.951828 2,425 198 179 1600
2022-08-20 03:26:07 GMT 35.171429 -80.951477 2,350 196 180 1600
2022-08-20 03:26:05 GMT 35.173012 -80.950851 2,350 190 177 1600
2022-08-20 03:26:04 GMT 35.173801 -80.950623 2,300 188 176 1600
2022-08-20 03:26:03 GMT 35.174591 -80.950447 2,300 186 176 1600
2022-08-20 03:26:01 GMT 35.176220 -80.950157 2,175 183 172 1600
2022-08-20 03:26:00 GMT 35.176991 -80.950027 2,175 181 174 1600
2022-08-20 03:25:59 GMT 35.178680 -80.949928 2,200 179 164 1600
2022-08-20 03:25:57 GMT 35.179440 -80.949867 2,100 177 166 1600
2022-08-20 03:25:56 GMT 35.180241 -80.949921 2,100 177 162 1600
2022-08-20 03:25:55 GMT 35.181000 -80.949951 2,100 177 162 1600
2022-08-20 03:25:53 GMT 35.182560 -80.949997 1,925 177 159 1600
2022-08-20 03:25:52 GMT 35.183350 -80.950020 1,925 176 155 1600
2022-08-20 03:25:51 GMT 35.184059 -80.950081 1,925 177 157 1152
2022-08-20 03:25:50 GMT 35.185551 -80.950172 1,925 178 156 1152
2022-08-20 03:25:48 GMT 35.186230 -80.950233 1,825 179 161 1152
2022-08-20 03:25:47 GMT 35.186981 -80.950211 1,825 178 160 1152
2022-08-20 03:25:45 GMT 35.188511 -80.950241 1,600 178 154 1152
2022-08-20 03:25:44 GMT 35.189240 -80.950218 1,600 177 150 1152
2022-08-20 03:25:43 GMT 35.189899 -80.950272 1,600 177 155 1152
2022-08-20 03:25:42 GMT 35.191319 -80.950394 1,600 179 155 1152
2022-08-20 03:25:40 GMT 35.192051 -80.950409 1,600 179 153 1152
2022-08-20 03:25:39 GMT 35.193481 -80.950417 1,450 177 154 1152
2022-08-20 03:25:37 GMT 35.194191 -80.950470 1,450 178 151 1152
2022-08-20 03:25:36 GMT 35.194920 -80.950462 1,450 176 148 1152
2022-08-20 03:25:35 GMT 35.195572 -80.950508 1,400 176 153 1152
2022-08-20 03:25:33 GMT 35.197029 -80.950577 1,325 175 151 1152
2022-08-20 03:25:32 GMT 35.197701 -80.950661 1,000 176 157 1152
2022-08-20 03:25:31 GMT 35.199139 -80.950760 1,000 177 154 1152
2022-08-20 03:25:29 GMT 35.199841 -80.950790 1,000 177 152 1152
2022-08-20 03:25:28 GMT 35.201229 -80.950867 1,000 176 154 1152
2022-08-20 03:25:26 GMT 35.201931 -80.950920 1,000 175 158 1152
2022-08-20 03:25:25 GMT 35.202679 -80.950958 1,000 174 152 1152
2022-08-20 03:25:24 GMT 35.203350 -80.951050 975 175 156 1152
2022-08-20 03:25:22 GMT 35.204762 -80.951187 800 175 158 1152
2022-08-20 03:25:21 GMT 35.205502 -80.951271 800 175 157 1152
2022-08-20 03:25:20 GMT 35.206951 -80.951439 675 176 158 1152
2022-08-20 03:25:17 GMT 35.208382 -80.951569 675 176 161 1152
2022-08-20 03:25:16 GMT 35.209129 -80.951630 625 176 160 1152
2022-08-20 03:25:15 GMT 35.209850 -80.951698 525 176 160 1152
2022-08-20 03:25:14 GMT 35.211281 -80.951797 525 175 161 1152
2022-08-20 03:25:12 GMT 35.212021 -80.951859 525 175 158 -416
2022-08-20 03:25:11 GMT 35.212780 -80.951958 525 176 152 960
2022-08-20 03:25:09 GMT 35.214161 -80.952049 525 175 148 736
2022-08-20 03:25:08 GMT 35.214851 -80.952103 525 175 145 -1344
2022-08-20 03:25:07 GMT 35.215549 -80.952202 525 177 138 -1344
2022-08-20 03:25:06 GMT 35.216820 -80.952278 550 176 132 352
2022-08-20 03:25:04 GMT 35.217430 -80.952347 550 177 128 -1248
2022-08-20 03:25:03 GMT 35.218040 -80.952377 550 176 123 -1248
2022-08-20 03:25:01 GMT 35.219189 -80.952454 550 175 114 -1248
2022-08-20 03:25:00 GMT 35.219711 -80.952530 550 176 111 -1248
2022-08-20 03:24:59 GMT 35.220230 -80.952583 0 176 108 -1248
2022-08-20 03:24:58 GMT 35.220718 -80.952583 0 175 107 -1248
2022-08-20 03:24:56 GMT 35.221691 -80.952660 0 174 96 0
2022-08-20 03:24:55 GMT 35.222149 -80.952698 0 173 91 0
2022-08-20 03:24:54 GMT 35.222580 -80.952751 0 174 88 0
2022-08-20 03:24:53 GMT 35.223389 -80.952888 0 176 76 0
2022-08-20 03:24:51 GMT 35.223751 -80.952911 0 176 71 0
2022-08-20 03:24:50 GMT 35.224091 -80.952927 0 176 66 -128
2022-08-20 03:24:49 GMT 35.224411 -80.953003 0 179 61 -128
2022-08-20 03:24:47 GMT 35.225010 -80.953033 0 179 50 -128
2022-08-20 03:24:46 GMT 35.225250 -80.952980 0 175 47 -128
2022-08-20 03:24:45 GMT 35.225491 -80.953011 0 176 41 0
2022-08-20 03:24:44 GMT 35.225910 -80.953033 0 173 30 0
2022-08-20 03:24:42 GMT 35.226082 -80.953110 0 181 25 0
2022-08-20 03:24:41 GMT 35.226250 -80.953072 0 174 19 0
2022-08-20 03:24:39 GMT 35.226440 -80.953087 0 170 16 0
2022-08-20 03:24:38 GMT 35.226551 -80.953117 0 173 10 0
2022-08-20 03:24:37 GMT 35.226582 -80.953133 0 176 13 0
2022-08-20 03:24:35 GMT 35.226730 -80.953148 0 177 8 0
2022-08-20 03:24:34 GMT 35.226761 -80.953140 0 169 8 0
2022-08-20 03:24:33 GMT 35.226810 -80.953133 0 170 8 0
2022-08-20 03:24:31 GMT 35.226849 -80.953140 0 170 12 0
2022-08-20 03:24:30 GMT 35.226921 -80.953148 0 169 9 0
2022-08-20 03:24:29 GMT 35.226959 -80.953148 0 165 9 0
2022-08-20 03:24:28 GMT 35.227039 -80.953178 0 186 7 0
2022-08-20 03:24:26 GMT 35.227051 -80.953209 0 205 8 0
2022-08-20 03:24:25 GMT 35.227131 -80.953201 0 239 8 0
2022-08-20 03:24:23 GMT 35.227169 -80.953194 0 246 7 0
2022-08-20 03:24:22 GMT 35.227200 -80.953171 0 240 8 0
2022-08-20 03:24:21 GMT 35.227211 -80.953102 0 230 4 0
2022-08-20 03:24:18 GMT 35.227230 -80.953056 0 266 8 0
2022-08-20 03:24:17 GMT 35.227230 -80.953049 0 261 13 0
2022-08-20 03:24:16 GMT 35.227268 -80.952888 0 269 13 0
2022-08-20 03:24:14 GMT 35.227249 -80.952820 0 264 13 0
2022-08-20 03:24:13 GMT 35.227261 -80.952744 0 263 12 0
2022-08-20 03:24:12 GMT 35.227268 -80.952698 0 266 15 0
2022-08-20 03:24:11 GMT 35.227280 -80.952538 0 266 15 0
2022-08-20 03:24:09 GMT 35.227280 -80.952454 0 266 15 0
2022-08-20 03:24:08 GMT 35.227291 -80.952370 0 269 15 0
2022-08-20 03:24:06 GMT 35.227280 -80.952209 0 263 13 0
2022-08-20 03:24:05 GMT 35.227280 -80.952171 0 263 17 0
2022-08-20 03:24:04 GMT 35.227299 -80.952049 0 267 15 0
2022-08-20 03:24:03 GMT 35.227310 -80.951881 0 268 12 0
2022-08-20 03:24:01 GMT 35.227299 -80.951820 0 268 13 0
2022-08-20 03:24:00 GMT 35.227299 -80.951759 0 270 14 0
2022-08-20 03:23:59 GMT 35.227310 -80.951683 0 280 12 0
2022-08-20 03:23:57 GMT 35.227310 -80.951553 0 293 13 0
2022-08-20 03:23:56 GMT 35.227310 -80.951477 0 303 13 0
2022-08-20 03:23:55 GMT 35.227230 -80.951317 0 327 9 0
2022-08-20 03:23:53 GMT 35.227211 -80.951271 0 336 9 0
2022-08-20 03:23:51 GMT 35.227150 -80.951210 0 342 9 0
2022-08-20 03:23:50 GMT 35.227119 -80.951218 0 338 12 0
2022-08-20 03:23:49 GMT 35.227058 -80.951172 0 346 10 0
2022-08-20 03:23:48 GMT 35.227009 -80.951118 0 0 10 0
2022-08-20 03:23:46 GMT 35.226940 -80.951134 0 354 12 0
2022-08-20 03:23:45 GMT 35.226879 -80.951141 0 348 12 0
2022-08-20 03:23:44 GMT 35.226830 -80.951149 0 345 13 0
2022-08-20 03:23:43 GMT 35.226719 -80.951080 0 357 13 0
2022-08-20 03:23:41 GMT 35.226650 -80.951118 0 345 13 0
2022-08-20 03:23:40 GMT 35.226509 -80.951050 0 3 9 0
2022-08-20 03:23:38 GMT 35.226471 -80.951042 0 3 9 0
2022-08-20 03:23:37 GMT 35.226452 -80.951057 0 357 13 0
2022-08-20 03:23:35 GMT 35.226341 -80.951050 0 359 15 0
2022-08-20 03:23:34 GMT 35.226269 -80.951050 0 357 14 0
2022-08-20 03:23:33 GMT 35.226139 -80.951019 0 4 14 0
2022-08-20 03:23:31 GMT 35.226082 -80.951042 0 358 13 0
2022-08-20 03:23:30 GMT 35.226021 -80.951042 0 354 14 0
2022-08-20 03:23:29 GMT 35.225960 -80.951012 0 4 13 0
2022-08-20 03:23:27 GMT 35.225830 -80.951057 0 350 11 0
2022-08-20 03:23:26 GMT 35.225780 -80.951057 0 347 12 0
2022-08-20 03:23:24 GMT 35.225670 -80.951027 0 345 12 0
2022-08-20 03:23:23 GMT 35.225609 -80.951027 0 344 12 0
2022-08-20 03:23:22 GMT 35.225540 -80.950974 0 0 10 0
2022-08-20 03:23:21 GMT 35.225449 -80.950958 0 8 11 0
2022-08-20 03:23:19 GMT 35.225410 -80.950981 0 0 12 0
2022-08-20 03:23:18 GMT 35.225361 -80.951012 0 353 13 0
2022-08-20 03:23:17 GMT 35.225288 -80.950996 0 352 12 0
2022-08-20 03:23:15 GMT 35.225170 -80.950981 0 358 10 0
2022-08-20 03:23:14 GMT 35.225151 -80.950958 0 7 13 0
2022-08-20 03:23:13 GMT 35.225010 -80.950989 0 352 12 0
2022-08-20 03:23:11 GMT 35.224930 -80.950989 0 342 8 0
2022-08-20 03:23:10 GMT 35.224869 -80.950958 0 344 11 0
2022-08-20 03:23:08 GMT 35.224812 -80.950951 0 351 9 0
2022-08-20 03:23:07 GMT 35.224781 -80.950928 0 1 12 0
2022-08-20 03:23:06 GMT 35.224682 -80.950882 0 18 13 0
2022-08-20 03:23:04 GMT 35.224621 -80.950912 0 0 12 0
2022-08-20 03:23:03 GMT 35.224571 -80.950996 0 346 12 0
2022-08-20 03:23:01 GMT 35.224442 -80.950951 0 351 8 0
2022-08-20 03:22:59 GMT 35.224380 -80.950920 0 357 11 0
2022-08-20 03:22:58 GMT 35.224339 -80.950928 0 353 12 0
2022-08-20 03:22:57 GMT 35.224270 -80.950928 0 350 10 0
2022-08-20 03:22:56 GMT 35.224220 -80.950928 0 346 10 0
2022-08-20 03:22:54 GMT 35.224129 -80.950928 0 342 12 0
2022-08-20 03:22:53 GMT 35.224049 -80.950882 0 353 7 0
2022-08-20 03:22:52 GMT 35.224041 -80.950882 0 354 9 0
2022-08-20 03:22:50 GMT 35.223961 -80.950851 0 357 10 0
2022-08-20 03:22:49 GMT 35.223930 -80.950882 0 351 12 0
2022-08-20 03:22:48 GMT 35.223881 -80.950859 0 357 13 0
2022-08-20 03:22:46 GMT 35.223759 -80.950829 0 359 11 0
2022-08-20 03:22:45 GMT 35.223709 -80.950851 0 0 8 32
2022-08-20 03:22:44 GMT 35.223671 -80.950829 0 356 8 32
2022-08-20 03:22:43 GMT 35.223640 -80.950867 0 354 10 32
2022-08-20 03:22:41 GMT 35.223541 -80.950844 0 347 9 32
2022-08-20 03:22:40 GMT 35.223480 -80.950851 0 348 7 32
2022-08-20 03:22:39 GMT 35.223469 -80.950844 0 358 10 32
2022-08-20 03:22:38 GMT 35.223389 -80.950790 0 6 8 32
2022-08-20 03:22:36 GMT 35.223339 -80.950813 0 356 8 32
2022-08-20 03:22:35 GMT 35.223309 -80.950821 0 356 10 32
2022-08-20 03:22:33 GMT 35.223221 -80.950844 0 343 9 32
2022-08-20 03:22:32 GMT 35.223202 -80.950829 0 350 11 32
2022-08-20 03:22:31 GMT 35.223129 -80.950821 0 355 9 32
2022-08-20 03:22:29 GMT 35.223061 -80.950760 0 5 8 32
2022-08-20 03:22:28 GMT 35.223030 -80.950790 0 357 8 32
2022-08-20 03:22:27 GMT 35.222950 -80.950783 0 1 8 32
2022-08-20 03:22:25 GMT 35.222931 -80.950798 0 359 9 32
2022-08-20 03:22:24 GMT 35.222881 -80.950783 0 358 6 32
2022-08-20 03:22:23 GMT 35.222870 -80.950813 0 349 10 32
2022-08-20 03:22:21 GMT 35.222790 -80.950790 0 351 8 32
2022-08-20 03:22:20 GMT 35.222759 -80.950783 0 355 9 32
2022-08-20 03:22:19 GMT 35.222660 -80.950752 0 19 5 32
2022-08-20 03:22:17 GMT 35.222641 -80.950729 0 12 5 32
2022-08-20 03:22:16 GMT 35.222641 -80.950737 0 358 7 32
2022-08-20 03:22:15 GMT 35.222610 -80.950768 0 350 8 32
2022-08-20 03:22:14 GMT 35.222519 -80.950752 0 348 6 32
2022-08-20 03:22:12 GMT 35.222488 -80.950737 0 346 6 32
2022-08-20 03:22:11 GMT 35.222469 -80.950752 0 336 7 32
2022-08-20 03:22:10 GMT 35.222401 -80.950722 0 340 6 32
2022-08-20 03:22:08 GMT 35.222389 -80.950722 0 340 8 32
2022-08-20 03:22:07 GMT 35.222340 -80.950684 0 336 6 32
2022-08-20 03:22:05 GMT 35.222279 -80.950722 0 300 7 32
2022-08-20 03:22:04 GMT 35.222260 -80.950706 0 294 9 32
2022-08-20 03:22:03 GMT 35.222240 -80.950653 0 295 7 0
2022-08-20 03:22:02 GMT 35.222221 -80.950607 0 301 6 0
2022-08-20 03:22:01 GMT 35.222210 -80.950546 0 309 4 0
2022-08-20 03:21:59 GMT 35.222198 -80.950531 0 294 4 0
2022-08-20 03:21:58 GMT 35.222191 -80.950531 0 284 6 0
2022-08-20 03:21:56 GMT 35.222130 -80.950500 0 254 8 0
2022-08-20 03:21:55 GMT 35.222130 -80.950462 0 258 9 0
2022-08-20 03:21:54 GMT 35.222149 -80.950378 0 263 7 0
2022-08-20 03:21:52 GMT 35.222172 -80.950310 0 275 7 0
2022-08-20 03:21:51 GMT 35.222172 -80.950272 0 276 8 0
2022-08-20 03:21:49 GMT 35.222179 -80.950203 0 292 9 0
2022-08-20 03:21:47 GMT 35.222160 -80.950058 0 308 4 0
2022-08-20 03:21:46 GMT 35.222172 -80.950073 0 302 7 0
2022-08-20 03:21:44 GMT 35.222111 -80.949966 0 331 10 0
2022-08-20 03:21:42 GMT 35.222069 -80.949867 0 348 6 0
2022-08-20 03:21:41 GMT 35.222050 -80.949829 0 359 5 0
2022-08-20 03:21:40 GMT 35.222019 -80.949791 0 10 9 0
2022-08-20 03:21:38 GMT 35.221958 -80.949806 0 10 7 0
2022-08-20 03:21:37 GMT 35.221931 -80.949837 0 358 6 0
2022-08-20 03:21:36 GMT 35.221909 -80.949883 0 353 8 0
2022-08-20 03:21:34 GMT 35.221851 -80.949860 0 346 7 0
2022-08-20 03:21:33 GMT 35.221809 -80.949860 0 346 7 0
2022-08-20 03:21:32 GMT 35.221771 -80.949829 0 348 7 0
2022-08-20 03:21:31 GMT 35.221722 -80.949806 0 331 8 0
2022-08-20 03:21:29 GMT 35.221661 -80.949860 0 337 8 0
2022-08-20 03:21:28 GMT 35.221642 -80.949791 0 351 7 0
2022-08-20 03:21:27 GMT 35.221630 -80.949753 0 358 8 0
2022-08-20 03:21:26 GMT 35.221588 -80.949760 0 351 8 0
2022-08-20 03:21:24 GMT 35.221519 -80.949730 0 359 8 0
2022-08-20 03:21:23 GMT 35.221470 -80.949738 0 348 7 0
2022-08-20 03:21:22 GMT 35.221371 -80.949799 0 333 3 0
2022-08-20 03:21:20 GMT 35.221401 -80.949760 0 333 5 0
2022-08-20 03:21:19 GMT 35.221390 -80.949768 0 330 9 0
2022-08-20 03:21:17 GMT 35.221329 -80.949707 0 324 7 -64
2022-08-20 03:21:16 GMT 35.221298 -80.949707 0 311 7 -64
2022-08-20 03:21:15 GMT 35.221249 -80.949707 0 302 7 -64
2022-08-20 03:21:13 GMT 35.221199 -80.949654 0 291 5 -64
2022-08-20 03:21:12 GMT 35.221199 -80.949608 0 292 5 -64
2022-08-20 03:21:11 GMT 35.221191 -80.949600 0 286 7 -64
2022-08-20 03:21:09 GMT 35.221149 -80.949539 0 270 7 -64
2022-08-20 03:21:08 GMT 35.221142 -80.949509 0 268 8 -64
2022-08-20 03:21:07 GMT 35.221142 -80.949463 0 267 7 -64
2022-08-20 03:21:05 GMT 35.221142 -80.949379 0 264 8 -64
2022-08-20 03:21:04 GMT 35.221149 -80.949333 0 265 8 -64
2022-08-20 03:21:03 GMT 35.221149 -80.949219 0 262 7 -64
2022-08-20 03:21:01 GMT 35.221149 -80.949150 0 261 4 -64
2022-08-20 03:21:00 GMT 35.221161 -80.949120 0 266 4
2022-08-20 03:20:58 GMT 35.221169 -80.949097 0 265 7
2022-08-20 03:20:57 GMT 35.221149 -80.949127 0 265 13
2022-08-20 03:20:56 GMT 35.221169 -80.948990 0 267 8
2022-08-20 03:20:54 GMT 35.221180 -80.948853 0 278 3
2022-08-20 03:20:53 GMT 35.221191 -80.948853 0 276 4
2022-08-20 03:20:52 GMT 35.221180 -80.948830 0 279 5
2022-08-20 03:20:50 GMT 35.221199 -80.948822 0 293 9
2022-08-20 03:20:49 GMT 35.221260 -80.948837 0 296 17
We lost coverage of the aircraft here for a total of 264 minutes
2022-08-19 22:57:02 GMT 35.221169 -80.948502 0 87 9 0
2022-08-19 22:57:01 GMT 35.221180 -80.948547 0 87 9 0
2022-08-19 22:56:59 GMT 35.221180 -80.948662 0 87 9 0
2022-08-19 22:56:58 GMT 35.221199 -80.948700 0 86 10 0
2022-08-19 22:56:56 GMT 35.221191 -80.948860 0 90 4 0
2022-08-19 22:56:55 GMT 35.221199 -80.948883 0 92 6 0
2022-08-19 22:56:54 GMT 35.221161 -80.948952 0 89 6 0
2022-08-19 22:56:53 GMT 35.221180 -80.948921 0 87 12 0
2022-08-19 22:56:51 GMT 35.221180 -80.948982 0 85 14 0
2022-08-19 22:56:50 GMT 35.221161 -80.949120 0 93 15 0
2022-08-19 22:56:48 GMT 35.221149 -80.949188 0 92 15 0
2022-08-19 22:56:47 GMT 35.221161 -80.949432 0 48 8 0
2022-08-19 22:56:45 GMT 35.221161 -80.949463 0 43 9 0
2022-08-19 22:56:43 GMT 35.221142 -80.949539 0 22 11 0
2022-08-19 22:56:42 GMT 35.221100 -80.949593 0 16 13 0
2022-08-19 22:56:41 GMT 35.221039 -80.949623 0 14 12 0
2022-08-19 22:56:39 GMT 35.220940 -80.949669 0 7 12 0
2022-08-19 22:56:38 GMT 35.220871 -80.949699 0 11 9 0
2022-08-19 22:56:37 GMT 35.220810 -80.949677 0 11 13 0
2022-08-19 22:56:35 GMT 35.220772 -80.949730 0 0 16 0
2022-08-19 22:56:34 GMT 35.220589 -80.949760 0 352 12 0
2022-08-19 22:56:32 GMT 35.220551 -80.949730 0 0 12 0
2022-08-19 22:56:31 GMT 35.220451 -80.949722 0 358 15 0
2022-08-19 22:56:29 GMT 35.220360 -80.949722 0 359 13 0
2022-08-19 22:56:28 GMT 35.220242 -80.949768 0 342 14 0
2022-08-19 22:56:26 GMT 35.220188 -80.949677 0 2 14 0
2022-08-19 22:56:25 GMT 35.220131 -80.949677 0 0 14 0
2022-08-19 22:56:23 GMT 35.219959 -80.949692 0 356 12 0
2022-08-19 22:56:22 GMT 35.219910 -80.949699 0 354 13 0
2022-08-19 22:56:21 GMT 35.219791 -80.949677 0 354 15 0
2022-08-19 22:56:19 GMT 35.219742 -80.949608 0 7 18 0
2022-08-19 22:56:18 GMT 35.219639 -80.949608 0 8 16 0
2022-08-19 22:56:16 GMT 35.219479 -80.949669 0 354 13 0
2022-08-19 22:56:15 GMT 35.219429 -80.949692 0 350 15 0
2022-08-19 22:56:14 GMT 35.219360 -80.949661 0 353 15 0
2022-08-19 22:56:12 GMT 35.219212 -80.949654 0 352 13 0
2022-08-19 22:56:11 GMT 35.219151 -80.949661 0 351 13 0
2022-08-19 22:56:09 GMT 35.219009 -80.949623 0 359 11 0
2022-08-19 22:56:08 GMT 35.219002 -80.949570 0 5 16 0
2022-08-19 22:56:06 GMT 35.218842 -80.949623 0 352 13 0
2022-08-19 22:56:05 GMT 35.218788 -80.949623 0 349 14 0
2022-08-19 22:56:03 GMT 35.218632 -80.949593 0 1 9 0
2022-08-19 22:56:02 GMT 35.218571 -80.949547 0 5 7 0
2022-08-19 22:56:01 GMT 35.218578 -80.949532 0 0 13 0
2022-08-19 22:55:59 GMT 35.218449 -80.949608 0 346 12 0
2022-08-19 22:55:58 GMT 35.218391 -80.949570 0 348 11 0
2022-08-19 22:55:56 GMT 35.218288 -80.949570 0 351 13 0
2022-08-19 22:55:55 GMT 35.218262 -80.949509 0 358 15 0
2022-08-19 22:55:53 GMT 35.218090 -80.949509 0 355 11 0
2022-08-19 22:55:52 GMT 35.218048 -80.949516 0 356 13 0
2022-08-19 22:55:51 GMT 35.217960 -80.949493 0 3 10 0
2022-08-19 22:55:49 GMT 35.217869 -80.949463 0 1 11 0
2022-08-19 22:55:48 GMT 35.217812 -80.949539 0 344 10 0
2022-08-19 22:55:47 GMT 35.217731 -80.949516 0 346 13 0
2022-08-19 22:55:45 GMT 35.217659 -80.949471 0 351 10 0
2022-08-19 22:55:44 GMT 35.217621 -80.949463 0 357 10 0
2022-08-19 22:55:43 GMT 35.217548 -80.949448 0 353 15 0
2022-08-19 22:55:41 GMT 35.217461 -80.949463 0 350 12 -32
2022-08-19 22:55:40 GMT 35.217339 -80.949440 0 347 10 -32
2022-08-19 22:55:38 GMT 35.217281 -80.949409 0 4 8 -32
2022-08-19 22:55:37 GMT 35.217239 -80.949371 0 17 13 -32
2022-08-19 22:55:35 GMT 35.217178 -80.949417 0 351 13 -32
2022-08-19 22:55:33 GMT 35.217041 -80.949417 0 355 10 -32
2022-08-19 22:55:32 GMT 35.217018 -80.949387 0 4 14 -32
2022-08-19 22:55:31 GMT 35.216961 -80.949432 0 351 13 -32
2022-08-19 22:55:29 GMT 35.216820 -80.949387 0 5 9 -32
2022-08-19 22:55:28 GMT 35.216789 -80.949387 0 357 11 192
2022-08-19 22:55:26 GMT 35.216702 -80.949440 0 335 14 64
2022-08-19 22:55:25 GMT 35.216648 -80.949463 0 331 16 64
2022-08-19 22:55:24 GMT 35.216579 -80.949364 0 357 13 64
2022-08-19 22:55:23 GMT 35.216518 -80.949333 0 5 12 0
2022-08-19 22:55:21 GMT 35.216400 -80.949310 0 22 11 0
2022-08-19 22:55:20 GMT 35.216339 -80.949333 0 25 10 0
2022-08-19 22:55:18 GMT 35.216282 -80.949379 0 32 12 0
2022-08-19 22:55:17 GMT 35.216209 -80.949409 0 39 11 0
2022-08-19 22:55:15 GMT 35.216122 -80.949432 0 72 13 0
2022-08-19 22:55:14 GMT 35.216049 -80.949509 0 79 11 0
2022-08-19 22:55:13 GMT 35.216049 -80.949532 0 79 15 0
2022-08-19 22:55:11 GMT 35.216049 -80.949669 0 69 15 0
2022-08-19 22:55:10 GMT 35.216011 -80.949783 0 64 12 0
2022-08-19 22:55:09 GMT 35.215939 -80.949913 0 45 9 0
2022-08-19 22:55:07 GMT 35.215950 -80.949966 0 29 10 0
2022-08-19 22:55:06 GMT 35.215919 -80.949997 0 24 10 0
2022-08-19 22:55:05 GMT 35.215851 -80.950050 0 21 13 0
2022-08-19 22:55:03 GMT 35.215809 -80.950058 0 17 15 0
2022-08-19 22:55:02 GMT 35.215679 -80.950157 0 358 15 0
2022-08-19 22:55:00 GMT 35.215599 -80.950157 0 358 12 0
2022-08-19 22:54:59 GMT 35.215542 -80.950142 0 0 12 0
2022-08-19 22:54:57 GMT 35.215450 -80.950172 0 347 16 0
2022-08-19 22:54:56 GMT 35.215370 -80.950142 0 351 15 0
2022-08-19 22:54:55 GMT 35.215229 -80.950111 0 355 17 0
2022-08-19 22:54:53 GMT 35.215160 -80.950089 0 0 17 0
2022-08-19 22:54:52 GMT 35.215000 -80.950104 0 353 17 0
2022-08-19 22:54:50 GMT 35.214828 -80.950081 0 353 17 0
2022-08-19 22:54:48 GMT 35.214760 -80.950058 0 354 19 0
2022-08-19 22:54:46 GMT 35.214588 -80.950027 0 357 17 0
2022-08-19 22:54:45 GMT 35.214539 -80.950020 0 358 20 0
2022-08-19 22:54:44 GMT 35.214409 -80.950043 0 352 15 0
2022-08-19 22:54:42 GMT 35.214291 -80.950027 0 352 18 0
2022-08-19 22:54:41 GMT 35.214191 -80.950027 0 348 17 0
2022-08-19 22:54:39 GMT 35.214039 -80.950012 0 352 17 0
2022-08-19 22:54:38 GMT 35.213951 -80.949966 0 0 16 0
2022-08-19 22:54:37 GMT 35.213879 -80.949982 0 355 17 0
2022-08-19 22:54:35 GMT 35.213718 -80.949966 0 352 15 0
2022-08-19 22:54:34 GMT 35.213650 -80.949951 0 357 15 0
2022-08-19 22:54:33 GMT 35.213570 -80.949951 0 354 14 0
2022-08-19 22:54:32 GMT 35.213451 -80.949921 0 0 17 0
2022-08-19 22:54:30 GMT 35.213360 -80.949913 0 5 16 0
2022-08-19 22:54:28 GMT 35.213219 -80.949959 0 351 16 0
2022-08-19 22:54:27 GMT 35.213161 -80.949989 0 344 18 0
2022-08-19 22:54:26 GMT 35.213001 -80.949898 0 358 16 0
2022-08-19 22:54:24 GMT 35.212921 -80.949898 0 357 15 0
2022-08-19 22:54:22 GMT 35.212780 -80.949890 0 357 14 0
2022-08-19 22:54:21 GMT 35.212761 -80.949883 0 356 20 0
2022-08-19 22:54:20 GMT 35.212540 -80.949860 0 1 13 0
2022-08-19 22:54:18 GMT 35.212521 -80.949799 0 10 17 0
2022-08-19 22:54:16 GMT 35.212360 -80.949852 0 1 17 0
2022-08-19 22:54:15 GMT 35.212292 -80.949829 0 6 18 0
2022-08-19 22:54:14 GMT 35.212189 -80.949883 0 357 17 0
2022-08-19 22:54:12 GMT 35.212029 -80.949860 0 357 15 0
2022-08-19 22:54:11 GMT 35.211880 -80.949860 0 353 14 0
2022-08-19 22:54:09 GMT 35.211811 -80.949852 0 352 14 0
2022-08-19 22:54:08 GMT 35.211761 -80.949837 0 354 15 0
2022-08-19 22:54:06 GMT 35.211632 -80.949821 0 355 18 0
2022-08-19 22:54:05 GMT 35.211552 -80.949837 0 346 19 0
2022-08-19 22:54:03 GMT 35.211361 -80.949753 0 4 18 0
2022-08-19 22:54:02 GMT 35.211269 -80.949783 0 355 16 0
2022-08-19 22:54:01 GMT 35.211182 -80.949783 0 349 14 0
2022-08-19 22:53:59 GMT 35.211048 -80.949738 0 0 12 0
2022-08-19 22:53:58 GMT 35.211010 -80.949760 0 355 16 0
2022-08-19 22:53:57 GMT 35.210880 -80.949753 0 353 23 0
2022-08-19 22:53:55 GMT 35.210640 -80.949692 0 4 17 0
2022-08-19 22:53:53 GMT 35.210548 -80.949707 0 359 15 0
2022-08-19 22:53:52 GMT 35.210480 -80.949730 0 352 16 0
2022-08-19 22:53:50 GMT 35.210331 -80.949699 0 353 16 0
2022-08-19 22:53:49 GMT 35.210251 -80.949692 0 354 15 0
2022-08-19 22:53:48 GMT 35.210140 -80.949669 0 354 19 0
2022-08-19 22:53:46 GMT 35.210049 -80.949669 0 353 20 0
2022-08-19 22:53:45 GMT 35.209930 -80.949654 0 351 16 0
2022-08-19 22:53:43 GMT 35.209789 -80.949623 0 357 19 0
2022-08-19 22:53:42 GMT 35.209679 -80.949608 0 358 15 0
2022-08-19 22:53:41 GMT 35.209541 -80.949608 0 355 13 0
2022-08-19 22:53:39 GMT 35.209450 -80.949600 0 359 9 0
2022-08-19 22:53:38 GMT 35.209461 -80.949577 0 3 16 0
2022-08-19 22:53:36 GMT 35.209309 -80.949608 0 355 15 0
2022-08-19 22:53:35 GMT 35.209229 -80.949593 0 355 14 0
2022-08-19 22:53:33 GMT 35.209110 -80.949600 0 346 16 0
2022-08-19 22:53:32 GMT 35.208988 -80.949539 0 5 11 0
2022-08-19 22:53:30 GMT 35.208858 -80.949539 0 6 11 0
2022-08-19 22:53:29 GMT 35.208839 -80.949562 0 359 14 0
2022-08-19 22:53:27 GMT 35.208710 -80.949570 0 350 12 0
2022-08-19 22:53:26 GMT 35.208641 -80.949547 0 350 10 0
2022-08-19 22:53:25 GMT 35.208611 -80.949562 0 346 13 0
2022-08-19 22:53:23 GMT 35.208500 -80.949509 0 354 15 0
2022-08-19 22:53:22 GMT 35.208420 -80.949501 0 355 13 0
2022-08-19 22:53:20 GMT 35.208328 -80.949478 0 358 16 0
2022-08-19 22:53:19 GMT 35.208241 -80.949471 0 3 15 0
2022-08-19 22:53:17 GMT 35.208080 -80.949493 0 351 10 0
2022-08-19 22:53:16 GMT 35.208061 -80.949471 0 355 14 0
2022-08-19 22:53:15 GMT 35.208019 -80.949493 0 349 17 0
2022-08-19 22:53:13 GMT 35.207870 -80.949448 0 357 16 0
2022-08-19 22:53:12 GMT 35.207771 -80.949440 0 358 12 0
2022-08-19 22:53:11 GMT 35.207649 -80.949432 0 359 12 -64
2022-08-19 22:53:09 GMT 35.207588 -80.949432 0 358 11 -64
2022-08-19 22:53:08 GMT 35.207489 -80.949440 0 355 10 -64
2022-08-19 22:53:06 GMT 35.207451 -80.949409 0 0 12 -64
2022-08-19 22:53:05 GMT 35.207329 -80.949478 0 329 12 -64
2022-08-19 22:53:03 GMT 35.207291 -80.949463 0 331 14 -64
2022-08-19 22:53:02 GMT 35.207218 -80.949348 0 7 11 -64
2022-08-19 22:53:01 GMT 35.207161 -80.949341 0 2 11 -64
2022-08-19 22:52:59 GMT 35.207088 -80.949387 0 2 12 -64
2022-08-19 22:52:58 GMT 35.207008 -80.949333 0 12 10 -64
2022-08-19 22:52:57 GMT 35.206921 -80.949371 0 355 9 -64
2022-08-19 22:52:55 GMT 35.206871 -80.949440 0 343 9 -64
2022-08-19 22:52:53 GMT 35.206810 -80.949371 0 348 11 -64
2022-08-19 22:52:52 GMT 35.206749 -80.949371 0 355 10 -64
2022-08-19 22:52:51 GMT 35.206661 -80.949348 0 355 10 -64
2022-08-19 22:52:49 GMT 35.206619 -80.949333 0 1 9 -64
2022-08-19 22:52:48 GMT 35.206520 -80.949318 0 1 7 -64
2022-08-19 22:52:46 GMT 35.206470 -80.949348 0 349 12 -64
2022-08-19 22:52:44 GMT 35.206402 -80.949341 0 346 11 0
2022-08-19 22:52:42 GMT 35.206299 -80.949287 0 351 7 0
2022-08-19 22:52:41 GMT 35.206249 -80.949318 0 348 5 0
2022-08-19 22:52:40 GMT 35.206249 -80.949287 0 2 7 0
2022-08-19 22:52:38 GMT 35.206211 -80.949226 0 11 9 0
2022-08-19 22:52:37 GMT 35.206181 -80.949287 0 6 8 0
2022-08-19 22:52:35 GMT 35.206131 -80.949303 0 358 10 0
2022-08-19 22:52:34 GMT 35.206059 -80.949318 0 353 7 0
2022-08-19 22:52:33 GMT 35.206009 -80.949333 0 355 8 0
2022-08-19 22:52:31 GMT 35.205990 -80.949280 0 6 9 0
2022-08-19 22:52:30 GMT 35.205940 -80.949272 0 7 8 0
2022-08-19 22:52:28 GMT 35.205849 -80.949333 0 357 7 0
2022-08-19 22:52:27 GMT 35.205811 -80.949310 0 5 6 0
2022-08-19 22:52:26 GMT 35.205791 -80.949303 0 16 7 0
2022-08-19 22:52:23 GMT 35.205700 -80.949318 0 24 8 -64
2022-08-19 22:52:22 GMT 35.205688 -80.949310 0 24 10 -64
2022-08-19 22:52:21 GMT 35.205601 -80.949341 0 49 8 -64
2022-08-19 22:52:19 GMT 35.205540 -80.949409 0 51 7 -64
2022-08-19 22:52:17 GMT 35.205521 -80.949448 0 57 7 -64
2022-08-19 22:52:16 GMT 35.205479 -80.949471 0 65 6 -64
2022-08-19 22:52:14 GMT 35.205460 -80.949539 0 79 4 -64
2022-08-19 22:52:13 GMT 35.205441 -80.949547 0 88 5 -64
2022-08-19 22:52:11 GMT 35.205441 -80.949600 0 94 7 -64
2022-08-19 22:52:10 GMT 35.205441 -80.949669 0 104 4 -64
2022-08-19 22:52:08 GMT 35.205460 -80.949738 0 121 2 -64
2022-08-19 22:52:07 GMT 35.205429 -80.949730 0 138 3 -64
2022-08-19 22:52:06 GMT 35.205379 -80.949806 0 136 3 -64
2022-08-19 22:52:04 GMT 35.205399 -80.949821 0 134 3 -64
2022-08-19 22:52:03 GMT 35.205410 -80.949829 0 134 3 -64
2022-08-19 22:52:01 GMT 35.205460 -80.949829 0 136 1 0
2022-08-19 22:52:00 GMT 35.205460 -80.949837 0 137 1 64
2022-08-19 22:51:58 GMT 35.205471 -80.949852 0 137 1 -160
2022-08-19 22:51:57 GMT 35.205441 -80.949898 0 137 2 64
2022-08-19 22:51:55 GMT 35.205471 -80.949890 0 135 2 0
2022-08-19 22:51:54 GMT 35.205471 -80.949860 0 133 1 -64
2022-08-19 22:51:52 GMT 35.205471 -80.949852 0 131 2 -32
2022-08-19 22:51:50 GMT 35.205441 -80.949852 0 127 4 -32
2022-08-19 22:51:48 GMT 35.205471 -80.949837 0 123 3 -32
2022-08-19 22:51:46 GMT 35.205582 -80.949829 0 111 1 -32
2022-08-19 22:51:45 GMT 35.205570 -80.949829 0 111 1 -32
2022-08-19 22:51:44 GMT 35.205490 -80.949883 0 111 0 -32
2022-08-19 22:51:42 GMT 35.205479 -80.949890 0 110 1 -32
2022-08-19 22:51:41 GMT 35.205490 -80.949867 0 109 0 -32
2022-08-19 22:51:39 GMT 35.205479 -80.949883 0 108 1 -32
2022-08-19 22:51:38 GMT 35.205509 -80.949898 0 107 2 -32
2022-08-19 22:51:36 GMT 35.205502 -80.949852 0 107 1 -32
2022-08-19 22:51:35 GMT 35.205521 -80.949837 0 107 0 -32
2022-08-19 22:51:33 GMT 35.205521 -80.949829 0 107 0 -32
2022-08-19 22:51:32 GMT 35.205521 -80.949837 0 107 0 -128
2022-08-19 22:51:30 GMT 35.205509 -80.949852 0 107 0 -128
2022-08-19 22:51:28 GMT 35.205502 -80.949852 0 107 0 -128
2022-08-19 22:51:27 GMT 35.205528 -80.949837 0 107 1 -128
2022-08-19 22:51:25 GMT 35.205509 -80.949860 0 107 0 -128
2022-08-19 22:51:16 GMT 35.205502 -80.949860 0 107 0 -128
2022-08-19 22:51:15 GMT 35.205490 -80.949852 0 107 0 -128
2022-08-19 22:51:14 GMT 35.205502 -80.949860 0 107 0 -128
2022-08-19 22:51:12 GMT 35.205551 -80.949821 0 109 3 -128
2022-08-19 22:51:11 GMT 35.205540 -80.949821 0 109 3 -128
2022-08-19 22:51:09 GMT 35.205471 -80.949837 0 109 0 -128
2022-08-19 22:51:08 GMT 35.205479 -80.949837 0 109 0 -128
2022-08-19 22:51:07 GMT 35.205502 -80.949867 0 111 0 -128
2022-08-19 22:51:05 GMT 35.205509 -80.949883 0 112 1 -128
2022-08-19 22:51:04 GMT 35.205502 -80.949883 0 112 1 -128
2022-08-19 22:51:02 GMT 35.205509 -80.949883 0 112 1 0
2022-08-19 22:51:01 GMT 35.205471 -80.949852 0 112 0 0
2022-08-19 22:51:00 GMT 35.205490 -80.949852 0 111 0 0
2022-08-19 22:50:58 GMT 35.205502 -80.949860 0 111 0 0
2022-08-19 22:50:57 GMT 35.205410 -80.949860 0 107 3 32
2022-08-19 22:50:55 GMT 35.205421 -80.949860 0 107 3 32
2022-08-19 22:50:54 GMT 35.205441 -80.949860 0 106 3 32
2022-08-19 22:50:52 GMT 35.205471 -80.949883 0 104 3 32
2022-08-19 22:50:50 GMT 35.205521 -80.949821 0 104 1 32
2022-08-19 22:50:49 GMT 35.205540 -80.949821 0 106 2 32
2022-08-19 22:50:48 GMT 35.205528 -80.949829 0 106 2 32
2022-08-19 22:50:47 GMT 35.205502 -80.949852 0 107 0 32
2022-08-19 22:50:43 GMT 35.205490 -80.949852 0 107 1 0
2022-08-19 22:50:41 GMT 35.205479 -80.949883 0 106 2 0
2022-08-19 22:50:40 GMT 35.205502 -80.949837 0 103 0 0
2022-08-19 22:50:38 GMT 35.205509 -80.949837 0 103 0 0
2022-08-19 22:50:37 GMT 35.205509 -80.949829 0 103 0 0
2022-08-19 22:50:35 GMT 35.205502 -80.949829 0 104 1 0
2022-08-19 22:50:34 GMT 35.205502 -80.949806 0 103 2 0
2022-08-19 22:50:33 GMT 35.205502 -80.949852 0 104 0 -32
2022-08-19 22:50:31 GMT 35.205502 -80.949837 0 104 0 -32
2022-08-19 22:50:30 GMT 35.205521 -80.949806 0 104 2 -32
2022-08-19 22:50:28 GMT 35.205509 -80.949860 0 104 0 -32
2022-08-19 22:50:27 GMT 35.205502 -80.949867 0 104 2 -32
2022-08-19 22:50:25 GMT 35.205479 -80.949867 0 95 3 -32
2022-08-19 22:50:24 GMT 35.205490 -80.949829 0 95 0 -32
2022-08-19 22:50:22 GMT 35.205502 -80.949821 0 95 1 -32
2022-08-19 22:50:20 GMT 35.205528 -80.949837 0 133 4 -32
2022-08-19 22:50:19 GMT 35.205502 -80.949821 0 135 2 -32
2022-08-19 22:50:18 GMT 35.205471 -80.949867 0 135 2 -32
2022-08-19 22:50:16 GMT 35.205521 -80.949837 0 135 4 -32
2022-08-19 22:50:15 GMT 35.205509 -80.949852 0 145 6 -32
2022-08-19 22:50:14 GMT 35.205528 -80.949921 0 150 6 -32
2022-08-19 22:50:13 GMT 35.205570 -80.949921 0 147 11 -32
2022-08-19 22:50:11 GMT 35.205601 -80.949951 0 149 14 -32
2022-08-19 22:50:10 GMT 35.205639 -80.949959 0 144 16 -32
2022-08-19 22:50:08 GMT 35.205761 -80.950050 0 141 18 -32
2022-08-19 22:50:07 GMT 35.205811 -80.950119 0 145 20 -32
2022-08-19 22:50:05 GMT 35.205959 -80.950249 0 145 19 -32
2022-08-19 22:50:04 GMT 35.206032 -80.950317 0 149 19 160
2022-08-19 22:50:02 GMT 35.206181 -80.950409 0 146 22 160
2022-08-19 22:50:01 GMT 35.206280 -80.950470 0 143 21 160
2022-08-19 22:49:59 GMT 35.206429 -80.950623 0 145 21 160
2022-08-19 22:49:57 GMT 35.206581 -80.950752 0 145 21 160
2022-08-19 22:49:56 GMT 35.206669 -80.950790 0 139 21 160
2022-08-19 22:49:55 GMT 35.206749 -80.950867 0 135 21 160
2022-08-19 22:49:53 GMT 35.206909 -80.951019 0 134 20 160
2022-08-19 22:49:52 GMT 35.206982 -80.951103 0 139 19 160
2022-08-19 22:49:50 GMT 35.207119 -80.951248 0 146 17 160
2022-08-19 22:49:49 GMT 35.207218 -80.951317 0 150 15 160
2022-08-19 22:49:48 GMT 35.207378 -80.951408 0 165 15 160
2022-08-19 22:49:46 GMT 35.207420 -80.951408 0 168 21 160
2022-08-19 22:49:45 GMT 35.207481 -80.951492 0 178 25 160
2022-08-19 22:49:43 GMT 35.207722 -80.951492 0 177 31 -160
2022-08-19 22:49:42 GMT 35.207859 -80.951500 0 177 33 -160
2022-08-19 22:49:41 GMT 35.208179 -80.951523 0 176 38 -160
2022-08-19 22:49:39 GMT 35.208328 -80.951523 0 175 44 -160
2022-08-19 22:49:38 GMT 35.208721 -80.951538 0 173 52 -160
2022-08-19 22:49:36 GMT 35.208969 -80.951553 0 172 53 -160
2022-08-19 22:49:35 GMT 35.209240 -80.951607 0 175 54 -160
2022-08-19 22:49:33 GMT 35.209721 -80.951714 0 178 62 -160
2022-08-19 22:49:32 GMT 35.210011 -80.951729 0 178 64 -160
2022-08-19 22:49:30 GMT 35.210579 -80.951752 0 177 72 -160
2022-08-19 22:49:29 GMT 35.210892 -80.951714 0 174 78 -160
2022-08-19 22:49:27 GMT 35.211620 -80.951843 0 177 81 -160
2022-08-19 22:49:26 GMT 35.212021 -80.951851 0 176 80 -160
2022-08-19 22:49:25 GMT 35.212379 -80.951859 0 175 85 544
2022-08-19 22:49:23 GMT 35.213169 -80.951920 550 174 92 544
2022-08-19 22:49:22 GMT 35.214031 -80.952019 550 174 100 544
2022-08-19 22:49:20 GMT 35.214481 -80.952110 550 176 104 544
2022-08-19 22:49:19 GMT 35.215420 -80.952202 550 177 113 544
2022-08-19 22:49:17 GMT 35.215919 -80.952217 550 176 117 -64
2022-08-19 22:49:16 GMT 35.216450 -80.952232 550 175 122 -64
2022-08-19 22:49:14 GMT 35.217548 -80.952316 550 175 130 192
2022-08-19 22:49:13 GMT 35.218121 -80.952393 550 176 134 0
2022-08-19 22:49:11 GMT 35.219330 -80.952499 575 176 139 -224
2022-08-19 22:49:10 GMT 35.219978 -80.952553 575 176 138 -224
2022-08-19 22:49:09 GMT 35.221260 -80.952599 575 174 141 -224
2022-08-19 22:49:07 GMT 35.221901 -80.952690 575 175 144 -224
2022-08-19 22:49:06 GMT 35.222561 -80.952766 575 176 144 -224
2022-08-19 22:49:04 GMT 35.223911 -80.952843 600 175 144 192
2022-08-19 22:49:03 GMT 35.224560 -80.952911 600 175 145 192
2022-08-19 22:49:02 GMT 35.225868 -80.953018 625 175 148 -96
2022-08-19 22:49:00 GMT 35.226570 -80.953079 650 175 146 -384
2022-08-19 22:48:58 GMT 35.227940 -80.953217 700 176 137 -128
2022-08-19 22:48:57 GMT 35.228550 -80.953293 700 176 144 -128
2022-08-19 22:48:56 GMT 35.229919 -80.953377 725 176 142 96
2022-08-19 22:48:54 GMT 35.230549 -80.953430 725 176 143 96
2022-08-19 22:48:53 GMT 35.231869 -80.953537 800 175 145 64
2022-08-19 22:48:51 GMT 35.232498 -80.953590 800 175 151 -608
2022-08-19 22:48:48 GMT 35.234489 -80.953819 800 176 149 -608
2022-08-19 22:48:47 GMT 35.235149 -80.953873 800 176 151 -608
2022-08-19 22:48:46 GMT 35.235851 -80.953941 800 176 148 -608
2022-08-19 22:48:44 GMT 35.237209 -80.954063 850 177 151 -608
2022-08-19 22:48:43 GMT 35.237911 -80.954063 850 175 150 -608
2022-08-19 22:48:42 GMT 35.239380 -80.954231 875 178 136 -736
2022-08-19 22:48:40 GMT 35.239910 -80.954208 875 175 149 -736
2022-08-19 22:48:39 GMT 35.240639 -80.954231 900 173 145 -736
2022-08-19 22:48:37 GMT 35.241951 -80.954430 925 176 150 -736
2022-08-19 22:48:36 GMT 35.242619 -80.954483 1,000 175 150 -736
2022-08-19 22:48:35 GMT 35.243980 -80.954681 1,000 178 146 -736
2022-08-19 22:48:33 GMT 35.244629 -80.954659 1,000 176 147 -736
2022-08-19 22:48:32 GMT 35.245338 -80.954697 1,000 175 143 -736
2022-08-19 22:48:30 GMT 35.247410 -80.954933 1,000 177 140 -736
2022-08-19 22:48:28 GMT 35.248039 -80.954918 1,050 175 141 -736
2022-08-19 22:48:26 GMT 35.250038 -80.955139 1,100 176 149 -736
2022-08-19 22:48:24 GMT 35.250721 -80.955162 1,100 175 148 -736
2022-08-19 22:48:23 GMT 35.251450 -80.955170 1,200 173 144 -736
2022-08-19 22:48:21 GMT 35.252739 -80.955368 1,200 176 147 -736
2022-08-19 22:48:20 GMT 35.253391 -80.955421 1,200 175 149 -736
2022-08-19 22:48:19 GMT 35.254749 -80.955589 1,175 175 148 -736
2022-08-19 22:48:17 GMT 35.255409 -80.955673 1,175 177 151 -736
2022-08-19 22:48:16 GMT 35.256760 -80.955704 1,200 175 153 -736
2022-08-19 22:48:14 GMT 35.257481 -80.955780 1,275 176 151 -736
2022-08-19 22:48:12 GMT 35.258881 -80.955856 1,275 175 149 -736
2022-08-19 22:48:11 GMT 35.259579 -80.955963 1,275 177 146 -736
2022-08-19 22:48:10 GMT 35.260971 -80.956001 1,275 173 144 -736
2022-08-19 22:48:08 GMT 35.261631 -80.956131 1,275 175 145 -736
2022-08-19 22:48:07 GMT 35.262329 -80.956238 1,300 176 142 -736
2022-08-19 22:48:05 GMT 35.263630 -80.956383 1,375 177 147 -736
2022-08-19 22:48:04 GMT 35.264332 -80.956367 1,375 175 146 -736
2022-08-19 22:48:03 GMT 35.264969 -80.956398 1,375 175 151 -736
2022-08-19 22:48:02 GMT 35.266380 -80.956589 1,375 177 149 -736
2022-08-19 22:48:00 GMT 35.267059 -80.956596 1,500 176 149 -736
2022-08-19 22:47:58 GMT 35.268471 -80.956650 1,500 174 146 -736
2022-08-19 22:47:57 GMT 35.269100 -80.956757 1,500 175 150 -736
2022-08-19 22:47:56 GMT 35.269798 -80.956879 1,500 177 149 -736
2022-08-19 22:47:54 GMT 35.271149 -80.957001 1,500 178 152 -736
2022-08-19 22:47:53 GMT 35.272629 -80.957024 1,500 175 144 -736
2022-08-19 22:47:51 GMT 35.273270 -80.957069 1,600 174 146 -736
2022-08-19 22:47:50 GMT 35.273949 -80.957176 1,600 176 145 -736
2022-08-19 22:47:49 GMT 35.275291 -80.957283 1,600 174 149 -736
2022-08-19 22:47:47 GMT 35.275959 -80.957397 1,600 176 149 -736
2022-08-19 22:47:46 GMT 35.277340 -80.957512 1,600 176 151 -736
2022-08-19 22:47:44 GMT 35.278042 -80.957520 1,600 175 151 -736
2022-08-19 22:47:42 GMT 35.279442 -80.957649 1,700 176 150 -1024
2022-08-19 22:47:41 GMT 35.280121 -80.957710 1,700 176 151 -1024
2022-08-19 22:47:40 GMT 35.280842 -80.957771 1,700 176 149 -1024
2022-08-19 22:47:38 GMT 35.282871 -80.957939 1,800 176 152 -1024
2022-08-19 22:47:37 GMT 35.283581 -80.958000 1,800 176 152 -1024
2022-08-19 22:47:35 GMT 35.284279 -80.958061 1,800 176 152 -1024
2022-08-19 22:47:33 GMT 35.285690 -80.958160 1,800 175 151 -1024
2022-08-19 22:47:32 GMT 35.286369 -80.958221 1,800 175 152 -1024
2022-08-19 22:47:31 GMT 35.287781 -80.958344 1,800 175 151 -1024
2022-08-19 22:47:29 GMT 35.288479 -80.958397 1,800 175 151 -1024
2022-08-19 22:47:28 GMT 35.289162 -80.958473 1,900 175 152 -1024
2022-08-19 22:47:26 GMT 35.290569 -80.958618 1,900 175 152 -1024
2022-08-19 22:47:25 GMT 35.291260 -80.958672 1,900 175 154 -1024
2022-08-19 22:47:24 GMT 35.292648 -80.958809 1,900 176 154 -1024
2022-08-19 22:47:22 GMT 35.293388 -80.958870 1,900 176 152 -1024
2022-08-19 22:47:20 GMT 35.294781 -80.958977 1,900 175 154 -1024
2022-08-19 22:47:19 GMT 35.295471 -80.959061 2,000 176 155 -1024
2022-08-19 22:47:18 GMT 35.296181 -80.959106 2,000 175 156 -1024
2022-08-19 22:47:16 GMT 35.297642 -80.959229 2,000 175 154 -1024
2022-08-19 22:47:15 GMT 35.298351 -80.959312 2,000 176 155 -1024
2022-08-19 22:47:13 GMT 35.299740 -80.959396 2,100 175 159 -1024
2022-08-19 22:47:12 GMT 35.300480 -80.959473 2,100 175 158 -1024
2022-08-19 22:47:10 GMT 35.301929 -80.959610 2,100 175 158 -1024
2022-08-19 22:47:09 GMT 35.302662 -80.959648 2,100 175 158 -1024
2022-08-19 22:47:08 GMT 35.304070 -80.959793 2,100 175 163 -1024
2022-08-19 22:47:06 GMT 35.304821 -80.959862 2,100 175 163 -1024
2022-08-19 22:47:04 GMT 35.306320 -80.960007 2,200 176 164 -1024
2022-08-19 22:47:03 GMT 35.307098 -80.960083 2,200 176 162 -1024
2022-08-19 22:47:02 GMT 35.307838 -80.960129 2,200 176 163 -1024
2022-08-19 22:47:01 GMT 35.308590 -80.960220 2,200 176 163 -1024
2022-08-19 22:46:59 GMT 35.310089 -80.960320 2,300 175 164 -1024
2022-08-19 22:46:58 GMT 35.310810 -80.960373 2,300 175 168 -1024
2022-08-19 22:46:56 GMT 35.312321 -80.960503 2,300 175 170 -1024
2022-08-19 22:46:55 GMT 35.313141 -80.960571 2,300 175 169 -1024
2022-08-19 22:46:53 GMT 35.314671 -80.960747 2,300 176 171 -1024
2022-08-19 22:46:52 GMT 35.315472 -80.960808 2,300 176 170 -1024
2022-08-19 22:46:51 GMT 35.316311 -80.960854 2,400 175 166 -1024
2022-08-19 22:46:49 GMT 35.317841 -80.960983 2,400 175 168 -1024
2022-08-19 22:46:48 GMT 35.318588 -80.961052 2,400 175 171 -1024
2022-08-19 22:46:47 GMT 35.319401 -80.961143 2,400 176 170 -1024
2022-08-19 22:46:45 GMT 35.320969 -80.961281 2,500 176 173 -1024
2022-08-19 22:46:44 GMT 35.321789 -80.961342 2,500 176 173 -1024
2022-08-19 22:46:43 GMT 35.323349 -80.961441 2,600 175 179 -576
2022-08-19 22:46:41 GMT 35.324100 -80.961487 2,600 175 184 -576
2022-08-19 22:46:40 GMT 35.324928 -80.961571 2,600 175 187 -576
2022-08-19 22:46:37 GMT 35.327362 -80.961800 2,550 176 178 -1024
2022-08-19 22:46:26 GMT 35.336174 -80.962517 2,750 175 183 -1152
2022-08-19 22:46:16 GMT 35.345951 -80.963394 2,925 175 181 -960
2022-08-19 22:46:08 GMT 35.351212 -80.963799 3,025 175 179 -960
2022-08-19 22:46:02 GMT 35.356705 -80.964317 3,125 175 178 -1088
2022-08-19 22:45:54 GMT 35.362709 -80.964798 3,250 176 179 -1216
2022-08-19 22:45:51 GMT 35.365311 -80.965004 3,400 176 179 -1280
2022-08-19 22:45:44 GMT 35.372486 -80.965614 3,475 175 179 -1216
2022-08-19 22:45:41 GMT 35.373974 -80.965790 3,525 175 179 -1216
2022-08-19 22:45:37 GMT 35.378082 -80.966148 3,600 175 180 -1216
2022-08-19 22:45:31 GMT 35.382309 -80.966492 3,700 175 180 -1216
2022-08-19 22:45:23 GMT 35.388966 -80.967079 3,825 176 177 -640
2022-08-19 22:45:20 GMT 35.391247 -80.967308 3,850 176 177 -448
2022-08-19 22:45:15 GMT 35.395344 -80.967606 3,900 176 177 -576
2022-08-19 22:45:11 GMT 35.401016 -80.968094 3,975 176 179 -1024
2022-08-19 22:45:05 GMT 35.403534 -80.968323 4,025 176 180 -1088
2022-08-19 22:45:01 GMT 35.406796 -80.968597 4,125 175 181 -1024
2022-08-19 22:44:58 GMT 35.410034 -80.968842 4,150 175 181 -1024
2022-08-19 22:44:52 GMT 35.415253 -80.969299 4,250 175 182 -1024
2022-08-19 22:44:49 GMT 35.416809 -80.969467 4,300 175 183 -1024
2022-08-19 22:44:45 GMT 35.421131 -80.969826 4,350 175 183 -1088
2022-08-19 22:44:39 GMT 35.425880 -80.970230 4,450 175 183 -1024
2022-08-19 22:44:33 GMT 35.430302 -80.970581 4,525 175 184 -1024
2022-08-19 22:44:29 GMT 35.434727 -80.970993 4,625 175 185 -1024
2022-08-19 22:44:23 GMT 35.440018 -80.971413 4,725 176 187 -1024
2022-08-19 22:44:18 GMT 35.444000 -80.971756 4,800 176 189 -1088
2022-08-19 22:44:13 GMT 35.447891 -80.972099 4,875 176 190 -1152
2022-08-19 22:44:10 GMT 35.451859 -80.972450 4,950 176 192 -1088
2022-08-19 22:44:07 GMT 35.453018 -80.972557 4,975 176 192 -1088
2022-08-19 22:44:02 GMT 35.457397 -80.972923 5,050 176 194 -1152
2022-08-19 22:43:58 GMT 35.461670 -80.973244 5,175 175 196 -1152
2022-08-19 22:43:53 GMT 35.466988 -80.973740 5,275 176 200 -1088
2022-08-19 22:43:48 GMT 35.470665 -80.974030 5,300 175 197 -1088
2022-08-19 22:43:44 GMT 35.474667 -80.974380 5,375 175 197 -1088
2022-08-19 22:43:41 GMT 35.476593 -80.974503 5,425 175 198 -1024
2022-08-19 22:43:37 GMT 35.481537 -80.974960 5,500 176 200 -1152
2022-08-19 22:43:32 GMT 35.486118 -80.975319 5,600 175 200 -1024
2022-08-19 22:43:26 GMT 35.491100 -80.975723 5,675 176 201 -960
2022-08-19 22:43:21 GMT 35.495865 -80.976105 5,825 176 199 -512
2022-08-19 22:43:18 GMT 35.499023 -80.976395 5,800 176 200 -640
2022-08-19 22:43:15 GMT 35.501343 -80.976540 5,825 176 199 -576
2022-08-19 22:43:10 GMT 35.505577 -80.976891 5,850 176 198 -320
2022-08-19 22:43:05 GMT 35.510559 -80.977242 5,850 176 198 0
2022-08-19 22:42:57 GMT 35.518425 -80.977715 5,850 177 198 -64
2022-08-19 22:42:53 GMT 35.521271 -80.977821 5,850 177 198 0
2022-08-19 22:42:50 GMT 35.524525 -80.977943 5,850 179 198 -64
2022-08-19 22:42:45 GMT 35.529373 -80.977882 5,850 183 199 0
2022-08-19 22:42:39 GMT 35.534180 -80.977425 5,850 187 201 64
2022-08-19 22:42:34 GMT 35.539097 -80.976540 5,850 190 201 64
2022-08-19 22:42:29 GMT 35.543518 -80.975319 5,850 195 204 64
2022-08-19 22:42:24 GMT 35.547958 -80.973763 5,850 198 204 -64
2022-08-19 22:42:19 GMT 35.553341 -80.971397 5,850 202 202 -128
2022-08-19 22:42:14 GMT 35.557617 -80.969177 5,850 204 209 -320
2022-08-19 22:42:05 GMT 35.565117 -80.965202 5,900 204 216 -832
2022-08-19 22:42:01 GMT 35.568146 -80.963570 5,975 204 218 -1216
2022-08-19 22:41:56 GMT 35.572861 -80.961060 6,050 204 221 -1088
2022-08-19 22:41:52 GMT 35.576523 -80.959068 6,125 204 222 -1088
2022-08-19 22:41:45 GMT 35.584396 -80.954765 6,450 261 228 -1024
2022-08-19 22:41:42 GMT 35.586639 -80.953445 6,300 207 224 -1088
2022-08-19 22:41:34 GMT 35.593735 -80.948639 6,425 215 224 -1088
2022-08-19 22:41:31 GMT 35.596310 -80.946213 6,475 223 225 -1088
2022-08-19 22:41:26 GMT 35.599823 -80.941315 6,650 260 228 -1024
2022-08-19 22:41:23 GMT 35.601105 -80.938622 6,675 250 228 -1024
2022-08-19 22:41:20 GMT 35.602779 -80.933472 6,675 250 228 -1024
2022-08-19 22:41:13 GMT 35.604034 -80.924667 6,800 263 228 -1024
2022-08-19 22:41:09 GMT 35.604500 -80.919914 6,850 264 228 -1088
2022-08-19 22:41:04 GMT 35.605152 -80.913490 6,925 264 228 -1088
2022-08-19 22:41:01 GMT 35.605434 -80.910393 6,975 264 228 -1088
2022-08-19 22:40:58 GMT 35.605865 -80.906120 6,975 264 228 -1088
2022-08-19 22:40:54 GMT 35.606365 -80.901161 7,125 264 228 -1216
2022-08-19 22:40:50 GMT 35.606964 -80.894569 7,200 264 229 -1280
2022-08-19 22:40:43 GMT 35.607761 -80.886429 7,350 264 229 -1792
2022-08-19 22:40:39 GMT 35.608177 -80.881989 7,450 264 230 -1856
2022-08-19 22:40:34 GMT 35.608932 -80.873856 7,650 264 229 -2112
2022-08-19 22:40:30 GMT 35.609390 -80.869308 7,750 264 230 -1472
2022-08-19 22:40:23 GMT 35.610214 -80.860519 7,850 264 235 -384
2022-08-19 22:40:20 GMT 35.610901 -80.853371 7,850 264 238 -64
2022-08-19 22:40:13 GMT 35.612000 -80.841927 7,850 264 243 -64
2022-08-19 22:40:09 GMT 35.612000 -80.841927 7,850 264 245 0
2022-08-19 22:40:02 GMT 35.613052 -80.831055 7,850 264 248 64
2022-08-19 22:39:59 GMT 35.613533 -80.826126 7,850 264 248 64
2022-08-19 22:39:51 GMT 35.614418 -80.816895 7,850 264 249 64
2022-08-19 22:39:47 GMT 35.614883 -80.811806 7,850 264 249 -64
2022-08-19 22:39:43 GMT 35.615662 -80.804047 7,850 264 250 -64
2022-08-19 22:39:40 GMT 35.615860 -80.801933 7,850 264 251 -64
2022-08-19 22:39:37 GMT 35.616325 -80.796791 7,850 264 253 -64
2022-08-19 22:39:31 GMT 35.617172 -80.787682 7,850 264 260 0
2022-08-19 22:39:28 GMT 35.617630 -80.782471 7,850 264 265 64
2022-08-19 22:39:20 GMT 35.618546 -80.771996 7,850 265 274 64
2022-08-19 22:39:16 GMT 35.618980 -80.765579 7,825 267 279 0
2022-08-19 22:39:10 GMT 35.619213 -80.755943 7,850 272 288 -192
2022-08-19 22:39:07 GMT 35.618839 -80.750038 7,850 279 291 -512
2022-08-19 22:39:00 GMT 35.617035 -80.738808 7,950 283 291 -1024
2022-08-19 22:38:56 GMT 35.615982 -80.733032 8,000 283 291 -1472
2022-08-19 22:38:49 GMT 35.613968 -80.722046 8,200 283 292 -2304
2022-08-19 22:38:46 GMT 35.612789 -80.715736 8,350 283 292 -2496
2022-08-19 22:38:42 GMT 35.611485 -80.708603 8,550 283 292 -2432
2022-08-19 22:38:39 GMT 35.610901 -80.705566 8,600 283 292 -2432
2022-08-19 22:38:35 GMT 35.609669 -80.698906 8,750 283 292 -2368
2022-08-19 22:38:28 GMT 35.607834 -80.689087 8,975 283 292 -2304
2022-08-19 22:38:23 GMT 35.606178 -80.680145 9,175 283 292 -2304
2022-08-19 22:38:19 GMT 35.604721 -80.672211 9,350 283 293 -2304
2022-08-19 22:38:14 GMT 35.603394 -80.665115 9,500 283 293 -2368
2022-08-19 22:38:11 GMT 35.602406 -80.659752 9,825 283 293 -2496
2022-08-19 22:38:06 GMT 35.601013 -80.652061 9,900 283 293 -2560
2022-08-19 22:38:03 GMT 35.600170 -80.647362 9,900 283 293 -2560
2022-08-19 22:37:57 GMT 35.598358 -80.637665 10,225 283 293 -2368
2022-08-19 22:37:54 GMT 35.597195 -80.631172 10,325 283 293 -2304
2022-08-19 22:37:47 GMT 35.595383 -80.621567 10,525 283 294 -2112
2022-08-19 22:37:42 GMT 35.594028 -80.614227 10,675 283 295 -2048
2022-08-19 22:37:36 GMT 35.592178 -80.604568 10,850 284 296 -2112
2022-08-19 22:37:33 GMT 35.590897 -80.597710 11,000 283 297 -2176
2022-08-19 22:37:27 GMT 35.589066 -80.587807 11,225 283 298 -2304
2022-08-19 22:37:22 GMT 35.587692 -80.580254 11,375 283 298 -2304
2022-08-19 22:37:16 GMT 35.585835 -80.570168 11,600 283 298 -2368
2022-08-19 22:37:12 GMT 35.584484 -80.562859 11,775 283 299 -2304
2022-08-19 22:37:09 GMT 35.583462 -80.557602 11,875 283 299 -2240
2022-08-19 22:37:06 GMT 35.582565 -80.552788 12,300 284 302 -2112
2022-08-19 22:37:01 GMT 35.581467 -80.546783 12,150 284 300 -2176
2022-08-19 22:36:58 GMT 35.580322 -80.540833 12,250 284 300 -2176
2022-08-19 22:36:54 GMT 35.578667 -80.532295 12,400 284 302 -2112
2022-08-19 22:36:51 GMT 35.577782 -80.527626 12,500 284 302 -2112
2022-08-19 22:36:45 GMT 35.576019 -80.518394 12,725 284 305 -2240
2022-08-19 22:36:42 GMT 35.574966 -80.513023 12,800 284 304 -2304
2022-08-19 22:36:38 GMT 35.573498 -80.505066 12,975 284 305 -2560
2022-08-19 22:36:35 GMT 35.572704 -80.501038 13,275 283 305 -2944
2022-08-19 22:36:29 GMT 35.571171 -80.492561 13,300 283 305 -2880
2022-08-19 22:36:26 GMT 35.570297 -80.487671 13,425 283 304 -3008
2022-08-19 22:36:23 GMT 35.569447 -80.482803 13,575 282 303 -3072
2022-08-19 22:36:20 GMT 35.568237 -80.475197 13,775 280 301 -3072
2022-08-19 22:36:15 GMT 35.567398 -80.467957 13,975 277 300 -2816
2022-08-19 22:36:11 GMT 35.566933 -80.459778 14,175 271 300 -2496
2022-08-19 22:36:08 GMT 35.566956 -80.456543 14,250 269 300 -2368
2022-08-19 22:36:05 GMT 35.567276 -80.450073 14,375 265 300 -2112
2022-08-19 22:36:02 GMT 35.567539 -80.447212 14,500 263 301 -1920
2022-08-19 22:35:58 GMT 35.568558 -80.437546 14,600 263 303 -1984
2022-08-19 22:35:54 GMT 35.569077 -80.432541 14,700 263 304 -2112
2022-08-19 22:35:50 GMT 35.570251 -80.421753 14,900 263 306 -2176
2022-08-19 22:35:47 GMT 35.570251 -80.421753 14,900 263 306 -2176
2022-08-19 22:35:43 GMT 35.571304 -80.412430 15,100 263 307 -2176
2022-08-19 22:35:38 GMT 35.572266 -80.403786 15,250 263 309 -2112
2022-08-19 22:35:35 GMT 35.572861 -80.398926 15,400 262 310 -2112
2022-08-19 22:35:32 GMT 35.573406 -80.394211 15,450 262 310 -2112
2022-08-19 22:35:26 GMT 35.574463 -80.385300 15,600 262 311 -2112
2022-08-19 22:35:23 GMT 35.575241 -80.378670 15,725 262 311 -2112
2022-08-19 22:35:20 GMT 35.575966 -80.372589 15,850 262 311 -2112
2022-08-19 22:35:17 GMT 35.576614 -80.367165 15,950 262 311 -2112
2022-08-19 22:35:13 GMT 35.577267 -80.361427 16,175 262 310 -2176
2022-08-19 22:35:09 GMT 35.577969 -80.355469 16,175 262 309 -2176
2022-08-19 22:35:06 GMT 35.578674 -80.349426 16,375 262 308 -2176
2022-08-19 22:35:03 GMT 35.579498 -80.342506 16,425 262 307 -2176
2022-08-19 22:35:00 GMT 35.580109 -80.337524 16,525 262 307 -2176
2022-08-19 22:34:54 GMT 35.581100 -80.328712 16,700 262 306 -2176
2022-08-19 22:34:51 GMT 35.581833 -80.322388 16,825 263 305 -2176
2022-08-19 22:34:46 GMT 35.582794 -80.313950 16,975 263 307 -2176
2022-08-19 22:34:43 GMT 35.583134 -80.310646 17,075 263 307 -2176
2022-08-19 22:34:40 GMT 35.583832 -80.304039 17,175 263 309 -2176
2022-08-19 22:34:37 GMT 35.584576 -80.297089 17,300 263 310 -2176
2022-08-19 22:34:33 GMT 35.585228 -80.291122 17,425 263 311 -2176
2022-08-19 22:34:30 GMT 35.585648 -80.286919 17,525 263 313 -2176
2022-08-19 22:34:27 GMT 35.586319 -80.280022 17,625 263 314 -2176
2022-08-19 22:34:23 GMT 35.586868 -80.274696 17,800 263 316 -2176
2022-08-19 22:34:20 GMT 35.587605 -80.267754 17,850 263 317 -2112
2022-08-19 22:34:16 GMT 35.588257 -80.261322 17,975 263 319 -2176
2022-08-19 22:34:13 GMT 35.588745 -80.256439 18,075 263 320 -2240
2022-08-19 22:34:10 GMT 35.589294 -80.251007 18,200 263 322 -2240
2022-08-19 22:34:07 GMT 35.589844 -80.245567 18,500 263 324 -2176
2022-08-19 22:34:03 GMT 35.590675 -80.237366 18,425 263 326 -2176
2022-08-19 22:33:58 GMT 35.591537 -80.229095 18,575 264 328 -2176
2022-08-19 22:33:54 GMT 35.592133 -80.223145 18,675 264 330 -2112
2022-08-19 22:33:51 GMT 35.592865 -80.215302 18,900 264 335 -2240
2022-08-19 22:33:47 GMT 35.593422 -80.209488 18,975 264 335 -2240
2022-08-19 22:33:44 GMT 35.594009 -80.203285 19,050 264 336 -2240
2022-08-19 22:33:41 GMT 35.594444 -80.198502 19,150 264 337 -2304
2022-08-19 22:33:38 GMT 35.595108 -80.190697 19,275 264 339 -2240
2022-08-19 22:33:35 GMT 35.595657 -80.184975 19,400 264 339 -2176
2022-08-19 22:33:32 GMT 35.596264 -80.178284 19,500 264 339 -2176
2022-08-19 22:33:28 GMT 35.596893 -80.171188 19,625 264 340 -2112
2022-08-19 22:33:25 GMT 35.597351 -80.166206 19,725 264 340 -2112
2022-08-19 22:33:21 GMT 35.598030 -80.158760 19,850 264 340 -2112
2022-08-19 22:33:17 GMT 35.598724 -80.151672 20,000 264 339 -2112
2022-08-19 22:33:14 GMT 35.599476 -80.143806 20,100 264 339 -2176
2022-08-19 22:33:09 GMT 35.600235 -80.135994 20,225 264 340 -2176
2022-08-19 22:33:06 GMT 35.600777 -80.130417 20,425 264 340 -2176
2022-08-19 22:33:02 GMT 35.601425 -80.123749 20,450 264 340 -2176
2022-08-19 22:32:58 GMT 35.602825 -80.109383 20,900 264 340 -2176
2022-08-19 22:32:55 GMT 35.602825 -80.109383 20,750 264 340 -2176
2022-08-19 22:32:52 GMT 35.603302 -80.104980 20,900 264 339 -2112
2022-08-19 22:32:49 GMT 35.604172 -80.096169 20,975 264 339 -2176
2022-08-19 22:32:46 GMT 35.604675 -80.090790 21,025 264 339 -2176
2022-08-19 22:32:43 GMT 35.605293 -80.084900 21,225 264 339 -2176
2022-08-19 22:32:39 GMT 35.606003 -80.077805 21,400 264 339 -2112
2022-08-19 22:32:36 GMT 35.606689 -80.070694 21,375 264 339 -2112
2022-08-19 22:32:32 GMT 35.607239 -80.065155 21,475 264 339 -2176
2022-08-19 22:32:28 GMT 35.608017 -80.057144 21,675 264 339 -2176
2022-08-19 22:32:25 GMT 35.609249 -80.044342 21,775 264 340 -2176
2022-08-19 22:32:22 GMT 35.609249 -80.044342 21,825 264 340 -2176
2022-08-19 22:32:19 GMT 35.609623 -80.040482 22,000 264 340 -2176
2022-08-19 22:32:16 GMT 35.610180 -80.034348 22,450 265 339 -2176
2022-08-19 22:32:12 GMT 35.610809 -80.026878 22,175 265 339 -2176
2022-08-19 22:32:09 GMT 35.611908 -80.013489 22,300 265 339 -2176
2022-08-19 22:32:06 GMT 35.611908 -80.013489 22,375 265 339 -2176
2022-08-19 22:32:02 GMT 35.612370 -80.007523 22,475 265 339 -2176
2022-08-19 22:31:59 GMT 35.613235 -79.996201 23,200 265 339 -2176
2022-08-19 22:31:53 GMT 35.613785 -79.988876 22,825 265 339 -2176
2022-08-19 22:31:50 GMT 35.614059 -79.985451 22,825 265 339 -2176
2022-08-19 22:31:46 GMT 35.614651 -79.977959 23,000 264 339 -2112
2022-08-19 22:31:43 GMT 35.615204 -79.971657 23,150 264 339 -2112
2022-08-19 22:31:40 GMT 35.615723 -79.965683 23,225 263 339 -2112
2022-08-19 22:31:37 GMT 35.616394 -79.959412 23,350 261 338 -2048
2022-08-19 22:31:34 GMT 35.617119 -79.953941 23,650 251 335 -1920
2022-08-19 22:31:30 GMT 35.618515 -79.946053 23,550 256 336 -1984
2022-08-19 22:31:26 GMT 35.620789 -79.937096 23,675 250 336 -1920
2022-08-19 22:31:22 GMT 35.622051 -79.933014 23,750 248 335 -1792
2022-08-19 22:31:18 GMT 35.624752 -79.925774 23,875 245 334 -1536
2022-08-19 22:31:14 GMT 35.627686 -79.918289 23,975 245 331 -640
2022-08-19 22:31:11 GMT 35.629734 -79.913208 23,975 245 331 -640
2022-08-19 22:31:08 GMT 35.631363 -79.908997 23,975 245 330 -192
2022-08-19 22:31:04 GMT 35.634899 -79.900055 24,000 245 330 0
2022-08-19 22:31:01 GMT 35.636902 -79.894974 23,975 245 330 64
2022-08-19 22:30:58 GMT 35.638531 -79.890945 23,975 245 330 0
2022-08-19 22:30:55 GMT 35.640839 -79.885025 23,975 245 334 -64
2022-08-19 22:30:52 GMT 35.642853 -79.879990 24,000 245 329 0
2022-08-19 22:30:47 GMT 35.645142 -79.874054 23,975 245 330 -64
2022-08-19 22:30:44 GMT 35.647701 -79.867622 24,000 245 330 -64
2022-08-19 22:30:41 GMT 35.649628 -79.862762 24,000 245 330 -64
2022-08-19 22:30:38 GMT 35.651798 -79.857162 23,975 245 330 -64
2022-08-19 22:30:35 GMT 35.653885 -79.851952 23,975 245 330 -64
2022-08-19 22:30:31 GMT 35.656219 -79.846001 23,975 245 331 -64
2022-08-19 22:30:27 GMT 35.658966 -79.839081 24,000 245 330 0
2022-08-19 22:30:24 GMT 35.661118 -79.833641 23,975 245 331 -64
2022-08-19 22:30:21 GMT 35.663204 -79.828415 23,975 244 333 -64
2022-08-19 22:30:17 GMT 35.667664 -79.817047 24,000 245 332 0
2022-08-19 22:30:14 GMT 35.667664 -79.817047 24,000 245 333 -64
2022-08-19 22:30:10 GMT 35.670227 -79.810577 24,000 245 333 -64
2022-08-19 22:30:07 GMT 35.672928 -79.803772 24,000 245 333 -64
2022-08-19 22:30:03 GMT 35.677094 -79.793182 24,000 245 334 0
2022-08-19 22:29:57 GMT 35.679520 -79.787064 24,000 245 334 0
2022-08-19 22:29:54 GMT 35.681808 -79.781281 23,975 245 334 0
2022-08-19 22:29:50 GMT 35.684151 -79.775291 24,000 245 334 -64
2022-08-19 22:29:46 GMT 35.686890 -79.768295 24,000 245 334 -64
2022-08-19 22:29:42 GMT 35.689785 -79.760918 24,000 245 334 -64
2022-08-19 22:29:39 GMT 35.693974 -79.750343 24,000 245 334 -64
2022-08-19 22:29:35 GMT 35.693974 -79.750343 24,000 245 334 64
2022-08-19 22:29:32 GMT 35.696209 -79.744499 24,000 245 334 0
2022-08-19 22:29:29 GMT 35.698257 -79.739357 24,000 245 334 0
2022-08-19 22:29:23 GMT 35.702679 -79.728134 23,975 245 333 -64
2022-08-19 22:29:19 GMT 35.705017 -79.722176 24,000 245 333 -64
2022-08-19 22:29:16 GMT 35.707008 -79.717209 24,000 244 333 -64
2022-08-19 22:29:12 GMT 35.709412 -79.711304 24,000 244 333 -64
2022-08-19 22:29:07 GMT 35.712502 -79.703651 24,000 244 333 0
2022-08-19 22:29:04 GMT 35.715225 -79.697060 24,000 244 333 0
2022-08-19 22:29:01 GMT 35.717468 -79.691673 23,975 244 333 64
2022-08-19 22:28:58 GMT 35.719578 -79.686409 23,975 244 333 0
2022-08-19 22:28:54 GMT 35.722233 -79.679977 23,975 244 333 -64
2022-08-19 22:28:50 GMT 35.724518 -79.674400 24,000 244 333 64
2022-08-19 22:28:47 GMT 35.726795 -79.668816 24,000 244 333 -64
2022-08-19 22:28:44 GMT 35.729446 -79.662392 24,000 244 332 0
2022-08-19 22:28:39 GMT 35.732895 -79.653976 24,000 244 333 -64
2022-08-19 22:28:36 GMT 35.736969 -79.644012 24,000 244 333 -64
2022-08-19 22:28:32 GMT 35.736969 -79.644012 24,000 244 333 0
2022-08-19 22:28:29 GMT 35.739132 -79.638725 24,000 244 333 -64
2022-08-19 22:28:26 GMT 35.740807 -79.634689 24,000 244 333 -64
2022-08-19 22:28:23 GMT 35.743652 -79.627762 24,000 244 333 -64
2022-08-19 22:28:19 GMT 35.746124 -79.621635 24,000 244 333 -64
2022-08-19 22:28:16 GMT 35.748184 -79.616608 24,000 244 333 -64
2022-08-19 22:28:13 GMT 35.753422 -79.603897 24,000 244 333 -64
2022-08-19 22:28:09 GMT 35.753422 -79.603897 24,000 244 333 0
2022-08-19 22:28:04 GMT 35.755966 -79.597610 24,000 244 332 0
2022-08-19 22:28:00 GMT 35.759380 -79.589287 24,000 244 333 0
2022-08-19 22:27:56 GMT 35.763702 -79.578667 23,975 244 333 0
2022-08-19 22:27:50 GMT 35.768280 -79.567513 23,975 244 332 0
2022-08-19 22:27:47 GMT 35.768280 -79.567513 23,975 244 332 0
2022-08-19 22:27:44 GMT 35.770065 -79.563103 23,975 244 332 0
2022-08-19 22:27:40 GMT 35.773441 -79.554863 23,975 244 331 0
2022-08-19 22:27:36 GMT 35.776745 -79.546745 24,000 244 332 -64
2022-08-19 22:27:32 GMT 35.778488 -79.542564 24,000 244 332 -64
2022-08-19 22:27:29 GMT 35.781097 -79.536156 24,000 244 331 -64
2022-08-19 22:27:26 GMT 35.782799 -79.531898 24,000 244 332 -64
2022-08-19 22:27:22 GMT 35.785961 -79.524185 24,000 244 332 0
2022-08-19 22:27:19 GMT 35.787552 -79.520302 24,000 244 332 -64
2022-08-19 22:27:15 GMT 35.790985 -79.511833 24,000 244 332 -64
2022-08-19 22:27:12 GMT 35.791946 -79.509483 24,000 244 332 -64
2022-08-19 22:27:09 GMT 35.794464 -79.503426 24,000 244 332 0
2022-08-19 22:27:06 GMT 35.796936 -79.497299 24,000 244 332 0
2022-08-19 22:27:03 GMT 35.798996 -79.492264 24,000 244 332 64
2022-08-19 22:26:59 GMT 35.801331 -79.486542 24,000 244 331 0
2022-08-19 22:26:56 GMT 35.803604 -79.480942 23,975 244 330 64
2022-08-19 22:26:52 GMT 35.806274 -79.474358 24,000 244 330 0
2022-08-19 22:26:47 GMT 35.809158 -79.467316 24,000 244 330 0
2022-08-19 22:26:44 GMT 35.812042 -79.460220 23,975 244 330 -64
2022-08-19 22:26:41 GMT 35.813755 -79.456047 23,975 244 330 -64
2022-08-19 22:26:38 GMT 35.815662 -79.451309 24,000 244 330 -64
2022-08-19 22:26:35 GMT 35.818222 -79.445061 24,000 244 330 -64
2022-08-19 22:26:31 GMT 35.820457 -79.439507 24,000 244 330 -64
2022-08-19 22:26:28 GMT 35.823166 -79.432983 23,975 244 330 -64
2022-08-19 22:26:24 GMT 35.824833 -79.428757 24,000 244 330 -64
2022-08-19 22:26:21 GMT 35.830048 -79.416016 24,000 244 329 64
2022-08-19 22:26:17 GMT 35.830048 -79.416016 24,000 244 329 0
2022-08-19 22:26:13 GMT 35.832516 -79.409943 23,975 244 329 0
2022-08-19 22:26:10 GMT 35.835709 -79.402084 24,000 244 328 -64
2022-08-19 22:26:06 GMT 35.837173 -79.398422 23,975 244 328 0
2022-08-19 22:26:02 GMT 35.842209 -79.386063 23,975 244 328 -64
2022-08-19 22:25:55 GMT 35.845596 -79.377708 24,000 244 327 -64
2022-08-19 22:25:51 GMT 35.847317 -79.373535 23,975 244 329 -64
2022-08-19 22:25:48 GMT 35.849258 -79.368668 23,975 244 328 -64
2022-08-19 22:25:44 GMT 35.852997 -79.359505 24,000 244 328 -64
2022-08-19 22:25:39 GMT 35.856255 -79.351440 24,000 244 329 -64
2022-08-19 22:25:36 GMT 35.858585 -79.345718 24,000 244 329 0
2022-08-19 22:25:33 GMT 35.860016 -79.342232 24,000 244 330 0
2022-08-19 22:25:30 GMT 35.863724 -79.333138 24,000 244 331 64
2022-08-19 22:25:24 GMT 35.865707 -79.328239 24,000 244 331 64
2022-08-19 22:25:21 GMT 35.868668 -79.320946 23,975 244 332 0
2022-08-19 22:25:18 GMT 35.870781 -79.315681 23,975 244 332 0
2022-08-19 22:25:13 GMT 35.874298 -79.307037 24,000 244 332 -64
2022-08-19 22:25:08 GMT 35.877731 -79.298576 24,000 244 334 -64
2022-08-19 22:25:05 GMT 35.879440 -79.294289 24,000 244 334 -64
2022-08-19 22:25:02 GMT 35.881489 -79.289207 24,000 244 334 -64
2022-08-19 22:24:57 GMT 35.887070 -79.275452 24,000 244 334 0
2022-08-19 22:24:54 GMT 35.887070 -79.275452 24,000 244 334 0
2022-08-19 22:24:50 GMT 35.890194 -79.267815 24,000 244 333 0
2022-08-19 22:24:47 GMT 35.892101 -79.263023 24,000 244 333 0
2022-08-19 22:24:43 GMT 35.894257 -79.257774 24,000 244 332 -64
2022-08-19 22:24:40 GMT 35.896523 -79.252213 24,000 244 332 -64
2022-08-19 22:24:37 GMT 35.899063 -79.245934 24,000 244 332 64
2022-08-19 22:24:34 GMT 35.900986 -79.241180 24,000 244 331 0
2022-08-19 22:24:31 GMT 35.902771 -79.236771 23,975 244 331 0
2022-08-19 22:24:26 GMT 35.906345 -79.227844 23,975 244 331 0
2022-08-19 22:24:23 GMT 35.908493 -79.222588 24,000 244 330 -64
2022-08-19 22:24:20 GMT 35.910023 -79.218735 23,975 244 330 -64
2022-08-19 22:24:16 GMT 35.913330 -79.210609 24,000 244 330 0
2022-08-19 22:24:13 GMT 35.914993 -79.206390 23,975 244 330 0
2022-08-19 22:24:10 GMT 35.916916 -79.201698 24,000 244 330 0
2022-08-19 22:24:07 GMT 35.919289 -79.195824 24,000 244 330 -64
2022-08-19 22:24:03 GMT 35.921894 -79.189392 23,975 244 330 -64
2022-08-19 22:24:00 GMT 35.923943 -79.184372 24,000 244 330 -64
2022-08-19 22:23:57 GMT 35.925804 -79.179634 23,975 244 330 -64
2022-08-19 22:23:53 GMT 35.931019 -79.166840 24,000 244 330 -64
2022-08-19 22:23:50 GMT 35.931019 -79.166840 24,000 244 330 -64
2022-08-19 22:23:47 GMT 35.932983 -79.161926 24,000 244 331 -64
2022-08-19 22:23:44 GMT 35.935116 -79.156670 24,000 244 331 -64
2022-08-19 22:23:41 GMT 35.938515 -79.148254 24,000 244 331 0
2022-08-19 22:23:35 GMT 35.940701 -79.142822 24,000 244 331 0
2022-08-19 22:23:31 GMT 35.943924 -79.134865 24,000 244 332 -64
2022-08-19 22:23:28 GMT 35.945217 -79.131660 24,000 244 332 -64
2022-08-19 22:23:25 GMT 35.948410 -79.123650 24,000 244 332 0
2022-08-19 22:23:22 GMT 35.949734 -79.120438 24,000 244 332 0
2022-08-19 22:23:19 GMT 35.952118 -79.114494 24,000 244 332 0
2022-08-19 22:23:15 GMT 35.955086 -79.107170 24,000 244 332 0
2022-08-19 22:23:12 GMT 35.956577 -79.103493 24,000 244 332 -64
2022-08-19 22:23:08 GMT 35.959213 -79.096870 24,000 244 331 64
2022-08-19 22:23:05 GMT 35.963699 -79.085709 24,000 244 330 0
2022-08-19 22:23:02 GMT 35.963699 -79.085709 24,000 244 330 -64
2022-08-19 22:22:58 GMT 35.966263 -79.079308 23,975 244 329 0
2022-08-19 22:22:54 GMT 35.969284 -79.071922 24,000 244 329 -64
2022-08-19 22:22:51 GMT 35.970474 -79.068893 24,000 244 329 -64
2022-08-19 22:22:48 GMT 35.973450 -79.061508 24,000 244 328 -64
2022-08-19 22:22:43 GMT 35.975876 -79.055443 24,000 244 328 -64
2022-08-19 22:22:40 GMT 35.978363 -79.049263 24,000 244 327 0
2022-08-19 22:22:37 GMT 35.980591 -79.043770 23,975 244 326 0
2022-08-19 22:22:34 GMT 35.982193 -79.039764 24,000 244 326 0
2022-08-19 22:22:30 GMT 35.984619 -79.033752 24,000 244 326 -64
2022-08-19 22:22:27 GMT 35.987534 -79.026588 23,975 244 326 0
2022-08-19 22:22:23 GMT 35.990250 -79.019737 24,000 244 325 -64
2022-08-19 22:22:19 GMT 35.992950 -79.013039 24,000 244 325 -64
2022-08-19 22:22:16 GMT 35.994278 -79.009727 24,000 244 325 -64
2022-08-19 22:22:12 GMT 35.996796 -79.003426 23,975 244 325 -64
2022-08-19 22:22:08 GMT 35.999863 -78.995766 24,000 244 325 -64
2022-08-19 22:22:05 GMT 36.001236 -78.992439 24,000 244 325 -64
2022-08-19 22:22:02 GMT 36.003113 -78.987808 24,000 244 325 -64
2022-08-19 22:21:59 GMT 36.006248 -78.979950 24,000 244 325 -64
2022-08-19 22:21:56 GMT 36.007919 -78.975792 24,000 244 325 -64
2022-08-19 22:21:50 GMT 36.014603 -78.959084 24,000 244 326 -64
2022-08-19 22:21:46 GMT 36.014603 -78.959084 24,000 244 326 0
2022-08-19 22:21:43 GMT 36.016815 -78.953598 24,000 244 327 0
2022-08-19 22:21:38 GMT 36.019821 -78.946037 23,975 244 327 -64
2022-08-19 22:21:35 GMT 36.022247 -78.940025 24,000 244 328 -64
2022-08-19 22:21:32 GMT 36.023849 -78.935966 24,000 244 329 0
2022-08-19 22:21:27 GMT 36.026962 -78.928246 24,000 244 330 0
2022-08-19 22:21:24 GMT 36.029251 -78.922523 24,000 244 330 0
2022-08-19 22:21:21 GMT 36.031479 -78.916954 24,000 244 330 0
2022-08-19 22:21:17 GMT 36.034515 -78.909363 24,000 244 330 -64
2022-08-19 22:21:14 GMT 36.035809 -78.906143 24,000 244 330 0
2022-08-19 22:21:11 GMT 36.037949 -78.900772 23,975 244 330 -64
2022-08-19 22:21:08 GMT 36.040329 -78.894829 24,000 244 330 -64
2022-08-19 22:21:04 GMT 36.043030 -78.888130 24,000 244 330 0
2022-08-19 22:21:00 GMT 36.045818 -78.881195 24,000 244 330 0
2022-08-19 22:20:57 GMT 36.047260 -78.877510 24,000 244 330 0
2022-08-19 22:20:54 GMT 36.049866 -78.871086 24,000 244 330 0
2022-08-19 22:20:51 GMT 36.051590 -78.866699 24,000 244 330 0
2022-08-19 22:20:48 GMT 36.052940 -78.863312 24,000 244 330 -64
2022-08-19 22:20:45 GMT 36.055920 -78.855888 24,000 244 330 -64
2022-08-19 22:20:42 GMT 36.057129 -78.852852 24,000 244 330 0
2022-08-19 22:20:39 GMT 36.059410 -78.847122 24,000 244 330 0
2022-08-19 22:20:36 GMT 36.061550 -78.841751 23,975 244 330 0
2022-08-19 22:20:33 GMT 36.063675 -78.836517 24,000 244 330 0
2022-08-19 22:20:27 GMT 36.067703 -78.826385 24,000 244 330 -64
2022-08-19 22:20:24 GMT 36.069790 -78.821175 24,000 244 330 -64
2022-08-19 22:20:21 GMT 36.071091 -78.817978 24,000 244 330 0
2022-08-19 22:20:18 GMT 36.073563 -78.811707 23,975 244 330 0
2022-08-19 22:20:15 GMT 36.075333 -78.807327 24,000 244 330 0
2022-08-19 22:20:12 GMT 36.078171 -78.800255 24,000 244 330 -64
2022-08-19 22:20:07 GMT 36.081802 -78.791084 24,000 244 330 0
2022-08-19 22:20:02 GMT 36.084873 -78.783371 24,000 244 329 0
2022-08-19 22:19:59 GMT 36.087936 -78.775749 24,000 244 329 0
2022-08-19 22:19:53 GMT 36.091278 -78.767281 24,000 244 329 -64
2022-08-19 22:19:49 GMT 36.093567 -78.761559 24,000 244 329 0
2022-08-19 22:19:44 GMT 36.096680 -78.753777 24,000 244 329 -64
2022-08-19 22:19:41 GMT 36.098095 -78.750290 24,000 244 328 -64
2022-08-19 22:19:38 GMT 36.100235 -78.744858 24,000 244 328 -64
2022-08-19 22:19:34 GMT 36.103447 -78.736794 24,000 244 328 -64
2022-08-19 22:19:31 GMT 36.105869 -78.730713 24,000 244 327 0
2022-08-19 22:19:28 GMT 36.107220 -78.727386 24,000 244 328 0
2022-08-19 22:19:23 GMT 36.111053 -78.717789 24,000 244 327 0
2022-08-19 22:19:20 GMT 36.112152 -78.714935 24,000 244 327 0
2022-08-19 22:19:17 GMT 36.115173 -78.707375 24,000 244 327 64
2022-08-19 22:19:13 GMT 36.117599 -78.701363 24,000 244 327 0
2022-08-19 22:19:10 GMT 36.121140 -78.692436 23,975 244 327 0
2022-08-19 22:19:07 GMT 36.121140 -78.692436 23,975 244 327 0
2022-08-19 22:19:02 GMT 36.124649 -78.683563 23,975 244 327 0
2022-08-19 22:18:59 GMT 36.126724 -78.678352 23,975 244 328 -64
2022-08-19 22:18:56 GMT 36.128494 -78.673973 23,975 244 328 -64
2022-08-19 22:18:53 GMT 36.130554 -78.668747 23,975 244 328 -128
2022-08-19 22:18:50 GMT 36.133072 -78.662338 24,000 244 329 -64
2022-08-19 22:18:47 GMT 36.135361 -78.656616 23,975 244 329 64
2022-08-19 22:18:42 GMT 36.138748 -78.648148 23,975 244 332 0
2022-08-19 22:18:39 GMT 36.140488 -78.643684 23,975 244 337 0
2022-08-19 22:18:36 GMT 36.142925 -78.637627 23,975 244 339 0
2022-08-19 22:18:33 GMT 36.144276 -78.634117 23,975 244 342 -64
2022-08-19 22:18:29 GMT 36.148232 -78.624245 23,975 244 348 -256
2022-08-19 22:18:26 GMT 36.149208 -78.621727 23,975 244 350 -384
2022-08-19 22:18:23 GMT 36.151817 -78.615181 24,000 244 354 -576
2022-08-19 22:18:20 GMT 36.156006 -78.604607 24,050 244 357 -896
2022-08-19 22:18:17 GMT 36.156006 -78.604607 24,075 244 359 -1152
2022-08-19 22:18:14 GMT 36.158249 -78.598885 24,125 244 361 -1408
2022-08-19 22:18:11 GMT 36.159496 -78.595726 24,175 245 362 -1664
2022-08-19 22:18:08 GMT 36.162758 -78.587540 24,300 244 364 -2112
2022-08-19 22:18:05 GMT 36.164154 -78.583946 24,425 244 364 -2112
2022-08-19 22:18:02 GMT 36.166759 -78.577377 24,475 244 366 -2112
2022-08-19 22:17:58 GMT 36.172348 -78.563293 24,650 244 367 -2112
2022-08-19 22:17:55 GMT 36.172348 -78.563293 24,725 244 368 -2176
2022-08-19 22:17:51 GMT 36.174911 -78.556824 24,825 244 369 -2176
2022-08-19 22:17:48 GMT 36.177475 -78.550362 25,000 244 371 -2112
2022-08-19 22:17:45 GMT 36.179443 -78.545441 25,050 244 371 -2112
2022-08-19 22:17:42 GMT 36.182465 -78.537766 25,175 245 372 -2112
2022-08-19 22:17:37 GMT 36.185349 -78.530502 25,350 244 372 -2176
2022-08-19 22:17:34 GMT 36.187660 -78.524544 25,475 244 372 -2176
2022-08-19 22:17:31 GMT 36.189663 -78.519577 25,500 244 372 -2176
2022-08-19 22:17:27 GMT 36.195717 -78.504272 25,725 244 373 -2176
2022-08-19 22:17:24 GMT 36.195717 -78.504272 25,775 245 374 -2176
2022-08-19 22:17:21 GMT 36.197617 -78.499489 25,925 244 373 -2176
2022-08-19 22:17:17 GMT 36.201347 -78.490067 26,025 245 374 -2176
2022-08-19 22:17:14 GMT 36.205444 -78.479668 26,150 244 375 -2176
2022-08-19 22:17:10 GMT 36.205444 -78.479668 26,300 245 377 -2176
2022-08-19 22:17:06 GMT 36.209976 -78.468246 26,425 244 378 -2176
2022-08-19 22:17:03 GMT 36.211449 -78.464531 26,500 245 379 -2176
2022-08-19 22:17:00 GMT 36.213593 -78.459099 26,550 245 379 -2176
2022-08-19 22:16:56 GMT 36.217316 -78.449745 26,750 245 381 -2176
2022-08-19 22:16:53 GMT 36.219131 -78.445015 26,825 244 382 -2176
2022-08-19 22:16:50 GMT 36.221375 -78.439293 26,950 245 384 -2112
2022-08-19 22:16:47 GMT 36.224113 -78.432388 27,000 245 384 -2112
2022-08-19 22:16:44 GMT 36.228882 -78.420296 27,125 245 385 -2112
2022-08-19 22:16:41 GMT 36.228882 -78.420296 27,450 245 387 -2176
2022-08-19 22:16:38 GMT 36.234055 -78.407188 27,375 245 387 -2176
2022-08-19 22:16:34 GMT 36.234055 -78.407188 27,425 245 387 -2112
2022-08-19 22:16:30 GMT 36.236893 -78.399979 27,600 245 387 -2112
2022-08-19 22:16:27 GMT 36.240509 -78.390823 27,700 245 387 -2112
2022-08-19 22:16:24 GMT 36.241661 -78.387863 27,800 245 387 -2176
2022-08-19 22:16:21 GMT 36.244316 -78.381081 27,850 245 386 -2176
2022-08-19 22:16:18 GMT 36.247017 -78.374306 27,975 245 386 -2176
2022-08-19 22:16:15 GMT 36.248657 -78.370110 28,100 245 386 -2112
2022-08-19 22:16:12 GMT 36.251953 -78.361755 28,250 245 386 -2112
2022-08-19 22:16:09 GMT 36.253326 -78.358215 28,250 245 386 -2112
2022-08-19 22:16:05 GMT 36.256485 -78.350258 28,600 245 384 -2112
2022-08-19 22:16:02 GMT 36.259537 -78.342514 28,525 245 384 -2112
2022-08-19 22:15:59 GMT 36.261261 -78.338188 28,750 245 383 -2112
2022-08-19 22:15:55 GMT 36.264473 -78.329887 28,700 245 383 -2176
2022-08-19 22:15:51 GMT 36.269211 -78.317871 28,875 245 382 -2112
2022-08-19 22:15:48 GMT 36.269211 -78.317871 29,100 245 377 -2176
2022-08-19 22:15:43 GMT 36.274387 -78.304764 29,150 245 378 -2176
2022-08-19 22:15:40 GMT 36.276764 -78.298698 29,250 245 378 -2176
2022-08-19 22:15:37 GMT 36.278065 -78.295410 29,300 245 378 -2176
2022-08-19 22:15:34 GMT 36.281021 -78.287827 29,475 245 376 -2176
2022-08-19 22:15:31 GMT 36.283173 -78.282394 29,650 245 376 -2176
2022-08-19 22:15:28 GMT 36.285049 -78.277527 29,600 245 376 -2176
2022-08-19 22:15:24 GMT 36.288864 -78.267830 29,775 245 377 -2176
2022-08-19 22:15:21 GMT 36.290401 -78.263969 29,900 245 378 -2176
2022-08-19 22:15:18 GMT 36.293381 -78.256355 30,025 245 380 -2176
2022-08-19 22:15:15 GMT 36.295212 -78.251663 30,050 245 380 -2176
2022-08-19 22:15:12 GMT 36.297897 -78.244804 30,150 245 381 -2176
2022-08-19 22:15:09 GMT 36.300224 -78.238960 30,250 245 381 -2176
2022-08-19 22:15:06 GMT 36.301392 -78.235992 30,300 245 382 -2176
2022-08-19 22:15:03 GMT 36.304695 -78.227509 30,500 245 383 -2176
2022-08-19 22:15:00 GMT 36.307114 -78.221397 30,600 245 384 -2176
2022-08-19 22:14:57 GMT 36.308884 -78.216873 30,700 245 385 -2176
2022-08-19 22:14:54 GMT 36.311211 -78.210907 30,750 245 385 -2176
2022-08-19 22:14:51 GMT 36.314190 -78.203369 30,875 245 387 -2176
2022-08-19 22:14:47 GMT 36.316845 -78.196533 31,050 245 388 -2112
2022-08-19 22:14:44 GMT 36.319107 -78.190727 31,075 245 389 -2112
2022-08-19 22:14:41 GMT 36.321945 -78.183517 31,225 245 390 -2048
2022-08-19 22:14:38 GMT 36.324326 -78.177452 31,300 245 391 -2048
2022-08-19 22:14:35 GMT 36.326294 -78.172401 31,400 245 392 -1920
2022-08-19 22:14:30 GMT 36.330250 -78.162292 31,525 245 393 -1728
2022-08-19 22:14:27 GMT 36.332951 -78.155396 31,600 245 394 -1536
2022-08-19 22:14:23 GMT 36.335220 -78.149529 31,675 245 394 -1152
2022-08-19 22:14:19 GMT 36.339386 -78.138947 31,775 245 394 -1024
2022-08-19 22:14:16 GMT 36.341263 -78.134079 31,800 245 394 -1088
2022-08-19 22:14:13 GMT 36.343643 -78.127953 31,850 245 394 -1088
2022-08-19 22:14:09 GMT 36.346527 -78.120689 31,950 245 394 -1088
2022-08-19 22:14:06 GMT 36.349365 -78.113365 31,975 245 394 -1088
2022-08-19 22:14:02 GMT 36.351852 -78.107063 32,050 245 394 -1088
2022-08-19 22:13:59 GMT 36.354446 -78.100372 32,300 245 393 -1088
2022-08-19 22:13:56 GMT 36.357716 -78.092049 32,150 245 393 -1088
2022-08-19 22:13:53 GMT 36.360092 -78.085968 32,200 245 393 -1088
2022-08-19 22:13:49 GMT 36.363396 -78.077438 32,300 245 392 -1088
2022-08-19 22:13:44 GMT 36.366238 -78.070190 32,325 245 393 -1088
2022-08-19 22:13:41 GMT 36.368282 -78.064934 32,425 245 391 -1088
2022-08-19 22:13:38 GMT 36.371449 -78.056808 32,475 245 391 -1024
2022-08-19 22:13:35 GMT 36.374428 -78.049156 32,500 245 391 -1024
2022-08-19 22:13:32 GMT 36.376556 -78.043671 32,550 245 391 -1088
2022-08-19 22:13:28 GMT 36.379257 -78.036804 32,675 245 390 -1024
2022-08-19 22:13:25 GMT 36.382233 -78.029137 32,675 245 390 -1024
2022-08-19 22:13:21 GMT 36.384529 -78.023323 32,725 245 390 -1088
2022-08-19 22:13:17 GMT 36.387650 -78.015259 32,775 245 390 -1024
2022-08-19 22:13:14 GMT 36.390770 -78.007195 32,850 245 389 -1088
2022-08-19 22:13:10 GMT 36.392818 -78.001991 32,900 245 389 -1088
2022-08-19 22:13:07 GMT 36.395874 -77.994118 32,975 245 389 -1088
2022-08-19 22:13:04 GMT 36.398071 -77.988510 33,025 245 389 -1088
2022-08-19 22:13:01 GMT 36.400963 -77.981071 33,075 245 389 -1088
2022-08-19 22:12:57 GMT 36.403839 -77.973633 33,175 245 389 -1088
2022-08-19 22:12:53 GMT 36.406921 -77.965820 33,225 245 389 -1088
2022-08-19 22:12:49 GMT 36.409195 -77.959953 33,250 245 389 -1024
2022-08-19 22:12:45 GMT 36.415283 -77.944283 33,325 245 390 -960
2022-08-19 22:12:42 GMT 36.415283 -77.944283 33,475 245 390 -1088
2022-08-19 22:12:38 GMT 36.419174 -77.934212 33,450 245 390 -1088
2022-08-19 22:12:35 GMT 36.423962 -77.921875 33,500 245 390 -1088
2022-08-19 22:12:32 GMT 36.423962 -77.921875 33,550 245 390 -1088
2022-08-19 22:12:29 GMT 36.425125 -77.918877 33,575 245 390 -1088
2022-08-19 22:12:26 GMT 36.428150 -77.911011 33,650 245 390 -1152
2022-08-19 22:12:23 GMT 36.430523 -77.904991 33,675 245 390 -1088
2022-08-19 22:12:20 GMT 36.432854 -77.898911 33,725 245 390 -1088
2022-08-19 22:12:16 GMT 36.436707 -77.889061 33,825 245 390 -1088
2022-08-19 22:12:13 GMT 36.438347 -77.884827 33,875 245 389 -1088
2022-08-19 22:12:09 GMT 36.441055 -77.877792 33,925 245 389 -1088
2022-08-19 22:12:05 GMT 36.444584 -77.868759 34,025 245 389 -1088
2022-08-19 22:12:02 GMT 36.446503 -77.863708 34,050 245 389 -1088
2022-08-19 22:11:59 GMT 36.449020 -77.857307 34,075 245 389 -1088
2022-08-19 22:11:55 GMT 36.451427 -77.851051 34,150 245 388 -1088
2022-08-19 22:11:52 GMT 36.453827 -77.844833 34,225 245 388 -1024
2022-08-19 22:11:49 GMT 36.456802 -77.837219 34,275 245 388 -1024
2022-08-19 22:11:45 GMT 36.459667 -77.829781 34,325 245 386 -1024
2022-08-19 22:11:42 GMT 36.461746 -77.824402 34,350 245 386 -1024
2022-08-19 22:11:38 GMT 36.464813 -77.816391 34,425 245 385 -1024
2022-08-19 22:11:33 GMT 36.469395 -77.804649 34,525 245 385 -1024
2022-08-19 22:11:29 GMT 36.472687 -77.796082 34,575 245 384 -1088
2022-08-19 22:11:24 GMT 36.475864 -77.787933 34,750 245 383 -1088
2022-08-19 22:11:21 GMT 36.478615 -77.780807 34,700 245 383 -1088
2022-08-19 22:11:17 GMT 36.481110 -77.774277 34,950 245 381 -1088
2022-08-19 22:11:12 GMT 36.485641 -77.762634 34,850 245 381 -1088
2022-08-19 22:11:08 GMT 36.492554 -77.744698 34,950 245 380 -1088
2022-08-19 22:11:03 GMT 36.492554 -77.744698 35,000 245 380 -1088
2022-08-19 22:11:00 GMT 36.494907 -77.738617 35,075 245 380 -1088
2022-08-19 22:10:57 GMT 36.497189 -77.732712 35,100 245 379 -1088
2022-08-19 22:10:53 GMT 36.502167 -77.719742 35,175 245 380 -1088
2022-08-19 22:10:50 GMT 36.502167 -77.719742 35,225 245 380 -1088
2022-08-19 22:10:47 GMT 36.504501 -77.713623 35,400 245 379 -1088
2022-08-19 22:10:43 GMT 36.507065 -77.706985 35,375 245 378 -1088
2022-08-19 22:10:40 GMT 36.510132 -77.699142 35,450 245 379 -1088
2022-08-19 22:10:36 GMT 36.512455 -77.693031 35,450 245 379 -1088
2022-08-19 22:10:33 GMT 36.515259 -77.685760 35,525 245 379 -1088
2022-08-19 22:10:30 GMT 36.516693 -77.682045 35,525 245 379 -1088
2022-08-19 22:10:26 GMT 36.520649 -77.671822 35,650 245 380 -1088
2022-08-19 22:10:22 GMT 36.522930 -77.665916 35,700 245 380 -1088
2022-08-19 22:10:19 GMT 36.525421 -77.659431 35,750 245 380 -1088
2022-08-19 22:10:15 GMT 36.528378 -77.651779 35,800 245 380 -1088
2022-08-19 22:10:10 GMT 36.532974 -77.639809 35,900 245 380 -1088
2022-08-19 22:10:05 GMT 36.536385 -77.630974 35,975 245 380 -384
2022-08-19 22:10:00 GMT 36.539738 -77.622322 36,000 245 379 0
2022-08-19 22:09:57 GMT 36.542297 -77.615601 36,000 245 379 0
2022-08-19 22:09:53 GMT 36.544510 -77.609940 36,000 245 378 64
2022-08-19 22:09:50 GMT 36.547211 -77.602844 35,975 245 379 -64
2022-08-19 22:09:47 GMT 36.550095 -77.595406 35,975 245 379 -64
2022-08-19 22:09:44 GMT 36.552444 -77.589310 35,975 245 379 -64
2022-08-19 22:09:39 GMT 36.556076 -77.579895 35,975 245 385 -64
2022-08-19 22:09:35 GMT 36.560211 -77.569031 35,975 245 381 -64
2022-08-19 22:09:29 GMT 36.563278 -77.561134 35,975 245 388 -128
2022-08-19 22:09:23 GMT 36.568451 -77.547569 35,975 245 387 -64
2022-08-19 22:09:18 GMT 36.571381 -77.539963 35,975 245 401 64
2022-08-19 22:09:15 GMT 36.573627 -77.534081 35,975 245 390 -128
2022-08-19 22:09:12 GMT 36.575954 -77.528008 36,000 245 394 -64
2022-08-19 22:09:09 GMT 36.579025 -77.519989 36,000 245 406 -64
2022-08-19 22:09:06 GMT 36.581448 -77.513626 36,000 245 398 0
2022-08-19 22:09:02 GMT 36.584660 -77.505386 35,975 245 400 0
2022-08-19 22:08:58 GMT 36.588089 -77.496414 35,975 245 403 0
2022-08-19 22:08:52 GMT 36.594177 -77.480453 36,000 245 405 0
2022-08-19 22:08:49 GMT 36.596420 -77.474556 35,975 245 406 -64
2022-08-19 22:08:46 GMT 36.596420 -77.474556 36,000 245 406 0
2022-08-19 22:08:41 GMT 36.600769 -77.463226 36,000 245 406 -64
2022-08-19 22:08:37 GMT 36.604908 -77.452446 36,000 245 406 -64
2022-08-19 22:08:32 GMT 36.608772 -77.442337 36,000 245 406 -64
2022-08-19 22:08:29 GMT 36.611115 -77.436218 36,000 245 406 0
2022-08-19 22:08:26 GMT 36.613037 -77.431183 36,000 245 406 0
2022-08-19 22:08:23 GMT 36.615601 -77.424431 35,975 245 406 0
2022-08-19 22:08:20 GMT 36.618530 -77.416878 36,000 245 406 0
2022-08-19 22:08:17 GMT 36.620773 -77.410927 36,000 245 406 0
2022-08-19 22:08:14 GMT 36.623253 -77.404411 35,975 245 406 0
2022-08-19 22:08:10 GMT 36.625763 -77.397881 36,000 245 406 0
2022-08-19 22:08:07 GMT 36.628929 -77.389626 36,000 245 406 0
2022-08-19 22:08:04 GMT 36.630753 -77.384773 35,975 245 406 -64
2022-08-19 22:08:01 GMT 36.633259 -77.378227 36,000 245 406 -64
2022-08-19 22:07:58 GMT 36.636005 -77.371101 36,000 245 406 0
2022-08-19 22:07:55 GMT 36.640411 -77.359489 36,000 245 406 -64
2022-08-19 22:07:52 GMT 36.640411 -77.359489 36,000 245 406 -64
2022-08-19 22:07:49 GMT 36.642292 -77.354622 35,975 245 406 -64
2022-08-19 22:07:46 GMT 36.644665 -77.348305 36,000 245 406 -64
2022-08-19 22:07:43 GMT 36.647877 -77.339890 36,000 245 405 -64
2022-08-19 22:07:40 GMT 36.649971 -77.334396 36,000 245 406 0
2022-08-19 22:07:37 GMT 36.652718 -77.327209 36,000 245 406 -64
2022-08-19 22:07:30 GMT 36.658024 -77.313301 35,975 245 404 0
2022-08-19 22:07:26 GMT 36.661148 -77.305122 36,000 245 404 0
2022-08-19 22:07:22 GMT 36.664810 -77.295403 35,975 245 405 -64
2022-08-19 22:07:18 GMT 36.667336 -77.288879 36,000 245 405 -64
2022-08-19 22:07:15 GMT 36.670689 -77.280052 36,000 245 405 -64
2022-08-19 22:07:11 GMT 36.672867 -77.274345 36,000 245 405 -64
2022-08-19 22:07:08 GMT 36.675995 -77.266144 36,000 245 405 -64
2022-08-19 22:07:04 GMT 36.679092 -77.257919 35,975 245 405 0
2022-08-19 22:07:01 GMT 36.681442 -77.251823 35,975 245 405 0
2022-08-19 22:06:58 GMT 36.683762 -77.245674 36,000 245 404 0
2022-08-19 22:06:55 GMT 36.686142 -77.239380 35,975 245 404 0
2022-08-19 22:06:51 GMT 36.690052 -77.229034 35,975 245 404 0
2022-08-19 22:06:46 GMT 36.693127 -77.221092 35,975 245 404 -64
2022-08-19 22:06:43 GMT 36.696293 -77.212677 35,975 245 404 -64
2022-08-19 22:06:40 GMT 36.698711 -77.206360 36,000 245 404 -64
2022-08-19 22:06:37 GMT 36.704224 -77.191833 36,000 245 404 -64
2022-08-19 22:06:32 GMT 36.704224 -77.191833 36,000 245 404 0
2022-08-19 22:06:26 GMT 36.709091 -77.179016 36,000 245 404 0
2022-08-19 22:06:22 GMT 36.715752 -77.161308 35,975 245 404 0
2022-08-19 22:06:18 GMT 36.715752 -77.161308 35,975 245 404 0
2022-08-19 22:06:14 GMT 36.718311 -77.154587 36,000 245 404 -64
2022-08-19 22:06:10 GMT 36.722454 -77.143661 36,000 245 403 -64
2022-08-19 22:06:06 GMT 36.725555 -77.135468 36,000 245 403 0
2022-08-19 22:06:02 GMT 36.728039 -77.128990 36,000 245 403 0
2022-08-19 22:05:58 GMT 36.731998 -77.118469 36,000 245 403 0
2022-08-19 22:05:52 GMT 36.738979 -77.100006 36,000 245 403 0
2022-08-19 22:05:49 GMT 36.738979 -77.100006 35,975 245 403 0
2022-08-19 22:05:45 GMT 36.742584 -77.090546 35,975 245 403 -64
2022-08-19 22:05:42 GMT 36.744461 -77.085510 35,975 245 400 0
2022-08-19 22:05:37 GMT 36.748661 -77.074409 35,975 245 402 -64
2022-08-19 22:05:34 GMT 36.751099 -77.067947 36,000 245 402 -64
2022-08-19 22:05:31 GMT 36.753021 -77.062912 35,975 245 400 0
2022-08-19 22:05:27 GMT 36.755539 -77.056213 35,975 245 402 0
2022-08-19 22:05:24 GMT 36.758347 -77.048874 36,000 245 402 -64
2022-08-19 22:05:21 GMT 36.761581 -77.040253 35,975 245 400 0
2022-08-19 22:05:16 GMT 36.768448 -77.022049 36,000 245 402 64
2022-08-19 22:05:11 GMT 36.768448 -77.022049 35,975 245 402 64
2022-08-19 22:05:08 GMT 36.771286 -77.014572 36,000 245 401 0
2022-08-19 22:05:05 GMT 36.773575 -77.008492 35,975 245 400 -64
2022-08-19 22:05:02 GMT 36.776314 -77.001190 36,000 245 400 -64
2022-08-19 22:04:59 GMT 36.777969 -76.996765 35,975 245 400 -64
2022-08-19 22:04:56 GMT 36.780029 -76.991325 36,000 245 400 -64
2022-08-19 22:04:53 GMT 36.782867 -76.983833 36,000 245 400 -64
2022-08-19 22:04:49 GMT 36.786091 -76.975243 36,000 245 400 0
2022-08-19 22:04:46 GMT 36.788746 -76.968170 36,000 245 400 0
2022-08-19 22:04:42 GMT 36.791977 -76.959625 35,975 245 400 0
2022-08-19 22:04:39 GMT 36.794422 -76.953148 35,975 245 400 0
2022-08-19 22:04:35 GMT 36.799210 -76.940407 35,975 245 400 0
2022-08-19 22:04:32 GMT 36.799210 -76.940407 35,975 245 400 0
2022-08-19 22:04:29 GMT 36.802292 -76.932289 35,975 245 400 -64
2022-08-19 22:04:26 GMT 36.803925 -76.927872 36,000 245 400 -64
2022-08-19 22:04:22 GMT 36.807320 -76.918907 35,975 245 400 0
2022-08-19 22:04:20 GMT 36.809368 -76.913475 36,000 245 400 -64
2022-08-19 22:04:17 GMT 36.810947 -76.909264 36,000 245 401 -64
2022-08-19 22:04:14 GMT 36.813354 -76.902809 36,000 245 400 -64
2022-08-19 22:04:11 GMT 36.816441 -76.894653 36,000 245 400 -64
2022-08-19 22:04:07 GMT 36.818954 -76.887932 35,975 245 401 -64
2022-08-19 22:04:04 GMT 36.821609 -76.880859 36,000 245 401 -64
2022-08-19 22:04:00 GMT 36.825241 -76.871223 36,000 245 401 0
2022-08-19 22:03:56 GMT 36.827682 -76.864700 35,975 245 401 0
2022-08-19 22:03:53 GMT 36.830978 -76.855888 35,975 245 401 -64
2022-08-19 22:03:49 GMT 36.833435 -76.849426 36,000 245 401 0
2022-08-19 22:03:46 GMT 36.835018 -76.845215 36,000 246 402 0
2022-08-19 22:03:43 GMT 36.838135 -76.836800 36,000 246 402 0
2022-08-19 22:03:39 GMT 36.841232 -76.828651 35,975 246 402 0
2022-08-19 22:03:34 GMT 36.847824 -76.810966 35,975 245 403 -64
2022-08-19 22:03:31 GMT 36.847824 -76.810966 35,975 246 402 0
2022-08-19 22:03:27 GMT 36.850983 -76.802559 36,000 245 403 0
2022-08-19 22:03:23 GMT 36.853779 -76.795212 35,975 245 403 0
2022-08-19 22:03:20 GMT 36.856064 -76.789055 36,000 245 403 -64
2022-08-19 22:03:17 GMT 36.858337 -76.782967 35,975 245 403 -64
2022-08-19 22:03:14 GMT 36.860390 -76.777473 35,975 245 403 -64
2022-08-19 22:03:10 GMT 36.863693 -76.768639 36,000 246 404 -64
2022-08-19 22:03:08 GMT 36.866394 -76.761414 36,000 246 405 0
2022-08-19 22:03:04 GMT 36.868698 -76.755341 36,000 246 404 -64
2022-08-19 22:03:00 GMT 36.872635 -76.744759 35,975 246 404 -64
2022-08-19 22:02:57 GMT 36.876682 -76.733948 36,000 246 404 -64
2022-08-19 22:02:54 GMT 36.876682 -76.733948 36,000 246 405 -64
2022-08-19 22:02:51 GMT 36.878632 -76.728691 36,000 246 405 -64
2022-08-19 22:02:47 GMT 36.882751 -76.717644 36,000 246 405 -64
2022-08-19 22:02:44 GMT 36.885132 -76.711334 36,000 246 405 -64
2022-08-19 22:02:39 GMT 36.889252 -76.700287 36,000 246 405 0
2022-08-19 22:02:36 GMT 36.890854 -76.696022 36,000 246 405 0
2022-08-19 22:02:33 GMT 36.893440 -76.689049 36,000 246 405 64
2022-08-19 22:02:30 GMT 36.895813 -76.682663 36,000 246 405 64
2022-08-19 22:02:26 GMT 36.899490 -76.672928 36,000 246 405 0
2022-08-19 22:02:23 GMT 36.901932 -76.666336 35,975 246 405 0
2022-08-19 22:02:19 GMT 36.904568 -76.659317 36,000 246 405 -64
2022-08-19 22:02:16 GMT 36.907730 -76.650833 36,000 246 405 0
2022-08-19 22:02:11 GMT 36.910812 -76.642555 36,000 246 405 0
2022-08-19 22:02:08 GMT 36.912872 -76.637062 35,975 246 405 0
2022-08-19 22:02:05 GMT 36.915573 -76.629814 36,000 246 405 0
2022-08-19 22:02:02 GMT 36.918732 -76.621338 36,000 246 405 0
2022-08-19 22:01:59 GMT 36.920998 -76.615189 36,000 246 405 0
2022-08-19 22:01:55 GMT 36.923840 -76.607544 36,000 246 405 0
2022-08-19 22:01:52 GMT 36.925186 -76.603928 36,000 246 405 0
2022-08-19 22:01:49 GMT 36.928207 -76.595863 35,975 246 405 -64
2022-08-19 22:01:45 GMT 36.931938 -76.585930 36,000 246 405 -64
2022-08-19 22:01:42 GMT 36.933521 -76.581635 36,000 246 405 -64
2022-08-19 22:01:39 GMT 36.935806 -76.575523 36,000 246 405 -64
2022-08-19 22:01:36 GMT 36.941483 -76.560211 36,000 246 405 0
2022-08-19 22:01:33 GMT 36.941483 -76.560211 36,000 246 405 0
2022-08-19 22:01:30 GMT 36.943680 -76.554253 35,975 246 405 0
2022-08-19 22:01:26 GMT 36.946381 -76.547066 35,975 246 405 -64
2022-08-19 22:01:23 GMT 36.948326 -76.541748 36,000 246 405 -64
2022-08-19 22:01:18 GMT 36.952515 -76.530525 36,000 246 405 -64
2022-08-19 22:01:15 GMT 36.955261 -76.523056 35,975 246 405 -64
2022-08-19 22:01:12 GMT 36.957092 -76.518196 36,000 246 405 -64
2022-08-19 22:01:08 GMT 36.960251 -76.509666 36,000 246 405 -64
2022-08-19 22:01:05 GMT 36.962849 -76.502701 36,000 246 405 -64
2022-08-19 22:01:02 GMT 36.968445 -76.487579 35,975 246 405 0
2022-08-19 22:00:59 GMT 36.968445 -76.487579 36,000 246 405 0
2022-08-19 22:00:52 GMT 36.972839 -76.475716 36,000 246 405 0
2022-08-19 22:00:50 GMT 36.974579 -76.471039 36,000 246 405 -64
2022-08-19 22:00:47 GMT 36.976639 -76.465546 36,000 246 405 -64
2022-08-19 22:00:42 GMT 36.981033 -76.453621 36,000 246 405 -64
2022-08-19 22:00:38 GMT 36.984650 -76.443863 36,000 246 405 -64
2022-08-19 22:00:33 GMT 36.988686 -76.433083 36,000 246 405 0
2022-08-19 22:00:30 GMT 36.990269 -76.428841 36,000 246 405 0
2022-08-19 22:00:27 GMT 36.992455 -76.422867 36,000 246 405 0
2022-08-19 22:00:23 GMT 36.996086 -76.413139 36,000 246 404 -64
2022-08-19 22:00:17 GMT 37.000137 -76.402153 35,975 246 404 -64
2022-08-19 22:00:14 GMT 37.002975 -76.394508 35,975 246 404 -64
2022-08-19 22:00:11 GMT 37.004791 -76.389633 36,000 246 404 0
2022-08-19 22:00:08 GMT 37.007584 -76.381981 36,000 246 404 0
2022-08-19 22:00:05 GMT 37.009460 -76.376892 35,975 246 404 0
2022-08-19 22:00:02 GMT 37.012848 -76.367821 36,000 246 404 -64
2022-08-19 21:59:57 GMT 37.016617 -76.357666 36,000 246 403 0
2022-08-19 21:59:51 GMT 37.020767 -76.346451 36,000 246 403 -64
2022-08-19 21:59:48 GMT 37.023422 -76.339264 36,000 246 403 0
2022-08-19 21:59:44 GMT 37.026161 -76.331871 36,000 246 403 0
2022-08-19 21:59:41 GMT 37.029278 -76.323395 35,975 246 403 0
2022-08-19 21:59:38 GMT 37.034042 -76.310509 35,975 246 403 0
2022-08-19 21:59:35 GMT 37.034042 -76.310509 35,975 246 403 64
2022-08-19 21:59:30 GMT 37.037567 -76.301003 36,000 246 403 -64
2022-08-19 21:59:25 GMT 37.041336 -76.290855 35,975 246 403 -128
2022-08-19 21:59:22 GMT 37.045944 -76.278427 36,000 246 402 -64
2022-08-19 21:59:20 GMT 37.045944 -76.278427 36,000 246 402 64
2022-08-19 21:59:14 GMT 37.053162 -76.258789 36,000 246 402 64
2022-08-19 21:59:10 GMT 37.053162 -76.258789 36,000 246 402 64
2022-08-19 21:59:06 GMT 37.056744 -76.249062 35,975 246 402 -64
2022-08-19 21:59:02 GMT 37.058990 -76.242958 35,975 246 402 0
2022-08-19 21:58:59 GMT 37.062054 -76.234726 35,975 246 402 0
2022-08-19 21:58:55 GMT 37.064117 -76.228989 35,975 246 401 -64
2022-08-19 21:58:52 GMT 37.066956 -76.221390 36,000 246 401 -64
2022-08-19 21:58:49 GMT 37.072357 -76.206665 36,000 246 401 -64
2022-08-19 21:58:46 GMT 37.072357 -76.206665 35,975 246 401 64
2022-08-19 21:58:42 GMT 37.074619 -76.200516 36,000 246 401 64
2022-08-19 21:58:40 GMT 37.076157 -76.196274 35,975 246 401 64
2022-08-19 21:58:38 GMT 37.077667 -76.192291 35,975 246 401 64
2022-08-19 21:58:35 GMT 37.080067 -76.185768 36,000 246 402 -64
2022-08-19 21:58:32 GMT 37.083115 -76.177505 36,000 246 402 -64
2022-08-19 21:58:29 GMT 37.085312 -76.171661 36,000 245 402 -64
2022-08-19 21:58:23 GMT 37.089249 -76.161140 35,975 245 401 0
2022-08-19 21:58:20 GMT 37.092358 -76.152931 36,000 245 401 0
2022-08-19 21:58:18 GMT 37.094055 -76.148575 36,000 244 402 0
2022-08-19 21:58:15 GMT 37.095943 -76.143791 36,000 244 401 0
2022-08-19 21:58:11 GMT 37.098969 -76.136330 35,975 242 401 0
2022-08-19 21:58:07 GMT 37.102615 -76.127953 36,000 241 400 0
2022-08-19 21:58:04 GMT 37.106369 -76.120003 36,000 239 400 0
2022-08-19 21:58:01 GMT 37.108383 -76.116089 35,975 238 400 -64
2022-08-19 21:57:58 GMT 37.112373 -76.108627 35,975 235 400 -64
2022-08-19 21:57:52 GMT 37.119034 -76.097458 36,000 232 400 -64
2022-08-19 21:57:48 GMT 37.123455 -76.090652 36,000 230 400 -64
2022-08-19 21:57:45 GMT 37.128387 -76.083664 35,975 228 400 0
2022-08-19 21:57:42 GMT 37.130901 -76.080322 36,000 227 401 -64
2022-08-19 21:57:39 GMT 37.134254 -76.075966 36,000 224 401 -64
2022-08-19 21:57:36 GMT 37.144501 -76.064133 36,000 221 401 -64
2022-08-19 21:57:32 GMT 37.144501 -76.064133 36,000 221 402 -64
2022-08-19 21:57:29 GMT 37.148640 -76.059845 36,000 219 402 -64
2022-08-19 21:57:25 GMT 37.153900 -76.054649 36,000 216 403 -64
2022-08-19 21:57:22 GMT 37.157764 -76.051003 36,000 216 403 -64
2022-08-19 21:57:19 GMT 37.164917 -76.044678 36,000 215 403 -64
2022-08-19 21:57:16 GMT 37.167023 -76.042809 36,000 215 403 -64
2022-08-19 21:57:14 GMT 37.169960 -76.040260 36,000 215 403 -64
2022-08-19 21:57:11 GMT 37.174568 -76.036255 36,000 215 403 -64
2022-08-19 21:57:06 GMT 37.183739 -76.028313 36,000 215 403 0
2022-08-19 21:57:02 GMT 37.188492 -76.024162 36,000 215 403 -64
2022-08-19 21:56:58 GMT 37.197239 -76.016617 35,975 215 403 0
2022-08-19 21:56:55 GMT 37.200119 -76.014053 36,000 215 403 0
2022-08-19 21:56:51 GMT 37.205338 -76.009552 36,000 215 403 0
2022-08-19 21:56:47 GMT 37.212231 -76.003593 36,000 215 403 0
2022-08-19 21:56:44 GMT 37.215908 -76.000374 35,975 215 403 -64
2022-08-19 21:56:41 GMT 37.220947 -75.995995 35,975 215 403 -64
2022-08-19 21:56:33 GMT 37.232574 -75.985886 36,000 215 403 -64
2022-08-19 21:56:30 GMT 37.236996 -75.981979 36,000 215 403 -64
2022-08-19 21:56:27 GMT 37.244072 -75.975891 35,975 215 403 0
2022-08-19 21:56:24 GMT 37.247749 -75.972672 36,000 215 403 -64
2022-08-19 21:56:21 GMT 37.251705 -75.969208 35,975 215 403 0
2022-08-19 21:56:14 GMT 37.263794 -75.958656 35,975 215 403 -64
2022-08-19 21:56:11 GMT 37.266861 -75.955963 36,000 215 403 -64
2022-08-19 21:56:06 GMT 37.275787 -75.948250 36,000 215 404 -64
2022-08-19 21:56:03 GMT 37.278984 -75.945442 35,975 215 404 -64
2022-08-19 21:56:00 GMT 37.293274 -75.932999 36,000 215 404 0
2022-08-19 21:55:54 GMT 37.293274 -75.932999 36,000 215 403 -64
2022-08-19 21:55:52 GMT 37.295700 -75.930901 35,975 215 403 -64
2022-08-19 21:55:49 GMT 37.300167 -75.926994 35,975 215 403 -64
2022-08-19 21:55:42 GMT 37.311356 -75.917221 36,000 215 403 0
2022-08-19 21:55:40 GMT 37.315018 -75.914009 36,000 215 404 -64
2022-08-19 21:55:33 GMT 37.328842 -75.901970 36,000 215 403 -64
2022-08-19 21:55:31 GMT 37.328842 -75.901970 36,000 215 403 -64
2022-08-19 21:55:29 GMT 37.339409 -75.892715 36,000 215 404 -64
2022-08-19 21:55:24 GMT 37.339409 -75.892715 36,000 215 404 -64
2022-08-19 21:55:21 GMT 37.344021 -75.888718 36,000 215 404 -64
2022-08-19 21:55:18 GMT 37.349075 -75.884262 36,000 215 404 0
2022-08-19 21:55:11 GMT 37.359833 -75.874916 35,975 215 405 0
2022-08-19 21:55:09 GMT 37.362900 -75.872223 35,975 215 405 0
2022-08-19 21:55:03 GMT 37.371780 -75.864395 36,000 215 404 0
2022-08-19 21:55:00 GMT 37.376560 -75.860237 35,975 215 405 0
2022-08-19 21:54:51 GMT 37.390823 -75.847801 36,000 215 405 0
2022-08-19 21:54:46 GMT 37.396530 -75.842804 35,975 215 405 -64
2022-08-19 21:54:41 GMT 37.406479 -75.834068 36,000 215 405 -64
2022-08-19 21:54:36 GMT 37.412933 -75.828453 35,975 215 405 0
2022-08-19 21:54:32 GMT 37.419853 -75.822380 36,000 215 405 0
2022-08-19 21:54:29 GMT 37.423531 -75.819160 36,000 215 405 0
2022-08-19 21:54:25 GMT 37.429676 -75.813782 36,000 215 405 0
2022-08-19 21:54:21 GMT 37.436600 -75.807709 36,000 215 405 -64
2022-08-19 21:54:19 GMT 37.439941 -75.804787 36,000 215 404 0
2022-08-19 21:54:10 GMT 37.453125 -75.793221 36,000 215 403 -64
2022-08-19 21:54:08 GMT 37.455597 -75.791054 36,000 215 403 -64
2022-08-19 21:54:05 GMT 37.462326 -75.785149 36,000 215 403 0
2022-08-19 21:53:59 GMT 37.472317 -75.776405 36,000 215 403 0
2022-08-19 21:53:57 GMT 37.472317 -75.776405 36,000 215 405 0
2022-08-19 21:53:54 GMT 37.477661 -75.771713 35,975 216 404 0
2022-08-19 21:53:50 GMT 37.483677 -75.766495 36,000 216 404 0
2022-08-19 21:53:47 GMT 37.487957 -75.762733 36,000 216 404 0
2022-08-19 21:53:44 GMT 37.494102 -75.757301 36,000 216 404 0
2022-08-19 21:53:40 GMT 37.498711 -75.753304 36,000 215 405 0
2022-08-19 21:53:38 GMT 37.502995 -75.749535 35,975 215 405 0
2022-08-19 21:53:35 GMT 37.506226 -75.746696 36,000 215 405 0
2022-08-19 21:53:32 GMT 37.510803 -75.742668 35,975 215 405 -64
2022-08-19 21:53:29 GMT 37.516022 -75.738052 35,975 215 405 -64
2022-08-19 21:53:26 GMT 37.520645 -75.734016 36,000 215 405 0
2022-08-19 21:53:21 GMT 37.528931 -75.726715 36,000 215 405 -64
2022-08-19 21:53:17 GMT 37.539494 -75.717415 35,975 215 405 -64
2022-08-19 21:53:13 GMT 37.544266 -75.713272 36,000 216 404 0
2022-08-19 21:53:10 GMT 37.544266 -75.713272 36,000 216 404 0
2022-08-19 21:53:08 GMT 37.549164 -75.708946 35,975 216 404 0
2022-08-19 21:53:00 GMT 37.560516 -75.698959 36,000 215 405 0
2022-08-19 21:52:58 GMT 37.563583 -75.696266 36,000 215 405 0
2022-08-19 21:52:56 GMT 37.566212 -75.693947 35,975 215 405 0
2022-08-19 21:52:50 GMT 37.575851 -75.685455 36,000 216 401 -64
2022-08-19 21:52:47 GMT 37.580318 -75.681534 36,000 216 404 0
2022-08-19 21:52:43 GMT 37.586884 -75.675758 36,000 216 404 -64
2022-08-19 21:52:39 GMT 37.592102 -75.671143 36,000 216 404 0
2022-08-19 21:52:36 GMT 37.597321 -75.666580 36,000 216 404 64
2022-08-19 21:52:33 GMT 37.601898 -75.662491 35,975 216 404 0
2022-08-19 21:52:30 GMT 37.606522 -75.658463 36,000 216 404 0
2022-08-19 21:52:25 GMT 37.613571 -75.652267 36,000 216 404 -64
2022-08-19 21:52:22 GMT 37.616768 -75.649406 35,975 216 404 0
2022-08-19 21:52:19 GMT 37.622307 -75.644569 36,000 216 404 0
2022-08-19 21:52:16 GMT 37.629181 -75.638474 36,000 216 403 0
2022-08-19 21:52:13 GMT 37.632248 -75.635788 35,975 216 404 -64
2022-08-19 21:52:09 GMT 37.645538 -75.624092 35,975 216 401 -64
2022-08-19 21:52:05 GMT 37.645538 -75.624092 36,000 216 403 0
2022-08-19 21:52:00 GMT 37.652390 -75.618019 36,000 216 403 0
2022-08-19 21:51:55 GMT 37.660034 -75.611244 36,000 215 402 -64
2022-08-19 21:51:52 GMT 37.664017 -75.607796 36,000 215 402 0
2022-08-19 21:51:49 GMT 37.668274 -75.603996 36,000 216 401 0
2022-08-19 21:51:46 GMT 37.673767 -75.599144 36,000 216 401 0
2022-08-19 21:51:43 GMT 37.677284 -75.596031 36,000 216 401 0
2022-08-19 21:51:40 GMT 37.683384 -75.590652 35,975 216 401 0
2022-08-19 21:51:35 GMT 37.692352 -75.582726 36,000 216 401 -64
2022-08-19 21:51:32 GMT 37.695419 -75.580032 36,000 216 401 -64
2022-08-19 21:51:30 GMT 37.698608 -75.577217 35,975 216 401 -64
2022-08-19 21:51:23 GMT 37.713638 -75.563904 36,000 216 401 0
2022-08-19 21:51:20 GMT 37.713638 -75.563904 36,000 216 401 0
2022-08-19 21:51:17 GMT 37.717300 -75.560692 36,000 216 401 0
2022-08-19 21:51:14 GMT 37.722748 -75.555840 35,975 216 401 0
2022-08-19 21:51:10 GMT 37.729156 -75.550171 36,000 216 401 0
2022-08-19 21:51:07 GMT 37.734173 -75.545753 36,000 216 401 0
2022-08-19 21:51:03 GMT 37.738861 -75.541580 35,975 216 401 0
2022-08-19 21:50:59 GMT 37.744461 -75.536621 36,000 216 400 0
2022-08-19 21:50:56 GMT 37.749481 -75.532173 36,000 216 400 0
2022-08-19 21:50:53 GMT 37.753910 -75.528320 36,000 216 400 0
2022-08-19 21:50:49 GMT 37.759964 -75.522942 35,975 216 400 0
2022-08-19 21:50:45 GMT 37.766464 -75.517159 36,000 216 399 0
2022-08-19 21:50:40 GMT 37.772507 -75.511780 36,000 216 399 0
2022-08-19 21:50:38 GMT 37.785233 -75.500557 36,000 216 399 0
2022-08-19 21:50:33 GMT 37.785233 -75.500557 35,975 216 399 0
2022-08-19 21:50:29 GMT 37.789764 -75.496529 36,000 216 399 0
2022-08-19 21:50:24 GMT 37.798695 -75.488609 36,000 216 398 0
2022-08-19 21:50:21 GMT 37.801895 -75.485779 36,000 216 398 -64
2022-08-19 21:50:18 GMT 37.805958 -75.482162 36,000 216 398 -64
2022-08-19 21:50:16 GMT 37.809589 -75.478943 36,000 216 398 0
2022-08-19 21:50:12 GMT 37.816525 -75.472794 36,000 216 398 -64
2022-08-19 21:50:08 GMT 37.826935 -75.463570 35,975 216 398 0
2022-08-19 21:50:05 GMT 37.826935 -75.463570 35,975 216 398 -64
2022-08-19 21:50:02 GMT 37.831886 -75.459175 36,000 216 398 0
2022-08-19 21:49:58 GMT 37.836868 -75.454742 35,975 216 398 0
2022-08-19 21:49:56 GMT 37.840485 -75.451530 36,000 216 398 0
2022-08-19 21:49:53 GMT 37.845760 -75.446877 36,000 216 398 -64
2022-08-19 21:49:49 GMT 37.850880 -75.442337 35,975 216 397 0
2022-08-19 21:49:45 GMT 37.855999 -75.437744 36,000 216 397 -64
2022-08-19 21:49:42 GMT 37.861588 -75.432831 36,000 216 397 -64
2022-08-19 21:49:39 GMT 37.866241 -75.428665 36,000 216 397 -64
2022-08-19 21:49:36 GMT 37.876602 -75.419449 36,000 216 397 0
2022-08-19 21:49:33 GMT 37.876602 -75.419449 36,000 216 397 64
2022-08-19 21:49:29 GMT 37.881454 -75.415184 36,000 216 397 64
2022-08-19 21:49:25 GMT 37.885941 -75.411148 35,975 216 397 0
2022-08-19 21:49:22 GMT 37.892403 -75.405380 36,000 216 397 0
2022-08-19 21:49:18 GMT 37.897385 -75.400978 35,975 216 397 0
2022-08-19 21:49:14 GMT 37.903530 -75.395470 36,000 216 397 -64
2022-08-19 21:49:12 GMT 37.905624 -75.393616 35,975 216 397 0
2022-08-19 21:49:09 GMT 37.911804 -75.388123 35,975 216 397 0
2022-08-19 21:49:06 GMT 37.916145 -75.384239 36,000 216 397 -64
2022-08-19 21:49:04 GMT 37.920383 -75.380478 36,000 216 397 -64
2022-08-19 21:49:01 GMT 37.923080 -75.378090 35,975 216 397 0
2022-08-19 21:48:58 GMT 37.927597 -75.374092 36,000 216 397 -64
2022-08-19 21:48:55 GMT 37.931507 -75.370567 36,000 216 397 -64
2022-08-19 21:48:53 GMT 37.936752 -75.365921 36,000 216 397 0
2022-08-19 21:48:50 GMT 37.940369 -75.362701 35,975 216 397 0
2022-08-19 21:48:45 GMT 37.946823 -75.356956 35,975 216 397 0
2022-08-19 21:48:43 GMT 37.949661 -75.354408 35,975 216 397 0
2022-08-19 21:48:40 GMT 37.954514 -75.350082 35,975 216 397 0
2022-08-19 21:48:36 GMT 37.962139 -75.343285 36,000 216 397 0
2022-08-19 21:48:33 GMT 37.965771 -75.340057 35,975 216 397 0
2022-08-19 21:48:29 GMT 37.971775 -75.334686 35,975 216 396 -64
2022-08-19 21:48:23 GMT 37.981522 -75.326004 36,000 216 397 -64
2022-08-19 21:48:20 GMT 37.984543 -75.323318 36,000 216 397 -64
2022-08-19 21:48:17 GMT 37.988861 -75.319458 36,000 216 396 -64
2022-08-19 21:48:13 GMT 37.995026 -75.313965 36,000 216 396 -64
2022-08-19 21:48:11 GMT 37.997131 -75.312096 35,975 216 396 -64
2022-08-19 21:48:08 GMT 38.009720 -75.300819 35,975 216 396 0
2022-08-19 21:48:04 GMT 38.014252 -75.296783 36,000 216 396 0
2022-08-19 21:48:01 GMT 38.014252 -75.296783 36,000 216 396 0
2022-08-19 21:47:58 GMT 38.017548 -75.293861 35,975 216 396 0
2022-08-19 21:47:55 GMT 38.021118 -75.290649 36,000 216 396 -64
2022-08-19 21:47:51 GMT 38.029221 -75.283401 36,000 216 396 0
2022-08-19 21:47:47 GMT 38.033878 -75.279274 36,000 216 396 0
2022-08-19 21:47:41 GMT 38.043465 -75.270676 36,000 216 396 -64
2022-08-19 21:47:38 GMT 38.047806 -75.266808 36,000 216 396 -64
2022-08-19 21:47:36 GMT 38.050076 -75.264771 36,000 216 396 -64
2022-08-19 21:47:33 GMT 38.054871 -75.260468 36,000 216 396 -64
2022-08-19 21:47:31 GMT 38.059666 -75.256226 36,000 216 396 -64
2022-08-19 21:47:27 GMT 38.065674 -75.250854 36,000 216 396 0
2022-08-19 21:47:24 GMT 38.068497 -75.248283 36,000 216 396 0
2022-08-19 21:47:21 GMT 38.073166 -75.244164 36,000 216 396 0
2022-08-19 21:47:18 GMT 38.077637 -75.240105 36,000 216 396 0
2022-08-19 21:47:15 GMT 38.082275 -75.235954 35,975 216 396 0
2022-08-19 21:47:10 GMT 38.089783 -75.229233 35,975 216 396 0
2022-08-19 21:47:07 GMT 38.093948 -75.225494 35,975 216 396 0
2022-08-19 21:47:04 GMT 38.098434 -75.221458 35,975 216 396 -64
2022-08-19 21:47:01 GMT 38.103100 -75.217300 35,975 216 396 -64
2022-08-19 21:46:59 GMT 38.105621 -75.215034 36,000 216 396 -64
2022-08-19 21:46:56 GMT 38.111343 -75.209946 36,000 216 396 -64
2022-08-19 21:46:52 GMT 38.116699 -75.205101 36,000 216 395 -64
2022-08-19 21:46:49 GMT 38.119579 -75.202553 35,975 216 395 0
2022-08-19 21:46:47 GMT 38.123886 -75.198669 36,000 216 395 0
2022-08-19 21:46:43 GMT 38.130611 -75.192642 36,000 216 395 0
2022-08-19 21:46:39 GMT 38.135559 -75.188210 36,000 216 395 0
2022-08-19 21:46:37 GMT 38.138535 -75.185524 36,000 216 395 -64
2022-08-19 21:46:35 GMT 38.142017 -75.182426 35,975 216 395 0
2022-08-19 21:46:31 GMT 38.148254 -75.176819 35,975 216 395 0
2022-08-19 21:46:28 GMT 38.157520 -75.168518 36,000 216 395 0
2022-08-19 21:46:25 GMT 38.157520 -75.168518 36,000 216 395 0
2022-08-19 21:46:21 GMT 38.167557 -75.159515 35,975 216 395 64
2022-08-19 21:46:15 GMT 38.171299 -75.156158 35,975 216 395 0
2022-08-19 21:46:12 GMT 38.176373 -75.151558 36,000 216 395 0
2022-08-19 21:46:09 GMT 38.180565 -75.147797 36,000 216 395 0
2022-08-19 21:46:06 GMT 38.185638 -75.143257 36,000 216 395 0
2022-08-19 21:46:02 GMT 38.190262 -75.139122 36,000 216 395 0
2022-08-19 21:45:59 GMT 38.196213 -75.133743 36,000 216 395 -64
2022-08-19 21:45:55 GMT 38.200859 -75.129585 36,000 216 395 -64
2022-08-19 21:45:52 GMT 38.207565 -75.123573 36,000 216 395 -64
2022-08-19 21:45:47 GMT 38.213516 -75.118202 36,000 216 395 0
2022-08-19 21:45:44 GMT 38.222645 -75.110001 36,000 216 395 0
2022-08-19 21:45:41 GMT 38.222645 -75.110001 36,000 216 395 0
2022-08-19 21:45:37 GMT 38.232143 -75.101402 36,000 216 395 64
2022-08-19 21:45:31 GMT 38.237961 -75.096230 36,000 216 395 0
2022-08-19 21:45:28 GMT 38.242722 -75.091904 36,000 216 395 0
2022-08-19 21:45:25 GMT 38.245548 -75.089340 35,975 216 395 0
2022-08-19 21:45:23 GMT 38.250778 -75.084656 36,000 216 395 0
2022-08-19 21:45:20 GMT 38.254074 -75.081734 35,975 216 395 -64
2022-08-19 21:45:15 GMT 38.262085 -75.074486 35,975 216 395 -64
2022-08-19 21:45:12 GMT 38.265976 -75.070984 36,000 216 395 -64
2022-08-19 21:45:07 GMT 38.272797 -75.064789 35,975 216 395 -64
2022-08-19 21:45:04 GMT 38.277718 -75.060387 36,000 216 395 -64
2022-08-19 21:45:01 GMT 38.282467 -75.056084 36,000 216 395 -64
2022-08-19 21:44:58 GMT 38.285889 -75.052986 36,000 216 395 -64
2022-08-19 21:44:53 GMT 38.294106 -75.045639 36,000 216 395 -64
2022-08-19 21:44:50 GMT 38.300217 -75.040131 36,000 216 395 -64
2022-08-19 21:44:46 GMT 38.303646 -75.037041 36,000 216 395 -64
2022-08-19 21:44:43 GMT 38.308228 -75.032883 36,000 216 395 0
2022-08-19 21:44:40 GMT 38.313469 -75.028145 36,000 216 395 64
2022-08-19 21:44:37 GMT 38.319706 -75.022530 36,000 216 395 0
2022-08-19 21:44:34 GMT 38.322685 -75.019844 36,000 216 395 0
2022-08-19 21:44:28 GMT 38.331482 -75.011902 36,000 216 393 0
2022-08-19 21:44:24 GMT 38.338303 -75.005768 36,000 216 392 0
2022-08-19 21:44:21 GMT 38.342609 -75.001869 36,000 216 392 64
2022-08-19 21:44:17 GMT 38.347359 -74.997574 36,000 216 392 64
2022-08-19 21:44:13 GMT 38.352947 -74.992500 36,000 216 391 0
2022-08-19 21:44:07 GMT 38.362564 -74.983849 35,975 216 390 0
2022-08-19 21:44:04 GMT 38.366089 -74.980637 36,000 216 388 0
2022-08-19 21:44:01 GMT 38.374878 -74.972687 36,000 216 388 0
2022-08-19 21:43:58 GMT 38.374878 -74.972687 36,000 216 387 0
2022-08-19 21:43:55 GMT 38.379108 -74.968849 35,975 216 387 0
2022-08-19 21:43:53 GMT 38.388466 -74.960434 36,000 216 386 0
2022-08-19 21:43:49 GMT 38.388466 -74.960434 36,000 216 382 -128
2022-08-19 21:43:45 GMT 38.395569 -74.953934 36,000 216 385 0
2022-08-19 21:43:42 GMT 38.399094 -74.950836 36,000 216 382 -64
2022-08-19 21:43:37 GMT 38.406155 -74.944374 36,000 216 382 -64
2022-08-19 21:43:33 GMT 38.419098 -74.932678 36,000 216 377 128
2022-08-19 21:43:28 GMT 38.419098 -74.932678 36,000 216 377 192
2022-08-19 21:43:25 GMT 38.424683 -74.927597 36,000 216 379 0
2022-08-19 21:43:20 GMT 38.431824 -74.921143 36,000 216 377 128
2022-08-19 21:43:17 GMT 38.433792 -74.919357 36,000 216 377 128
2022-08-19 21:43:14 GMT 38.438789 -74.914856 35,975 216 376 384
2022-08-19 21:43:11 GMT 38.443352 -74.910706 35,550 216 375 640
2022-08-19 21:43:08 GMT 38.448578 -74.905975 35,900 216 375 640
2022-08-19 21:43:01 GMT 38.456665 -74.898621 35,325 216 377 768
2022-08-19 21:42:58 GMT 38.465286 -74.890816 35,825 216 375 704
2022-08-19 21:42:55 GMT 38.465286 -74.890816 35,775 216 375 704
2022-08-19 21:42:51 GMT 38.472061 -74.884666 35,750 216 375 704
2022-08-19 21:42:47 GMT 38.477612 -74.879639 35,725 216 375 704
2022-08-19 21:42:42 GMT 38.484131 -74.873718 35,325 216 377 768
2022-08-19 21:42:36 GMT 38.493160 -74.865479 35,575 216 376 768
2022-08-19 21:42:32 GMT 38.498562 -74.860596 35,500 216 376 768
2022-08-19 21:42:29 GMT 38.503510 -74.856125 35,500 216 376 768
2022-08-19 21:42:26 GMT 38.507217 -74.852776 35,450 216 376 768
2022-08-19 21:42:20 GMT 38.515877 -74.844910 35,200 216 377 768
2022-08-19 21:42:17 GMT 38.524246 -74.837318 35,325 216 377 768
2022-08-19 21:42:14 GMT 38.524246 -74.837318 35,125 216 376 768
2022-08-19 21:42:11 GMT 38.528355 -74.833557 35,200 216 377 704
2022-08-19 21:42:08 GMT 38.538269 -74.824524 35,200 216 377 704
2022-08-19 21:42:04 GMT 38.538269 -74.824524 35,200 216 377 704
2022-08-19 21:41:59 GMT 38.545067 -74.818298 35,125 216 376 704
2022-08-19 21:41:56 GMT 38.550747 -74.813171 35,100 216 376 704
2022-08-19 21:41:51 GMT 38.556984 -74.807495 35,000 216 376 896
2022-08-19 21:41:48 GMT 38.560226 -74.804535 35,025 216 376 960
2022-08-19 21:41:44 GMT 38.565781 -74.799500 34,950 216 376 1024
2022-08-19 21:41:40 GMT 38.573696 -74.792236 34,875 216 377 1088
2022-08-19 21:41:37 GMT 38.576431 -74.789787 34,850 216 377 1024
2022-08-19 21:41:34 GMT 38.580963 -74.785667 34,775 216 378 1024
2022-08-19 21:41:29 GMT 38.589478 -74.777847 34,675 216 378 896
2022-08-19 21:41:26 GMT 38.591618 -74.775940 34,600 216 379 896
2022-08-19 21:41:23 GMT 38.597488 -74.770622 34,600 216 379 896
2022-08-19 21:41:18 GMT 38.604904 -74.763817 34,525 216 379 896
2022-08-19 21:41:15 GMT 38.608612 -74.760468 34,425 216 379 768
2022-08-19 21:41:12 GMT 38.612194 -74.757202 34,475 216 379 768
2022-08-19 21:41:09 GMT 38.617596 -74.752258 34,425 216 379 768
2022-08-19 21:41:05 GMT 38.624039 -74.746376 34,350 216 379 832
2022-08-19 21:41:00 GMT 38.628616 -74.742203 34,100 216 380 1024
2022-08-19 21:40:57 GMT 38.632919 -74.738319 34,125 216 381 1088
2022-08-19 21:40:54 GMT 38.638046 -74.733604 34,200 216 379 960
2022-08-19 21:40:51 GMT 38.641754 -74.730202 34,100 216 380 1024
2022-08-19 21:40:48 GMT 38.646782 -74.725647 34,125 216 380 1088
2022-08-19 21:40:44 GMT 38.652790 -74.720154 34,050 216 381 1280
2022-08-19 21:40:38 GMT 38.662399 -74.711388 33,900 216 382 1344
2022-08-19 21:40:34 GMT 38.667297 -74.706909 33,800 216 384 1088
2022-08-19 21:40:30 GMT 38.671177 -74.703369 33,675 216 384 1088
2022-08-19 21:40:26 GMT 38.677963 -74.697121 33,650 216 384 896
2022-08-19 21:40:24 GMT 38.680721 -74.694641 33,650 216 384 768
2022-08-19 21:40:20 GMT 38.687935 -74.688049 33,600 216 384 768
2022-08-19 21:40:16 GMT 38.692310 -74.684082 33,525 216 383 704
2022-08-19 21:40:13 GMT 38.698086 -74.678772 33,525 216 384 704
2022-08-19 21:40:08 GMT 38.705154 -74.672340 33,450 216 382 576
2022-08-19 21:40:05 GMT 38.707718 -74.669952 33,375 216 382 576
2022-08-19 21:40:02 GMT 38.713352 -74.664795 33,400 216 382 512
2022-08-19 21:39:59 GMT 38.716240 -74.662170 33,350 216 380 704
2022-08-19 21:39:56 GMT 38.720947 -74.657829 33,350 216 381 448
2022-08-19 21:39:53 GMT 38.725250 -74.653893 33,350 216 380 768
2022-08-19 21:39:51 GMT 38.728134 -74.651260 33,325 216 380 704
2022-08-19 21:39:48 GMT 38.731842 -74.647858 33,300 216 380 704
2022-08-19 21:39:45 GMT 38.736584 -74.643555 33,200 216 380 1088
2022-08-19 21:39:42 GMT 38.742142 -74.638428 33,200 216 380 1088
2022-08-19 21:39:39 GMT 38.750595 -74.630676 33,125 216 380 1280
2022-08-19 21:39:36 GMT 38.750595 -74.630676 32,800 216 381 1344
2022-08-19 21:39:32 GMT 38.757484 -74.624390 32,925 216 381 1152
2022-08-19 21:39:28 GMT 38.761490 -74.620728 32,925 216 381 1152
2022-08-19 21:39:25 GMT 38.766098 -74.616516 32,775 216 382 960
2022-08-19 21:39:22 GMT 38.769821 -74.613037 32,800 216 382 1024
2022-08-19 21:39:19 GMT 38.775871 -74.607544 32,775 216 382 1024
2022-08-19 21:39:15 GMT 38.780762 -74.603027 32,700 216 382 960
2022-08-19 21:39:12 GMT 38.790024 -74.594543 32,625 216 384 1024
2022-08-19 21:39:08 GMT 38.790024 -74.594543 32,600 216 384 896
2022-08-19 21:39:04 GMT 38.795471 -74.589539 32,550 216 384 960
2022-08-19 21:39:02 GMT 38.797943 -74.587318 32,475 216 384 896
2022-08-19 21:38:59 GMT 38.812790 -74.573669 32,425 216 384 896
2022-08-19 21:38:52 GMT 38.812790 -74.573669 32,350 216 384 832
2022-08-19 21:38:50 GMT 38.816391 -74.570358 32,275 216 384 832
2022-08-19 21:38:46 GMT 38.821884 -74.565285 32,225 216 383 832
2022-08-19 21:38:42 GMT 38.827652 -74.559967 32,250 216 383 768
2022-08-19 21:38:39 GMT 38.831268 -74.556702 32,150 216 383 896
2022-08-19 21:38:33 GMT 38.839882 -74.548767 32,075 216 383 1152
2022-08-19 21:38:30 GMT 38.845936 -74.543213 31,850 216 383 1152
2022-08-19 21:38:27 GMT 38.849808 -74.539612 31,825 216 383 1344
2022-08-19 21:38:22 GMT 38.861023 -74.529282 31,100 216 399 1600
2022-08-19 21:38:19 GMT 38.861023 -74.529282 31,800 216 383 1344
2022-08-19 21:38:16 GMT 38.866650 -74.524109 31,425 216 384 1536
2022-08-19 21:38:12 GMT 38.870865 -74.520264 31,675 216 384 1600
2022-08-19 21:38:09 GMT 38.879517 -74.512260 31,500 216 386 1792
2022-08-19 21:38:02 GMT 38.886795 -74.505577 31,375 216 388 1856
2022-08-19 21:37:58 GMT 38.891464 -74.501274 31,275 216 389 1984
2022-08-19 21:37:55 GMT 38.895699 -74.497375 31,200 216 390 1920
2022-08-19 21:37:52 GMT 38.900120 -74.493347 31,100 216 394 1536
2022-08-19 21:37:49 GMT 38.910454 -74.483826 30,850 216 393 1664
2022-08-19 21:37:46 GMT 38.910454 -74.483826 30,900 216 395 1536
2022-08-19 21:37:41 GMT 38.917099 -74.477692 30,700 216 395 1472
2022-08-19 21:37:37 GMT 38.922279 -74.472900 30,700 216 395 1536
2022-08-19 21:37:34 GMT 38.925705 -74.469749 30,650 216 399 1600
2022-08-19 21:37:31 GMT 38.937012 -74.459305 30,450 216 396 1728
2022-08-19 21:37:28 GMT 38.937012 -74.459305 30,450 216 396 1664
2022-08-19 21:37:25 GMT 38.939831 -74.456726 30,400 216 397 1664
2022-08-19 21:37:22 GMT 38.945511 -74.451477 29,825 216 401 1408
2022-08-19 21:37:18 GMT 38.950302 -74.447021 30,225 216 399 1600
2022-08-19 21:37:15 GMT 38.956310 -74.441528 30,150 216 400 1600
2022-08-19 21:37:10 GMT 38.962360 -74.435974 30,025 216 400 1600
2022-08-19 21:37:06 GMT 38.969742 -74.429146 29,900 216 401 1536
2022-08-19 21:37:03 GMT 38.972122 -74.426941 29,850 216 402 1344
2022-08-19 21:37:00 GMT 38.977295 -74.422165 29,725 216 402 1344
2022-08-19 21:36:56 GMT 38.984528 -74.415474 29,650 216 403 832
2022-08-19 21:36:52 GMT 38.991211 -74.409325 29,650 216 403 832
2022-08-19 21:36:49 GMT 38.995102 -74.405685 29,575 216 401 832
2022-08-19 21:36:44 GMT 39.003422 -74.398010 29,550 216 401 832
2022-08-19 21:36:41 GMT 39.011993 -74.390099 29,225 216 401 832
2022-08-19 21:36:35 GMT 39.014874 -74.387451 29,425 216 401 896
2022-08-19 21:36:32 GMT 39.018784 -74.383789 29,400 216 401 896
2022-08-19 21:36:29 GMT 39.023903 -74.379089 29,350 216 400 768
2022-08-19 21:36:27 GMT 39.027649 -74.375587 29,325 216 399 704
2022-08-19 21:36:24 GMT 39.038612 -74.365479 29,275 216 399 704
2022-08-19 21:36:20 GMT 39.038612 -74.365479 29,225 216 399 640
2022-08-19 21:36:17 GMT 39.042389 -74.361977 29,200 216 398 640
2022-08-19 21:36:13 GMT 39.049850 -74.355049 29,175 216 398 640
2022-08-19 21:36:09 GMT 39.059372 -74.346214 29,100 216 396 512
2022-08-19 21:36:05 GMT 39.059372 -74.346214 29,100 216 396 512
2022-08-19 21:36:02 GMT 39.063858 -74.342094 29,075 216 395 576
2022-08-19 21:35:59 GMT 39.069618 -74.336731 29,050 216 394 704
2022-08-19 21:35:56 GMT 39.075249 -74.331482 28,975 216 394 704
2022-08-19 21:35:53 GMT 39.078094 -74.328896 28,875 216 393 832
2022-08-19 21:35:50 GMT 39.083817 -74.323547 28,950 216 393 832
2022-08-19 21:35:47 GMT 39.086655 -74.320953 28,925 216 393 832
2022-08-19 21:35:43 GMT 39.092560 -74.315460 28,850 216 393 960
2022-08-19 21:35:40 GMT 39.096523 -74.311829 28,825 216 392 960
2022-08-19 21:35:37 GMT 39.101669 -74.307045 28,750 216 392 896
2022-08-19 21:35:34 GMT 39.105370 -74.303589 28,700 216 392 896
2022-08-19 21:35:31 GMT 39.110504 -74.298805 28,675 216 392 896
2022-08-19 21:35:27 GMT 39.117100 -74.292664 28,625 216 391 896
2022-08-19 21:35:24 GMT 39.121674 -74.288414 28,525 216 391 1024
2022-08-19 21:35:19 GMT 39.129765 -74.280945 28,475 216 391 1216
2022-08-19 21:35:15 GMT 39.134743 -74.276306 28,425 216 391 1344
2022-08-19 21:35:12 GMT 39.138977 -74.272354 28,375 216 393 1728
2022-08-19 21:35:09 GMT 39.141953 -74.269608 28,325 216 392 1472
2022-08-19 21:35:06 GMT 39.149002 -74.263039 28,175 216 393 1664
2022-08-19 21:35:03 GMT 39.152107 -74.260193 28,150 216 393 1728
2022-08-19 21:34:58 GMT 39.159348 -74.253426 28,050 216 395 1920
2022-08-19 21:34:55 GMT 39.163933 -74.249146 27,900 216 396 1984
2022-08-19 21:34:52 GMT 39.168678 -74.244751 27,700 216 401 1408
2022-08-19 21:34:47 GMT 39.174774 -74.239037 27,675 216 398 1856
2022-08-19 21:34:44 GMT 39.181202 -74.233093 27,525 216 400 1472
2022-08-19 21:34:39 GMT 39.188419 -74.226379 27,450 216 400 1408
2022-08-19 21:34:36 GMT 39.192169 -74.222855 27,175 216 400 1408
2022-08-19 21:34:32 GMT 39.197403 -74.217957 27,325 216 400 1408
2022-08-19 21:34:29 GMT 39.202057 -74.213661 27,250 216 401 1408
2022-08-19 21:34:25 GMT 39.207317 -74.208740 27,150 217 403 1408
2022-08-19 21:34:22 GMT 39.212440 -74.203979 26,975 216 402 1472
2022-08-19 21:34:16 GMT 39.222401 -74.194702 26,900 217 403 1408
2022-08-19 21:34:13 GMT 39.227371 -74.190079 26,875 217 403 1408
2022-08-19 21:34:06 GMT 39.238266 -74.179871 26,700 216 403 1472
2022-08-19 21:34:02 GMT 39.244308 -74.174255 25,875 217 404 1024
2022-08-19 21:33:58 GMT 39.248703 -74.170105 26,475 216 406 1600
2022-08-19 21:33:55 GMT 39.253265 -74.165894 26,475 216 405 1600
2022-08-19 21:33:51 GMT 39.259968 -74.159607 26,225 216 406 1472
2022-08-19 21:33:47 GMT 39.266830 -74.153236 26,250 216 407 1344
2022-08-19 21:33:44 GMT 39.270351 -74.149963 26,200 217 408 1088
2022-08-19 21:33:41 GMT 39.275070 -74.145531 26,150 216 406 960
2022-08-19 21:33:38 GMT 39.279755 -74.141113 26,125 216 406 896
2022-08-19 21:33:33 GMT 39.287666 -74.133667 26,050 217 405 832
2022-08-19 21:33:31 GMT 39.292099 -74.129532 25,950 217 405 832
2022-08-19 21:33:25 GMT 39.300423 -74.121765 25,925 217 404 960
2022-08-19 21:33:22 GMT 39.303776 -74.118652 25,875 217 404 1024
2022-08-19 21:33:20 GMT 39.308010 -74.114624 25,850 217 404 1088
2022-08-19 21:33:16 GMT 39.312248 -74.110657 25,800 217 404 1088
2022-08-19 21:33:12 GMT 39.319790 -74.103577 25,725 217 404 1152
2022-08-19 21:33:07 GMT 39.327209 -74.096634 25,625 217 404 1280
2022-08-19 21:33:02 GMT 39.335083 -74.089287 25,500 217 404 1344
2022-08-19 21:33:00 GMT 39.337509 -74.087021 25,150 216 404 1024
2022-08-19 21:32:57 GMT 39.341766 -74.083076 25,400 216 405 1472
2022-08-19 21:32:54 GMT 39.347809 -74.077408 25,325 216 405 1408
2022-08-19 21:32:51 GMT 39.351151 -74.074303 25,275 216 405 1216
2022-08-19 21:32:49 GMT 39.354050 -74.071594 25,150 216 404 1024
2022-08-19 21:32:46 GMT 39.357681 -74.068176 25,200 216 405 1088
2022-08-19 21:32:43 GMT 39.363503 -74.062805 25,125 216 405 1088
2022-08-19 21:32:40 GMT 39.366669 -74.059853 25,100 216 404 1216
2022-08-19 21:32:37 GMT 39.372906 -74.054077 25,025 216 404 1280
2022-08-19 21:32:33 GMT 39.378399 -74.049011 24,900 216 404 1024
2022-08-19 21:32:30 GMT 39.382030 -74.045593 24,875 216 404 1024
2022-08-19 21:32:27 GMT 39.388126 -74.039978 24,850 216 405 896
2022-08-19 21:32:22 GMT 39.394833 -74.033752 24,750 216 405 704
2022-08-19 21:32:18 GMT 39.400883 -74.028076 24,625 217 404 704
2022-08-19 21:32:15 GMT 39.404839 -74.024414 24,700 217 404 704
2022-08-19 21:32:12 GMT 39.410339 -74.019073 24,675 218 403 704
2022-08-19 21:32:09 GMT 39.414661 -74.014832 24,625 218 401 768
2022-08-19 21:32:06 GMT 39.419815 -74.009697 24,600 218 401 768
2022-08-19 21:32:02 GMT 39.424950 -74.004578 24,525 218 400 832
2022-08-19 21:31:59 GMT 39.429325 -74.000183 24,500 218 400 832
2022-08-19 21:31:55 GMT 39.435059 -73.994415 24,475 218 400 896
2022-08-19 21:31:52 GMT 39.441193 -73.988266 24,075 218 398 960
2022-08-19 21:31:49 GMT 39.444672 -73.984802 24,375 218 399 960
2022-08-19 21:31:45 GMT 39.449615 -73.979782 24,325 218 399 1024
2022-08-19 21:31:41 GMT 39.455750 -73.973633 24,250 218 399 1024
2022-08-19 21:31:39 GMT 39.458515 -73.970886 24,200 218 399 960
2022-08-19 21:31:36 GMT 39.467545 -73.961853 24,150 218 399 960
2022-08-19 21:31:30 GMT 39.471924 -73.957458 24,100 218 398 960
2022-08-19 21:31:28 GMT 39.474701 -73.954643 24,025 218 398 896
2022-08-19 21:31:25 GMT 39.480240 -73.949097 23,975 218 398 896
2022-08-19 21:31:21 GMT 39.485886 -73.943420 23,475 218 395 1152
2022-08-19 21:31:17 GMT 39.489487 -73.939781 23,800 219 396 896
2022-08-19 21:31:14 GMT 39.494873 -73.934387 23,850 218 396 832
2022-08-19 21:31:11 GMT 39.499203 -73.929993 23,775 219 396 896
2022-08-19 21:31:08 GMT 39.504272 -73.924911 23,700 218 395 960
2022-08-19 21:31:04 GMT 39.510746 -73.918396 23,700 218 395 1088
2022-08-19 21:31:01 GMT 39.514343 -73.914764 23,650 218 395 1152
2022-08-19 21:30:57 GMT 39.519562 -73.909508 23,500 218 395 1216
2022-08-19 21:30:54 GMT 39.524460 -73.904549 23,500 218 395 1216
2022-08-19 21:30:50 GMT 39.530392 -73.898621 23,400 218 395 1088
2022-08-19 21:30:47 GMT 39.533836 -73.895142 23,375 218 395 1088
2022-08-19 21:30:44 GMT 39.538166 -73.890747 23,275 218 395 1088
2022-08-19 21:30:40 GMT 39.543777 -73.885086 23,275 218 395 1088
2022-08-19 21:30:37 GMT 39.548996 -73.879890 23,200 218 395 1088
2022-08-19 21:30:33 GMT 39.553894 -73.874939 23,150 218 395 1024
2022-08-19 21:30:30 GMT 39.558090 -73.870728 23,075 219 394 1024
2022-08-19 21:30:28 GMT 39.561535 -73.867249 23,075 219 394 1024
2022-08-19 21:30:24 GMT 39.567993 -73.860725 22,850 218 394 1088
2022-08-19 21:30:20 GMT 39.573032 -73.855652 22,925 219 394 1088
2022-08-19 21:30:18 GMT 39.575775 -73.852905 21,875 218 394 1152
2022-08-19 21:30:15 GMT 39.579365 -73.849243 22,850 218 394 1088
2022-08-19 21:30:12 GMT 39.584976 -73.843590 22,775 218 393 1152
2022-08-19 21:30:08 GMT 39.589874 -73.838692 22,675 218 393 1280
2022-08-19 21:30:05 GMT 39.593307 -73.835175 22,675 218 393 1280
2022-08-19 21:30:02 GMT 39.598755 -73.829674 22,575 218 393 1280
2022-08-19 21:29:59 GMT 39.604362 -73.824036 22,500 218 393 1152
2022-08-19 21:29:56 GMT 39.608086 -73.820251 22,475 218 393 1088
2022-08-19 21:29:52 GMT 39.614418 -73.813904 22,375 219 392 1024
2022-08-19 21:29:48 GMT 39.619583 -73.808716 22,325 219 392 1024
2022-08-19 21:29:45 GMT 39.622704 -73.805481 22,275 218 391 960
2022-08-19 21:29:42 GMT 39.628601 -73.799583 22,150 219 389 960
2022-08-19 21:29:38 GMT 39.633877 -73.794250 22,150 219 391 896
2022-08-19 21:29:35 GMT 39.638260 -73.789795 22,150 219 391 896
2022-08-19 21:29:31 GMT 39.642395 -73.785583 22,000 219 389 1088
2022-08-19 21:29:28 GMT 39.648075 -73.779846 22,025 219 389 1152
2022-08-19 21:29:24 GMT 39.652916 -73.774963 21,850 218 388 1216
2022-08-19 21:29:21 GMT 39.658875 -73.768982 21,850 218 388 1280
2022-08-19 21:29:18 GMT 39.661995 -73.765808 21,850 218 388 1280
2022-08-19 21:29:15 GMT 39.665951 -73.761780 21,575 218 388 1344
2022-08-19 21:29:12 GMT 39.670029 -73.757668 21,650 218 388 1344
2022-08-19 21:29:08 GMT 39.679825 -73.747742 21,575 219 387 1280
2022-08-19 21:29:05 GMT 39.679825 -73.747742 21,550 219 387 1280
2022-08-19 21:29:01 GMT 39.686295 -73.741150 21,500 219 387 1216
2022-08-19 21:28:56 GMT 39.694061 -73.733307 20,875 219 384 1408
2022-08-19 21:28:53 GMT 39.696770 -73.730591 21,350 219 387 1152
2022-08-19 21:28:50 GMT 39.701111 -73.726143 21,250 219 386 1216
2022-08-19 21:28:46 GMT 39.707886 -73.719276 21,200 219 386 1280
2022-08-19 21:28:43 GMT 39.712273 -73.714905 20,975 219 384 1280
2022-08-19 21:28:40 GMT 39.716034 -73.711037 21,075 219 384 1472
2022-08-19 21:28:36 GMT 39.719582 -73.707458 21,075 219 384 1216
2022-08-19 21:28:33 GMT 39.726608 -73.700317 20,950 219 384 1280
2022-08-19 21:28:29 GMT 39.730518 -73.696350 20,875 219 384 1408
2022-08-19 21:28:25 GMT 39.736267 -73.690559 20,775 219 384 1472
2022-08-19 21:28:22 GMT 39.740341 -73.686401 20,675 219 384 1280
2022-08-19 21:28:17 GMT 39.748161 -73.678467 20,625 219 383 1280
2022-08-19 21:28:15 GMT 39.751648 -73.674911 20,575 219 383 1280
2022-08-19 21:28:12 GMT 39.753750 -73.672729 20,550 219 383 1216
2022-08-19 21:28:09 GMT 39.759521 -73.666969 20,450 219 383 1152
2022-08-19 21:28:06 GMT 39.762314 -73.664108 20,425 219 383 1152
2022-08-19 21:28:02 GMT 39.769669 -73.656616 20,325 219 382 1216
2022-08-19 21:27:58 GMT 39.775406 -73.650787 20,250 219 381 1216
2022-08-19 21:27:54 GMT 39.779678 -73.646423 20,150 219 381 1280
2022-08-19 21:27:51 GMT 39.783463 -73.642609 20,125 219 381 1344
2022-08-19 21:27:46 GMT 39.790924 -73.635025 20,025 219 381 1280
2022-08-19 21:27:43 GMT 39.795090 -73.630791 19,975 219 375 1792
2022-08-19 21:27:40 GMT 39.798431 -73.627388 19,900 219 380 1344
2022-08-19 21:27:37 GMT 39.803234 -73.622498 19,825 219 375 0
2022-08-19 21:27:34 GMT 39.807938 -73.617676 19,725 219 378 1088
2022-08-19 21:27:31 GMT 39.811981 -73.613594 19,700 219 378 1024
2022-08-19 21:27:27 GMT 39.818176 -73.607300 19,650 219 377 960
2022-08-19 21:27:24 GMT 39.820366 -73.605042 19,625 219 376 960
2022-08-19 21:27:20 GMT 39.826538 -73.598785 19,550 219 375 1216
2022-08-19 21:27:17 GMT 39.831985 -73.593170 19,450 219 375 1600
2022-08-19 21:27:14 GMT 39.834053 -73.591125 19,400 219 375 1664
2022-08-19 21:27:12 GMT 39.837589 -73.587463 19,350 219 375 1792
2022-08-19 21:27:09 GMT 39.840847 -73.584167 19,275 219 375 1792
2022-08-19 21:27:05 GMT 39.847549 -73.577347 19,125 219 375 1792
2022-08-19 21:27:03 GMT 39.850296 -73.574547 18,350 219 374 1728
2022-08-19 21:27:00 GMT 39.854645 -73.570068 19,000 219 375 1664
2022-08-19 21:26:56 GMT 39.859982 -73.564636 18,900 219 375 1728
2022-08-19 21:26:51 GMT 39.866638 -73.557823 18,750 219 374 1728
2022-08-19 21:26:45 GMT 39.874054 -73.550362 18,500 218 375 1728
2022-08-19 21:26:41 GMT 39.878834 -73.545593 18,400 212 375 1536
2022-08-19 21:26:38 GMT 39.883118 -73.541344 18,425 217 374 1728
2022-08-19 21:26:35 GMT 39.893509 -73.531555 18,250 215 375 1664
2022-08-19 21:26:32 GMT 39.897583 -73.528091 18,200 212 375 1536
2022-08-19 21:26:29 GMT 39.897583 -73.528091 18,150 211 375 1472
2022-08-19 21:26:24 GMT 39.904999 -73.522644 18,050 204 376 1152
2022-08-19 21:26:21 GMT 39.909142 -73.520203 17,950 200 377 1088
2022-08-19 21:26:18 GMT 39.913834 -73.517822 17,950 199 376 1152
2022-08-19 21:26:13 GMT 39.921707 -73.514832 17,850 194 377 1216
2022-08-19 21:26:10 GMT 39.926697 -73.513550 17,775 188 378 1216
2022-08-19 21:26:07 GMT 39.932091 -73.512520 17,775 188 378 1216
2022-08-19 21:26:03 GMT 39.939400 -73.511955 17,650 181 379 1344
2022-08-19 21:26:01 GMT 39.944332 -73.511955 17,600 178 379 1344
2022-08-19 21:25:57 GMT 39.949223 -73.512329 17,525 175 379 1408
2022-08-19 21:25:53 GMT 39.957275 -73.513268 17,450 174 379 1408
2022-08-19 21:25:50 GMT 39.967377 -73.514641 17,300 174 378 1536
2022-08-19 21:25:47 GMT 39.967377 -73.514641 17,300 174 378 1536
2022-08-19 21:25:43 GMT 39.974854 -73.515625 17,200 174 377 1600
2022-08-19 21:25:39 GMT 39.982498 -73.516663 17,075 174 376 1536
2022-08-19 21:25:36 GMT 39.987534 -73.517326 17,000 174 376 1536
2022-08-19 21:25:32 GMT 39.992889 -73.518066 16,925 174 375 1600
2022-08-19 21:25:30 GMT 39.998241 -73.518822 16,850 174 375 1600
2022-08-19 21:25:27 GMT 40.000988 -73.519196 16,800 174 375 1664
2022-08-19 21:25:22 GMT 40.010670 -73.520447 16,650 174 373 1792
2022-08-19 21:25:17 GMT 40.018257 -73.521507 16,525 174 374 1920
2022-08-19 21:25:12 GMT 40.027897 -73.522820 16,150 174 374 1856
2022-08-19 21:25:06 GMT 40.039253 -73.524376 16,150 173 374 1920
2022-08-19 21:25:02 GMT 40.046841 -73.525375 16,025 173 374 1792
2022-08-19 21:24:57 GMT 40.053543 -73.526367 15,825 173 373 1792
2022-08-19 21:24:54 GMT 40.057983 -73.526978 15,375 173 372 1920
2022-08-19 21:24:51 GMT 40.064346 -73.527878 15,600 173 372 2048
2022-08-19 21:24:48 GMT 40.070709 -73.528809 15,300 173 373 2112
2022-08-19 21:24:45 GMT 40.074829 -73.529419 15,525 173 373 2112
2022-08-19 21:24:41 GMT 40.081848 -73.530373 15,400 173 373 1920
2022-08-19 21:24:37 GMT 40.087341 -73.531181 14,875 173 372 1920
2022-08-19 21:24:34 GMT 40.093533 -73.532059 15,200 173 372 1856
2022-08-19 21:24:30 GMT 40.099503 -73.532898 15,100 173 372 1920
2022-08-19 21:24:27 GMT 40.106369 -73.533875 14,850 173 371 1984
2022-08-19 21:24:23 GMT 40.112343 -73.534676 14,850 173 371 1920
2022-08-19 21:24:20 GMT 40.123810 -73.536255 14,725 173 371 1728
2022-08-19 21:24:17 GMT 40.123810 -73.536255 14,675 174 369 1664
2022-08-19 21:24:14 GMT 40.128029 -73.536865 14,625 174 369 1664
2022-08-19 21:24:10 GMT 40.135712 -73.537842 14,475 174 368 1536
2022-08-19 21:24:06 GMT 40.140644 -73.538483 14,425 174 367 1536
2022-08-19 21:24:03 GMT 40.145920 -73.539124 14,275 175 367 1408
2022-08-19 21:23:59 GMT 40.152840 -73.539925 14,250 176 365 1408
2022-08-19 21:23:56 GMT 40.160110 -73.540466 14,100 181 361 1472
2022-08-19 21:23:52 GMT 40.163773 -73.540649 13,900 192 354 1152
2022-08-19 21:23:48 GMT 40.171509 -73.540466 14,025 183 360 1408
2022-08-19 21:23:43 GMT 40.181145 -73.538795 13,900 192 354 1152
2022-08-19 21:23:38 GMT 40.189106 -73.536423 13,800 194 351 1472
2022-08-19 21:23:35 GMT 40.192429 -73.535339 13,750 195 349 1600
2022-08-19 21:23:32 GMT 40.196972 -73.533806 12,150 195 348 1600
2022-08-19 21:23:28 GMT 40.209000 -73.529785 12,575 195 346 2240
2022-08-19 21:23:25 GMT 40.209000 -73.529785 13,475 195 346 1920
2022-08-19 21:23:21 GMT 40.215820 -73.527466 13,325 195 346 2176
2022-08-19 21:23:18 GMT 40.218292 -73.526611 13,250 195 346 2304
2022-08-19 21:23:15 GMT 40.224953 -73.524315 13,100 195 346 2432
2022-08-19 21:23:12 GMT 40.229000 -73.522942 13,000 195 346 2432
2022-08-19 21:23:08 GMT 40.235191 -73.520821 12,900 195 346 2368
2022-08-19 21:23:03 GMT 40.243744 -73.517944 12,625 195 347 2368
2022-08-19 21:22:59 GMT 40.249008 -73.516174 12,500 195 347 2432
2022-08-19 21:22:57 GMT 40.252277 -73.515076 12,425 195 347 2432
2022-08-19 21:22:53 GMT 40.257259 -73.513390 12,250 195 346 2496
2022-08-19 21:22:50 GMT 40.263931 -73.511169 12,125 195 347 2496
2022-08-19 21:22:47 GMT 40.265488 -73.510620 12,075 195 347 2496
2022-08-19 21:22:44 GMT 40.272675 -73.508240 11,800 195 346 2368
2022-08-19 21:22:41 GMT 40.277184 -73.506714 11,800 195 347 2368
2022-08-19 21:22:37 GMT 40.281372 -73.505310 11,700 195 346 2368
2022-08-19 21:22:35 GMT 40.286316 -73.503601 10,950 195 345 2240
2022-08-19 21:22:32 GMT 40.289566 -73.502533 11,425 195 345 2240
2022-08-19 21:22:28 GMT 40.297165 -73.499939 11,325 195 344 1984
2022-08-19 21:22:24 GMT 40.307373 -73.496582 11,075 194 343 1472
2022-08-19 21:22:21 GMT 40.307373 -73.496582 11,100 194 341 1344
2022-08-19 21:22:18 GMT 40.312958 -73.494934 11,075 193 340 1216
2022-08-19 21:22:14 GMT 40.317581 -73.493652 11,025 192 340 1152
2022-08-19 21:22:11 GMT 40.323593 -73.492416 10,925 185 337 1152
2022-08-19 21:22:08 GMT 40.328110 -73.492004 10,900 182 336 1152
2022-08-19 21:22:04 GMT 40.334812 -73.492294 10,750 172 334 1216
2022-08-19 21:22:01 GMT 40.338913 -73.493164 10,750 168 332 1216
2022-08-19 21:21:57 GMT 40.343845 -73.494789 10,700 162 330 1216
2022-08-19 21:21:55 GMT 40.347427 -73.496521 10,650 156 329 1280
2022-08-19 21:21:51 GMT 40.352875 -73.500061 10,575 148 326 1216
2022-08-19 21:21:47 GMT 40.357498 -73.503784 10,500 146 324 1216
2022-08-19 21:21:44 GMT 40.361584 -73.507401 10,425 145 318 1344
2022-08-19 21:21:40 GMT 40.366104 -73.511414 10,350 145 319 1280
2022-08-19 21:21:37 GMT 40.370102 -73.515015 10,275 145 315 1408
2022-08-19 21:21:35 GMT 40.373108 -73.517700 10,150 145 312 1344
2022-08-19 21:21:32 GMT 40.376495 -73.520691 10,125 145 308 2048
2022-08-19 21:21:29 GMT 40.378944 -73.522881 10,100 145 308 2048
2022-08-19 21:21:26 GMT 40.383228 -73.526688 9,975 145 306 2560
2022-08-19 21:21:22 GMT 40.387882 -73.530869 9,700 145 305 2432
2022-08-19 21:21:19 GMT 40.391281 -73.533875 9,700 145 305 2432
2022-08-19 21:21:16 GMT 40.395493 -73.537598 9,550 145 305 2368
2022-08-19 21:21:13 GMT 40.401077 -73.542603 9,000 145 295 2560
2022-08-19 21:21:11 GMT 40.405155 -73.546227 9,350 145 301 2176
2022-08-19 21:21:08 GMT 40.405155 -73.546227 9,250 145 302 2176
2022-08-19 21:21:05 GMT 40.407436 -73.548286 9,175 145 301 2176
2022-08-19 21:21:02 GMT 40.411697 -73.552124 9,025 145 299 2240
2022-08-19 21:20:59 GMT 40.413860 -73.554031 9,025 145 299 2240
2022-08-19 21:20:56 GMT 40.417305 -73.557091 8,875 145 297 2368
2022-08-19 21:20:51 GMT 40.426151 -73.565018 8,575 145 295 2560
2022-08-19 21:20:45 GMT 40.431129 -73.569511 8,225 145 294 2560
2022-08-19 21:20:42 GMT 40.433258 -73.571411 8,350 145 294 2560
2022-08-19 21:20:38 GMT 40.437416 -73.575127 8,100 145 292 2688
2022-08-19 21:20:35 GMT 40.442001 -73.579224 7,975 145 292 2752
2022-08-19 21:20:33 GMT 40.444016 -73.581055 7,900 145 292 2816
2022-08-19 21:20:31 GMT 40.446945 -73.583618 7,750 145 292 2816
2022-08-19 21:20:28 GMT 40.450745 -73.587036 7,675 145 292 2816
2022-08-19 21:20:24 GMT 40.453171 -73.589233 7,525 145 292 2944
2022-08-19 21:20:21 GMT 40.456741 -73.592468 7,275 145 292 3008
2022-08-19 21:20:18 GMT 40.460541 -73.595825 7,200 145 292 3008
2022-08-19 21:20:15 GMT 40.464111 -73.599060 7,050 145 292 2688
2022-08-19 21:20:12 GMT 40.467163 -73.601784 6,875 145 292 2688
2022-08-19 21:20:09 GMT 40.470612 -73.604858 6,725 145 292 2496
2022-08-19 21:20:05 GMT 40.476601 -73.610023 5,400 145 281 2624
2022-08-19 21:20:03 GMT 40.478741 -73.611954 5,400 145 281 2624
2022-08-19 21:20:02 GMT 40.479820 -73.612907 5,400 145 281 2624
2022-08-19 21:20:00 GMT 40.481960 -73.614838 5,400 145 281 2624
2022-08-19 21:19:59 GMT 40.483028 -73.615807 5,400 145 281 2624
2022-08-19 21:19:58 GMT 40.485180 -73.617737 5,400 145 281 2304
2022-08-19 21:19:57 GMT 40.486252 -73.618698 5,400 145 281 2304
2022-08-19 21:19:54 GMT 40.488400 -73.620628 5,400 145 281 2304
2022-08-19 21:19:53 GMT 40.489471 -73.621597 5,400 145 281 2304
2022-08-19 21:19:52 GMT 40.490540 -73.622566 5,400 145 281 2304
2022-08-19 21:19:51 GMT 40.491611 -73.623528 5,400 145 281 2304
2022-08-19 21:19:49 GMT 40.493759 -73.625458 5,400 145 281 2304
2022-08-19 21:19:48 GMT 40.494831 -73.626427 5,400 145 281 2304
2022-08-19 21:19:46 GMT 40.496979 -73.628357 5,400 145 281 2304
2022-08-19 21:19:45 GMT 40.499119 -73.630287 5,400 145 281 2304
2022-08-19 21:19:43 GMT 40.500191 -73.631264 5,400 145 281 2304
2022-08-19 21:19:42 GMT 40.501270 -73.632217 5,400 145 281 2304
2022-08-19 21:19:40 GMT 40.503410 -73.634148 5,400 145 281 2304
2022-08-19 21:19:38 GMT 40.505550 -73.636093 5,400 145 281 2304
2022-08-19 21:19:37 GMT 40.506630 -73.637047 5,400 145 281 2304
2022-08-19 21:19:36 GMT 40.507702 -73.638023 5,400 145 281 2304
2022-08-19 21:19:35 GMT 40.509949 -73.640213 5,200 145 277 2304
2022-08-19 21:19:33 GMT 40.512081 -73.642097 5,200 145 277 2304
2022-08-19 21:19:31 GMT 40.513142 -73.643051 5,200 145 277 2304
2022-08-19 21:19:30 GMT 40.515289 -73.644974 4,800 145 276 2304
2022-08-19 21:19:28 GMT 40.516350 -73.645912 4,800 145 276 2304
2022-08-19 21:19:26 GMT 40.519642 -73.648819 4,800 145 274 2304
2022-08-19 21:19:24 GMT 40.520691 -73.649757 4,800 145 274 2304
2022-08-19 21:19:22 GMT 40.522781 -73.651627 4,800 145 274 2304
2022-08-19 21:19:21 GMT 40.523830 -73.652573 4,800 145 274 2304
2022-08-19 21:19:20 GMT 40.526051 -73.654480 4,600 145 272 2304
2022-08-19 21:19:18 GMT 40.527088 -73.655411 4,600 145 272 2304
2022-08-19 21:19:16 GMT 40.529160 -73.657272 4,600 145 272 2304
2022-08-19 21:19:15 GMT 40.531261 -73.659203 4,500 145 271 2304
2022-08-19 21:19:13 GMT 40.532291 -73.660118 4,500 145 271 2304
2022-08-19 21:19:12 GMT 40.533329 -73.661049 4,500 145 271 2304
2022-08-19 21:19:11 GMT 40.535530 -73.663033 4,300 145 267 2304
2022-08-19 21:19:09 GMT 40.537571 -73.664864 4,300 145 267 2304
2022-08-19 21:19:07 GMT 40.538601 -73.665779 4,300 145 267 2304
2022-08-19 21:19:05 GMT 40.540291 -73.667671 4,000 145 274 2304
2022-08-19 21:19:04 GMT 40.541340 -73.668587 4,000 145 274 2304
2022-08-19 21:19:03 GMT 40.542389 -73.669518 4,000 145 274 2304
2022-08-19 21:19:01 GMT 40.545040 -73.671219 4,000 145 262 2304
2022-08-19 21:19:00 GMT 40.546040 -73.672127 4,000 145 262 2304
2022-08-19 21:18:59 GMT 40.547031 -73.673050 4,000 145 262 2304
2022-08-19 21:18:57 GMT 40.548882 -73.675293 3,900 145 261 2304
2022-08-19 21:18:56 GMT 40.549881 -73.676178 3,900 145 261 1632
2022-08-19 21:18:54 GMT 40.551891 -73.677948 3,900 145 261 1632
2022-08-19 21:18:53 GMT 40.552891 -73.678833 3,900 145 261 1632
2022-08-19 21:18:51 GMT 40.554771 -73.680527 3,600 145 263 1632
2022-08-19 21:18:50 GMT 40.556782 -73.682327 3,600 145 263 1632
2022-08-19 21:18:49 GMT 40.557751 -73.683243 3,600 145 261 1632
2022-08-19 21:18:47 GMT 40.559738 -73.685028 3,600 145 261 1632
2022-08-19 21:18:45 GMT 40.560730 -73.685921 3,600 145 261 1632
2022-08-19 21:18:44 GMT 40.561729 -73.686821 3,600 145 261 1632
2022-08-19 21:18:42 GMT 40.563759 -73.688728 3,500 144 251 1632
2022-08-19 21:18:41 GMT 40.564720 -73.689598 3,500 144 251 1632
2022-08-19 21:18:39 GMT 40.566631 -73.691353 3,500 144 251 1632
2022-08-19 21:18:38 GMT 40.567669 -73.692421 3,400 143 241 1632
2022-08-19 21:18:36 GMT 40.569489 -73.694122 3,400 143 241 1632
2022-08-19 21:18:35 GMT 40.570389 -73.694962 3,400 143 241 1632
2022-08-19 21:18:34 GMT 40.572559 -73.696953 3,300 141 223 1632
2022-08-19 21:18:32 GMT 40.573380 -73.697769 3,300 141 223 1632
2022-08-19 21:18:31 GMT 40.575020 -73.699409 3,300 141 223 1632
2022-08-19 21:18:29 GMT 40.577030 -73.701271 3,100 138 210 1632
2022-08-19 21:18:27 GMT 40.577770 -73.702087 3,100 138 210 1632
2022-08-19 21:18:26 GMT 40.578510 -73.702919 3,100 138 210 1632
2022-08-19 21:18:25 GMT 40.579201 -73.703400 3,100 135 219 1632
2022-08-19 21:18:23 GMT 40.580669 -73.705231 3,100 135 219 1632
2022-08-19 21:18:22 GMT 40.582142 -73.707062 3,100 135 219 1632
2022-08-19 21:18:21 GMT 40.582779 -73.707748 3,000 133 228 1632
2022-08-19 21:18:18 GMT 40.584259 -73.709732 3,000 133 228 1632
2022-08-19 21:18:17 GMT 40.584999 -73.710716 3,000 133 228 1632
2022-08-19 21:18:15 GMT 40.586460 -73.712631 2,800 131 228 1632
2022-08-19 21:18:14 GMT 40.587181 -73.713654 2,800 130 227 1632
2022-08-19 21:18:12 GMT 40.588650 -73.715714 2,800 127 221 1632
2022-08-19 21:18:11 GMT 40.589298 -73.716751 2,700 126 220 1632
2022-08-19 21:18:09 GMT 40.590542 -73.718826 2,700 125 220 1632
2022-08-19 21:18:08 GMT 40.591129 -73.719933 2,700 124 219 1632
2022-08-19 21:18:07 GMT 40.592281 -73.722061 2,725 123 219 1632
2022-08-19 21:18:05 GMT 40.592861 -73.723167 2,650 123 217 1632
2022-08-19 21:18:02 GMT 40.594528 -73.726463 2,500 123 212 1632
2022-08-19 21:18:00 GMT 40.595612 -73.728607 2,500 123 209 1632
2022-08-19 21:17:59 GMT 40.596710 -73.730751 2,500 123 205 1632
2022-08-19 21:17:57 GMT 40.597252 -73.731812 2,400 123 201 1632
2022-08-19 21:17:56 GMT 40.598259 -73.733879 2,400 123 201 1408
2022-08-19 21:17:54 GMT 40.598820 -73.734917 2,400 122 198 1408
2022-08-19 21:17:53 GMT 40.599800 -73.736923 2,300 122 200 1408
2022-08-19 21:17:51 GMT 40.600300 -73.737968 2,300 122 198 1408
2022-08-19 21:17:50 GMT 40.600800 -73.739029 2,300 123 196 1408
2022-08-19 21:17:48 GMT 40.601791 -73.740997 2,200 123 195 1408
2022-08-19 21:17:47 GMT 40.602791 -73.742950 2,200 122 196 1408
2022-08-19 21:17:45 GMT 40.603291 -73.743958 2,200 122 196 1408
2022-08-19 21:17:43 GMT 40.604259 -73.745979 2,150 122 190 1408
2022-08-19 21:17:42 GMT 40.605209 -73.747917 2,075 122 189 1408
2022-08-19 21:17:40 GMT 40.605671 -73.748878 2,075 122 191 1408
2022-08-19 21:17:39 GMT 40.606590 -73.750778 2,000 122 192 1408
2022-08-19 21:17:37 GMT 40.607071 -73.751793 2,000 122 189 1408
2022-08-19 21:17:35 GMT 40.608040 -73.753822 2,000 122 178 1408
2022-08-19 21:17:34 GMT 40.608952 -73.755692 1,800 122 176 1408
2022-08-19 21:17:33 GMT 40.609360 -73.756599 1,800 122 177 1408
2022-08-19 21:17:30 GMT 40.610271 -73.758453 1,800 122 172 1408
2022-08-19 21:17:29 GMT 40.610668 -73.759277 1,800 122 176 1408
2022-08-19 21:17:28 GMT 40.611519 -73.761047 1,800 122 177 1408
2022-08-19 21:17:26 GMT 40.611969 -73.761978 1,725 122 175 1408
2022-08-19 21:17:25 GMT 40.612862 -73.763702 1,725 121 176 1408
2022-08-19 21:17:23 GMT 40.613720 -73.765488 1,650 122 174 1408
2022-08-19 21:17:21 GMT 40.614151 -73.766388 1,650 123 172 1408
2022-08-19 21:17:20 GMT 40.615070 -73.768082 1,600 122 170 1408
2022-08-19 21:17:18 GMT 40.615501 -73.768898 1,600 123 170 1408
2022-08-19 21:17:16 GMT 40.616360 -73.770576 1,500 127 167 1408
2022-08-19 21:17:15 GMT 40.616840 -73.771408 1,500 129 163 1408
2022-08-19 21:17:14 GMT 40.617321 -73.772209 1,500 133 159 1408
2022-08-19 21:17:12 GMT 40.618309 -73.773643 1,475 137 154 1408
2022-08-19 21:17:11 GMT 40.618832 -73.774261 1,450 139 154 1408
2022-08-19 21:17:09 GMT 40.619900 -73.775589 1,250 148 148 1408
2022-08-19 21:17:08 GMT 40.621010 -73.776550 1,250 151 151 1408
2022-08-19 21:17:06 GMT 40.621658 -73.777061 1,250 152 145 1408
2022-08-19 21:17:05 GMT 40.622829 -73.777870 1,250 152 148 1408
2022-08-19 21:17:03 GMT 40.623489 -73.778313 1,250 152 141 1408
2022-08-19 21:17:02 GMT 40.624649 -73.779060 1,250 150 147 1408
2022-08-19 21:17:00 GMT 40.625271 -73.779549 1,150 152 140 1408
2022-08-19 21:16:59 GMT 40.626419 -73.780357 1,150 151 143 1408
2022-08-19 21:16:57 GMT 40.627010 -73.780807 1,125 153 140 1408
2022-08-19 21:16:56 GMT 40.628151 -73.781601 900 152 139 -32
2022-08-19 21:16:54 GMT 40.628700 -73.781990 900 153 141 -32
2022-08-19 21:16:53 GMT 40.629829 -73.782829 900 153 141 -32
2022-08-19 21:16:51 GMT 40.630409 -73.783249 900 153 139 -32
2022-08-19 21:16:50 GMT 40.630939 -73.783638 900 152 142 -32
2022-08-19 21:16:48 GMT 40.632092 -73.784439 750 146 142 -32
2022-08-19 21:16:47 GMT 40.633190 -73.785393 675 140 142 -32
2022-08-19 21:16:45 GMT 40.633720 -73.785942 675 136 140 -32
2022-08-19 21:16:44 GMT 40.634689 -73.787071 600 128 143 -32
2022-08-19 21:16:42 GMT 40.635139 -73.787720 500 124 144 -32
2022-08-19 21:16:40 GMT 40.635929 -73.789139 125 120 146 -32
2022-08-19 21:16:39 GMT 40.636269 -73.789864 125 120 153 -32
2022-08-19 21:16:37 GMT 40.636990 -73.791389 125 118 154 -32
2022-08-19 21:16:36 GMT 40.637341 -73.792267 125 119 149 -32
2022-08-19 21:16:34 GMT 40.638050 -73.793861 125 120 150 -32
2022-08-19 21:16:33 GMT 40.638390 -73.794632 75 120 151 -32
2022-08-19 21:16:32 GMT 40.639091 -73.796204 -100 119 158 -32
2022-08-19 21:16:30 GMT 40.639420 -73.797012 -100 120 160 -32
2022-08-19 21:16:28 GMT 40.640160 -73.798668 -100 120 158 -32
2022-08-19 21:16:27 GMT 40.640911 -73.800339 -125 121 150 -32
2022-08-19 21:16:25 GMT 40.641251 -73.801109 -125 121 148 -32
2022-08-19 21:16:24 GMT 40.641628 -73.801857 -125 120 146 -32
2022-08-19 21:16:22 GMT 40.642319 -73.803383 -125 120 139 -32
2022-08-19 21:16:21 GMT 40.642941 -73.804810 -125 120 135 -32
2022-08-19 21:16:19 GMT 40.643291 -73.805511 -125 119 129 -32
2022-08-19 21:16:18 GMT 40.643570 -73.806190 -125 120 127 -32
2022-08-19 21:16:17 GMT 40.644161 -73.807541 -125 121 117 -32
2022-08-19 21:16:15 GMT 40.644482 -73.808144 -125 120 111 -32
2022-08-19 21:16:13 GMT 40.645000 -73.809280 -125 119 103 0
2022-08-19 21:16:12 GMT 40.645458 -73.810387 -125 121 96 0
2022-08-19 21:16:10 GMT 40.645691 -73.810898 0 121 91 0
2022-08-19 21:16:08 GMT 40.646111 -73.811798 0 120 84 0
2022-08-19 21:16:07 GMT 40.646339 -73.812241 0 118 79 0
2022-08-19 21:16:06 GMT 40.646530 -73.812668 0 118 73 0
2022-08-19 21:16:04 GMT 40.646820 -73.813461 0 121 63 0
2022-08-19 21:16:03 GMT 40.646950 -73.813820 0 124 60 0
2022-08-19 21:16:01 GMT 40.647301 -73.814484 0 123 40 0
2022-08-19 21:16:00 GMT 40.647442 -73.814713 0 121 34 0
2022-08-19 21:15:59 GMT 40.647671 -73.815262 0 120 23 0
2022-08-19 21:15:57 GMT 40.647732 -73.815453 0 120 20 0
2022-08-19 21:15:55 GMT 40.647942 -73.815933 0 120 4 0
2022-08-19 21:15:54 GMT 40.647991 -73.816002 0 120 3 0
2022-08-19 21:15:53 GMT 40.648022 -73.816063 0 120 1 0
2022-08-19 21:15:51 GMT 40.648010 -73.816101 0 120 1 0
2022-08-19 21:15:50 GMT 40.648060 -73.816200 0 120 0 0
2022-08-19 21:15:48 GMT 40.648071 -73.816193 0 120 0 0
2022-08-19 21:15:47 GMT 40.648079 -73.816200 0 120 0 0
2022-08-19 21:15:45 GMT 40.648090 -73.816200 0 120 0 0
2022-08-19 21:15:44 GMT 40.648090 -73.816200 0 120 0 0
2022-08-19 21:15:41 GMT 40.648102 -73.816200 0 120 0 0
2022-08-19 21:15:35 GMT 40.648079 -73.816223 0 120 0 0
2022-08-19 21:15:30 GMT 40.648090 -73.816208 0 120 0 0
2022-08-19 21:15:29 GMT 40.648079 -73.816208 0 120 0 0
2022-08-19 21:15:25 GMT 40.648090 -73.816208 0 120 0 0
2022-08-19 21:15:24 GMT 40.648079 -73.816223 0 120 0 0
2022-08-19 21:15:21 GMT 40.648079 -73.816208 0 120 0 0
2022-08-19 21:15:18 GMT 40.648079 -73.816223 0 120 0 0
2022-08-19 21:15:16 GMT 40.648090 -73.816200 0 120 0 0
2022-08-19 21:15:15 GMT 40.648090 -73.816208 0 120 0 0
2022-08-19 21:15:14 GMT 40.648079 -73.816223 0 120 0 0
2022-08-19 21:15:12 GMT 40.648090 -73.816200 0 120 1 0
2022-08-19 21:15:10 GMT 40.648079 -73.816200 0 120 0 0
2022-08-19 21:15:09 GMT 40.648079 -73.816238 0 120 0 0
2022-08-19 21:15:07 GMT 40.648079 -73.816223 0 120 0 0
2022-08-19 21:15:05 GMT 40.648079 -73.816208 0 120 0 0
2022-08-19 21:15:04 GMT 40.648079 -73.816231 0 120 0 0
2022-08-19 21:15:03 GMT 40.648090 -73.816223 0 120 0 0
2022-08-19 21:14:59 GMT 40.648090 -73.816208 0 120 0 0
2022-08-19 21:14:56 GMT 40.648102 -73.816200 0 120 0 0
2022-08-19 21:14:55 GMT 40.648109 -73.816193 0 120 0 0
2022-08-19 21:14:54 GMT 40.648090 -73.816208 0 120 0 0
2022-08-19 21:14:52 GMT 40.648121 -73.816200 0 120 1 0
2022-08-19 21:14:50 GMT 40.648109 -73.816193 0 120 1 0
2022-08-19 21:14:49 GMT 40.648079 -73.816261 0 120 1 0
2022-08-19 21:14:47 GMT 40.648071 -73.816261 0 120 2 0
2022-08-19 21:14:46 GMT 40.648071 -73.816254 0 120 2 0
2022-08-19 21:14:45 GMT 40.648060 -73.816238 0 120 2 0
2022-08-19 21:14:44 GMT 40.648060 -73.816170 0 120 0 0
2022-08-19 21:14:41 GMT 40.648060 -73.816170 0 120 1 0
2022-08-19 21:14:38 GMT 40.648090 -73.816231 0 120 1 0
2022-08-19 21:14:36 GMT 40.648090 -73.816223 0 120 1 0
2022-08-19 21:14:35 GMT 40.648079 -73.816208 0 120 1 0
2022-08-19 21:14:33 GMT 40.648102 -73.816193 0 120 0 0
2022-08-19 21:14:30 GMT 40.648109 -73.816177 0 120 0 0
2022-08-19 21:14:29 GMT 40.648090 -73.816208 0 120 1 0
2022-08-19 21:14:27 GMT 40.648060 -73.816193 0 120 0 0
2022-08-19 21:14:26 GMT 40.648048 -73.816200 0 120 1 0
2022-08-19 21:14:25 GMT 40.648060 -73.816200 0 120 0 0
2022-08-19 21:14:23 GMT 40.648079 -73.816208 0 120 0 0
2022-08-19 21:14:22 GMT 40.648090 -73.816200 0 120 0 0
2022-08-19 21:14:20 GMT 40.648090 -73.816200 0 120 0 0
2022-08-19 21:14:16 GMT 40.648071 -73.816208 0 120 0 0
2022-08-19 21:14:14 GMT 40.648071 -73.816177 0 120 0 0
2022-08-19 21:14:12 GMT 40.648071 -73.816177 0 120 0 0
2022-08-19 21:14:11 GMT 40.648060 -73.816177 0 120 1 0
2022-08-19 21:14:09 GMT 40.648071 -73.816231 0 120 3 0
2022-08-19 21:14:05 GMT 40.648121 -73.816170 0 120 1 0
2022-08-19 21:14:02 GMT 40.648129 -73.816116 0 120 2 0
2022-08-19 21:14:00 GMT 40.648121 -73.816139 0 120 2 0
2022-08-19 21:13:59 GMT 40.648041 -73.816109 0 120 2 0
2022-08-19 21:13:57 GMT 40.648048 -73.816147 0 120 1 0
2022-08-19 21:13:56 GMT 40.648048 -73.816162 0 120 1 0
2022-08-19 21:13:55 GMT 40.648041 -73.816177 0 120 1 0
2022-08-19 21:13:53 GMT 40.648071 -73.816200 0 120 2 0
2022-08-19 21:13:51 GMT 40.648048 -73.816162 0 120 0 0
2022-08-19 21:13:50 GMT 40.648060 -73.816147 0 120 0 0
2022-08-19 21:13:49 GMT 40.648041 -73.816162 0 120 0 0
2022-08-19 21:13:48 GMT 40.648090 -73.816170 0 120 0 0
2022-08-19 21:13:46 GMT 40.648090 -73.816170 0 120 0 0
2022-08-19 21:13:44 GMT 40.648071 -73.816177 0 120 0 0
2022-08-19 21:13:43 GMT 40.648090 -73.816200 0 120 0 0
2022-08-19 21:13:42 GMT 40.648102 -73.816200 0 120 0 0
2022-08-19 21:13:41 GMT 40.648090 -73.816208 0 120 0 0
2022-08-19 21:13:39 GMT 40.648090 -73.816200 0 120 0 0
2022-08-19 21:13:37 GMT 40.648109 -73.816177 0 120 0 0
2022-08-19 21:13:36 GMT 40.648109 -73.816193 0 120 0 0
2022-08-19 21:13:34 GMT 40.648102 -73.816193 0 120 0 0
2022-08-19 21:13:33 GMT 40.648102 -73.816177 0 120 0 0
2022-08-19 21:13:31 GMT 40.648102 -73.816170 0 120 0 0
2022-08-19 21:13:30 GMT 40.648090 -73.816170 0 120 0 0
2022-08-19 21:13:29 GMT 40.648048 -73.816177 0 120 2 0
2022-08-19 21:13:26 GMT 40.648109 -73.816200 0 120 2 0
2022-08-19 21:13:24 GMT 40.648109 -73.816193 0 120 2 0
2022-08-19 21:13:23 GMT 40.648109 -73.816162 0 119 1 0
2022-08-19 21:13:21 GMT 40.648109 -73.816147 0 118 1 0
2022-08-19 21:13:20 GMT 40.648090 -73.816132 0 117 1 0
2022-08-19 21:13:17 GMT 40.648079 -73.816139 0 116 2 0
2022-08-19 21:13:16 GMT 40.648109 -73.816170 0 112 1 0
2022-08-19 21:13:13 GMT 40.648140 -73.816162 0 103 1 0
2022-08-19 21:13:11 GMT 40.648140 -73.816147 0 82 2 0
2022-08-19 21:13:09 GMT 40.648129 -73.816132 0 55 3 0
2022-08-19 21:13:08 GMT 40.648151 -73.816139 0 54 5 0
2022-08-19 21:13:07 GMT 40.648109 -73.816139 0 96 4 0
2022-08-19 21:13:05 GMT 40.648090 -73.816162 0 123 4 0
2022-08-19 21:13:03 GMT 40.648048 -73.816208 0 125 4 0
2022-08-19 21:13:02 GMT 40.648071 -73.816208 0 129 5 0
2022-08-19 21:13:01 GMT 40.648048 -73.816208 0 136 7 0
2022-08-19 21:13:00 GMT 40.648041 -73.816261 0 151 11 0
2022-08-19 21:12:58 GMT 40.648060 -73.816330 0 164 11 0
2022-08-19 21:12:57 GMT 40.648201 -73.816422 0 182 6 0
2022-08-19 21:12:55 GMT 40.648220 -73.816429 0 188 7 0
2022-08-19 21:12:54 GMT 40.648331 -73.816460 0 205 5 0
2022-08-19 21:12:52 GMT 40.648361 -73.816467 0 209 5 0
2022-08-19 21:12:51 GMT 40.648380 -73.816467 0 211 5 0
2022-08-19 21:12:50 GMT 40.648411 -73.816460 0 209 7 0
2022-08-19 21:12:48 GMT 40.648430 -73.816429 0 206 7 0
2022-08-19 21:12:47 GMT 40.648449 -73.816383 0 204 10 0
2022-08-19 21:12:45 GMT 40.648560 -73.816360 0 209 7 0
2022-08-19 21:12:44 GMT 40.648602 -73.816338 0 209 7 0
2022-08-19 21:12:42 GMT 40.648651 -73.816292 0 209 7 0
2022-08-19 21:12:41 GMT 40.648682 -73.816269 0 209 7 0
2022-08-19 21:12:40 GMT 40.648739 -73.816223 0 209 6 0
2022-08-19 21:12:38 GMT 40.648781 -73.816200 0 210 5 0
2022-08-19 21:12:37 GMT 40.648800 -73.816177 0 210 5 0
2022-08-19 21:12:35 GMT 40.648861 -73.816139 0 211 4 0
2022-08-19 21:12:34 GMT 40.648911 -73.816109 0 210 3 0
2022-08-19 21:12:32 GMT 40.648930 -73.816093 0 210 2 0
2022-08-19 21:12:31 GMT 40.648972 -73.816071 0 210 2 0
2022-08-19 21:12:29 GMT 40.648972 -73.816048 0 210 2 0
2022-08-19 21:12:28 GMT 40.648979 -73.816002 0 210 0 0
2022-08-19 21:12:26 GMT 40.648972 -73.815987 0 210 0 0
2022-08-19 21:12:25 GMT 40.648972 -73.815979 0 210 1 0
2022-08-19 21:12:23 GMT 40.648998 -73.815964 0 210 2 0
2022-08-19 21:12:20 GMT 40.649071 -73.815979 0 210 2 0
2022-08-19 21:12:18 GMT 40.649010 -73.815948 0 210 0 0
2022-08-19 21:12:17 GMT 40.649010 -73.815971 0 210 0 0
2022-08-19 21:12:15 GMT 40.649021 -73.815971 0 210 0 0
2022-08-19 21:12:13 GMT 40.648998 -73.815948 0 210 1 0
2022-08-19 21:12:11 GMT 40.649010 -73.815948 0 210 1 0
2022-08-19 21:12:08 GMT 40.649021 -73.815964 0 210 2 0
2022-08-19 21:12:06 GMT 40.649029 -73.815964 0 210 2 0
2022-08-19 21:12:05 GMT 40.649021 -73.815964 0 210 2 0
2022-08-19 21:12:02 GMT 40.649021 -73.815941 0 210 0 0
2022-08-19 21:12:00 GMT 40.648998 -73.815948 0 210 0 0
2022-08-19 21:11:59 GMT 40.648998 -73.815964 0 210 0 0
2022-08-19 21:11:57 GMT 40.648998 -73.815964 0 210 0 0
2022-08-19 21:11:56 GMT 40.649010 -73.815948 0 210 0 0
2022-08-19 21:11:53 GMT 40.649010 -73.815941 0 210 0 0
2022-08-19 21:11:50 GMT 40.648998 -73.815948 0 210 0 0
2022-08-19 21:11:48 GMT 40.648998 -73.815948 0 210 0 0
2022-08-19 21:11:46 GMT 40.649021 -73.815948 0 210 0 0
2022-08-19 21:11:45 GMT 40.649029 -73.815948 0 210 0 0
2022-08-19 21:11:43 GMT 40.649029 -73.815941 0 210 0 0
2022-08-19 21:11:41 GMT 40.649052 -73.815933 0 210 0 0
2022-08-19 21:11:38 GMT 40.649021 -73.815933 0 210 0 0
2022-08-19 21:11:36 GMT 40.649021 -73.815941 0 210 0 0
2022-08-19 21:11:33 GMT 40.648998 -73.815941 0 210 0 0
2022-08-19 21:11:30 GMT 40.649029 -73.815941 0 210 0 0
2022-08-19 21:11:28 GMT 40.649021 -73.815941 0 210 0 0
2022-08-19 21:11:27 GMT 40.649029 -73.815941 0 210 0 0
2022-08-19 21:11:25 GMT 40.649029 -73.815941 0 210 0 0
2022-08-19 21:11:16 GMT 40.649029 -73.815941 0 210 0 0
2022-08-19 21:11:14 GMT 40.649029 -73.815941 0 211 0 0
2022-08-19 21:11:12 GMT 40.649052 -73.815933 0 211 0 0
2022-08-19 21:11:09 GMT 40.649052 -73.815933 0 211 0 0
2022-08-19 21:11:08 GMT 40.649059 -73.815933 0 211 0 0
2022-08-19 21:11:05 GMT 40.649059 -73.815933 0 211 0 0
2022-08-19 21:11:04 GMT 40.649040 -73.815933 0 211 1 0
2022-08-19 21:11:02 GMT 40.649021 -73.815918 0 211 2 0
2022-08-19 21:11:00 GMT 40.648991 -73.815918 0 211 2 0
2022-08-19 21:10:58 GMT 40.648998 -73.815910 0 211 3 0
2022-08-19 21:10:56 GMT 40.649010 -73.815918 0 211 3 0
2022-08-19 21:10:55 GMT 40.649109 -73.815941 0 211 0 0
2022-08-19 21:10:53 GMT 40.649101 -73.815941 0 211 0 0
2022-08-19 21:10:51 GMT 40.649109 -73.815941 0 211 1 0
2022-08-19 21:10:49 GMT 40.649101 -73.815941 0 211 1 0
2022-08-19 21:10:45 GMT 40.649078 -73.815941 0 211 0 0
2022-08-19 21:10:44 GMT 40.649059 -73.815941 0 211 0 0
2022-08-19 21:10:43 GMT 40.649090 -73.815948 0 211 1 0
2022-08-19 21:10:41 GMT 40.649059 -73.815971 0 212 3 0
2022-08-19 21:10:40 GMT 40.649059 -73.815964 0 212 5 0
2022-08-19 21:10:38 GMT 40.649059 -73.815971 0 212 6 0
2022-08-19 21:10:36 GMT 40.649078 -73.815941 0 211 8 0
2022-08-19 21:10:35 GMT 40.649101 -73.815918 0 210 9 0
2022-08-19 21:10:34 GMT 40.649139 -73.815857 0 217 12 0
2022-08-19 21:10:32 GMT 40.649261 -73.815872 0 237 9 0
2022-08-19 21:10:30 GMT 40.649342 -73.815819 0 251 8 0
2022-08-19 21:10:29 GMT 40.649391 -73.815781 0 259 8 0
2022-08-19 21:10:28 GMT 40.649448 -73.815697 0 271 7 0
2022-08-19 21:10:26 GMT 40.649479 -73.815651 0 277 7 0
2022-08-19 21:10:25 GMT 40.649479 -73.815613 0 280 7 0
2022-08-19 21:10:23 GMT 40.649509 -73.815514 0 290 6 0
2022-08-19 21:10:22 GMT 40.649521 -73.815453 0 294 6 0
2022-08-19 21:10:20 GMT 40.649502 -73.815369 0 297 5 0
2022-08-19 21:10:19 GMT 40.649448 -73.815269 0 300 4 0
2022-08-19 21:10:17 GMT 40.649399 -73.815224 0 300 3 0
2022-08-19 21:10:15 GMT 40.649319 -73.815140 0 300 3 0
2022-08-19 21:10:14 GMT 40.649281 -73.815079 0 300 2 0
2022-08-19 21:10:12 GMT 40.649269 -73.815018 0 300 0 0
2022-08-19 21:10:11 GMT 40.649281 -73.815010 0 300 0 0
2022-08-19 21:10:10 GMT 40.649281 -73.815002 0 300 0 0
2022-08-19 21:10:08 GMT 40.649250 -73.814980 0 300 0 0
2022-08-19 21:10:07 GMT 40.649261 -73.814980 0 300 0 0
2022-08-19 21:10:05 GMT 40.649281 -73.815002 0 300 0 0
2022-08-19 21:10:03 GMT 40.649250 -73.814980 0 300 0 0
2022-08-19 21:10:02 GMT 40.649261 -73.814980 0 300 0 0
2022-08-19 21:10:01 GMT 40.649269 -73.814987 0 300 0 0
2022-08-19 21:09:59 GMT 40.649269 -73.814987 0 300 0 0
2022-08-19 21:09:58 GMT 40.649250 -73.814972 0 300 0 0
2022-08-19 21:09:56 GMT 40.649269 -73.814987 0 300 0 0
2022-08-19 21:09:54 GMT 40.649269 -73.815002 0 300 0 0
2022-08-19 21:09:53 GMT 40.649250 -73.814980 0 300 0 0
2022-08-19 21:09:52 GMT 40.649261 -73.814987 0 300 0 0
2022-08-19 21:09:50 GMT 40.649269 -73.815002 0 300 0 0
2022-08-19 21:09:48 GMT 40.649250 -73.814980 0 300 0 0
2022-08-19 21:09:47 GMT 40.649261 -73.814980 0 300 0 0
2022-08-19 21:09:46 GMT 40.649281 -73.815002 0 300 0 0
2022-08-19 21:09:44 GMT 40.649250 -73.814980 0 300 0 0
2022-08-19 21:09:42 GMT 40.649261 -73.814987 0 300 0 0
2022-08-19 21:09:41 GMT 40.649269 -73.814987 0 300 0 0
2022-08-19 21:09:39 GMT 40.649269 -73.815002 0 300 0 0
2022-08-19 21:09:38 GMT 40.649261 -73.814980 0 300 0 0
2022-08-19 21:09:36 GMT 40.649269 -73.814987 0 300 0 0
2022-08-19 21:09:34 GMT 40.649269 -73.815002 0 300 0 0
2022-08-19 21:09:33 GMT 40.649239 -73.814980 0 300 0 0
2022-08-19 21:09:32 GMT 40.649269 -73.815010 0 300 0 0
2022-08-19 21:09:28 GMT 40.649281 -73.815010 0 300 0 0
2022-08-19 21:09:26 GMT 40.649319 -73.815041 0 301 0 0
2022-08-19 21:09:24 GMT 40.649319 -73.815041 0 301 0 0
2022-08-19 21:09:23 GMT 40.649261 -73.815010 0 301 0 0
2022-08-19 21:09:21 GMT 40.649239 -73.815002 0 301 0 0
2022-08-19 21:09:20 GMT 40.649239 -73.814987 0 301 0 0
2022-08-19 21:09:18 GMT 40.649231 -73.814987 0 301 1 0
2022-08-19 21:09:16 GMT 40.649261 -73.814987 0 301 2 0
2022-08-19 21:09:15 GMT 40.649281 -73.815010 0 301 1 0
2022-08-19 21:09:14 GMT 40.649342 -73.815041 0 301 1 0
2022-08-19 21:09:12 GMT 40.649361 -73.815048 0 301 1
2022-08-19 21:09:09 GMT 40.649380 -73.815079 0 301 0
2022-08-19 21:09:07 GMT 40.649368 -73.815086 0 301 0
2022-08-19 21:09:06 GMT 40.649361 -73.815071 0 301 1
2022-08-19 21:09:03 GMT 40.649368 -73.815079 0 301 1
2022-08-19 21:09:01 GMT 40.649380 -73.815086 0 301 2
2022-08-19 21:08:59 GMT 40.649391 -73.815086 0 301 4
2022-08-19 21:08:57 GMT 40.649380 -73.815063 0 302 5
2022-08-19 21:08:56 GMT 40.649361 -73.815018 0 302 5
2022-08-19 21:08:54 GMT 40.649349 -73.815002 0 301 6
2022-08-19 21:08:53 GMT 40.649330 -73.814972 0 300 6
2022-08-19 21:08:51 GMT 40.649300 -73.814911 0 298 5
2022-08-19 21:08:50 GMT 40.649288 -73.814880 0 298 5
2022-08-19 21:08:48 GMT 40.649261 -73.814819 0 298 5
2022-08-19 21:08:47 GMT 40.649239 -73.814789 0 298 5
2022-08-19 21:08:46 GMT 40.649231 -73.814758 0 298 5
2022-08-19 21:08:44 GMT 40.649212 -73.814713 0 299 5
2022-08-19 21:08:43 GMT 40.649200 -73.814682 0 300 5
2022-08-19 21:08:42 GMT 40.649189 -73.814651 0 301 4
2022-08-19 21:08:40 GMT 40.649170 -73.814590 0 300 4
2022-08-19 21:08:39 GMT 40.649151 -73.814568 0 300 3
2022-08-19 21:08:38 GMT 40.649120 -73.814522 0 300 3
2022-08-19 21:08:36 GMT 40.649109 -73.814499 0 300 2
2022-08-19 21:08:35 GMT 40.649090 -73.814468 0 300 2
2022-08-19 21:08:33 GMT 40.649010 -73.814400 0 300 2
2022-08-19 21:08:32 GMT 40.648941 -73.814346 0 300 1
2022-08-19 21:08:30 GMT 40.648941 -73.814323 0 300 0
2022-08-19 21:08:28 GMT 40.648960 -73.814323 0 300 0
2022-08-19 21:08:27 GMT 40.648972 -73.814301 0 300 0
2022-08-19 21:08:26 GMT 40.648960 -73.814293 0 300 0
2022-08-19 21:08:24 GMT 40.648941 -73.814278 0 300 0
2022-08-19 21:08:22 GMT 40.648949 -73.814278 0 300 0
2022-08-19 21:08:21 GMT 40.648960 -73.814278 0 300 0
2022-08-19 21:08:20 GMT 40.648941 -73.814270 0 300 0
2022-08-19 21:08:16 GMT 40.648949 -73.814270 0 300 0
2022-08-19 21:08:15 GMT 40.648930 -73.814262 0 300 0
2022-08-19 21:08:13 GMT 40.648949 -73.814270 0 300 0
2022-08-19 21:08:12 GMT 40.648949 -73.814278 0 300 0
2022-08-19 21:08:10 GMT 40.648941 -73.814270 0 300 0
2022-08-19 21:08:06 GMT 40.648949 -73.814278 0 300 0
2022-08-19 21:08:05 GMT 40.648930 -73.814278 0 300 0
2022-08-19 21:08:01 GMT 40.648941 -73.814278 0 300 0
2022-08-19 21:07:59 GMT 40.648941 -73.814270 0 300 0
2022-08-19 21:07:56 GMT 40.648972 -73.814278 0 300 0
2022-08-19 21:07:55 GMT 40.648949 -73.814278 0 300 0
2022-08-19 21:07:52 GMT 40.648979 -73.814293 0 300 0
2022-08-19 21:07:51 GMT 40.648991 -73.814293 0 300 0
2022-08-19 21:07:49 GMT 40.648998 -73.814293 0 300 0
2022-08-19 21:07:46 GMT 40.649021 -73.814301 0 300 0
2022-08-19 21:07:45 GMT 40.648991 -73.814301 0 300 0
2022-08-19 21:07:43 GMT 40.649040 -73.814323 0 300 0
2022-08-19 21:07:39 GMT 40.649052 -73.814323 0 300 0
2022-08-19 21:07:37 GMT 40.649052 -73.814308 0 300 0
2022-08-19 21:07:35 GMT 40.649052 -73.814323 0 300 0
2022-08-19 21:07:32 GMT 40.649052 -73.814331 0 300 0
2022-08-19 21:07:29 GMT 40.649052 -73.814323 0 300 0
2022-08-19 21:07:25 GMT 40.649052 -73.814323 0 300 0
2022-08-19 21:07:24 GMT 40.649052 -73.814331 0 300 0
2022-08-19 21:07:23 GMT 40.649052 -73.814346 0 300 1
2022-08-19 21:07:21 GMT 40.649052 -73.814331 0 300 0
2022-08-19 21:07:19 GMT 40.649052 -73.814339 0 300 0
2022-08-19 21:07:15 GMT 40.649059 -73.814362 0 301 6
2022-08-19 21:07:14 GMT 40.649052 -73.814323 0 301 7
2022-08-19 21:07:12 GMT 40.649029 -73.814293 0 300 7
2022-08-19 21:07:11 GMT 40.648998 -73.814240 0 300 8
2022-08-19 21:07:09 GMT 40.648991 -73.814201 0 301 9
2022-08-19 21:07:08 GMT 40.648941 -73.814110 0 300 9
2022-08-19 21:07:06 GMT 40.648918 -73.814056 0 299 9
2022-08-19 21:07:05 GMT 40.648869 -73.813972 0 299 8
2022-08-19 21:07:03 GMT 40.648849 -73.813919 0 299 8
2022-08-19 21:07:02 GMT 40.648830 -73.813858 0 299 7
2022-08-19 21:07:00 GMT 40.648788 -73.813766 0 300 7
2022-08-19 21:06:59 GMT 40.648781 -73.813728 0 300 7
2022-08-19 21:06:57 GMT 40.648731 -73.813652 0 298 6
2022-08-19 21:06:56 GMT 40.648720 -73.813622 0 299 7
2022-08-19 21:06:54 GMT 40.648682 -73.813538 0 299 6
2022-08-19 21:06:53 GMT 40.648659 -73.813469 0 299 6
2022-08-19 21:06:51 GMT 40.648640 -73.813454 0 299 6
2022-08-19 21:06:50 GMT 40.648609 -73.813362 0 300 6
2022-08-19 21:06:48 GMT 40.648590 -73.813316 0 300 6
2022-08-19 21:06:47 GMT 40.648579 -73.813278 0 300 5
2022-08-19 21:06:45 GMT 40.648540 -73.813217 0 301 5
2022-08-19 21:06:44 GMT 40.648529 -73.813202 0 302 5
2022-08-19 21:06:42 GMT 40.648510 -73.813118 0 303 4
2022-08-19 21:06:41 GMT 40.648499 -73.813103 0 301 4
2022-08-19 21:06:40 GMT 40.648472 -73.813049 0 301 3
2022-08-19 21:06:38 GMT 40.648449 -73.813019 0 301 3
2022-08-19 21:06:37 GMT 40.648418 -73.813011 0 302 2
2022-08-19 21:06:35 GMT 40.648361 -73.812988 0 301 5
2022-08-19 21:06:34 GMT 40.648319 -73.812927 0 300 2
2022-08-19 21:06:32 GMT 40.648312 -73.812881 0 300 1
2022-08-19 21:06:31 GMT 40.648258 -73.812866 0 300 0
2022-08-19 21:06:29 GMT 40.648281 -73.812843 0 300 0
2022-08-19 21:06:27 GMT 40.648281 -73.812828 0 300 1
2022-08-19 21:06:25 GMT 40.648270 -73.812820 0 300 0
2022-08-19 21:06:24 GMT 40.648300 -73.812820 0 300 0
2022-08-19 21:06:23 GMT 40.648312 -73.812820 0 300 0
2022-08-19 21:06:20 GMT 40.648289 -73.812859 0 300 1
2022-08-19 21:06:19 GMT 40.648281 -73.812790 0 300 0
2022-08-19 21:06:17 GMT 40.648281 -73.812798 0 300 0
2022-08-19 21:06:15 GMT 40.648258 -73.812813 0 300 0
2022-08-19 21:06:13 GMT 40.648270 -73.812813 0 300 0
2022-08-19 21:06:12 GMT 40.648251 -73.812820 0 300 1
2022-08-19 21:06:10 GMT 40.648258 -73.812820 0 300 1
2022-08-19 21:06:08 GMT 40.648270 -73.812843 0 300 1
2022-08-19 21:06:07 GMT 40.648270 -73.812828 0 300 1
2022-08-19 21:06:05 GMT 40.648338 -73.812820 0 300 0
2022-08-19 21:06:01 GMT 40.648361 -73.812828 0 301 0
2022-08-19 21:05:59 GMT 40.648369 -73.812828 0 301 0
2022-08-19 21:05:57 GMT 40.648361 -73.812820 0 301 0
2022-08-19 21:05:56 GMT 40.648361 -73.812828 0 301 0
2022-08-19 21:05:55 GMT 40.648369 -73.812828 0 301 0
2022-08-19 21:05:53 GMT 40.648369 -73.812820 0 301 1
2022-08-19 21:05:52 GMT 40.648380 -73.812820 0 301 1
2022-08-19 21:05:51 GMT 40.648369 -73.812828 0 301 1
2022-08-19 21:05:49 GMT 40.648350 -73.812820 0 301 1
2022-08-19 21:05:48 GMT 40.648319 -73.812843 0 301 1
2022-08-19 21:05:46 GMT 40.648312 -73.812851 0 301 1
2022-08-19 21:05:45 GMT 40.648350 -73.812851 0 301 1
2022-08-19 21:05:44 GMT 40.648338 -73.812866 0 301 0
2022-08-19 21:05:41 GMT 40.648319 -73.812897 0 302 2
2022-08-19 21:05:40 GMT 40.648319 -73.812889 0 302 3
2022-08-19 21:05:39 GMT 40.648380 -73.812866 0 303 4
2022-08-19 21:05:37 GMT 40.648380 -73.812866 0 304 5
2022-08-19 21:05:36 GMT 40.648380 -73.812851 0 305 5
2022-08-19 21:05:34 GMT 40.648361 -73.812820 0 303 6
2022-08-19 21:05:33 GMT 40.648338 -73.812798 0 301 6
2022-08-19 21:05:31 GMT 40.648300 -73.812737 0 301 7
2022-08-19 21:05:29 GMT 40.648312 -73.812668 0 309 8
2022-08-19 21:05:28 GMT 40.648289 -73.812622 0 310 10
2022-08-19 21:05:26 GMT 40.648232 -73.812538 0 308 10
2022-08-19 21:05:24 GMT 40.648209 -73.812531 0 304 12
2022-08-19 21:05:22 GMT 40.648129 -73.812462 0 296 13
2022-08-19 21:05:21 GMT 40.648079 -73.812431 0 293 14
2022-08-19 21:05:20 GMT 40.648048 -73.812347 0 291 14
2022-08-19 21:05:18 GMT 40.648041 -73.812134 0 300 13
2022-08-19 21:05:17 GMT 40.648022 -73.812057 0 301 13
2022-08-19 21:05:15 GMT 40.647961 -73.811928 0 302 14
2022-08-19 21:05:13 GMT 40.647888 -73.811790 0 300 14
2022-08-19 21:05:12 GMT 40.647850 -73.811722 0 300 14
2022-08-19 21:05:11 GMT 40.647812 -73.811653 0 298 14
2022-08-19 21:05:10 GMT 40.647751 -73.811501 0 300 13
2022-08-19 21:05:08 GMT 40.647690 -73.811340 0 303 13
2022-08-19 21:05:06 GMT 40.647659 -73.811272 0 304 13
2022-08-19 21:05:05 GMT 40.647610 -73.811119 0 305 12
2022-08-19 21:05:03 GMT 40.647572 -73.811058 0 306 12
2022-08-19 21:05:02 GMT 40.647541 -73.810989 0 306 12
2022-08-19 21:05:00 GMT 40.647469 -73.810867 0 306 12
2022-08-19 21:04:58 GMT 40.647388 -73.810768 0 301 12
2022-08-19 21:04:57 GMT 40.647350 -73.810730 0 299 12
2022-08-19 21:04:56 GMT 40.647320 -73.810677 0 299 13
2022-08-19 21:04:55 GMT 40.647301 -73.810478 0 306 11
2022-08-19 21:04:53 GMT 40.647259 -73.810417 0 305 11
2022-08-19 21:04:51 GMT 40.647202 -73.810333 0 300 12
2022-08-19 21:04:50 GMT 40.647160 -73.810280 0 295 12
2022-08-19 21:04:47 GMT 40.647041 -73.810120 0 274 11
2022-08-19 21:04:45 GMT 40.646992 -73.809929 0 263 9
2022-08-19 21:04:44 GMT 40.646919 -73.809868 0 259 9
2022-08-19 21:04:42 GMT 40.646919 -73.809761 0 256 9
2022-08-19 21:04:41 GMT 40.646858 -73.809662 0 255 8
2022-08-19 21:04:40 GMT 40.646950 -73.809601 0 251 10
2022-08-19 21:04:38 GMT 40.646938 -73.809532 0 246 9
2022-08-19 21:04:37 GMT 40.646919 -73.809410 0 229 8
2022-08-19 21:04:35 GMT 40.646938 -73.809372 0 222 8
2022-08-19 21:04:33 GMT 40.646950 -73.809250 0 206 9
2022-08-19 21:04:32 GMT 40.646969 -73.809219 0 204 10
2022-08-19 21:04:31 GMT 40.646999 -73.809189 0 199 11
2022-08-19 21:04:30 GMT 40.647072 -73.809128 0 202 14
2022-08-19 21:04:28 GMT 40.647141 -73.809097 0 210 14
2022-08-19 21:04:27 GMT 40.647270 -73.809082 0 249 11
2022-08-19 21:04:25 GMT 40.647320 -73.809036 0 261 11
2022-08-19 21:04:24 GMT 40.647388 -73.808929 0 280 12
2022-08-19 21:04:22 GMT 40.647369 -73.808823 0 284 9
2022-08-19 21:04:21 GMT 40.647381 -73.808807 0 290 12
2022-08-19 21:04:19 GMT 40.647369 -73.808632 0 291 9
2022-08-19 21:04:18 GMT 40.647331 -73.808548 0 292 11
2022-08-19 21:04:16 GMT 40.647331 -73.808479 0 300 11
2022-08-19 21:04:15 GMT 40.647308 -73.808418 0 303 11
2022-08-19 21:04:14 GMT 40.647259 -73.808319 0 299 11
2022-08-19 21:04:12 GMT 40.647228 -73.808250 0 302 11
2022-08-19 21:04:11 GMT 40.647221 -73.808167 0 304 10
2022-08-19 21:04:09 GMT 40.647179 -73.808083 0 305 11
2022-08-19 21:04:08 GMT 40.647160 -73.808029 0 305 11
2022-08-19 21:04:06 GMT 40.647079 -73.807922 0 302 10
2022-08-19 21:04:04 GMT 40.647030 -73.807831 0 299 11
2022-08-19 21:04:03 GMT 40.646999 -73.807777 0 299 12
2022-08-19 21:04:01 GMT 40.646931 -73.807640 0 296 8
2022-08-19 21:04:00 GMT 40.646912 -73.807602 0 301 9
2022-08-19 21:03:59 GMT 40.646919 -73.807549 0 302 9
2022-08-19 21:03:57 GMT 40.646858 -73.807449 0 300 8
2022-08-19 21:03:56 GMT 40.646851 -73.807404 0 300 8
2022-08-19 21:03:54 GMT 40.646801 -73.807343 0 297 8
2022-08-19 21:03:53 GMT 40.646790 -73.807297 0 299 9
2022-08-19 21:03:52 GMT 40.646759 -73.807220 0 301 8
2022-08-19 21:03:50 GMT 40.646729 -73.807152 0 306 8
2022-08-19 21:03:48 GMT 40.646709 -73.807053 0 310 8
2022-08-19 21:03:47 GMT 40.646679 -73.807022 0 307 8
2022-08-19 21:03:46 GMT 40.646622 -73.806953 0 298 7
2022-08-19 21:03:44 GMT 40.646610 -73.806961 0 297 9
2022-08-19 21:03:42 GMT 40.646591 -73.806847 0 307 10
2022-08-19 21:03:40 GMT 40.646511 -73.806717 0 308 6
2022-08-19 21:03:38 GMT 40.646469 -73.806679 0 299 6
2022-08-19 21:03:37 GMT 40.646481 -73.806648 0 301 8
2022-08-19 21:03:35 GMT 40.646431 -73.806580 0 298 5
2022-08-19 21:03:34 GMT 40.646431 -73.806541 0 305 4
2022-08-19 21:03:32 GMT 40.646400 -73.806511 0 299 3
2022-08-19 21:03:31 GMT 40.646389 -73.806488 0 297 2
2022-08-19 21:03:30 GMT 40.646381 -73.806503 0 299 5
2022-08-19 21:03:29 GMT 40.646339 -73.806358 0 299 1
2022-08-19 21:03:27 GMT 40.646351 -73.806351 0 299 0
2022-08-19 21:03:26 GMT 40.646370 -73.806313 0 299 0
2022-08-19 21:03:24 GMT 40.646381 -73.806328 0 299 0
2022-08-19 21:03:23 GMT 40.646370 -73.806328 0 299 0
2022-08-19 21:03:21 GMT 40.646358 -73.806290 0 299 0
2022-08-19 21:03:20 GMT 40.646358 -73.806297 0 299 0
2022-08-19 21:03:19 GMT 40.646358 -73.806297 0 299 0
2022-08-19 21:03:17 GMT 40.646358 -73.806313 0 299 0
2022-08-19 21:03:16 GMT 40.646332 -73.806267 0 299 0
2022-08-19 21:03:13 GMT 40.646339 -73.806351 0 299 0
2022-08-19 21:03:11 GMT 40.646339 -73.806343 0 299 0
2022-08-19 21:03:09 GMT 40.646351 -73.806351 0 299 0
2022-08-19 21:03:08 GMT 40.646351 -73.806267 0 299 0
2022-08-19 21:03:07 GMT 40.646351 -73.806259 0 299 0
2022-08-19 21:03:05 GMT 40.646351 -73.806267 0 299 0
2022-08-19 21:03:04 GMT 40.646351 -73.806290 0 299 0
2022-08-19 21:03:03 GMT 40.646351 -73.806297 0 299 0
2022-08-19 21:03:01 GMT 40.646358 -73.806267 0 299 1
2022-08-19 21:03:00 GMT 40.646351 -73.806358 0 299 0
2022-08-19 21:02:57 GMT 40.646351 -73.806358 0 299 1
2022-08-19 21:02:54 GMT 40.646351 -73.806290 0 299 0
2022-08-19 21:02:52 GMT 40.646351 -73.806290 0 299 0
2022-08-19 21:02:51 GMT 40.646332 -73.806282 0 299 0
2022-08-19 21:02:48 GMT 40.646332 -73.806259 0 299 0
2022-08-19 21:02:46 GMT 40.646339 -73.806267 0 299 0
2022-08-19 21:02:45 GMT 40.646332 -73.806236 0 299 0
2022-08-19 21:02:43 GMT 40.646339 -73.806259 0 299 1
2022-08-19 21:02:42 GMT 40.646339 -73.806252 0 299 1
2022-08-19 21:02:40 GMT 40.646351 -73.806282 0 299 0
2022-08-19 21:02:39 GMT 40.646339 -73.806290 0 299 0
2022-08-19 21:02:37 GMT 40.646339 -73.806290 0 299 0
2022-08-19 21:02:36 GMT 40.646332 -73.806282 0 299 0
2022-08-19 21:02:35 GMT 40.646339 -73.806328 0 299 0
2022-08-19 21:02:32 GMT 40.646339 -73.806343 0 299 1
2022-08-19 21:02:31 GMT 40.646351 -73.806343 0 299 0
2022-08-19 21:02:29 GMT 40.646351 -73.806358 0 299 1
2022-08-19 21:02:28 GMT 40.646351 -73.806343 0 299 0
2022-08-19 21:02:27 GMT 40.646351 -73.806328 0 299 0
2022-08-19 21:02:25 GMT 40.646332 -73.806297 0 299 0
2022-08-19 21:02:24 GMT 40.646351 -73.806290 0 299 0
2022-08-19 21:02:22 GMT 40.646358 -73.806297 0 299 0
2022-08-19 21:02:20 GMT 40.646351 -73.806320 0 299 0
2022-08-19 21:02:17 GMT 40.646351 -73.806328 0 299 0
2022-08-19 21:02:14 GMT 40.646351 -73.806320 0 299 0
2022-08-19 21:02:13 GMT 40.646351 -73.806328 0 299 0
2022-08-19 21:02:11 GMT 40.646351 -73.806282 0 299 0
2022-08-19 21:02:09 GMT 40.646351 -73.806297 0 299 0
2022-08-19 21:02:08 GMT 40.646351 -73.806290 0 299 0
2022-08-19 21:02:07 GMT 40.646339 -73.806259 0 299 0
2022-08-19 21:02:05 GMT 40.646339 -73.806259 0 299 0
2022-08-19 21:02:04 GMT 40.646339 -73.806267 0 299 0
2022-08-19 21:02:02 GMT 40.646339 -73.806267 0 299 0
2022-08-19 21:02:01 GMT 40.646339 -73.806221 0 299 0
2022-08-19 21:01:59 GMT 40.646351 -73.806267 0 299 0
2022-08-19 21:01:58 GMT 40.646339 -73.806229 0 299 0
2022-08-19 21:01:56 GMT 40.646339 -73.806252 0 299 0
2022-08-19 21:01:55 GMT 40.646339 -73.806290 0 299 0
2022-08-19 21:01:53 GMT 40.646339 -73.806290 0 299 0
2022-08-19 21:01:52 GMT 40.646339 -73.806343 0 299 0
2022-08-19 21:01:50 GMT 40.646339 -73.806358 0 299 0
2022-08-19 21:01:49 GMT 40.646339 -73.806320 0 299 0
2022-08-19 21:01:47 GMT 40.646339 -73.806313 0 299 0
2022-08-19 21:01:44 GMT 40.646332 -73.806297 0 299 0
2022-08-19 21:01:42 GMT 40.646320 -73.806252 0 299 0
2022-08-19 21:01:41 GMT 40.646339 -73.806221 0 299 1
2022-08-19 21:01:39 GMT 40.646358 -73.806259 0 299 1
2022-08-19 21:01:37 GMT 40.646381 -73.806282 0 299 1
2022-08-19 21:01:35 GMT 40.646389 -73.806290 0 299 1
2022-08-19 21:01:33 GMT 40.646389 -73.806328 0 299 1
2022-08-19 21:01:32 GMT 40.646381 -73.806328 0 299 1
2022-08-19 21:01:31 GMT 40.646339 -73.806343 0 299 0
2022-08-19 21:01:29 GMT 40.646332 -73.806328 0 299 0
2022-08-19 21:01:27 GMT 40.646320 -73.806297 0 299 0
2022-08-19 21:01:26 GMT 40.646339 -73.806290 0 299 0
2022-08-19 21:01:25 GMT 40.646351 -73.806320 0 299 0
2022-08-19 21:01:23 GMT 40.646339 -73.806320 0 299 0
2022-08-19 21:01:22 GMT 40.646339 -73.806282 0 299 1
2022-08-19 21:01:20 GMT 40.646351 -73.806320 0 299 0
2022-08-19 21:01:18 GMT 40.646358 -73.806328 0 299 0
2022-08-19 21:01:16 GMT 40.646351 -73.806297 0 299 1
2022-08-19 21:01:14 GMT 40.646370 -73.806282 0 299 2
2022-08-19 21:01:12 GMT 40.646332 -73.806236 0 299 0
2022-08-19 21:01:11 GMT 40.646320 -73.806221 0 299 0
2022-08-19 21:01:09 GMT 40.646332 -73.806267 0 299 0
2022-08-19 21:01:07 GMT 40.646351 -73.806267 0 299 0
2022-08-19 21:01:05 GMT 40.646351 -73.806290 0 299 0
2022-08-19 21:01:02 GMT 40.646351 -73.806297 0 299 1
2022-08-19 21:01:01 GMT 40.646320 -73.806229 0 299 1
2022-08-19 21:00:59 GMT 40.646332 -73.806229 0 299 1
2022-08-19 21:00:58 GMT 40.646332 -73.806221 0 299 1
2022-08-19 21:00:56 GMT 40.646332 -73.806221 0 299 0
2022-08-19 21:00:54 GMT 40.646320 -73.806267 0 299 0
2022-08-19 21:00:53 GMT 40.646332 -73.806252 0 299 0
2022-08-19 21:00:51 GMT 40.646351 -73.806252 0 299 0
2022-08-19 21:00:50 GMT 40.646358 -73.806267 0 299 1
2022-08-19 21:00:49 GMT 40.646351 -73.806259 0 299 0
2022-08-19 21:00:47 GMT 40.646339 -73.806290 0 299 0
2022-08-19 21:00:46 GMT 40.646339 -73.806313 0 299 0
2022-08-19 21:00:43 GMT 40.646339 -73.806328 0 299 0
2022-08-19 21:00:41 GMT 40.646351 -73.806282 0 299 0
2022-08-19 21:00:40 GMT 40.646332 -73.806282 0 299 0
2022-08-19 21:00:37 GMT 40.646332 -73.806290 0 299 0
2022-08-19 21:00:36 GMT 40.646309 -73.806267 0 299 0
2022-08-19 21:00:35 GMT 40.646320 -73.806282 0 299 0
2022-08-19 21:00:33 GMT 40.646339 -73.806229 0 299 0
2022-08-19 21:00:31 GMT 40.646332 -73.806221 0 299 0
2022-08-19 21:00:30 GMT 40.646309 -73.806221 0 299 0
2022-08-19 21:00:29 GMT 40.646320 -73.806252 0 299 1
2022-08-19 21:00:27 GMT 40.646301 -73.806236 0 299 1
2022-08-19 21:00:26 GMT 40.646290 -73.806267 0 299 1
2022-08-19 21:00:25 GMT 40.646309 -73.806267 0 299 0
2022-08-19 21:00:23 GMT 40.646309 -73.806267 0 299 1
2022-08-19 21:00:21 GMT 40.646278 -73.806229 0 299 0
2022-08-19 21:00:20 GMT 40.646290 -73.806236 0 299 0
2022-08-19 21:00:19 GMT 40.646301 -73.806259 0 299 0
2022-08-19 21:00:18 GMT 40.646290 -73.806236 0 299 0
2022-08-19 21:00:16 GMT 40.646290 -73.806282 0 299 0
2022-08-19 21:00:15 GMT 40.646320 -73.806320 0 299 1
2022-08-19 21:00:12 GMT 40.646278 -73.806290 0 299 1
2022-08-19 21:00:10 GMT 40.646290 -73.806236 0 299 0
2022-08-19 21:00:09 GMT 40.646309 -73.806267 0 299 0
2022-08-19 21:00:07 GMT 40.646309 -73.806252 0 299 1
2022-08-19 21:00:06 GMT 40.646301 -73.806259 0 299 0
2022-08-19 21:00:04 GMT 40.646301 -73.806282 0 299 0
2022-08-19 21:00:03 GMT 40.646301 -73.806290 0 299 0
2022-08-19 21:00:01 GMT 40.646290 -73.806259 0 299 0
2022-08-19 21:00:00 GMT 40.646290 -73.806267 0 299 0
2022-08-19 20:59:58 GMT 40.646290 -73.806282 0 299 0
2022-08-19 20:59:57 GMT 40.646290 -73.806267 0 299 0
2022-08-19 20:59:56 GMT 40.646290 -73.806259 0 299 0
2022-08-19 20:59:53 GMT 40.646301 -73.806236 0 299 0
2022-08-19 20:59:52 GMT 40.646290 -73.806267 0 299 0
2022-08-19 20:59:51 GMT 40.646290 -73.806282 0 299 0
2022-08-19 20:59:50 GMT 40.646301 -73.806297 0 299 0
2022-08-19 20:59:47 GMT 40.646309 -73.806297 0 299 0
2022-08-19 20:59:46 GMT 40.646301 -73.806267 0 299 0
2022-08-19 20:59:45 GMT 40.646301 -73.806290 0 299 0
2022-08-19 20:59:44 GMT 40.646290 -73.806290 0 299 0
2022-08-19 20:59:43 GMT 40.646278 -73.806297 0 299 1
2022-08-19 20:59:41 GMT 40.646290 -73.806282 0 299 0
2022-08-19 20:59:40 GMT 40.646320 -73.806297 0 299 0
2022-08-19 20:59:38 GMT 40.646332 -73.806297 0 299 0
2022-08-19 20:59:37 GMT 40.646290 -73.806252 0 299 1
2022-08-19 20:59:35 GMT 40.646290 -73.806259 0 299 0
2022-08-19 20:59:33 GMT 40.646301 -73.806259 0 299 1
2022-08-19 20:59:32 GMT 40.646301 -73.806267 0 299 1
2022-08-19 20:59:27 GMT 40.646278 -73.806267 0 299 0
2022-08-19 20:59:26 GMT 40.646271 -73.806236 0 299 0
2022-08-19 20:59:25 GMT 40.646290 -73.806259 0 299 0
2022-08-19 20:59:23 GMT 40.646301 -73.806282 0 299 0
2022-08-19 20:59:22 GMT 40.646301 -73.806267 0 299 0
2022-08-19 20:59:21 GMT 40.646290 -73.806282 0 299 0
2022-08-19 20:59:20 GMT 40.646309 -73.806297 0 299 0
2022-08-19 20:59:18 GMT 40.646309 -73.806297 0 299 0
2022-08-19 20:59:16 GMT 40.646320 -73.806313 0 299 0
2022-08-19 20:59:15 GMT 40.646339 -73.806328 0 299 0
2022-08-19 20:59:12 GMT 40.646351 -73.806328 0 299 0
2022-08-19 20:59:10 GMT 40.646339 -73.806351 0 299 0
2022-08-19 20:59:07 GMT 40.646358 -73.806343 0 299 0
2022-08-19 20:59:05 GMT 40.646339 -73.806313 0 299 0
2022-08-19 20:59:04 GMT 40.646358 -73.806328 0 299 0
2022-08-19 20:59:02 GMT 40.646370 -73.806343 0 299 0
2022-08-19 20:59:01 GMT 40.646339 -73.806358 0 299 1
2022-08-19 20:58:59 GMT 40.646351 -73.806374 0 299 0
2022-08-19 20:58:58 GMT 40.646320 -73.806320 0 299 0
2022-08-19 20:58:56 GMT 40.646301 -73.806290 0 299 0
2022-08-19 20:58:55 GMT 40.646309 -73.806297 0 299 0
2022-08-19 20:58:53 GMT 40.646339 -73.806343 0 299 0
2022-08-19 20:58:52 GMT 40.646351 -73.806343 0 299 0
2022-08-19 20:58:51 GMT 40.646351 -73.806351 0 299 0
2022-08-19 20:58:49 GMT 40.646320 -73.806328 0 299 0
2022-08-19 20:58:48 GMT 40.646290 -73.806267 0 299 1
2022-08-19 20:58:47 GMT 40.646271 -73.806259 0 299 1
2022-08-19 20:58:45 GMT 40.646301 -73.806282 0 299 1
2022-08-19 20:58:44 GMT 40.646332 -73.806328 0 299 0
2022-08-19 20:58:42 GMT 40.646339 -73.806328 0 299 0
2022-08-19 20:58:41 GMT 40.646301 -73.806374 0 299 1
2022-08-19 20:58:39 GMT 40.646301 -73.806358 0 299 1
2022-08-19 20:58:38 GMT 40.646259 -73.806252 0 299 1
2022-08-19 20:58:36 GMT 40.646278 -73.806313 0 299 2
2022-08-19 20:58:35 GMT 40.646301 -73.806351 0 299 2
2022-08-19 20:58:33 GMT 40.646309 -73.806351 0 299 2
2022-08-19 20:58:32 GMT 40.646320 -73.806343 0 299 1
2022-08-19 20:58:31 GMT 40.646320 -73.806290 0 299 2
2022-08-19 20:58:29 GMT 40.646332 -73.806297 0 299 2
2022-08-19 20:58:27 GMT 40.646351 -73.806320 0 299 0
2022-08-19 20:58:26 GMT 40.646370 -73.806313 0 299 2
2022-08-19 20:58:24 GMT 40.646358 -73.806313 0 299 2
2022-08-19 20:58:22 GMT 40.646358 -73.806343 0 299 0
2022-08-19 20:58:20 GMT 40.646358 -73.806328 0 299 1
2022-08-19 20:58:19 GMT 40.646332 -73.806358 0 299 1
2022-08-19 20:58:18 GMT 40.646339 -73.806351 0 299 2
2022-08-19 20:58:17 GMT 40.646339 -73.806358 0 299 2
2022-08-19 20:58:13 GMT 40.646389 -73.806358 0 299 1
2022-08-19 20:58:12 GMT 40.646358 -73.806351 0 299 0
2022-08-19 20:58:10 GMT 40.646358 -73.806358 0 299 0
2022-08-19 20:58:08 GMT 40.646370 -73.806328 0 299 2
2022-08-19 20:58:07 GMT 40.646339 -73.806320 0 299 2
2022-08-19 20:58:06 GMT 40.646370 -73.806374 0 299 2
2022-08-19 20:58:04 GMT 40.646358 -73.806389 0 299 3
2022-08-19 20:58:03 GMT 40.646370 -73.806351 0 300 4
2022-08-19 20:58:01 GMT 40.646332 -73.806313 0 300 1
2022-08-19 20:58:00 GMT 40.646351 -73.806343 0 299 6
2022-08-19 20:57:58 GMT 40.646332 -73.806328 0 304 8
2022-08-19 20:57:57 GMT 40.646309 -73.806229 0 314 7
2022-08-19 20:57:55 GMT 40.646278 -73.806183 0 311 4
2022-08-19 20:57:54 GMT 40.646259 -73.806160 0 305 3
2022-08-19 20:57:52 GMT 40.646221 -73.806183 0 285 7
2022-08-19 20:57:51 GMT 40.646210 -73.806160 0 285 9
2022-08-19 20:57:50 GMT 40.646221 -73.806023 0 303 5
2022-08-19 20:57:48 GMT 40.646210 -73.806023 0 300 7
2022-08-19 20:57:46 GMT 40.646160 -73.805962 0 301 7
2022-08-19 20:57:45 GMT 40.646191 -73.805870 0 307 6
2022-08-19 20:57:44 GMT 40.646141 -73.805817 0 303 6
2022-08-19 20:57:42 GMT 40.646118 -73.805801 0 302 7
2022-08-19 20:57:40 GMT 40.646091 -73.805740 0 301 7
2022-08-19 20:57:39 GMT 40.646061 -73.805702 0 302 6
2022-08-19 20:57:37 GMT 40.646030 -73.805618 0 300 4
2022-08-19 20:57:36 GMT 40.646019 -73.805611 0 301 5
2022-08-19 20:57:35 GMT 40.646011 -73.805603 0 308 6
2022-08-19 20:57:33 GMT 40.645988 -73.805496 0 317 4
2022-08-19 20:57:32 GMT 40.645969 -73.805496 0 314 4
2022-08-19 20:57:30 GMT 40.645962 -73.805481 0 311 4
2022-08-19 20:57:29 GMT 40.645939 -73.805473 0 310 5
2022-08-19 20:57:27 GMT 40.645889 -73.805511 0 304 10
2022-08-19 20:57:26 GMT 40.645882 -73.805443 0 316 8
2022-08-19 20:57:25 GMT 40.645859 -73.805298 0 325 2
2022-08-19 20:57:23 GMT 40.645870 -73.805290 0 325 3
2022-08-19 20:57:22 GMT 40.645851 -73.805252 0 325 2
2022-08-19 20:57:20 GMT 40.645840 -73.805183 0 325 1
2022-08-19 20:57:19 GMT 40.645840 -73.805168 0 325 0
2022-08-19 20:57:18 GMT 40.645840 -73.805153 0 325 0
2022-08-19 20:57:16 GMT 40.645840 -73.805138 0 325 0
2022-08-19 20:57:15 GMT 40.645828 -73.805130 0 325 0
2022-08-19 20:57:13 GMT 40.645828 -73.805138 0 325 0
2022-08-19 20:57:12 GMT 40.645821 -73.805122 0 325 0
2022-08-19 20:57:10 GMT 40.645821 -73.805138 0 325 0
2022-08-19 20:57:08 GMT 40.645821 -73.805153 0 325 0
2022-08-19 20:57:07 GMT 40.645828 -73.805122 0 325 0
2022-08-19 20:57:06 GMT 40.645809 -73.805069 0 325 1
2022-08-19 20:57:04 GMT 40.645809 -73.805092 0 325 1
2022-08-19 20:57:03 GMT 40.645828 -73.805122 0 325 0
2022-08-19 20:57:01 GMT 40.645828 -73.805122 0 325 0
2022-08-19 20:57:00 GMT 40.645821 -73.805138 0 325 0
2022-08-19 20:56:59 GMT 40.645821 -73.805130 0 325 0
2022-08-19 20:56:57 GMT 40.645821 -73.805153 0 325 0
2022-08-19 20:56:55 GMT 40.645840 -73.805130 0 325 0
2022-08-19 20:56:54 GMT 40.645840 -73.805138 0 325 0
2022-08-19 20:56:53 GMT 40.645851 -73.805130 0 325 0
2022-08-19 20:56:52 GMT 40.645821 -73.805092 0 325 2
2022-08-19 20:56:49 GMT 40.645828 -73.805161 0 325 0
2022-08-19 20:56:48 GMT 40.645821 -73.805161 0 325 1
2022-08-19 20:56:47 GMT 40.645828 -73.805161 0 325 0
2022-08-19 20:56:45 GMT 40.645870 -73.805199 0 325 2
2022-08-19 20:56:44 GMT 40.645870 -73.805222 0 325 2
2022-08-19 20:56:42 GMT 40.645851 -73.805206 0 325 0
2022-08-19 20:56:41 GMT 40.645840 -73.805199 0 325 0
2022-08-19 20:56:39 GMT 40.645840 -73.805199 0 325 0
2022-08-19 20:56:38 GMT 40.645821 -73.805153 0 325 0
2022-08-19 20:56:37 GMT 40.645809 -73.805138 0 325 1
2022-08-19 20:56:36 GMT 40.645828 -73.805206 0 325 1
2022-08-19 20:56:33 GMT 40.645840 -73.805252 0 325 1
2022-08-19 20:56:32 GMT 40.645809 -73.805168 0 325 0
2022-08-19 20:56:29 GMT 40.645809 -73.805168 0 325 0
2022-08-19 20:56:28 GMT 40.645840 -73.805206 0 325 1
2022-08-19 20:56:27 GMT 40.645840 -73.805138 0 325 0
2022-08-19 20:56:26 GMT 40.645851 -73.805168 0 325 0
2022-08-19 20:56:24 GMT 40.645859 -73.805168 0 325 1
2022-08-19 20:56:22 GMT 40.645851 -73.805183 0 325 1
2022-08-19 20:56:18 GMT 40.645809 -73.805191 0 325 0
2022-08-19 20:56:17 GMT 40.645821 -73.805168 0 325 0
2022-08-19 20:56:15 GMT 40.645828 -73.805153 0 325 0
2022-08-19 20:56:12 GMT 40.645828 -73.805161 0 325 0
2022-08-19 20:56:11 GMT 40.645840 -73.805191 0 325 0
2022-08-19 20:56:07 GMT 40.645840 -73.805206 0 325 0
2022-08-19 20:56:06 GMT 40.645828 -73.805191 0 325 1
2022-08-19 20:56:05 GMT 40.645809 -73.805168 0 325 0
2022-08-19 20:56:03 GMT 40.645809 -73.805168 0 325 1
2022-08-19 20:56:02 GMT 40.645809 -73.805183 0 325 1
2022-08-19 20:55:59 GMT 40.645809 -73.805153 0 325 0
2022-08-19 20:55:57 GMT 40.645821 -73.805138 0 325 0
2022-08-19 20:55:56 GMT 40.645821 -73.805168 0 325 1
2022-08-19 20:55:55 GMT 40.645809 -73.805222 0 325 1
2022-08-19 20:55:52 GMT 40.645809 -73.805222 0 325 1
2022-08-19 20:55:50 GMT 40.645828 -73.805222 0 325 1
2022-08-19 20:55:49 GMT 40.645851 -73.805229 0 325 1
2022-08-19 20:55:47 GMT 40.645851 -73.805206 0 325 0
2022-08-19 20:55:46 GMT 40.645840 -73.805222 0 325 1
2022-08-19 20:55:45 GMT 40.645809 -73.805183 0 325 1
2022-08-19 20:55:42 GMT 40.645809 -73.805161 0 325 0
2022-08-19 20:55:41 GMT 40.645802 -73.805130 0 325 1
2022-08-19 20:55:40 GMT 40.645802 -73.805138 0 325 0
2022-08-19 20:55:37 GMT 40.645809 -73.805168 0 325 0
2022-08-19 20:55:35 GMT 40.645828 -73.805161 0 325 1
2022-08-19 20:55:33 GMT 40.645828 -73.805183 0 325 0
2022-08-19 20:55:32 GMT 40.645851 -73.805222 0 325 1
2022-08-19 20:55:30 GMT 40.645828 -73.805191 0 325 0
2022-08-19 20:55:27 GMT 40.645821 -73.805161 0 325 0
2022-08-19 20:55:23 GMT 40.645821 -73.805191 0 325 0
2022-08-19 20:55:22 GMT 40.645809 -73.805168 0 325 0
2022-08-19 20:55:21 GMT 40.645828 -73.805161 0 325 0
2022-08-19 20:55:20 GMT 40.645821 -73.805168 0 325 0
2022-08-19 20:55:18 GMT 40.645821 -73.805168 0 325 0
2022-08-19 20:55:17 GMT 40.645821 -73.805138 0 325 0
2022-08-19 20:55:16 GMT 40.645828 -73.805138 0 325 0
2022-08-19 20:55:14 GMT 40.645828 -73.805161 0 325 0
2022-08-19 20:55:12 GMT 40.645821 -73.805153 0 325 0
2022-08-19 20:55:11 GMT 40.645821 -73.805161 0 325 0
2022-08-19 20:55:10 GMT 40.645840 -73.805168 0 325 1
2022-08-19 20:55:08 GMT 40.645840 -73.805191 0 325 1
2022-08-19 20:55:07 GMT 40.645828 -73.805183 0 325 0
2022-08-19 20:55:04 GMT 40.645821 -73.805206 0 325 1
2022-08-19 20:55:02 GMT 40.645821 -73.805206 0 325 2
2022-08-19 20:55:00 GMT 40.645821 -73.805168 0 325 0
2022-08-19 20:54:58 GMT 40.645828 -73.805191 0 325 1
2022-08-19 20:54:56 GMT 40.645828 -73.805183 0 325 1
2022-08-19 20:54:55 GMT 40.645828 -73.805161 0 325 1
2022-08-19 20:54:53 GMT 40.645802 -73.805092 0 325 0
2022-08-19 20:54:52 GMT 40.645821 -73.805122 0 325 0
2022-08-19 20:54:50 GMT 40.645809 -73.805107 0 325 0
2022-08-19 20:54:49 GMT 40.645802 -73.805122 0 325 0
2022-08-19 20:54:48 GMT 40.645802 -73.805107 0 325 1
2022-08-19 20:54:46 GMT 40.645809 -73.805153 0 325 0
2022-08-19 20:54:44 GMT 40.645809 -73.805161 0 325 0
2022-08-19 20:54:43 GMT 40.645802 -73.805161 0 325 1
2022-08-19 20:54:42 GMT 40.645809 -73.805168 0 325 1
2022-08-19 20:54:40 GMT 40.645809 -73.805168 0 325 1
2022-08-19 20:54:38 GMT 40.645821 -73.805206 0 325 1
2022-08-19 20:54:36 GMT 40.645828 -73.805222 0 325 1
2022-08-19 20:54:35 GMT 40.645840 -73.805206 0 325 0
2022-08-19 20:54:33 GMT 40.645828 -73.805183 0 325 1
2022-08-19 20:54:31 GMT 40.645809 -73.805153 0 325 2
2022-08-19 20:54:30 GMT 40.645809 -73.805161 0 325 2
2022-08-19 20:54:28 GMT 40.645828 -73.805183 0 325 2
2022-08-19 20:54:26 GMT 40.645859 -73.805206 0 325 0
2022-08-19 20:54:25 GMT 40.645859 -73.805222 0 325 0
2022-08-19 20:54:23 GMT 40.645859 -73.805222 0 325 0
2022-08-19 20:54:22 GMT 40.645851 -73.805222 0 325 0
2022-08-19 20:54:21 GMT 40.645851 -73.805168 0 325 0
2022-08-19 20:54:18 GMT 40.645859 -73.805199 0 325 0
2022-08-19 20:54:15 GMT 40.645851 -73.805199 0 325 0
2022-08-19 20:54:14 GMT 40.645840 -73.805199 0 325 0
2022-08-19 20:54:12 GMT 40.645851 -73.805199 0 325 0
2022-08-19 20:54:09 GMT 40.645821 -73.805183 0 325 0
2022-08-19 20:54:07 GMT 40.645828 -73.805191 0 325 0
2022-08-19 20:54:05 GMT 40.645828 -73.805183 0 325 0
2022-08-19 20:54:04 GMT 40.645828 -73.805138 0 325 0
2022-08-19 20:54:03 GMT 40.645828 -73.805130 0 325 0
2022-08-19 20:54:02 GMT 40.645840 -73.805153 0 325 0
2022-08-19 20:54:01 GMT 40.645821 -73.805138 0 325 0
2022-08-19 20:53:59 GMT 40.645809 -73.805168 0 325 0
2022-08-19 20:53:57 GMT 40.645821 -73.805168 0 325 0
2022-08-19 20:53:56 GMT 40.645821 -73.805153 0 325 0
2022-08-19 20:53:52 GMT 40.645828 -73.805161 0 325 0
2022-08-19 20:53:50 GMT 40.645828 -73.805161 0 325 0
2022-08-19 20:53:49 GMT 40.645840 -73.805183 0 325 0
2022-08-19 20:53:47 GMT 40.645840 -73.805183 0 325 0
2022-08-19 20:53:46 GMT 40.645821 -73.805153 0 325 0
2022-08-19 20:53:42 GMT 40.645821 -73.805191 0 325 0
2022-08-19 20:53:39 GMT 40.645809 -73.805161 0 325 0
2022-08-19 20:53:37 GMT 40.645809 -73.805168 0 325 0
2022-08-19 20:53:36 GMT 40.645821 -73.805138 0 325 0
2022-08-19 20:53:33 GMT 40.645821 -73.805130 0 325 0
2022-08-19 20:53:32 GMT 40.645828 -73.805138 0 325 0
2022-08-19 20:53:29 GMT 40.645840 -73.805199 0 325 0
2022-08-19 20:53:27 GMT 40.645840 -73.805206 0 325 1
2022-08-19 20:53:26 GMT 40.645851 -73.805237 0 325 2
2022-08-19 20:53:25 GMT 40.645882 -73.805183 0 325 1
2022-08-19 20:53:23 GMT 40.645870 -73.805183 0 325 0
2022-08-19 20:53:22 GMT 40.645828 -73.805191 0 325 0
2022-08-19 20:53:19 GMT 40.645828 -73.805191 0 325 0
2022-08-19 20:53:18 GMT 40.645870 -73.805161 0 325 0
2022-08-19 20:53:14 GMT 40.645828 -73.805153 0 325 0
2022-08-19 20:53:11 GMT 40.645840 -73.805138 0 325 0
2022-08-19 20:53:10 GMT 40.645840 -73.805130 0 325 1
2022-08-19 20:53:08 GMT 40.645851 -73.805153 0 325 0
2022-08-19 20:53:06 GMT 40.645840 -73.805191 0 325 0
2022-08-19 20:53:04 GMT 40.645851 -73.805206 0 325 0
2022-08-19 20:53:03 GMT 40.645851 -73.805222 0 325 1
2022-08-19 20:53:02 GMT 40.645859 -73.805229 0 325 1
2022-08-19 20:53:00 GMT 40.645859 -73.805229 0 325 2
2022-08-19 20:52:58 GMT 40.645821 -73.805222 0 325 1
2022-08-19 20:52:57 GMT 40.645821 -73.805206 0 325 1
2022-08-19 20:52:55 GMT 40.645809 -73.805191 0 325 1
2022-08-19 20:52:54 GMT 40.645828 -73.805161 0 325 2
2022-08-19 20:52:53 GMT 40.645828 -73.805168 0 325 2
2022-08-19 20:52:52 GMT 40.645821 -73.805130 0 325 0
2022-08-19 20:52:50 GMT 40.645821 -73.805130 0 325 0
2022-08-19 20:52:49 GMT 40.645828 -73.805183 0 325 0
2022-08-19 20:52:47 GMT 40.645828 -73.805183 0 325 0
2022-08-19 20:52:46 GMT 40.645840 -73.805168 0 325 1
2022-08-19 20:52:44 GMT 40.645828 -73.805168 0 325 0
2022-08-19 20:52:43 GMT 40.645828 -73.805122 0 325 0
2022-08-19 20:52:40 GMT 40.645828 -73.805122 0 325 0
2022-08-19 20:52:39 GMT 40.645828 -73.805138 0 325 0
2022-08-19 20:52:36 GMT 40.645828 -73.805138 0 325 0
2022-08-19 20:52:34 GMT 40.645828 -73.805161 0 325 0
2022-08-19 20:52:32 GMT 40.645828 -73.805168 0 325 0
2022-08-19 20:52:30 GMT 40.645828 -73.805183 0 325 0
2022-08-19 20:52:26 GMT 40.645828 -73.805138 0 325 0
2022-08-19 20:52:24 GMT 40.645821 -73.805153 0 325 0
2022-08-19 20:52:22 GMT 40.645840 -73.805122 0 325 0
2022-08-19 20:52:21 GMT 40.645828 -73.805138 0 325 0
2022-08-19 20:52:18 GMT 40.645828 -73.805168 0 325 0
2022-08-19 20:52:16 GMT 40.645809 -73.805099 0 325 1
2022-08-19 20:52:15 GMT 40.645821 -73.805161 0 325 0
2022-08-19 20:52:12 GMT 40.645821 -73.805130 0 325 1
2022-08-19 20:52:10 GMT 40.645840 -73.805161 0 325 0
2022-08-19 20:52:09 GMT 40.645840 -73.805183 0 325 0
2022-08-19 20:52:07 GMT 40.645840 -73.805168 0 325 1
2022-08-19 20:52:06 GMT 40.645828 -73.805222 0 325 0
2022-08-19 20:52:04 GMT 40.645828 -73.805229 0 325 0
2022-08-19 20:52:02 GMT 40.645821 -73.805199 0 325 0
2022-08-19 20:51:58 GMT 40.645828 -73.805191 0 325 0
2022-08-19 20:51:56 GMT 40.645828 -73.805168 0 325 0
2022-08-19 20:51:53 GMT 40.645840 -73.805191 0 325 0
2022-08-19 20:51:52 GMT 40.645821 -73.805153 0 325 0
2022-08-19 20:51:49 GMT 40.645828 -73.805161 0 325 0
2022-08-19 20:51:47 GMT 40.645821 -73.805107 0 325 0
2022-08-19 20:51:45 GMT 40.645828 -73.805122 0 325 0
2022-08-19 20:51:44 GMT 40.645821 -73.805107 0 325 0
2022-08-19 20:51:42 GMT 40.645828 -73.805130 0 325 0
2022-08-19 20:51:41 GMT 40.645809 -73.805122 0 325 1
2022-08-19 20:51:40 GMT 40.645802 -73.805183 0 325 0
2022-08-19 20:51:37 GMT 40.645790 -73.805168 0 325 1
2022-08-19 20:51:36 GMT 40.645809 -73.805130 0 325 1
2022-08-19 20:51:35 GMT 40.645821 -73.805168 0 325 1
2022-08-19 20:51:33 GMT 40.645821 -73.805191 0 325 0
2022-08-19 20:51:31 GMT 40.645840 -73.805206 0 325 1
2022-08-19 20:51:30 GMT 40.645840 -73.805229 0 325 1
2022-08-19 20:51:28 GMT 40.645840 -73.805222 0 325 1
2022-08-19 20:51:27 GMT 40.645828 -73.805206 0 325 2
2022-08-19 20:51:25 GMT 40.645802 -73.805183 0 325 1
2022-08-19 20:51:24 GMT 40.645851 -73.805183 0 325 0
2022-08-19 20:51:22 GMT 40.645851 -73.805191 0 325 0
2022-08-19 20:51:21 GMT 40.645840 -73.805122 0 325 1
2022-08-19 20:51:20 GMT 40.645809 -73.805107 0 325 0
2022-08-19 20:51:17 GMT 40.645828 -73.805138 0 325 0
2022-08-19 20:51:16 GMT 40.645821 -73.805130 0 325 0
2022-08-19 20:51:15 GMT 40.645821 -73.805153 0 325 0
2022-08-19 20:51:12 GMT 40.645821 -73.805161 0 325 0
2022-08-19 20:51:11 GMT 40.645840 -73.805153 0 325 0
2022-08-19 20:51:10 GMT 40.645840 -73.805183 0 325 0
2022-08-19 20:51:07 GMT 40.645840 -73.805183 0 325 0
2022-08-19 20:51:06 GMT 40.645828 -73.805153 0 325 0
2022-08-19 20:51:05 GMT 40.645828 -73.805168 0 325 0
2022-08-19 20:51:02 GMT 40.645821 -73.805191 0 325 1
2022-08-19 20:51:00 GMT 40.645809 -73.805199 0 325 1
2022-08-19 20:50:58 GMT 40.645828 -73.805252 0 325 1
2022-08-19 20:50:57 GMT 40.645828 -73.805237 0 325 1
2022-08-19 20:50:56 GMT 40.645859 -73.805260 0 325 2
2022-08-19 20:50:54 GMT 40.645828 -73.805206 0 325 0
2022-08-19 20:50:52 GMT 40.645802 -73.805092 0 325 3
2022-08-19 20:50:50 GMT 40.645809 -73.805107 0 325 2
2022-08-19 20:50:49 GMT 40.645828 -73.805183 0 325 0
2022-08-19 20:50:45 GMT 40.645851 -73.805191 0 325 1
2022-08-19 20:50:43 GMT 40.645840 -73.805191 0 325 1
2022-08-19 20:50:42 GMT 40.645840 -73.805153 0 325 1
2022-08-19 20:50:40 GMT 40.645809 -73.805191 0 325 2
2022-08-19 20:50:38 GMT 40.645809 -73.805191 0 325 2
2022-08-19 20:50:37 GMT 40.645802 -73.805183 0 325 3
2022-08-19 20:50:36 GMT 40.645790 -73.805107 0 325 2
2022-08-19 20:50:33 GMT 40.645821 -73.805183 0 325 0
2022-08-19 20:50:30 GMT 40.645828 -73.805191 0 325 0
2022-08-19 20:50:27 GMT 40.645828 -73.805191 0 325 0
2022-08-19 20:50:26 GMT 40.645828 -73.805168 0 325 1
2022-08-19 20:50:24 GMT 40.645859 -73.805130 0 325 3
2022-08-19 20:50:22 GMT 40.645851 -73.805153 0 325 3
2022-08-19 20:50:21 GMT 40.645821 -73.805191 0 323 1
2022-08-19 20:50:19 GMT 40.645779 -73.805199 0 323 0
2022-08-19 20:50:17 GMT 40.645802 -73.805153 0 323 0
2022-08-19 20:50:15 GMT 40.645821 -73.805183 0 323 0
2022-08-19 20:50:14 GMT 40.645821 -73.805199 0 323 0
2022-08-19 20:50:12 GMT 40.645828 -73.805206 0 323 0
2022-08-19 20:50:11 GMT 40.645821 -73.805199 0 323 0
2022-08-19 20:50:07 GMT 40.645821 -73.805191 0 323 0
2022-08-19 20:50:06 GMT 40.645809 -73.805191 0 323 1
2022-08-19 20:50:04 GMT 40.645809 -73.805229 0 323 2
2022-08-19 20:50:03 GMT 40.645821 -73.805199 0 323 1
2022-08-19 20:50:02 GMT 40.645809 -73.805168 0 323 0
2022-08-19 20:50:01 GMT 40.645821 -73.805183 0 323 1
2022-08-19 20:49:59 GMT 40.645821 -73.805161 0 323 1
2022-08-19 20:49:57 GMT 40.645828 -73.805183 0 323 0
2022-08-19 20:49:56 GMT 40.645828 -73.805161 0 323 1
2022-08-19 20:49:54 GMT 40.645828 -73.805138 0 323 2
2022-08-19 20:49:53 GMT 40.645828 -73.805153 0 323 2
2022-08-19 20:49:52 GMT 40.645809 -73.805161 0 323 2
2022-08-19 20:49:50 GMT 40.645821 -73.805206 0 323 0
2022-08-19 20:49:48 GMT 40.645802 -73.805183 0 323 0
2022-08-19 20:49:47 GMT 40.645802 -73.805130 0 323 1
2022-08-19 20:49:46 GMT 40.645809 -73.805099 0 323 2
2022-08-19 20:49:45 GMT 40.645821 -73.805168 0 323 1
2022-08-19 20:49:43 GMT 40.645821 -73.805168 0 323 1
2022-08-19 20:49:42 GMT 40.645828 -73.805191 0 323 0
2022-08-19 20:49:40 GMT 40.645809 -73.805153 0 323 1
2022-08-19 20:49:39 GMT 40.645802 -73.805161 0 323 2
2022-08-19 20:49:37 GMT 40.645809 -73.805183 0 323 1
2022-08-19 20:49:35 GMT 40.645859 -73.805206 0 323 1
2022-08-19 20:49:32 GMT 40.645840 -73.805183 0 323 0
2022-08-19 20:49:30 GMT 40.645828 -73.805183 0 323 1
2022-08-19 20:49:27 GMT 40.645821 -73.805153 0 323 0
2022-08-19 20:49:26 GMT 40.645828 -73.805183 0 323 0
2022-08-19 20:49:25 GMT 40.645821 -73.805138 0 323 0
2022-08-19 20:49:23 GMT 40.645821 -73.805122 0 323 0
2022-08-19 20:49:22 GMT 40.645821 -73.805138 0 323 0
2022-08-19 20:49:21 GMT 40.645821 -73.805138 0 323 0
2022-08-19 20:49:17 GMT 40.645809 -73.805161 0 323 0
2022-08-19 20:49:16 GMT 40.645828 -73.805161 0 323 1
2022-08-19 20:49:14 GMT 40.645828 -73.805199 0 323 0
2022-08-19 20:49:13 GMT 40.645828 -73.805199 0 323 1
2022-08-19 20:49:11 GMT 40.645828 -73.805199 0 323 1
2022-08-19 20:49:10 GMT 40.645821 -73.805206 0 323 1
2022-08-19 20:49:08 GMT 40.645828 -73.805206 0 323 2
2022-08-19 20:49:07 GMT 40.645821 -73.805153 0 323 1
2022-08-19 20:49:04 GMT 40.645851 -73.805183 0 323 0
2022-08-19 20:49:02 GMT 40.645840 -73.805191 0 323 0
2022-08-19 20:49:01 GMT 40.645828 -73.805191 0 323 0
2022-08-19 20:48:59 GMT 40.645851 -73.805183 0 323 1
2022-08-19 20:48:58 GMT 40.645821 -73.805191 0 323 0
2022-08-19 20:48:57 GMT 40.645821 -73.805183 0 323 1
2022-08-19 20:48:56 GMT 40.645840 -73.805191 0 323 0
2022-08-19 20:48:54 GMT 40.645821 -73.805199 0 323 0
2022-08-19 20:48:53 GMT 40.645828 -73.805168 0 323 0
2022-08-19 20:48:51 GMT 40.645840 -73.805183 0 323 0
2022-08-19 20:48:50 GMT 40.645828 -73.805222 0 323 1
2022-08-19 20:48:49 GMT 40.645840 -73.805252 0 323 1
2022-08-19 20:48:47 GMT 40.645840 -73.805237 0 323 1
2022-08-19 20:48:46 GMT 40.645840 -73.805191 0 323 0
2022-08-19 20:48:43 GMT 40.645821 -73.805206 0 323 0
2022-08-19 20:48:42 GMT 40.645821 -73.805222 0 323 0
2022-08-19 20:48:41 GMT 40.645809 -73.805206 0 323 0
2022-08-19 20:48:40 GMT 40.645840 -73.805229 0 323 0
2022-08-19 20:48:38 GMT 40.645840 -73.805237 0 323 0
2022-08-19 20:48:36 GMT 40.645851 -73.805199 0 323 0
2022-08-19 20:48:35 GMT 40.645828 -73.805168 0 323 0
2022-08-19 20:48:33 GMT 40.645840 -73.805183 0 323 0
2022-08-19 20:48:32 GMT 40.645840 -73.805191 0 323 1
2022-08-19 20:48:29 GMT 40.645779 -73.805153 0 323 2
2022-08-19 20:48:28 GMT 40.645790 -73.805161 0 323 2
2022-08-19 20:48:26 GMT 40.645828 -73.805191 0 323 1
2022-08-19 20:48:24 GMT 40.645821 -73.805161 0 323 0
2022-08-19 20:48:21 GMT 40.645828 -73.805138 0 323 0
2022-08-19 20:48:20 GMT 40.645840 -73.805122 0 323 0
2022-08-19 20:48:18 GMT 40.645828 -73.805138 0 323 0
2022-08-19 20:48:17 GMT 40.645828 -73.805130 0 323 0
2022-08-19 20:48:15 GMT 40.645828 -73.805130 0 323 0
2022-08-19 20:48:13 GMT 40.645821 -73.805183 0 323 1
2022-08-19 20:48:12 GMT 40.645809 -73.805161 0 323 0
2022-08-19 20:48:11 GMT 40.645828 -73.805138 0 323 0
2022-08-19 20:48:09 GMT 40.645821 -73.805138 0 323 0
2022-08-19 20:48:06 GMT 40.645828 -73.805130 0 323 0
2022-08-19 20:48:04 GMT 40.645821 -73.805130 0 323 0
2022-08-19 20:48:03 GMT 40.645821 -73.805122 0 323 0
2022-08-19 20:48:02 GMT 40.645821 -73.805130 0 323 0
2022-08-19 20:47:59 GMT 40.645821 -73.805130 0 323 0
2022-08-19 20:47:57 GMT 40.645821 -73.805130 0 323 0
2022-08-19 20:47:56 GMT 40.645821 -73.805138 0 323 0
2022-08-19 20:47:54 GMT 40.645821 -73.805099 0 323 0
2022-08-19 20:47:53 GMT 40.645821 -73.805107 0 323 0
2022-08-19 20:47:51 GMT 40.645821 -73.805130 0 323 0
2022-08-19 20:47:49 GMT 40.645821 -73.805161 0 323 0
2022-08-19 20:47:47 GMT 40.645821 -73.805161 0 323 0
2022-08-19 20:47:44 GMT 40.645870 -73.805199 0 323 0
2022-08-19 20:47:41 GMT 40.645870 -73.805206 0 323 1
2022-08-19 20:47:39 GMT 40.645821 -73.805161 0 323 0
2022-08-19 20:47:36 GMT 40.645821 -73.805153 0 323 0
2022-08-19 20:47:35 GMT 40.645828 -73.805130 0 323 0
2022-08-19 20:47:33 GMT 40.645821 -73.805153 0 323 0
2022-08-19 20:47:31 GMT 40.645821 -73.805161 0 323 0
2022-08-19 20:47:29 GMT 40.645809 -73.805168 0 323 1
2022-08-19 20:47:28 GMT 40.645840 -73.805206 0 323 0
2022-08-19 20:47:26 GMT 40.645840 -73.805252 0 323 1
2022-08-19 20:47:25 GMT 40.645840 -73.805237 0 323 1
2022-08-19 20:47:22 GMT 40.645779 -73.805222 0 323 1
2022-08-19 20:47:21 GMT 40.645790 -73.805222 0 323 2
2022-08-19 20:47:19 GMT 40.645859 -73.805168 0 323 0
2022-08-19 20:47:16 GMT 40.645870 -73.805183 0 323 1
2022-08-19 20:47:14 GMT 40.645840 -73.805138 0 323 2
2022-08-19 20:47:13 GMT 40.645840 -73.805153 0 323 2
2022-08-19 20:47:11 GMT 40.645840 -73.805206 0 323 0
2022-08-19 20:47:10 GMT 40.645840 -73.805183 0 323 0
2022-08-19 20:47:07 GMT 40.645840 -73.805206 0 323 1
2022-08-19 20:47:03 GMT 40.645840 -73.805199 0 323 0
2022-08-19 20:47:01 GMT 40.645851 -73.805222 0 323 1
2022-08-19 20:46:57 GMT 40.645790 -73.805206 0 323 1
2022-08-19 20:46:56 GMT 40.645779 -73.805199 0 323 1
2022-08-19 20:46:54 GMT 40.645790 -73.805191 0 323 1
2022-08-19 20:46:53 GMT 40.645821 -73.805191 0 323 0
2022-08-19 20:46:51 GMT 40.645821 -73.805153 0 323 1
2022-08-19 20:46:50 GMT 40.645840 -73.805161 0 323 2
2022-08-19 20:46:47 GMT 40.645828 -73.805222 0 323 0
2022-08-19 20:46:45 GMT 40.645851 -73.805191 0 323 0
2022-08-19 20:46:44 GMT 40.645821 -73.805122 0 323 1
2022-08-19 20:46:42 GMT 40.645828 -73.805138 0 323 0
2022-08-19 20:46:41 GMT 40.645821 -73.805138 0 323 0
2022-08-19 20:46:39 GMT 40.645821 -73.805130 0 323 1
2022-08-19 20:46:38 GMT 40.645821 -73.805138 0 323 1
2022-08-19 20:46:36 GMT 40.645828 -73.805161 0 323 0
2022-08-19 20:46:35 GMT 40.645851 -73.805168 0 323 0
2022-08-19 20:46:33 GMT 40.645828 -73.805199 0 323 0
2022-08-19 20:46:32 GMT 40.645821 -73.805206 0 323 0
2022-08-19 20:46:31 GMT 40.645851 -73.805153 0 323 0
2022-08-19 20:46:29 GMT 40.645851 -73.805161 0 323 0
2022-08-19 20:46:27 GMT 40.645859 -73.805168 0 323 0
2022-08-19 20:46:25 GMT 40.645840 -73.805206 0 323 0
2022-08-19 20:46:24 GMT 40.645840 -73.805222 0 323 1
2022-08-19 20:46:23 GMT 40.645840 -73.805222 0 323 2
2022-08-19 20:46:21 GMT 40.645859 -73.805229 0 323 2
2022-08-19 20:46:19 GMT 40.645851 -73.805199 0 323 2
2022-08-19 20:46:17 GMT 40.645828 -73.805161 0 323 0
2022-08-19 20:46:16 GMT 40.645821 -73.805168 0 323 0
2022-08-19 20:46:14 GMT 40.645821 -73.805168 0 323 0
2022-08-19 20:46:13 GMT 40.645821 -73.805122 0 323 1
2022-08-19 20:46:12 GMT 40.645828 -73.805077 0 323 1
2022-08-19 20:46:10 GMT 40.645821 -73.805061 0 323 2
2022-08-19 20:46:09 GMT 40.645828 -73.805077 0 323 2
2022-08-19 20:46:07 GMT 40.645828 -73.805107 0 323 2
2022-08-19 20:46:05 GMT 40.645809 -73.805153 0 323 1
2022-08-19 20:46:04 GMT 40.645802 -73.805191 0 323 1
2022-08-19 20:46:03 GMT 40.645809 -73.805199 0 323 2
2022-08-19 20:46:01 GMT 40.645859 -73.805183 0 323 0
2022-08-19 20:45:59 GMT 40.645828 -73.805183 0 323 0
2022-08-19 20:45:58 GMT 40.645828 -73.805191 0 323 0
2022-08-19 20:45:57 GMT 40.645828 -73.805153 0 323 1
2022-08-19 20:45:55 GMT 40.645828 -73.805092 0 323 2
2022-08-19 20:45:53 GMT 40.645851 -73.805138 0 323 2
2022-08-19 20:45:52 GMT 40.645840 -73.805153 0 323 2
2022-08-19 20:45:51 GMT 40.645840 -73.805183 0 323 1
2022-08-19 20:45:48 GMT 40.645828 -73.805183 0 323 0
2022-08-19 20:45:46 GMT 40.645828 -73.805168 0 323 0
2022-08-19 20:45:45 GMT 40.645821 -73.805222 0 323 1
2022-08-19 20:45:43 GMT 40.645821 -73.805206 0 323 1
2022-08-19 20:45:42 GMT 40.645809 -73.805199 0 323 0
2022-08-19 20:45:39 GMT 40.645828 -73.805153 0 323 0
2022-08-19 20:45:35 GMT 40.645828 -73.805153 0 323 0
2022-08-19 20:45:34 GMT 40.645821 -73.805107 0 323 0
2022-08-19 20:45:33 GMT 40.645828 -73.805138 0 323 0
2022-08-19 20:45:31 GMT 40.645828 -73.805130 0 323 0
2022-08-19 20:45:28 GMT 40.645828 -73.805168 0 323 0
2022-08-19 20:45:26 GMT 40.645840 -73.805183 0 323 0
2022-08-19 20:45:21 GMT 40.645828 -73.805161 0 323 0
2022-08-19 20:45:20 GMT 40.645828 -73.805161 0 323 0
2022-08-19 20:45:17 GMT 40.645828 -73.805168 0 323 0
2022-08-19 20:45:16 GMT 40.645828 -73.805138 0 323 0
2022-08-19 20:45:14 GMT 40.645828 -73.805153 0 323 0
2022-08-19 20:45:11 GMT 40.645828 -73.805168 0 323 0
2022-08-19 20:45:10 GMT 40.645821 -73.805191 0 323 1
2022-08-19 20:45:07 GMT 40.645840 -73.805153 0 323 0
2022-08-19 20:45:06 GMT 40.645828 -73.805138 0 323 0
2022-08-19 20:45:05 GMT 40.645840 -73.805161 0 323 1
2022-08-19 20:45:03 GMT 40.645840 -73.805161 0 323 1
2022-08-19 20:45:02 GMT 40.645821 -73.805092 0 323 1
2022-08-19 20:45:00 GMT 40.645828 -73.805092 0 323 0
2022-08-19 20:44:59 GMT 40.645840 -73.805122 0 323 0
2022-08-19 20:44:56 GMT 40.645840 -73.805122 0 323 0
2022-08-19 20:44:54 GMT 40.645828 -73.805107 0 323 0
2022-08-19 20:44:53 GMT 40.645821 -73.805107 0 323 0
2022-08-19 20:44:51 GMT 40.645821 -73.805130 0 323 0
2022-08-19 20:44:50 GMT 40.645821 -73.805122 0 323 0
2022-08-19 20:44:48 GMT 40.645821 -73.805122 0 323 1
2022-08-19 20:44:46 GMT 40.645809 -73.805122 0 323 1
2022-08-19 20:44:45 GMT 40.645828 -73.805138 0 323 0
2022-08-19 20:44:44 GMT 40.645821 -73.805153 0 323 0
2022-08-19 20:44:41 GMT 40.645828 -73.805191 0 323 0
2022-08-19 20:44:39 GMT 40.645790 -73.805153 0 323 1
2022-08-19 20:44:38 GMT 40.645790 -73.805183 0 323 1
2022-08-19 20:44:36 GMT 40.645802 -73.805183 0 323 1
2022-08-19 20:44:35 GMT 40.645802 -73.805191 0 323 3
2022-08-19 20:44:33 GMT 40.645809 -73.805191 0 323 3
2022-08-19 20:44:31 GMT 40.645889 -73.805168 0 323 1
2022-08-19 20:44:30 GMT 40.645908 -73.805183 0 323 3
2022-08-19 20:44:28 GMT 40.645870 -73.805161 0 323 2
2022-08-19 20:44:27 GMT 40.645870 -73.805168 0 323 2
2022-08-19 20:44:26 GMT 40.645859 -73.805161 0 323 2
2022-08-19 20:44:23 GMT 40.645802 -73.805138 0 323 0
2022-08-19 20:44:21 GMT 40.645821 -73.805168 0 323 0
2022-08-19 20:44:19 GMT 40.645809 -73.805161 0 323 0
2022-08-19 20:44:16 GMT 40.645821 -73.805168 0 323 0
2022-08-19 20:44:15 GMT 40.645821 -73.805183 0 323 0
2022-08-19 20:44:13 GMT 40.645809 -73.805183 0 323 0
2022-08-19 20:44:11 GMT 40.645809 -73.805191 0 323 0
2022-08-19 20:44:10 GMT 40.645821 -73.805161 0 323 0
2022-08-19 20:44:08 GMT 40.645840 -73.805168 0 323 2
2022-08-19 20:44:07 GMT 40.645828 -73.805183 0 323 2
2022-08-19 20:44:04 GMT 40.645809 -73.805191 0 323 0
2022-08-19 20:44:01 GMT 40.645828 -73.805161 0 323 0
2022-08-19 20:44:00 GMT 40.645821 -73.805099 0 323 1
2022-08-19 20:43:57 GMT 40.645809 -73.805092 0 323 1
2022-08-19 20:43:56 GMT 40.645821 -73.805107 0 323 0
2022-08-19 20:43:55 GMT 40.645821 -73.805183 0 323 0
2022-08-19 20:43:51 GMT 40.645821 -73.805183 0 323 0
2022-08-19 20:43:50 GMT 40.645821 -73.805191 0 323 0
2022-08-19 20:43:48 GMT 40.645828 -73.805199 0 323 0
2022-08-19 20:43:47 GMT 40.645828 -73.805191 0 323 0
2022-08-19 20:43:44 GMT 40.645802 -73.805168 0 323 1
2022-08-19 20:43:41 GMT 40.645809 -73.805161 0 323 0
2022-08-19 20:43:37 GMT 40.645809 -73.805168 0 323 0
2022-08-19 20:43:36 GMT 40.645821 -73.805168 0 323 0
2022-08-19 20:43:34 GMT 40.645809 -73.805183 0 323 0
2022-08-19 20:43:33 GMT 40.645821 -73.805191 0 323 0
2022-08-19 20:43:31 GMT 40.645821 -73.805199 0 323 1
2022-08-19 20:43:30 GMT 40.645809 -73.805222 0 323 2
2022-08-19 20:43:28 GMT 40.645828 -73.805222 0 323 3
2022-08-19 20:43:27 GMT 40.645802 -73.805092 0 323 4
2022-08-19 20:43:25 GMT 40.645821 -73.805168 0 317 1
2022-08-19 20:43:24 GMT 40.645821 -73.805183 0 317 1
2022-08-19 20:43:23 GMT 40.645840 -73.805153 0 317 1
2022-08-19 20:43:21 GMT 40.645840 -73.805168 0 317 1
2022-08-19 20:43:19 GMT 40.645840 -73.805153 0 317 1
2022-08-19 20:43:17 GMT 40.645828 -73.805168 0 317 1
2022-08-19 20:43:15 GMT 40.645821 -73.805199 0 317 2
2022-08-19 20:43:12 GMT 40.645790 -73.805153 0 317 0
2022-08-19 20:43:11 GMT 40.645821 -73.805161 0 317 0
2022-08-19 20:43:08 GMT 40.645821 -73.805107 0 317 0
2022-08-19 20:43:06 GMT 40.645821 -73.805122 0 317 0
2022-08-19 20:43:04 GMT 40.645828 -73.805122 0 317 1
2022-08-19 20:43:02 GMT 40.645840 -73.805138 0 317 2
2022-08-19 20:43:01 GMT 40.645809 -73.805183 0 317 2
2022-08-19 20:43:00 GMT 40.645821 -73.805077 0 317 1
2022-08-19 20:42:58 GMT 40.645828 -73.805130 0 317 0
2022-08-19 20:42:56 GMT 40.645821 -73.805099 0 317 1
2022-08-19 20:42:55 GMT 40.645809 -73.805107 0 317 1
2022-08-19 20:42:53 GMT 40.645802 -73.805122 0 317 2
2022-08-19 20:42:52 GMT 40.645809 -73.805077 0 317 2
2022-08-19 20:42:50 GMT 40.645821 -73.805077 0 317 0
2022-08-19 20:42:48 GMT 40.645809 -73.805099 0 317 0
2022-08-19 20:42:47 GMT 40.645821 -73.805130 0 317 0
2022-08-19 20:42:46 GMT 40.645821 -73.805107 0 317 0
2022-08-19 20:42:45 GMT 40.645821 -73.805138 0 317 0
2022-08-19 20:42:41 GMT 40.645828 -73.805161 0 317 0
2022-08-19 20:42:39 GMT 40.645821 -73.805153 0 317 0
2022-08-19 20:42:37 GMT 40.645828 -73.805138 0 317 0
2022-08-19 20:42:36 GMT 40.645828 -73.805153 0 317 0
2022-08-19 20:42:35 GMT 40.645828 -73.805138 0 317 0
2022-08-19 20:42:32 GMT 40.645828 -73.805153 0 317 0
2022-08-19 20:42:31 GMT 40.645828 -73.805138 0 317 0
2022-08-19 20:42:30 GMT 40.645859 -73.805168 0 317 1
2022-08-19 20:42:28 GMT 40.645851 -73.805199 0 317 1
2022-08-19 20:42:27 GMT 40.645840 -73.805206 0 317 0
2022-08-19 20:42:25 GMT 40.645828 -73.805161 0 317 0
2022-08-19 20:42:24 GMT 40.645840 -73.805168 0 317 0
2022-08-19 20:42:23 GMT 40.645809 -73.805153 0 317 1
2022-08-19 20:42:21 GMT 40.645828 -73.805168 0 317 0
2022-08-19 20:42:20 GMT 40.645889 -73.805107 0 317 2
2022-08-19 20:42:18 GMT 40.645859 -73.805153 0 317 2
2022-08-19 20:42:15 GMT 40.645828 -73.805168 0 317 0
2022-08-19 20:42:13 GMT 40.645828 -73.805199 0 317 0
2022-08-19 20:42:11 GMT 40.645821 -73.805222 0 317 0
2022-08-19 20:42:10 GMT 40.645821 -73.805237 0 317 0
2022-08-19 20:42:09 GMT 40.645821 -73.805168 0 317 0
2022-08-19 20:42:06 GMT 40.645821 -73.805191 0 317 0
2022-08-19 20:42:03 GMT 40.645821 -73.805183 0 317 0
2022-08-19 20:42:01 GMT 40.645821 -73.805153 0 317 0
2022-08-19 20:41:59 GMT 40.645821 -73.805168 0 317 0
2022-08-19 20:41:57 GMT 40.645821 -73.805168 0 317 0
2022-08-19 20:41:56 GMT 40.645821 -73.805161 0 317 0
2022-08-19 20:41:54 GMT 40.645821 -73.805168 0 317 0
2022-08-19 20:41:53 GMT 40.645821 -73.805199 0 317 0
2022-08-19 20:41:51 GMT 40.645809 -73.805199 0 317 0
2022-08-19 20:41:50 GMT 40.645821 -73.805183 0 317 0
2022-08-19 20:41:48 GMT 40.645828 -73.805199 0 317 0
2022-08-19 20:41:47 GMT 40.645802 -73.805206 0 317 2
2022-08-19 20:41:46 GMT 40.645840 -73.805183 0 317 0
2022-08-19 20:41:44 GMT 40.645840 -73.805183 0 317 0
2022-08-19 20:41:40 GMT 40.645828 -73.805183 0 317 0
2022-08-19 20:41:39 GMT 40.645802 -73.805077 0 317 2
2022-08-19 20:41:38 GMT 40.645802 -73.805099 0 317 2
2022-08-19 20:41:36 GMT 40.645802 -73.805122 0 317 1
2022-08-19 20:41:35 GMT 40.645821 -73.805191 0 317 1
2022-08-19 20:41:33 GMT 40.645809 -73.805168 0 317 0
2022-08-19 20:41:31 GMT 40.645821 -73.805138 0 317 1
2022-08-19 20:41:30 GMT 40.645840 -73.805130 0 317 1
2022-08-19 20:41:28 GMT 40.645840 -73.805153 0 317 1
2022-08-19 20:41:27 GMT 40.645840 -73.805138 0 317 1
2022-08-19 20:41:26 GMT 40.645828 -73.805107 0 317 2
2022-08-19 20:41:24 GMT 40.645828 -73.805138 0 317 1
2022-08-19 20:41:22 GMT 40.645840 -73.805183 0 317 1
2022-08-19 20:41:21 GMT 40.645851 -73.805183 0 317 1
2022-08-19 20:41:19 GMT 40.645859 -73.805260 0 319 3
2022-08-19 20:41:18 GMT 40.645851 -73.805229 0 321 3
2022-08-19 20:41:16 GMT 40.645821 -73.805183 0 321 0
2022-08-19 20:41:15 GMT 40.645828 -73.805153 0 321 0
2022-08-19 20:41:13 GMT 40.645828 -73.805153 0 321 0
2022-08-19 20:41:12 GMT 40.645828 -73.805153 0 321 0
2022-08-19 20:41:10 GMT 40.645828 -73.805161 0 321 0
2022-08-19 20:41:06 GMT 40.645840 -73.805199 0 321 0
2022-08-19 20:41:04 GMT 40.645809 -73.805168 0 321 0
2022-08-19 20:41:01 GMT 40.645821 -73.805183 0 321 0
2022-08-19 20:41:00 GMT 40.645790 -73.805206 0 321 1
2022-08-19 20:40:59 GMT 40.645779 -73.805237 0 321 1
2022-08-19 20:40:58 GMT 40.645779 -73.805252 0 321 1
2022-08-19 20:40:56 GMT 40.645779 -73.805237 0 321 2
2022-08-19 20:40:54 GMT 40.645821 -73.805183 0 321 0
2022-08-19 20:40:53 GMT 40.645821 -73.805191 0 321 1
2022-08-19 20:40:51 GMT 40.645821 -73.805168 0 321 0
2022-08-19 20:40:49 GMT 40.645802 -73.805153 0 321 2
2022-08-19 20:40:46 GMT 40.645809 -73.805191 0 321 0
2022-08-19 20:40:45 GMT 40.645821 -73.805191 0 321 0
2022-08-19 20:40:42 GMT 40.645809 -73.805199 0 321 0
2022-08-19 20:40:41 GMT 40.645828 -73.805191 0 321 0
2022-08-19 20:40:38 GMT 40.645828 -73.805161 0 321 0
2022-08-19 20:40:36 GMT 40.645802 -73.805191 0 321 0
2022-08-19 20:40:35 GMT 40.645821 -73.805183 0 321 0
2022-08-19 20:40:32 GMT 40.645821 -73.805199 0 321 1
2022-08-19 20:40:30 GMT 40.645809 -73.805237 0 321 3
2022-08-19 20:40:29 GMT 40.645809 -73.805229 0 321 3
2022-08-19 20:40:27 GMT 40.645821 -73.805161 0 321 0
2022-08-19 20:40:26 GMT 40.645821 -73.805153 0 321 0
2022-08-19 20:40:23 GMT 40.645821 -73.805138 0 321 0
2022-08-19 20:40:22 GMT 40.645828 -73.805138 0 321 0
2022-08-19 20:40:20 GMT 40.645828 -73.805138 0 321 0
2022-08-19 20:40:18 GMT 40.645828 -73.805153 0 321 0
2022-08-19 20:40:16 GMT 40.645828 -73.805161 0 321 0
2022-08-19 20:40:15 GMT 40.645859 -73.805168 0 321 1
2022-08-19 20:40:12 GMT 40.645809 -73.805138 0 321 0
2022-08-19 20:40:11 GMT 40.645821 -73.805153 0 321 0
2022-08-19 20:40:10 GMT 40.645828 -73.805161 0 321 0
2022-08-19 20:40:08 GMT 40.645828 -73.805183 0 321 0
2022-08-19 20:40:06 GMT 40.645828 -73.805183 0 321 0
2022-08-19 20:40:04 GMT 40.645859 -73.805199 0 321 2
2022-08-19 20:40:03 GMT 40.645859 -73.805191 0 321 2
2022-08-19 20:40:02 GMT 40.645821 -73.805161 0 321 0
2022-08-19 20:40:00 GMT 40.645821 -73.805168 0 321 0
2022-08-19 20:39:59 GMT 40.645828 -73.805168 0 321 0
2022-08-19 20:39:57 GMT 40.645828 -73.805161 0 321 0
2022-08-19 20:39:55 GMT 40.645821 -73.805099 0 321 1
2022-08-19 20:39:54 GMT 40.645809 -73.805122 0 321 1
2022-08-19 20:39:52 GMT 40.645809 -73.805130 0 321 1
2022-08-19 20:39:51 GMT 40.645802 -73.805122 0 321 2
2022-08-19 20:39:49 GMT 40.645790 -73.805130 0 321 3
2022-08-19 20:39:47 GMT 40.645809 -73.805183 0 321 1
2022-08-19 20:39:46 GMT 40.645828 -73.805199 0 321 0
2022-08-19 20:39:43 GMT 40.645809 -73.805191 0 321 0
2022-08-19 20:39:40 GMT 40.645821 -73.805191 0 321 0
2022-08-19 20:39:38 GMT 40.645821 -73.805229 0 321 0
2022-08-19 20:39:36 GMT 40.645828 -73.805237 0 321 0
2022-08-19 20:39:35 GMT 40.645821 -73.805191 0 321 0
2022-08-19 20:39:34 GMT 40.645821 -73.805199 0 321 0
2022-08-19 20:39:32 GMT 40.645821 -73.805206 0 321 1
2022-08-19 20:39:31 GMT 40.645821 -73.805191 0 321 0
2022-08-19 20:39:30 GMT 40.645828 -73.805168 0 321 0
2022-08-19 20:39:28 GMT 40.645828 -73.805168 0 321 1
2022-08-19 20:39:26 GMT 40.645809 -73.805191 0 321 1
2022-08-19 20:39:25 GMT 40.645809 -73.805161 0 321 0
2022-08-19 20:39:23 GMT 40.645821 -73.805168 0 321 0
2022-08-19 20:39:20 GMT 40.645828 -73.805183 0 321 0
2022-08-19 20:39:18 GMT 40.645821 -73.805191 0 321 0
2022-08-19 20:39:17 GMT 40.645809 -73.805168 0 321 0
2022-08-19 20:39:16 GMT 40.645809 -73.805183 0 321 0
2022-08-19 20:39:14 GMT 40.645828 -73.805183 0 321 0
2022-08-19 20:39:13 GMT 40.645821 -73.805161 0 321 0
2022-08-19 20:39:10 GMT 40.645821 -73.805191 0 321 0
2022-08-19 20:39:09 GMT 40.645828 -73.805183 0 321 0
2022-08-19 20:39:06 GMT 40.645821 -73.805183 0 321 0
2022-08-19 20:39:04 GMT 40.645828 -73.805183 0 321 1
2022-08-19 20:39:01 GMT 40.645821 -73.805206 0 321 0
2022-08-19 20:39:00 GMT 40.645821 -73.805222 0 321 1
2022-08-19 20:38:58 GMT 40.645809 -73.805153 0 321 0
2022-08-19 20:38:55 GMT 40.645809 -73.805161 0 321 0
2022-08-19 20:38:54 GMT 40.645802 -73.805168 0 321 0
2022-08-19 20:38:53 GMT 40.645809 -73.805130 0 321 0
2022-08-19 20:38:51 GMT 40.645809 -73.805138 0 321 1
2022-08-19 20:38:50 GMT 40.645821 -73.805138 0 321 1
2022-08-19 20:38:48 GMT 40.645821 -73.805153 0 321 2
2022-08-19 20:38:45 GMT 40.645828 -73.805183 0 321 0
2022-08-19 20:38:43 GMT 40.645821 -73.805168 0 321 0
2022-08-19 20:38:40 GMT 40.645821 -73.805183 0 321 1
2022-08-19 20:38:38 GMT 40.645790 -73.805122 0 321 2
2022-08-19 20:38:37 GMT 40.645809 -73.805153 0 321 1
2022-08-19 20:38:35 GMT 40.645809 -73.805153 0 321 1
2022-08-19 20:38:34 GMT 40.645821 -73.805130 0 321 2
2022-08-19 20:38:32 GMT 40.645828 -73.805206 0 321 3
2022-08-19 20:38:31 GMT 40.645828 -73.805191 0 321 3
2022-08-19 20:38:29 GMT 40.645821 -73.805161 0 321 0
2022-08-19 20:38:28 GMT 40.645840 -73.805153 0 321 1
2022-08-19 20:38:27 GMT 40.645840 -73.805138 0 321 1
2022-08-19 20:38:25 GMT 40.645802 -73.805138 0 321 0
2022-08-19 20:38:24 GMT 40.645809 -73.805168 0 321 0
2022-08-19 20:38:22 GMT 40.645809 -73.805168 0 321 0
2022-08-19 20:38:20 GMT 40.645821 -73.805168 0 321 0
2022-08-19 20:38:19 GMT 40.645851 -73.805138 0 321 1
2022-08-19 20:38:17 GMT 40.645859 -73.805153 0 321 2
2022-08-19 20:38:16 GMT 40.645851 -73.805168 0 321 1
2022-08-19 20:38:14 GMT 40.645809 -73.805168 0 321 0
2022-08-19 20:38:12 GMT 40.645821 -73.805168 0 321 1
2022-08-19 20:38:11 GMT 40.645821 -73.805183 0 321 1
2022-08-19 20:38:10 GMT 40.645828 -73.805122 0 321 1
2022-08-19 20:38:08 GMT 40.645840 -73.805130 0 321 2
2022-08-19 20:38:06 GMT 40.645828 -73.805138 0 321 1
2022-08-19 20:38:04 GMT 40.645809 -73.805168 0 321 0
2022-08-19 20:38:02 GMT 40.645821 -73.805199 0 321 2
2022-08-19 20:38:01 GMT 40.645821 -73.805191 0 321 2
2022-08-19 20:38:00 GMT 40.645790 -73.805153 0 321 0
2022-08-19 20:37:58 GMT 40.645790 -73.805153 0 321 0
2022-08-19 20:37:56 GMT 40.645821 -73.805161 0 321 0
2022-08-19 20:37:55 GMT 40.645821 -73.805168 0 321 0
2022-08-19 20:37:54 GMT 40.645840 -73.805183 0 321 0
2022-08-19 20:37:52 GMT 40.645840 -73.805168 0 321 0
2022-08-19 20:37:48 GMT 40.645809 -73.805168 0 321 0
2022-08-19 20:37:46 GMT 40.645821 -73.805161 0 321 0
2022-08-19 20:37:45 GMT 40.645821 -73.805168 0 321 0
2022-08-19 20:37:43 GMT 40.645828 -73.805183 0 321 0
2022-08-19 20:37:41 GMT 40.645828 -73.805183 0 321 0
2022-08-19 20:37:37 GMT 40.645809 -73.805183 0 321 0
2022-08-19 20:37:35 GMT 40.645821 -73.805168 0 321 0
2022-08-19 20:37:34 GMT 40.645809 -73.805161 0 321 0
2022-08-19 20:37:30 GMT 40.645821 -73.805161 0 321 0
2022-08-19 20:37:29 GMT 40.645809 -73.805153 0 321 1
2022-08-19 20:37:28 GMT 40.645809 -73.805206 0 321 0
2022-08-19 20:37:26 GMT 40.645809 -73.805222 0 321 0
2022-08-19 20:37:24 GMT 40.645809 -73.805237 0 321 0
2022-08-19 20:37:23 GMT 40.645821 -73.805222 0 321 0
2022-08-19 20:37:22 GMT 40.645809 -73.805191 0 321 0
2022-08-19 20:37:20 GMT 40.645802 -73.805191 0 321 0
2022-08-19 20:37:19 GMT 40.645790 -73.805161 0 321 0
2022-08-19 20:37:15 GMT 40.645840 -73.805199 0 321 1
2022-08-19 20:37:13 GMT 40.645828 -73.805161 0 321 0
2022-08-19 20:37:10 GMT 40.645828 -73.805161 0 321 0
2022-08-19 20:37:09 GMT 40.645821 -73.805168 0 321 0
2022-08-19 20:37:06 GMT 40.645821 -73.805168 0 321 0
2022-08-19 20:37:05 GMT 40.645828 -73.805183 0 321 0
2022-08-19 20:37:03 GMT 40.645821 -73.805153 0 321 0
2022-08-19 20:37:02 GMT 40.645802 -73.805153 0 321 0
2022-08-19 20:37:00 GMT 40.645790 -73.805161 0 321 0
2022-08-19 20:36:57 GMT 40.645802 -73.805168 0 321 1
2022-08-19 20:36:55 GMT 40.645828 -73.805077 0 321 3
2022-08-19 20:36:53 GMT 40.645828 -73.805107 0 319 4
2022-08-19 20:36:52 GMT 40.645809 -73.805206 0 319 0
2022-08-19 20:36:50 GMT 40.645802 -73.805206 0 319 2
2022-08-19 20:36:49 GMT 40.645828 -73.805229 0 319 2
2022-08-19 20:36:47 GMT 40.645828 -73.805199 0 319 0
2022-08-19 20:36:45 GMT 40.645828 -73.805183 0 319 0
2022-08-19 20:36:43 GMT 40.645821 -73.805183 0 319 0
2022-08-19 20:36:40 GMT 40.645809 -73.805191 0 319 0
2022-08-19 20:36:39 GMT 40.645802 -73.805153 0 319 0
2022-08-19 20:36:35 GMT 40.645802 -73.805153 0 319 0
2022-08-19 20:36:34 GMT 40.645779 -73.805161 0 319 0
2022-08-19 20:36:30 GMT 40.645802 -73.805168 0 319 0
2022-08-19 20:36:29 GMT 40.645802 -73.805138 0 319 0
2022-08-19 20:36:25 GMT 40.645821 -73.805183 0 319 0
2022-08-19 20:36:23 GMT 40.645828 -73.805168 0 319 1
2022-08-19 20:36:22 GMT 40.645821 -73.805161 0 319 1
2022-08-19 20:36:20 GMT 40.645821 -73.805161 0 319 2
2022-08-19 20:36:18 GMT 40.645840 -73.805191 0 319 0
2022-08-19 20:36:17 GMT 40.645840 -73.805206 0 319 0
2022-08-19 20:36:15 GMT 40.645840 -73.805199 0 319 0
2022-08-19 20:36:13 GMT 40.645821 -73.805183 0 319 0
2022-08-19 20:36:11 GMT 40.645802 -73.805168 0 319 2
2022-08-19 20:36:10 GMT 40.645809 -73.805199 0 319 2
2022-08-19 20:36:08 GMT 40.645840 -73.805168 0 319 1
2022-08-19 20:36:07 GMT 40.645870 -73.805168 0 317 3
2022-08-19 20:36:05 GMT 40.645821 -73.805191 0 315 0
2022-08-19 20:36:03 GMT 40.645828 -73.805183 0 315 0
2022-08-19 20:36:02 GMT 40.645828 -73.805206 0 315 3
2022-08-19 20:36:00 GMT 40.645821 -73.805153 0 321 1
2022-08-19 20:35:59 GMT 40.645840 -73.805161 0 321 4
2022-08-19 20:35:58 GMT 40.645828 -73.805168 0 306 7
2022-08-19 20:35:57 GMT 40.645771 -73.805138 0 291 8
2022-08-19 20:35:55 GMT 40.645771 -73.805069 0 298 6
2022-08-19 20:35:54 GMT 40.645748 -73.805031 0 293 5
2022-08-19 20:35:53 GMT 40.645748 -73.805008 0 303 9
2022-08-19 20:35:51 GMT 40.645729 -73.804916 0 307 6
2022-08-19 20:35:50 GMT 40.645679 -73.804848 0 303 5
2022-08-19 20:35:48 GMT 40.645672 -73.804863 0 295 7
2022-08-19 20:35:47 GMT 40.645649 -73.804779 0 302 9
2022-08-19 20:35:45 GMT 40.645630 -73.804741 0 297 10
2022-08-19 20:35:44 GMT 40.645592 -73.804649 0 296 11
2022-08-19 20:35:42 GMT 40.645569 -73.804619 0 294 14
2022-08-19 20:35:41 GMT 40.645531 -73.804451 0 306 13
2022-08-19 20:35:39 GMT 40.645481 -73.804367 0 303 11
2022-08-19 20:35:38 GMT 40.645439 -73.804337 0 295 12
2022-08-19 20:35:36 GMT 40.645401 -73.804207 0 301 10
2022-08-19 20:35:35 GMT 40.645370 -73.804138 0 302 9
2022-08-19 20:35:34 GMT 40.645359 -73.804108 0 301 11
2022-08-19 20:35:32 GMT 40.645302 -73.804031 0 299 13
2022-08-19 20:35:31 GMT 40.645290 -73.803947 0 305 12
2022-08-19 20:35:29 GMT 40.645248 -73.803848 0 318 15
2022-08-19 20:35:28 GMT 40.645168 -73.803802 0 322 12
2022-08-19 20:35:26 GMT 40.645088 -73.803658 0 14 8
2022-08-19 20:35:25 GMT 40.645081 -73.803558 0 28 12
2022-08-19 20:35:23 GMT 40.644970 -73.803627 0 32 11
2022-08-19 20:35:22 GMT 40.644920 -73.803612 0 46 13
2022-08-19 20:35:21 GMT 40.644859 -73.803658 0 45 18
2022-08-19 20:35:18 GMT 40.644772 -73.803802 0 32 16
2022-08-19 20:35:17 GMT 40.644699 -73.803871 0 20 14
2022-08-19 20:35:15 GMT 40.644600 -73.803940 0 352 14
2022-08-19 20:35:14 GMT 40.644482 -73.803970 0 329 9
2022-08-19 20:35:13 GMT 40.644402 -73.803963 0 316 10
2022-08-19 20:35:11 GMT 40.644348 -73.803947 0 309 12
2022-08-19 20:35:10 GMT 40.644321 -73.803909 0 307 13
2022-08-19 20:35:08 GMT 40.644260 -73.803833 0 299 20
2022-08-19 20:35:07 GMT 40.644180 -73.803589 0 307 18
2022-08-19 20:35:05 GMT 40.644112 -73.803513 0 302 17
2022-08-19 20:35:04 GMT 40.644032 -73.803360 0 302 19
2022-08-19 20:35:02 GMT 40.643990 -73.803284 0 300 21
2022-08-19 20:35:01 GMT 40.643929 -73.803192 0 297 21
2022-08-19 20:35:00 GMT 40.643879 -73.803062 0 296 20
2022-08-19 20:34:58 GMT 40.643791 -73.802834 0 300 18
2022-08-19 20:34:57 GMT 40.643719 -73.802658 0 300 22
2022-08-19 20:34:55 GMT 40.643639 -73.802559 0 294 22
2022-08-19 20:34:54 GMT 40.643608 -73.802422 0 298 22
2022-08-19 20:34:52 GMT 40.643520 -73.802162 0 306 18
2022-08-19 20:34:51 GMT 40.643440 -73.802078 0 298 17
2022-08-19 20:34:50 GMT 40.643372 -73.801918 0 299 19
2022-08-19 20:34:48 GMT 40.643341 -73.801819 0 299 20
2022-08-19 20:34:46 GMT 40.643242 -73.801598 0 300 19
2022-08-19 20:34:44 GMT 40.643139 -73.801399 0 297 17
2022-08-19 20:34:43 GMT 40.643108 -73.801323 0 298 19
2022-08-19 20:34:42 GMT 40.643040 -73.801117 0 303 17
2022-08-19 20:34:40 GMT 40.642941 -73.800949 0 297 17
2022-08-19 20:34:38 GMT 40.642899 -73.800850 0 299 17
2022-08-19 20:34:37 GMT 40.642830 -73.800720 0 295 20
2022-08-19 20:34:35 GMT 40.642792 -73.800613 0 296 21
2022-08-19 20:34:33 GMT 40.642700 -73.800346 0 303 17
2022-08-19 20:34:32 GMT 40.642651 -73.800270 0 305 16
2022-08-19 20:34:31 GMT 40.642590 -73.800140 0 309 20
2022-08-19 20:34:29 GMT 40.642540 -73.800056 0 308 20
2022-08-19 20:34:28 GMT 40.642471 -73.799980 0 307 20
2022-08-19 20:34:27 GMT 40.642410 -73.799873 0 307 19
2022-08-19 20:34:25 GMT 40.642300 -73.799667 0 314 16
2022-08-19 20:34:24 GMT 40.642269 -73.799591 0 321 17
2022-08-19 20:34:22 GMT 40.642151 -73.799469 0 317 17
2022-08-19 20:34:21 GMT 40.642078 -73.799438 0 309 19
2022-08-19 20:34:19 GMT 40.641960 -73.799240 0 310 15
2022-08-19 20:34:18 GMT 40.641911 -73.799171 0 309 15
2022-08-19 20:34:17 GMT 40.641819 -73.799049 0 300 15
2022-08-19 20:34:14 GMT 40.641739 -73.798889 0 303 16
2022-08-19 20:34:13 GMT 40.641701 -73.798798 0 303 16
2022-08-19 20:34:11 GMT 40.641590 -73.798622 0 279 13
2022-08-19 20:34:10 GMT 40.641560 -73.798477 0 278 14
2022-08-19 20:34:08 GMT 40.641541 -73.798370 0 277 12
2022-08-19 20:34:07 GMT 40.641548 -73.798317 0 282 15
2022-08-19 20:34:05 GMT 40.641510 -73.798149 0 274 16
2022-08-19 20:34:04 GMT 40.641510 -73.798080 0 272 18
2022-08-19 20:34:02 GMT 40.641499 -73.797829 0 264 16
2022-08-19 20:34:01 GMT 40.641499 -73.797729 0 264 16
2022-08-19 20:34:00 GMT 40.641510 -73.797630 0 263 15
2022-08-19 20:33:58 GMT 40.641521 -73.797470 0 262 17
2022-08-19 20:33:57 GMT 40.641560 -73.797234 0 273 14
2022-08-19 20:33:55 GMT 40.641571 -73.797142 0 276 13
2022-08-19 20:33:54 GMT 40.641548 -73.797043 0 284 12
2022-08-19 20:33:53 GMT 40.641571 -73.796959 0 293 11
2022-08-19 20:33:51 GMT 40.641529 -73.796860 0 291 14
2022-08-19 20:33:50 GMT 40.641521 -73.796783 0 296 14
2022-08-19 20:33:49 GMT 40.641449 -73.796600 0 296 12
2022-08-19 20:33:47 GMT 40.641399 -73.796494 0 295 15
2022-08-19 20:33:46 GMT 40.641392 -73.796387 0 308 15
2022-08-19 20:33:43 GMT 40.641300 -73.796227 0 308 15
2022-08-19 20:33:42 GMT 40.641201 -73.796173 0 290 13
2022-08-19 20:33:40 GMT 40.641159 -73.796028 0 295 14
2022-08-19 20:33:39 GMT 40.641171 -73.795952 0 301 15
2022-08-19 20:33:38 GMT 40.641102 -73.795776 0 304 14
2022-08-19 20:33:36 GMT 40.641048 -73.795738 0 298 16
2022-08-19 20:33:35 GMT 40.640991 -73.795509 0 311 11
2022-08-19 20:33:33 GMT 40.640942 -73.795479 0 303 11
2022-08-19 20:33:31 GMT 40.640869 -73.795380 0 295 11
2022-08-19 20:33:30 GMT 40.640862 -73.795326 0 297 14
2022-08-19 20:33:29 GMT 40.640808 -73.795120 0 307 9
2022-08-19 20:33:27 GMT 40.640781 -73.795113 0 303 10
2022-08-19 20:33:25 GMT 40.640709 -73.795029 0 292 14
2022-08-19 20:33:24 GMT 40.640671 -73.794838 0 306 11
2022-08-19 20:33:22 GMT 40.640652 -73.794769 0 302 11
2022-08-19 20:33:21 GMT 40.640591 -73.794769 0 296 12
2022-08-19 20:33:20 GMT 40.640541 -73.794594 0 299 7
2022-08-19 20:33:18 GMT 40.640511 -73.794571 0 299 8
2022-08-19 20:33:16 GMT 40.640511 -73.794502 0 305 13
2022-08-19 20:33:15 GMT 40.640480 -73.794456 0 300 13
2022-08-19 20:33:13 GMT 40.640411 -73.794319 0 303 11
2022-08-19 20:33:12 GMT 40.640400 -73.794243 0 308 11
2022-08-19 20:33:10 GMT 40.640331 -73.794098 0 308 9
2022-08-19 20:33:09 GMT 40.640308 -73.794060 0 304 9
2022-08-19 20:33:08 GMT 40.640228 -73.793991 0 295 9
2022-08-19 20:33:06 GMT 40.640209 -73.793938 0 296 8
2022-08-19 20:33:05 GMT 40.640179 -73.793839 0 304 9
2022-08-19 20:33:03 GMT 40.640148 -73.793747 0 304 6
2022-08-19 20:33:02 GMT 40.640129 -73.793732 0 301 6
2022-08-19 20:33:01 GMT 40.640110 -73.793678 0 302 9
2022-08-19 20:32:59 GMT 40.640079 -73.793640 0 301 10
2022-08-19 20:32:58 GMT 40.640018 -73.793510 0 293 9
2022-08-19 20:32:56 GMT 40.639999 -73.793480 0 294 10
2022-08-19 20:32:55 GMT 40.639961 -73.793358 0 299 8
2022-08-19 20:32:53 GMT 40.639938 -73.793320 0 302 9
2022-08-19 20:32:52 GMT 40.639931 -73.793259 0 308 8
2022-08-19 20:32:50 GMT 40.639881 -73.793182 0 303 7
2022-08-19 20:32:48 GMT 40.639832 -73.793121 0 294 8
2022-08-19 20:32:47 GMT 40.639801 -73.793083 0 294 8
2022-08-19 20:32:46 GMT 40.639778 -73.792992 0 285 9
2022-08-19 20:32:44 GMT 40.639740 -73.792900 0 269 10
2022-08-19 20:32:43 GMT 40.639702 -73.792831 0 249 9
2022-08-19 20:32:41 GMT 40.639740 -73.792702 0 244 7
2022-08-19 20:32:39 GMT 40.639721 -73.792671 0 234 10
2022-08-19 20:32:38 GMT 40.639751 -73.792603 0 227 8
2022-08-19 20:32:36 GMT 40.639778 -73.792526 0 223 9
2022-08-19 20:32:35 GMT 40.639809 -73.792480 0 220 9
2022-08-19 20:32:34 GMT 40.639851 -73.792374 0 217 10
2022-08-19 20:32:32 GMT 40.639950 -73.792381 0 222 9
2022-08-19 20:32:30 GMT 40.640011 -73.792313 0 222 8
2022-08-19 20:32:29 GMT 40.640030 -73.792282 0 222 8
2022-08-19 20:32:28 GMT 40.640060 -73.792229 0 222 8
2022-08-19 20:32:26 GMT 40.640110 -73.792107 0 222 8
2022-08-19 20:32:25 GMT 40.640160 -73.792061 0 222 8

Making use of Plane Finder data

You are free to use the raw flight data, aircraft information and images provided in this report for your own purposes provided the data is correctly attributed to Plane Finder. We ask that you please credit Plane Finder and link to planefinder.net in close proximity to the content.

Optionally one of the following logos (no smaller then 150x24px) can be used and must link to planefinder.net

Embedding the Plane Finder map

You are welcome to embed the Plane Finder playback map on your website to offer visitors a more interactive experience. We suggest using the following HTML code:

<iframe src="//planefinder.net/data/report/DL1281-N142DU-7700-squawk-2022-08-19/map" width="800" height="600" seamless="seamless"></iframe>

Where our data comes from

Plane Finder has a global network of data feeds and antenna radars that receive data broadcast directly from aircraft. The primary technologies used are ADS-B and MLAT. We also show feeds from the FAA and a FLARM glider feed.

Click here to find out more about the Plane Finder network.

How we collect our data